<?xml version="1.0" encoding="UTF-8" standalone="no" ?>
<gpx xmlns="http://www.topografix.com/GPX/1/1" xmlns:xsi="http://www.w3.org/2001/XMLSchema-instance" xsi:schemaLocation="http://www.topografix.com/GPX/1/1 http://www.topografix.com/GPX/1/1/gpx.xsd" version="1.1" creator="VisuGPX - https://www.visugpx.com">
  <metadata>
    <name>Pic du col Taillat</name>
    <desc><![CDATA[Pic du col Taillat]]></desc>
  </metadata>
  <trk>
    <name><![CDATA[Rando-course]]></name>
    <cmt><![CDATA[Pla de Montcam raquettes]]></cmt>
    <trkseg>
      <trkpt lat="42.76744" lon="1.5727">
        <ele>944.15209960938</ele>
        <time>2012-03-10T09:09:19Z</time>
      </trkpt>
      <trkpt lat="42.76744" lon="1.5727">
        <ele>944.15209960938</ele>
        <time>2012-03-10T09:09:20Z</time>
      </trkpt>
      <trkpt lat="42.76747" lon="1.57271">
        <ele>945.11328125</ele>
        <time>2012-03-10T09:09:25Z</time>
      </trkpt>
      <trkpt lat="42.76759" lon="1.57271">
        <ele>947.03588867188</ele>
        <time>2012-03-10T09:09:36Z</time>
      </trkpt>
      <trkpt lat="42.76762" lon="1.57273">
        <ele>947.03588867188</ele>
        <time>2012-03-10T09:09:38Z</time>
      </trkpt>
      <trkpt lat="42.76764" lon="1.57276">
        <ele>948.95849609375</ele>
        <time>2012-03-10T09:09:41Z</time>
      </trkpt>
      <trkpt lat="42.76758" lon="1.57282">
        <ele>951.84252929688</ele>
        <time>2012-03-10T09:09:47Z</time>
      </trkpt>
      <trkpt lat="42.76757" lon="1.57283">
        <ele>952.8037109375</ele>
        <time>2012-03-10T09:09:48Z</time>
      </trkpt>
      <trkpt lat="42.76745" lon="1.57288">
        <ele>956.16845703125</ele>
        <time>2012-03-10T09:09:56Z</time>
      </trkpt>
      <trkpt lat="42.76736" lon="1.5729">
        <ele>959.05249023438</ele>
        <time>2012-03-10T09:10:03Z</time>
      </trkpt>
      <trkpt lat="42.76727" lon="1.57291">
        <ele>961.9365234375</ele>
        <time>2012-03-10T09:10:09Z</time>
      </trkpt>
      <trkpt lat="42.76722" lon="1.57292">
        <ele>962.89770507812</ele>
        <time>2012-03-10T09:10:13Z</time>
      </trkpt>
      <trkpt lat="42.76711" lon="1.57293">
        <ele>964.8203125</ele>
        <time>2012-03-10T09:10:21Z</time>
      </trkpt>
      <trkpt lat="42.76695" lon="1.57293">
        <ele>968.66552734375</ele>
        <time>2012-03-10T09:10:32Z</time>
      </trkpt>
      <trkpt lat="42.76683" lon="1.57294">
        <ele>972.0302734375</ele>
        <time>2012-03-10T09:10:41Z</time>
      </trkpt>
      <trkpt lat="42.76682" lon="1.57294">
        <ele>972.51098632812</ele>
        <time>2012-03-10T09:10:42Z</time>
      </trkpt>
      <trkpt lat="42.76678" lon="1.57296">
        <ele>973.47241210938</ele>
        <time>2012-03-10T09:10:48Z</time>
      </trkpt>
      <trkpt lat="42.76671" lon="1.57297">
        <ele>974.43359375</ele>
        <time>2012-03-10T09:10:54Z</time>
      </trkpt>
      <trkpt lat="42.76661" lon="1.57306">
        <ele>974.43359375</ele>
        <time>2012-03-10T09:11:04Z</time>
      </trkpt>
      <trkpt lat="42.76654" lon="1.57313">
        <ele>975.39477539062</ele>
        <time>2012-03-10T09:11:11Z</time>
      </trkpt>
      <trkpt lat="42.76648" lon="1.57325">
        <ele>976.35620117188</ele>
        <time>2012-03-10T09:11:20Z</time>
      </trkpt>
      <trkpt lat="42.76643" lon="1.57336">
        <ele>981.64331054688</ele>
        <time>2012-03-10T09:11:27Z</time>
      </trkpt>
      <trkpt lat="42.76641" lon="1.57345">
        <ele>984.52734375</ele>
        <time>2012-03-10T09:11:32Z</time>
      </trkpt>
      <trkpt lat="42.76642" lon="1.57352">
        <ele>984.04663085938</ele>
        <time>2012-03-10T09:11:39Z</time>
      </trkpt>
      <trkpt lat="42.76646" lon="1.57359">
        <ele>985.48852539062</ele>
        <time>2012-03-10T09:11:46Z</time>
      </trkpt>
      <trkpt lat="42.76651" lon="1.57366">
        <ele>986.44995117188</ele>
        <time>2012-03-10T09:11:53Z</time>
      </trkpt>
      <trkpt lat="42.76657" lon="1.57372">
        <ele>986.44995117188</ele>
        <time>2012-03-10T09:11:59Z</time>
      </trkpt>
      <trkpt lat="42.76663" lon="1.57379">
        <ele>986.93041992188</ele>
        <time>2012-03-10T09:12:07Z</time>
      </trkpt>
      <trkpt lat="42.76669" lon="1.57387">
        <ele>987.4111328125</ele>
        <time>2012-03-10T09:12:14Z</time>
      </trkpt>
      <trkpt lat="42.76673" lon="1.57396">
        <ele>988.37280273438</ele>
        <time>2012-03-10T09:12:22Z</time>
      </trkpt>
      <trkpt lat="42.76674" lon="1.57405">
        <ele>988.37280273438</ele>
        <time>2012-03-10T09:12:29Z</time>
      </trkpt>
      <trkpt lat="42.76676" lon="1.57413">
        <ele>988.37280273438</ele>
        <time>2012-03-10T09:12:35Z</time>
      </trkpt>
      <trkpt lat="42.76677" lon="1.57419">
        <ele>989.333984375</ele>
        <time>2012-03-10T09:12:40Z</time>
      </trkpt>
      <trkpt lat="42.76679" lon="1.57426">
        <ele>989.333984375</ele>
        <time>2012-03-10T09:12:46Z</time>
      </trkpt>
      <trkpt lat="42.76682" lon="1.57433">
        <ele>990.29541015625</ele>
        <time>2012-03-10T09:12:52Z</time>
      </trkpt>
      <trkpt lat="42.76685" lon="1.57438">
        <ele>991.25659179688</ele>
        <time>2012-03-10T09:12:57Z</time>
      </trkpt>
      <trkpt lat="42.76689" lon="1.57444">
        <ele>993.17919921875</ele>
        <time>2012-03-10T09:13:04Z</time>
      </trkpt>
      <trkpt lat="42.76694" lon="1.57451">
        <ele>994.140625</ele>
        <time>2012-03-10T09:13:11Z</time>
      </trkpt>
      <trkpt lat="42.76698" lon="1.57456">
        <ele>996.5439453125</ele>
        <time>2012-03-10T09:13:17Z</time>
      </trkpt>
      <trkpt lat="42.76699" lon="1.57463">
        <ele>997.98583984375</ele>
        <time>2012-03-10T09:13:23Z</time>
      </trkpt>
      <trkpt lat="42.76698" lon="1.5747">
        <ele>998.94702148438</ele>
        <time>2012-03-10T09:13:30Z</time>
      </trkpt>
      <trkpt lat="42.76699" lon="1.57476">
        <ele>1000.3891601562</ele>
        <time>2012-03-10T09:13:37Z</time>
      </trkpt>
      <trkpt lat="42.76703" lon="1.57478">
        <ele>1001.3503417969</ele>
        <time>2012-03-10T09:13:43Z</time>
      </trkpt>
      <trkpt lat="42.76707" lon="1.57479">
        <ele>1003.7536621094</ele>
        <time>2012-03-10T09:13:49Z</time>
      </trkpt>
      <trkpt lat="42.7671" lon="1.57478">
        <ele>1004.2346191406</ele>
        <time>2012-03-10T09:13:54Z</time>
      </trkpt>
      <trkpt lat="42.76713" lon="1.57481">
        <ele>1004.7150878906</ele>
        <time>2012-03-10T09:13:59Z</time>
      </trkpt>
      <trkpt lat="42.76714" lon="1.57486">
        <ele>1006.6376953125</ele>
        <time>2012-03-10T09:14:05Z</time>
      </trkpt>
      <trkpt lat="42.76712" lon="1.57494">
        <ele>1010.4829101562</ele>
        <time>2012-03-10T09:14:13Z</time>
      </trkpt>
      <trkpt lat="42.76711" lon="1.575">
        <ele>1012.4055175781</ele>
        <time>2012-03-10T09:14:19Z</time>
      </trkpt>
      <trkpt lat="42.76709" lon="1.57506">
        <ele>1014.8088378906</ele>
        <time>2012-03-10T09:14:24Z</time>
      </trkpt>
      <trkpt lat="42.76708" lon="1.5751">
        <ele>1016.2507324219</ele>
        <time>2012-03-10T09:14:29Z</time>
      </trkpt>
      <trkpt lat="42.76707" lon="1.57515">
        <ele>1019.134765625</ele>
        <time>2012-03-10T09:14:35Z</time>
      </trkpt>
      <trkpt lat="42.76704" lon="1.5752">
        <ele>1022.4995117188</ele>
        <time>2012-03-10T09:14:42Z</time>
      </trkpt>
      <trkpt lat="42.76702" lon="1.57524">
        <ele>1023.4609375</ele>
        <time>2012-03-10T09:14:47Z</time>
      </trkpt>
      <trkpt lat="42.76696" lon="1.57527">
        <ele>1027.3061523438</ele>
        <time>2012-03-10T09:14:53Z</time>
      </trkpt>
      <trkpt lat="42.76692" lon="1.57529">
        <ele>1033.0737304688</ele>
        <time>2012-03-10T09:15:00Z</time>
      </trkpt>
      <trkpt lat="42.76689" lon="1.5753">
        <ele>1036.4387207031</ele>
        <time>2012-03-10T09:15:05Z</time>
      </trkpt>
      <trkpt lat="42.76685" lon="1.57531">
        <ele>1038.8420410156</ele>
        <time>2012-03-10T09:15:12Z</time>
      </trkpt>
      <trkpt lat="42.76681" lon="1.57532">
        <ele>1041.2451171875</ele>
        <time>2012-03-10T09:15:18Z</time>
      </trkpt>
      <trkpt lat="42.76678" lon="1.57533">
        <ele>1042.6872558594</ele>
        <time>2012-03-10T09:15:23Z</time>
      </trkpt>
      <trkpt lat="42.76674" lon="1.57535">
        <ele>1043.6484375</ele>
        <time>2012-03-10T09:15:29Z</time>
      </trkpt>
      <trkpt lat="42.7667" lon="1.57538">
        <ele>1043.1677246094</ele>
        <time>2012-03-10T09:15:35Z</time>
      </trkpt>
      <trkpt lat="42.76664" lon="1.57543">
        <ele>1039.8032226562</ele>
        <time>2012-03-10T09:15:45Z</time>
      </trkpt>
      <trkpt lat="42.76662" lon="1.57546">
        <ele>1040.7644042969</ele>
        <time>2012-03-10T09:15:50Z</time>
      </trkpt>
      <trkpt lat="42.76661" lon="1.57552">
        <ele>1042.2065429688</ele>
        <time>2012-03-10T09:15:57Z</time>
      </trkpt>
      <trkpt lat="42.76659" lon="1.57555">
        <ele>1044.1291503906</ele>
        <time>2012-03-10T09:16:01Z</time>
      </trkpt>
      <trkpt lat="42.76657" lon="1.57559">
        <ele>1046.0517578125</ele>
        <time>2012-03-10T09:16:06Z</time>
      </trkpt>
      <trkpt lat="42.76656" lon="1.57562">
        <ele>1047.4936523438</ele>
        <time>2012-03-10T09:16:10Z</time>
      </trkpt>
      <trkpt lat="42.76655" lon="1.57565">
        <ele>1049.8969726562</ele>
        <time>2012-03-10T09:16:15Z</time>
      </trkpt>
      <trkpt lat="42.76654" lon="1.5757">
        <ele>1051.8195800781</ele>
        <time>2012-03-10T09:16:22Z</time>
      </trkpt>
      <trkpt lat="42.76649" lon="1.57572">
        <ele>1056.6262207031</ele>
        <time>2012-03-10T09:16:28Z</time>
      </trkpt>
      <trkpt lat="42.76644" lon="1.57572">
        <ele>1062.3940429688</ele>
        <time>2012-03-10T09:16:36Z</time>
      </trkpt>
      <trkpt lat="42.7664" lon="1.57574">
        <ele>1063.35546875</ele>
        <time>2012-03-10T09:16:43Z</time>
      </trkpt>
      <trkpt lat="42.76638" lon="1.57579">
        <ele>1060.4714355469</ele>
        <time>2012-03-10T09:16:49Z</time>
      </trkpt>
      <trkpt lat="42.76635" lon="1.57583">
        <ele>1058.068359375</ele>
        <time>2012-03-10T09:16:54Z</time>
      </trkpt>
      <trkpt lat="42.76634" lon="1.57587">
        <ele>1054.2231445312</ele>
        <time>2012-03-10T09:17:00Z</time>
      </trkpt>
      <trkpt lat="42.76633" lon="1.57591">
        <ele>1052.7810058594</ele>
        <time>2012-03-10T09:17:05Z</time>
      </trkpt>
      <trkpt lat="42.76632" lon="1.57593">
        <ele>1051.3388671875</ele>
        <time>2012-03-10T09:17:11Z</time>
      </trkpt>
      <trkpt lat="42.76633" lon="1.57595">
        <ele>1052.7810058594</ele>
        <time>2012-03-10T09:17:16Z</time>
      </trkpt>
      <trkpt lat="42.76634" lon="1.57598">
        <ele>1053.7424316406</ele>
        <time>2012-03-10T09:17:21Z</time>
      </trkpt>
      <trkpt lat="42.76634" lon="1.57602">
        <ele>1055.6650390625</ele>
        <time>2012-03-10T09:17:27Z</time>
      </trkpt>
      <trkpt lat="42.76634" lon="1.57605">
        <ele>1059.0295410156</ele>
        <time>2012-03-10T09:17:32Z</time>
      </trkpt>
      <trkpt lat="42.76633" lon="1.57607">
        <ele>1061.9135742188</ele>
        <time>2012-03-10T09:17:36Z</time>
      </trkpt>
      <trkpt lat="42.7663" lon="1.57612">
        <ele>1064.3166503906</ele>
        <time>2012-03-10T09:17:45Z</time>
      </trkpt>
      <trkpt lat="42.7663" lon="1.57615">
        <ele>1066.2392578125</ele>
        <time>2012-03-10T09:17:49Z</time>
      </trkpt>
      <trkpt lat="42.76629" lon="1.5762">
        <ele>1069.1235351562</ele>
        <time>2012-03-10T09:17:55Z</time>
      </trkpt>
      <trkpt lat="42.7663" lon="1.57624">
        <ele>1070.0847167969</ele>
        <time>2012-03-10T09:18:01Z</time>
      </trkpt>
      <trkpt lat="42.7663" lon="1.57629">
        <ele>1070.5654296875</ele>
        <time>2012-03-10T09:18:06Z</time>
      </trkpt>
      <trkpt lat="42.76629" lon="1.57634">
        <ele>1070.5654296875</ele>
        <time>2012-03-10T09:18:11Z</time>
      </trkpt>
      <trkpt lat="42.76627" lon="1.57639">
        <ele>1069.1235351562</ele>
        <time>2012-03-10T09:18:16Z</time>
      </trkpt>
      <trkpt lat="42.76625" lon="1.57645">
        <ele>1071.0461425781</ele>
        <time>2012-03-10T09:18:22Z</time>
      </trkpt>
      <trkpt lat="42.76625" lon="1.5765">
        <ele>1071.5266113281</ele>
        <time>2012-03-10T09:18:27Z</time>
      </trkpt>
      <trkpt lat="42.76625" lon="1.57658">
        <ele>1073.4494628906</ele>
        <time>2012-03-10T09:18:35Z</time>
      </trkpt>
      <trkpt lat="42.76624" lon="1.57666">
        <ele>1076.8139648438</ele>
        <time>2012-03-10T09:18:42Z</time>
      </trkpt>
      <trkpt lat="42.76624" lon="1.5767">
        <ele>1076.3332519531</ele>
        <time>2012-03-10T09:18:47Z</time>
      </trkpt>
      <trkpt lat="42.76624" lon="1.57676">
        <ele>1076.8139648438</ele>
        <time>2012-03-10T09:18:51Z</time>
      </trkpt>
      <trkpt lat="42.76622" lon="1.57684">
        <ele>1077.2946777344</ele>
        <time>2012-03-10T09:18:58Z</time>
      </trkpt>
      <trkpt lat="42.7662" lon="1.57692">
        <ele>1083.54296875</ele>
        <time>2012-03-10T09:19:04Z</time>
      </trkpt>
      <trkpt lat="42.76619" lon="1.57698">
        <ele>1085.9465332031</ele>
        <time>2012-03-10T09:19:11Z</time>
      </trkpt>
      <trkpt lat="42.76619" lon="1.57702">
        <ele>1087.869140625</ele>
        <time>2012-03-10T09:19:15Z</time>
      </trkpt>
      <trkpt lat="42.76616" lon="1.57703">
        <ele>1092.1950683594</ele>
        <time>2012-03-10T09:19:19Z</time>
      </trkpt>
      <trkpt lat="42.76613" lon="1.57705">
        <ele>1093.15625</ele>
        <time>2012-03-10T09:19:24Z</time>
      </trkpt>
      <trkpt lat="42.7661" lon="1.57708">
        <ele>1093.6369628906</ele>
        <time>2012-03-10T09:19:28Z</time>
      </trkpt>
      <trkpt lat="42.76607" lon="1.57713">
        <ele>1093.6369628906</ele>
        <time>2012-03-10T09:19:32Z</time>
      </trkpt>
      <trkpt lat="42.76604" lon="1.57715">
        <ele>1093.6369628906</ele>
        <time>2012-03-10T09:19:35Z</time>
      </trkpt>
      <trkpt lat="42.76601" lon="1.5772">
        <ele>1093.15625</ele>
        <time>2012-03-10T09:19:40Z</time>
      </trkpt>
      <trkpt lat="42.76598" lon="1.57722">
        <ele>1093.15625</ele>
        <time>2012-03-10T09:19:45Z</time>
      </trkpt>
      <trkpt lat="42.76591" lon="1.57723">
        <ele>1096.5209960938</ele>
        <time>2012-03-10T09:19:50Z</time>
      </trkpt>
      <trkpt lat="42.76587" lon="1.57725">
        <ele>1098.9240722656</ele>
        <time>2012-03-10T09:19:55Z</time>
      </trkpt>
      <trkpt lat="42.76581" lon="1.57725">
        <ele>1100.3664550781</ele>
        <time>2012-03-10T09:20:02Z</time>
      </trkpt>
      <trkpt lat="42.76577" lon="1.57725">
        <ele>1097.0014648438</ele>
        <time>2012-03-10T09:20:06Z</time>
      </trkpt>
      <trkpt lat="42.76573" lon="1.57727">
        <ele>1095.0788574219</ele>
        <time>2012-03-10T09:20:11Z</time>
      </trkpt>
      <trkpt lat="42.7657" lon="1.57728">
        <ele>1094.1176757812</ele>
        <time>2012-03-10T09:20:15Z</time>
      </trkpt>
      <trkpt lat="42.76566" lon="1.57731">
        <ele>1094.5981445312</ele>
        <time>2012-03-10T09:20:20Z</time>
      </trkpt>
      <trkpt lat="42.76561" lon="1.57733">
        <ele>1098.9240722656</ele>
        <time>2012-03-10T09:20:26Z</time>
      </trkpt>
      <trkpt lat="42.76554" lon="1.57736">
        <ele>1101.8083496094</ele>
        <time>2012-03-10T09:20:32Z</time>
      </trkpt>
      <trkpt lat="42.76546" lon="1.5774">
        <ele>1102.2888183594</ele>
        <time>2012-03-10T09:20:39Z</time>
      </trkpt>
      <trkpt lat="42.7654" lon="1.57747">
        <ele>1103.7309570312</ele>
        <time>2012-03-10T09:20:47Z</time>
      </trkpt>
      <trkpt lat="42.76538" lon="1.57751">
        <ele>1105.1728515625</ele>
        <time>2012-03-10T09:20:51Z</time>
      </trkpt>
      <trkpt lat="42.76535" lon="1.57755">
        <ele>1105.6535644531</ele>
        <time>2012-03-10T09:20:56Z</time>
      </trkpt>
      <trkpt lat="42.76534" lon="1.57759">
        <ele>1107.0954589844</ele>
        <time>2012-03-10T09:21:00Z</time>
      </trkpt>
      <trkpt lat="42.76533" lon="1.57764">
        <ele>1110.4599609375</ele>
        <time>2012-03-10T09:21:05Z</time>
      </trkpt>
      <trkpt lat="42.76532" lon="1.57767">
        <ele>1110.9406738281</ele>
        <time>2012-03-10T09:21:09Z</time>
      </trkpt>
      <trkpt lat="42.7653" lon="1.57772">
        <ele>1111.9020996094</ele>
        <time>2012-03-10T09:21:15Z</time>
      </trkpt>
      <trkpt lat="42.7653" lon="1.57778">
        <ele>1112.86328125</ele>
        <time>2012-03-10T09:21:22Z</time>
      </trkpt>
      <trkpt lat="42.76529" lon="1.57781">
        <ele>1114.3051757812</ele>
        <time>2012-03-10T09:21:27Z</time>
      </trkpt>
      <trkpt lat="42.76531" lon="1.57787">
        <ele>1114.7858886719</ele>
        <time>2012-03-10T09:21:34Z</time>
      </trkpt>
      <trkpt lat="42.76533" lon="1.57791">
        <ele>1115.7473144531</ele>
        <time>2012-03-10T09:21:40Z</time>
      </trkpt>
      <trkpt lat="42.76535" lon="1.57794">
        <ele>1117.189453125</ele>
        <time>2012-03-10T09:21:46Z</time>
      </trkpt>
      <trkpt lat="42.76537" lon="1.57798">
        <ele>1118.1506347656</ele>
        <time>2012-03-10T09:21:52Z</time>
      </trkpt>
      <trkpt lat="42.76539" lon="1.578">
        <ele>1119.5927734375</ele>
        <time>2012-03-10T09:21:57Z</time>
      </trkpt>
      <trkpt lat="42.7654" lon="1.57803">
        <ele>1120.5539550781</ele>
        <time>2012-03-10T09:22:02Z</time>
      </trkpt>
      <trkpt lat="42.76538" lon="1.57807">
        <ele>1122.4765625</ele>
        <time>2012-03-10T09:22:08Z</time>
      </trkpt>
      <trkpt lat="42.76536" lon="1.57811">
        <ele>1124.8798828125</ele>
        <time>2012-03-10T09:22:14Z</time>
      </trkpt>
      <trkpt lat="42.76535" lon="1.57814">
        <ele>1127.763671875</ele>
        <time>2012-03-10T09:22:19Z</time>
      </trkpt>
      <trkpt lat="42.76538" lon="1.57817">
        <ele>1128.7250976562</ele>
        <time>2012-03-10T09:22:26Z</time>
      </trkpt>
      <trkpt lat="42.7654" lon="1.5782">
        <ele>1130.1669921875</ele>
        <time>2012-03-10T09:22:31Z</time>
      </trkpt>
      <trkpt lat="42.7654" lon="1.57824">
        <ele>1130.1669921875</ele>
        <time>2012-03-10T09:22:35Z</time>
      </trkpt>
      <trkpt lat="42.7654" lon="1.5783">
        <ele>1130.1669921875</ele>
        <time>2012-03-10T09:22:41Z</time>
      </trkpt>
      <trkpt lat="42.76541" lon="1.57836">
        <ele>1128.7250976562</ele>
        <time>2012-03-10T09:22:47Z</time>
      </trkpt>
      <trkpt lat="42.76542" lon="1.57842">
        <ele>1128.7250976562</ele>
        <time>2012-03-10T09:22:53Z</time>
      </trkpt>
      <trkpt lat="42.76542" lon="1.57847">
        <ele>1129.6862792969</ele>
        <time>2012-03-10T09:22:59Z</time>
      </trkpt>
      <trkpt lat="42.76545" lon="1.57852">
        <ele>1128.7250976562</ele>
        <time>2012-03-10T09:23:05Z</time>
      </trkpt>
      <trkpt lat="42.76546" lon="1.57856">
        <ele>1127.283203125</ele>
        <time>2012-03-10T09:23:10Z</time>
      </trkpt>
      <trkpt lat="42.7655" lon="1.57862">
        <ele>1126.8024902344</ele>
        <time>2012-03-10T09:23:15Z</time>
      </trkpt>
      <trkpt lat="42.7655" lon="1.5787">
        <ele>1127.283203125</ele>
        <time>2012-03-10T09:23:21Z</time>
      </trkpt>
      <trkpt lat="42.76551" lon="1.57878">
        <ele>1130.6477050781</ele>
        <time>2012-03-10T09:23:28Z</time>
      </trkpt>
      <trkpt lat="42.76553" lon="1.57884">
        <ele>1130.6477050781</ele>
        <time>2012-03-10T09:23:34Z</time>
      </trkpt>
      <trkpt lat="42.76553" lon="1.57889">
        <ele>1133.0510253906</ele>
        <time>2012-03-10T09:23:40Z</time>
      </trkpt>
      <trkpt lat="42.76553" lon="1.57893">
        <ele>1135.4543457031</ele>
        <time>2012-03-10T09:23:45Z</time>
      </trkpt>
      <trkpt lat="42.76552" lon="1.57899">
        <ele>1140.7414550781</ele>
        <time>2012-03-10T09:23:52Z</time>
      </trkpt>
      <trkpt lat="42.7655" lon="1.57904">
        <ele>1144.1062011719</ele>
        <time>2012-03-10T09:23:57Z</time>
      </trkpt>
      <trkpt lat="42.76549" lon="1.57908">
        <ele>1147.470703125</ele>
        <time>2012-03-10T09:24:02Z</time>
      </trkpt>
      <trkpt lat="42.76547" lon="1.57911">
        <ele>1149.3935546875</ele>
        <time>2012-03-10T09:24:07Z</time>
      </trkpt>
      <trkpt lat="42.76545" lon="1.57918">
        <ele>1154.6806640625</ele>
        <time>2012-03-10T09:24:15Z</time>
      </trkpt>
      <trkpt lat="42.76544" lon="1.57921">
        <ele>1155.1613769531</ele>
        <time>2012-03-10T09:24:19Z</time>
      </trkpt>
      <trkpt lat="42.76545" lon="1.57925">
        <ele>1155.6420898438</ele>
        <time>2012-03-10T09:24:23Z</time>
      </trkpt>
      <trkpt lat="42.76547" lon="1.57928">
        <ele>1155.6420898438</ele>
        <time>2012-03-10T09:24:27Z</time>
      </trkpt>
      <trkpt lat="42.76549" lon="1.57933">
        <ele>1155.6420898438</ele>
        <time>2012-03-10T09:24:33Z</time>
      </trkpt>
      <trkpt lat="42.76549" lon="1.57937">
        <ele>1156.1225585938</ele>
        <time>2012-03-10T09:24:37Z</time>
      </trkpt>
      <trkpt lat="42.76548" lon="1.57941">
        <ele>1158.0454101562</ele>
        <time>2012-03-10T09:24:41Z</time>
      </trkpt>
      <trkpt lat="42.76548" lon="1.57947">
        <ele>1161.4099121094</ele>
        <time>2012-03-10T09:24:45Z</time>
      </trkpt>
      <trkpt lat="42.76547" lon="1.57954">
        <ele>1165.2553710938</ele>
        <time>2012-03-10T09:24:50Z</time>
      </trkpt>
      <trkpt lat="42.76547" lon="1.57956">
        <ele>1164.7746582031</ele>
        <time>2012-03-10T09:24:54Z</time>
      </trkpt>
      <trkpt lat="42.76546" lon="1.5796">
        <ele>1164.2939453125</ele>
        <time>2012-03-10T09:24:59Z</time>
      </trkpt>
      <trkpt lat="42.76546" lon="1.57965">
        <ele>1163.3325195312</ele>
        <time>2012-03-10T09:25:05Z</time>
      </trkpt>
      <trkpt lat="42.76544" lon="1.57973">
        <ele>1163.8129882812</ele>
        <time>2012-03-10T09:25:14Z</time>
      </trkpt>
      <trkpt lat="42.76542" lon="1.5798">
        <ele>1165.7360839844</ele>
        <time>2012-03-10T09:25:21Z</time>
      </trkpt>
      <trkpt lat="42.7654" lon="1.57985">
        <ele>1164.2939453125</ele>
        <time>2012-03-10T09:25:26Z</time>
      </trkpt>
      <trkpt lat="42.76537" lon="1.57991">
        <ele>1166.697265625</ele>
        <time>2012-03-10T09:25:33Z</time>
      </trkpt>
      <trkpt lat="42.76534" lon="1.57994">
        <ele>1167.6584472656</ele>
        <time>2012-03-10T09:25:38Z</time>
      </trkpt>
      <trkpt lat="42.76532" lon="1.57998">
        <ele>1169.1005859375</ele>
        <time>2012-03-10T09:25:44Z</time>
      </trkpt>
      <trkpt lat="42.7653" lon="1.58003">
        <ele>1171.5036621094</ele>
        <time>2012-03-10T09:25:50Z</time>
      </trkpt>
      <trkpt lat="42.76529" lon="1.58008">
        <ele>1172.4650878906</ele>
        <time>2012-03-10T09:25:55Z</time>
      </trkpt>
      <trkpt lat="42.76527" lon="1.58016">
        <ele>1174.8684082031</ele>
        <time>2012-03-10T09:26:03Z</time>
      </trkpt>
      <trkpt lat="42.76525" lon="1.58025">
        <ele>1179.1940917969</ele>
        <time>2012-03-10T09:26:09Z</time>
      </trkpt>
      <trkpt lat="42.76524" lon="1.58031">
        <ele>1180.6364746094</ele>
        <time>2012-03-10T09:26:16Z</time>
      </trkpt>
      <trkpt lat="42.76524" lon="1.58039">
        <ele>1179.6748046875</ele>
        <time>2012-03-10T09:26:24Z</time>
      </trkpt>
      <trkpt lat="42.76523" lon="1.58047">
        <ele>1179.6748046875</ele>
        <time>2012-03-10T09:26:32Z</time>
      </trkpt>
      <trkpt lat="42.76525" lon="1.58053">
        <ele>1178.7136230469</ele>
        <time>2012-03-10T09:26:38Z</time>
      </trkpt>
      <trkpt lat="42.76524" lon="1.5806">
        <ele>1178.2329101562</ele>
        <time>2012-03-10T09:26:43Z</time>
      </trkpt>
      <trkpt lat="42.76525" lon="1.58064">
        <ele>1178.7136230469</ele>
        <time>2012-03-10T09:26:48Z</time>
      </trkpt>
      <trkpt lat="42.76526" lon="1.58068">
        <ele>1181.1171875</ele>
        <time>2012-03-10T09:26:53Z</time>
      </trkpt>
      <trkpt lat="42.76525" lon="1.58075">
        <ele>1187.3654785156</ele>
        <time>2012-03-10T09:27:00Z</time>
      </trkpt>
      <trkpt lat="42.76528" lon="1.58078">
        <ele>1191.2106933594</ele>
        <time>2012-03-10T09:27:05Z</time>
      </trkpt>
      <trkpt lat="42.7653" lon="1.58081">
        <ele>1190.7299804688</ele>
        <time>2012-03-10T09:27:11Z</time>
      </trkpt>
      <trkpt lat="42.76531" lon="1.58086">
        <ele>1192.6528320312</ele>
        <time>2012-03-10T09:27:18Z</time>
      </trkpt>
      <trkpt lat="42.76533" lon="1.58088">
        <ele>1191.69140625</ele>
        <time>2012-03-10T09:27:22Z</time>
      </trkpt>
      <trkpt lat="42.76533" lon="1.58091">
        <ele>1191.2106933594</ele>
        <time>2012-03-10T09:27:27Z</time>
      </trkpt>
      <trkpt lat="42.76534" lon="1.58095">
        <ele>1192.1721191406</ele>
        <time>2012-03-10T09:27:34Z</time>
      </trkpt>
      <trkpt lat="42.76536" lon="1.58101">
        <ele>1190.2495117188</ele>
        <time>2012-03-10T09:27:40Z</time>
      </trkpt>
      <trkpt lat="42.76537" lon="1.58105">
        <ele>1190.7299804688</ele>
        <time>2012-03-10T09:27:44Z</time>
      </trkpt>
      <trkpt lat="42.76538" lon="1.58108">
        <ele>1190.7299804688</ele>
        <time>2012-03-10T09:27:50Z</time>
      </trkpt>
      <trkpt lat="42.76537" lon="1.58115">
        <ele>1196.4982910156</ele>
        <time>2012-03-10T09:27:57Z</time>
      </trkpt>
      <trkpt lat="42.76537" lon="1.58118">
        <ele>1198.4206542969</ele>
        <time>2012-03-10T09:28:01Z</time>
      </trkpt>
      <trkpt lat="42.76537" lon="1.58124">
        <ele>1199.8627929688</ele>
        <time>2012-03-10T09:28:06Z</time>
      </trkpt>
      <trkpt lat="42.76537" lon="1.58127">
        <ele>1201.3046875</ele>
        <time>2012-03-10T09:28:10Z</time>
      </trkpt>
      <trkpt lat="42.76537" lon="1.58131">
        <ele>1205.1499023438</ele>
        <time>2012-03-10T09:28:16Z</time>
      </trkpt>
      <trkpt lat="42.76536" lon="1.5814">
        <ele>1207.0725097656</ele>
        <time>2012-03-10T09:28:28Z</time>
      </trkpt>
      <trkpt lat="42.76534" lon="1.58149">
        <ele>1217.1665039062</ele>
        <time>2012-03-10T09:28:33Z</time>
      </trkpt>
      <trkpt lat="42.76533" lon="1.58155">
        <ele>1220.5310058594</ele>
        <time>2012-03-10T09:28:37Z</time>
      </trkpt>
      <trkpt lat="42.7653" lon="1.58158">
        <ele>1220.0502929688</ele>
        <time>2012-03-10T09:28:43Z</time>
      </trkpt>
      <trkpt lat="42.76529" lon="1.5816">
        <ele>1219.5698242188</ele>
        <time>2012-03-10T09:28:50Z</time>
      </trkpt>
      <trkpt lat="42.76527" lon="1.58164">
        <ele>1221.4921875</ele>
        <time>2012-03-10T09:28:56Z</time>
      </trkpt>
      <trkpt lat="42.76524" lon="1.58167">
        <ele>1226.298828125</ele>
        <time>2012-03-10T09:29:03Z</time>
      </trkpt>
      <trkpt lat="42.76521" lon="1.58168">
        <ele>1226.298828125</ele>
        <time>2012-03-10T09:29:09Z</time>
      </trkpt>
      <trkpt lat="42.76516" lon="1.5817">
        <ele>1223.8955078125</ele>
        <time>2012-03-10T09:29:16Z</time>
      </trkpt>
      <trkpt lat="42.76513" lon="1.58173">
        <ele>1220.5310058594</ele>
        <time>2012-03-10T09:29:22Z</time>
      </trkpt>
      <trkpt lat="42.76514" lon="1.58176">
        <ele>1219.5698242188</ele>
        <time>2012-03-10T09:29:27Z</time>
      </trkpt>
      <trkpt lat="42.76516" lon="1.58179">
        <ele>1221.01171875</ele>
        <time>2012-03-10T09:29:32Z</time>
      </trkpt>
      <trkpt lat="42.76513" lon="1.58182">
        <ele>1221.9729003906</ele>
        <time>2012-03-10T09:29:38Z</time>
      </trkpt>
      <trkpt lat="42.7651" lon="1.58185">
        <ele>1223.4150390625</ele>
        <time>2012-03-10T09:29:42Z</time>
      </trkpt>
      <trkpt lat="42.7651" lon="1.58189">
        <ele>1225.8181152344</ele>
        <time>2012-03-10T09:29:47Z</time>
      </trkpt>
      <trkpt lat="42.7651" lon="1.58193">
        <ele>1226.298828125</ele>
        <time>2012-03-10T09:29:53Z</time>
      </trkpt>
      <trkpt lat="42.76512" lon="1.58196">
        <ele>1224.8569335938</ele>
        <time>2012-03-10T09:29:59Z</time>
      </trkpt>
      <trkpt lat="42.76514" lon="1.58199">
        <ele>1223.8955078125</ele>
        <time>2012-03-10T09:30:04Z</time>
      </trkpt>
      <trkpt lat="42.76513" lon="1.58203">
        <ele>1223.8955078125</ele>
        <time>2012-03-10T09:30:08Z</time>
      </trkpt>
      <trkpt lat="42.76513" lon="1.58209">
        <ele>1224.8569335938</ele>
        <time>2012-03-10T09:30:14Z</time>
      </trkpt>
      <trkpt lat="42.76513" lon="1.58215">
        <ele>1225.3374023438</ele>
        <time>2012-03-10T09:30:20Z</time>
      </trkpt>
      <trkpt lat="42.76515" lon="1.58221">
        <ele>1227.7407226562</ele>
        <time>2012-03-10T09:30:26Z</time>
      </trkpt>
      <trkpt lat="42.76515" lon="1.58224">
        <ele>1227.7407226562</ele>
        <time>2012-03-10T09:30:30Z</time>
      </trkpt>
      <trkpt lat="42.76516" lon="1.58228">
        <ele>1227.7407226562</ele>
        <time>2012-03-10T09:30:35Z</time>
      </trkpt>
      <trkpt lat="42.76516" lon="1.58234">
        <ele>1228.7023925781</ele>
        <time>2012-03-10T09:30:41Z</time>
      </trkpt>
      <trkpt lat="42.76516" lon="1.58238">
        <ele>1228.7023925781</ele>
        <time>2012-03-10T09:30:46Z</time>
      </trkpt>
      <trkpt lat="42.76516" lon="1.58242">
        <ele>1229.1828613281</ele>
        <time>2012-03-10T09:30:50Z</time>
      </trkpt>
      <trkpt lat="42.76515" lon="1.58248">
        <ele>1230.1442871094</ele>
        <time>2012-03-10T09:30:55Z</time>
      </trkpt>
      <trkpt lat="42.76514" lon="1.58253">
        <ele>1230.1442871094</ele>
        <time>2012-03-10T09:30:59Z</time>
      </trkpt>
      <trkpt lat="42.76516" lon="1.58257">
        <ele>1230.625</ele>
        <time>2012-03-10T09:31:04Z</time>
      </trkpt>
      <trkpt lat="42.76515" lon="1.58263">
        <ele>1231.1057128906</ele>
        <time>2012-03-10T09:31:09Z</time>
      </trkpt>
      <trkpt lat="42.76514" lon="1.58268">
        <ele>1232.0668945312</ele>
        <time>2012-03-10T09:31:13Z</time>
      </trkpt>
      <trkpt lat="42.76513" lon="1.58275">
        <ele>1233.5087890625</ele>
        <time>2012-03-10T09:31:19Z</time>
      </trkpt>
      <trkpt lat="42.76511" lon="1.58281">
        <ele>1234.9509277344</ele>
        <time>2012-03-10T09:31:24Z</time>
      </trkpt>
      <trkpt lat="42.7651" lon="1.58287">
        <ele>1240.7185058594</ele>
        <time>2012-03-10T09:31:29Z</time>
      </trkpt>
      <trkpt lat="42.76508" lon="1.58296">
        <ele>1243.6025390625</ele>
        <time>2012-03-10T09:31:36Z</time>
      </trkpt>
      <trkpt lat="42.76508" lon="1.58297">
        <ele>1244.0834960938</ele>
        <time>2012-03-10T09:31:37Z</time>
      </trkpt>
      <trkpt lat="42.76505" lon="1.58305">
        <ele>1249.8513183594</ele>
        <time>2012-03-10T09:31:45Z</time>
      </trkpt>
      <trkpt lat="42.76503" lon="1.5831">
        <ele>1252.7351074219</ele>
        <time>2012-03-10T09:31:51Z</time>
      </trkpt>
      <trkpt lat="42.76503" lon="1.58314">
        <ele>1252.7351074219</ele>
        <time>2012-03-10T09:31:55Z</time>
      </trkpt>
      <trkpt lat="42.76503" lon="1.58319">
        <ele>1252.2543945312</ele>
        <time>2012-03-10T09:32:00Z</time>
      </trkpt>
      <trkpt lat="42.76501" lon="1.58328">
        <ele>1254.6577148438</ele>
        <time>2012-03-10T09:32:07Z</time>
      </trkpt>
      <trkpt lat="42.765" lon="1.58335">
        <ele>1254.1772460938</ele>
        <time>2012-03-10T09:32:12Z</time>
      </trkpt>
      <trkpt lat="42.76498" lon="1.58344">
        <ele>1253.2158203125</ele>
        <time>2012-03-10T09:32:20Z</time>
      </trkpt>
      <trkpt lat="42.76498" lon="1.5835">
        <ele>1251.7739257812</ele>
        <time>2012-03-10T09:32:24Z</time>
      </trkpt>
      <trkpt lat="42.76496" lon="1.58359">
        <ele>1253.2158203125</ele>
        <time>2012-03-10T09:32:31Z</time>
      </trkpt>
      <trkpt lat="42.76495" lon="1.58367">
        <ele>1254.6577148438</ele>
        <time>2012-03-10T09:32:39Z</time>
      </trkpt>
      <trkpt lat="42.76493" lon="1.58374">
        <ele>1256.099609375</ele>
        <time>2012-03-10T09:32:45Z</time>
      </trkpt>
      <trkpt lat="42.76489" lon="1.58381">
        <ele>1258.0224609375</ele>
        <time>2012-03-10T09:32:51Z</time>
      </trkpt>
      <trkpt lat="42.76487" lon="1.58386">
        <ele>1258.5029296875</ele>
        <time>2012-03-10T09:32:57Z</time>
      </trkpt>
      <trkpt lat="42.76485" lon="1.58393">
        <ele>1259.9448242188</ele>
        <time>2012-03-10T09:33:02Z</time>
      </trkpt>
      <trkpt lat="42.76484" lon="1.58398">
        <ele>1259.4643554688</ele>
        <time>2012-03-10T09:33:07Z</time>
      </trkpt>
      <trkpt lat="42.76483" lon="1.58406">
        <ele>1258.5029296875</ele>
        <time>2012-03-10T09:33:14Z</time>
      </trkpt>
      <trkpt lat="42.76482" lon="1.58411">
        <ele>1259.4643554688</ele>
        <time>2012-03-10T09:33:20Z</time>
      </trkpt>
      <trkpt lat="42.76481" lon="1.58416">
        <ele>1261.3872070312</ele>
        <time>2012-03-10T09:33:26Z</time>
      </trkpt>
      <trkpt lat="42.76481" lon="1.58421">
        <ele>1260.42578125</ele>
        <time>2012-03-10T09:33:30Z</time>
      </trkpt>
      <trkpt lat="42.76479" lon="1.58427">
        <ele>1260.42578125</ele>
        <time>2012-03-10T09:33:35Z</time>
      </trkpt>
      <trkpt lat="42.76474" lon="1.58436">
        <ele>1263.3098144531</ele>
        <time>2012-03-10T09:33:43Z</time>
      </trkpt>
      <trkpt lat="42.7647" lon="1.58444">
        <ele>1264.7517089844</ele>
        <time>2012-03-10T09:33:50Z</time>
      </trkpt>
      <trkpt lat="42.76466" lon="1.58449">
        <ele>1267.6354980469</ele>
        <time>2012-03-10T09:33:56Z</time>
      </trkpt>
      <trkpt lat="42.76462" lon="1.58457">
        <ele>1268.1162109375</ele>
        <time>2012-03-10T09:34:03Z</time>
      </trkpt>
      <trkpt lat="42.76457" lon="1.58466">
        <ele>1269.0776367188</ele>
        <time>2012-03-10T09:34:10Z</time>
      </trkpt>
      <trkpt lat="42.76454" lon="1.58474">
        <ele>1269.5583496094</ele>
        <time>2012-03-10T09:34:16Z</time>
      </trkpt>
      <trkpt lat="42.76448" lon="1.58485">
        <ele>1271.0002441406</ele>
        <time>2012-03-10T09:34:24Z</time>
      </trkpt>
      <trkpt lat="42.76445" lon="1.58492">
        <ele>1272.4421386719</ele>
        <time>2012-03-10T09:34:30Z</time>
      </trkpt>
      <trkpt lat="42.76439" lon="1.58496">
        <ele>1276.2875976562</ele>
        <time>2012-03-10T09:34:37Z</time>
      </trkpt>
      <trkpt lat="42.76436" lon="1.58502">
        <ele>1279.1713867188</ele>
        <time>2012-03-10T09:34:43Z</time>
      </trkpt>
      <trkpt lat="42.76432" lon="1.58509">
        <ele>1282.0554199219</ele>
        <time>2012-03-10T09:34:50Z</time>
      </trkpt>
      <trkpt lat="42.76427" lon="1.58514">
        <ele>1282.5361328125</ele>
        <time>2012-03-10T09:34:56Z</time>
      </trkpt>
      <trkpt lat="42.76427" lon="1.58514">
        <ele>1283.0166015625</ele>
        <time>2012-03-10T09:34:57Z</time>
      </trkpt>
      <trkpt lat="42.76424" lon="1.58519">
        <ele>1283.4973144531</ele>
        <time>2012-03-10T09:35:02Z</time>
      </trkpt>
      <trkpt lat="42.76419" lon="1.58523">
        <ele>1284.4587402344</ele>
        <time>2012-03-10T09:35:07Z</time>
      </trkpt>
      <trkpt lat="42.76413" lon="1.58528">
        <ele>1284.939453125</ele>
        <time>2012-03-10T09:35:14Z</time>
      </trkpt>
      <trkpt lat="42.7641" lon="1.5853">
        <ele>1285.9006347656</ele>
        <time>2012-03-10T09:35:19Z</time>
      </trkpt>
      <trkpt lat="42.76406" lon="1.58533">
        <ele>1286.3813476562</ele>
        <time>2012-03-10T09:35:24Z</time>
      </trkpt>
      <trkpt lat="42.76402" lon="1.58536">
        <ele>1286.8618164062</ele>
        <time>2012-03-10T09:35:29Z</time>
      </trkpt>
      <trkpt lat="42.764" lon="1.58538">
        <ele>1286.8618164062</ele>
        <time>2012-03-10T09:35:33Z</time>
      </trkpt>
      <trkpt lat="42.76396" lon="1.58543">
        <ele>1286.8618164062</ele>
        <time>2012-03-10T09:35:39Z</time>
      </trkpt>
      <trkpt lat="42.76393" lon="1.58547">
        <ele>1287.8232421875</ele>
        <time>2012-03-10T09:35:43Z</time>
      </trkpt>
      <trkpt lat="42.76389" lon="1.58551">
        <ele>1287.8232421875</ele>
        <time>2012-03-10T09:35:48Z</time>
      </trkpt>
      <trkpt lat="42.76382" lon="1.58555">
        <ele>1288.3039550781</ele>
        <time>2012-03-10T09:35:54Z</time>
      </trkpt>
      <trkpt lat="42.76379" lon="1.58559">
        <ele>1291.6684570312</ele>
        <time>2012-03-10T09:35:58Z</time>
      </trkpt>
      <trkpt lat="42.76375" lon="1.58562">
        <ele>1294.0720214844</ele>
        <time>2012-03-10T09:36:04Z</time>
      </trkpt>
      <trkpt lat="42.7637" lon="1.58564">
        <ele>1296.4753417969</ele>
        <time>2012-03-10T09:36:10Z</time>
      </trkpt>
      <trkpt lat="42.76366" lon="1.58567">
        <ele>1297.9172363281</ele>
        <time>2012-03-10T09:36:16Z</time>
      </trkpt>
      <trkpt lat="42.76362" lon="1.5857">
        <ele>1299.83984375</ele>
        <time>2012-03-10T09:36:21Z</time>
      </trkpt>
      <trkpt lat="42.7636" lon="1.58572">
        <ele>1301.2817382812</ele>
        <time>2012-03-10T09:36:25Z</time>
      </trkpt>
      <trkpt lat="42.76357" lon="1.58574">
        <ele>1302.2429199219</ele>
        <time>2012-03-10T09:36:30Z</time>
      </trkpt>
      <trkpt lat="42.76356" lon="1.58574">
        <ele>1301.2817382812</ele>
        <time>2012-03-10T09:36:38Z</time>
      </trkpt>
      <trkpt lat="42.76353" lon="1.58575">
        <ele>1300.8010253906</ele>
        <time>2012-03-10T09:36:44Z</time>
      </trkpt>
      <trkpt lat="42.7635" lon="1.58576">
        <ele>1300.8010253906</ele>
        <time>2012-03-10T09:36:48Z</time>
      </trkpt>
      <trkpt lat="42.76345" lon="1.58577">
        <ele>1302.2429199219</ele>
        <time>2012-03-10T09:36:54Z</time>
      </trkpt>
      <trkpt lat="42.76342" lon="1.58575">
        <ele>1303.2043457031</ele>
        <time>2012-03-10T09:36:59Z</time>
      </trkpt>
      <trkpt lat="42.76338" lon="1.58578">
        <ele>1301.7624511719</ele>
        <time>2012-03-10T09:37:05Z</time>
      </trkpt>
      <trkpt lat="42.76333" lon="1.58579">
        <ele>1304.1657714844</ele>
        <time>2012-03-10T09:37:11Z</time>
      </trkpt>
      <trkpt lat="42.76327" lon="1.5858">
        <ele>1307.5302734375</ele>
        <time>2012-03-10T09:37:17Z</time>
      </trkpt>
      <trkpt lat="42.76324" lon="1.5858">
        <ele>1311.3757324219</ele>
        <time>2012-03-10T09:37:21Z</time>
      </trkpt>
      <trkpt lat="42.7632" lon="1.5858">
        <ele>1314.740234375</ele>
        <time>2012-03-10T09:37:27Z</time>
      </trkpt>
      <trkpt lat="42.76316" lon="1.58581">
        <ele>1317.6240234375</ele>
        <time>2012-03-10T09:37:31Z</time>
      </trkpt>
      <trkpt lat="42.76313" lon="1.58582">
        <ele>1320.5080566406</ele>
        <time>2012-03-10T09:37:35Z</time>
      </trkpt>
      <trkpt lat="42.76306" lon="1.58583">
        <ele>1322.9113769531</ele>
        <time>2012-03-10T09:37:43Z</time>
      </trkpt>
      <trkpt lat="42.76305" lon="1.58587">
        <ele>1323.3920898438</ele>
        <time>2012-03-10T09:37:48Z</time>
      </trkpt>
      <trkpt lat="42.76307" lon="1.5859">
        <ele>1323.3920898438</ele>
        <time>2012-03-10T09:37:52Z</time>
      </trkpt>
      <trkpt lat="42.76309" lon="1.58593">
        <ele>1323.8725585938</ele>
        <time>2012-03-10T09:37:58Z</time>
      </trkpt>
      <trkpt lat="42.76311" lon="1.58597">
        <ele>1325.7954101562</ele>
        <time>2012-03-10T09:38:04Z</time>
      </trkpt>
      <trkpt lat="42.76314" lon="1.58605">
        <ele>1322.4306640625</ele>
        <time>2012-03-10T09:38:13Z</time>
      </trkpt>
      <trkpt lat="42.76314" lon="1.58607">
        <ele>1321.4692382812</ele>
        <time>2012-03-10T09:38:19Z</time>
      </trkpt>
      <trkpt lat="42.76317" lon="1.58611">
        <ele>1319.546875</ele>
        <time>2012-03-10T09:38:24Z</time>
      </trkpt>
      <trkpt lat="42.76321" lon="1.58615">
        <ele>1315.2209472656</ele>
        <time>2012-03-10T09:38:30Z</time>
      </trkpt>
      <trkpt lat="42.76324" lon="1.58621">
        <ele>1315.7016601562</ele>
        <time>2012-03-10T09:38:37Z</time>
      </trkpt>
      <trkpt lat="42.76329" lon="1.58628">
        <ele>1314.740234375</ele>
        <time>2012-03-10T09:38:44Z</time>
      </trkpt>
      <trkpt lat="42.76332" lon="1.58634">
        <ele>1315.2209472656</ele>
        <time>2012-03-10T09:38:50Z</time>
      </trkpt>
      <trkpt lat="42.76335" lon="1.5864">
        <ele>1315.7016601562</ele>
        <time>2012-03-10T09:38:55Z</time>
      </trkpt>
      <trkpt lat="42.76338" lon="1.58644">
        <ele>1315.2209472656</ele>
        <time>2012-03-10T09:38:59Z</time>
      </trkpt>
      <trkpt lat="42.76342" lon="1.58648">
        <ele>1314.2595214844</ele>
        <time>2012-03-10T09:39:03Z</time>
      </trkpt>
      <trkpt lat="42.76347" lon="1.58655">
        <ele>1316.1821289062</ele>
        <time>2012-03-10T09:39:11Z</time>
      </trkpt>
      <trkpt lat="42.76353" lon="1.58663">
        <ele>1320.02734375</ele>
        <time>2012-03-10T09:39:19Z</time>
      </trkpt>
      <trkpt lat="42.76357" lon="1.58665">
        <ele>1322.4306640625</ele>
        <time>2012-03-10T09:39:24Z</time>
      </trkpt>
      <trkpt lat="42.76359" lon="1.58667">
        <ele>1323.3920898438</ele>
        <time>2012-03-10T09:39:26Z</time>
      </trkpt>
      <trkpt lat="42.76365" lon="1.58669">
        <ele>1326.7568359375</ele>
        <time>2012-03-10T09:39:32Z</time>
      </trkpt>
      <trkpt lat="42.7637" lon="1.58672">
        <ele>1328.6794433594</ele>
        <time>2012-03-10T09:39:38Z</time>
      </trkpt>
      <trkpt lat="42.76378" lon="1.58678">
        <ele>1333.9665527344</ele>
        <time>2012-03-10T09:39:46Z</time>
      </trkpt>
      <trkpt lat="42.76379" lon="1.58679">
        <ele>1334.9279785156</ele>
        <time>2012-03-10T09:39:47Z</time>
      </trkpt>
      <trkpt lat="42.76384" lon="1.58683">
        <ele>1339.734375</ele>
        <time>2012-03-10T09:39:53Z</time>
      </trkpt>
      <trkpt lat="42.76387" lon="1.58686">
        <ele>1342.1379394531</ele>
        <time>2012-03-10T09:39:57Z</time>
      </trkpt>
      <trkpt lat="42.76391" lon="1.58691">
        <ele>1344.541015625</ele>
        <time>2012-03-10T09:40:03Z</time>
      </trkpt>
      <trkpt lat="42.76396" lon="1.58696">
        <ele>1345.9831542969</ele>
        <time>2012-03-10T09:40:09Z</time>
      </trkpt>
      <trkpt lat="42.76399" lon="1.587">
        <ele>1346.9443359375</ele>
        <time>2012-03-10T09:40:15Z</time>
      </trkpt>
      <trkpt lat="42.76402" lon="1.58705">
        <ele>1348.8669433594</ele>
        <time>2012-03-10T09:40:22Z</time>
      </trkpt>
      <trkpt lat="42.76406" lon="1.58708">
        <ele>1350.7895507812</ele>
        <time>2012-03-10T09:40:27Z</time>
      </trkpt>
      <trkpt lat="42.76409" lon="1.58712">
        <ele>1350.7895507812</ele>
        <time>2012-03-10T09:40:32Z</time>
      </trkpt>
      <trkpt lat="42.7641" lon="1.58714">
        <ele>1350.7895507812</ele>
        <time>2012-03-10T09:40:36Z</time>
      </trkpt>
      <trkpt lat="42.76415" lon="1.58721">
        <ele>1350.7895507812</ele>
        <time>2012-03-10T09:40:44Z</time>
      </trkpt>
      <trkpt lat="42.76418" lon="1.58728">
        <ele>1351.7509765625</ele>
        <time>2012-03-10T09:40:51Z</time>
      </trkpt>
      <trkpt lat="42.76422" lon="1.58733">
        <ele>1350.7895507812</ele>
        <time>2012-03-10T09:40:57Z</time>
      </trkpt>
      <trkpt lat="42.76426" lon="1.58739">
        <ele>1352.2314453125</ele>
        <time>2012-03-10T09:41:04Z</time>
      </trkpt>
      <trkpt lat="42.76431" lon="1.58746">
        <ele>1352.7121582031</ele>
        <time>2012-03-10T09:41:11Z</time>
      </trkpt>
      <trkpt lat="42.76435" lon="1.58749">
        <ele>1354.154296875</ele>
        <time>2012-03-10T09:41:15Z</time>
      </trkpt>
      <trkpt lat="42.76441" lon="1.58756">
        <ele>1356.0769042969</ele>
        <time>2012-03-10T09:41:23Z</time>
      </trkpt>
      <trkpt lat="42.76445" lon="1.5876">
        <ele>1357.5190429688</ele>
        <time>2012-03-10T09:41:29Z</time>
      </trkpt>
      <trkpt lat="42.76449" lon="1.58765">
        <ele>1358.4802246094</ele>
        <time>2012-03-10T09:41:35Z</time>
      </trkpt>
      <trkpt lat="42.76453" lon="1.58771">
        <ele>1360.4028320312</ele>
        <time>2012-03-10T09:41:41Z</time>
      </trkpt>
      <trkpt lat="42.76458" lon="1.58777">
        <ele>1362.3254394531</ele>
        <time>2012-03-10T09:41:47Z</time>
      </trkpt>
      <trkpt lat="42.76461" lon="1.58782">
        <ele>1364.248046875</ele>
        <time>2012-03-10T09:41:52Z</time>
      </trkpt>
      <trkpt lat="42.76466" lon="1.5879">
        <ele>1365.6901855469</ele>
        <time>2012-03-10T09:42:00Z</time>
      </trkpt>
      <trkpt lat="42.76468" lon="1.58798">
        <ele>1366.1706542969</ele>
        <time>2012-03-10T09:42:06Z</time>
      </trkpt>
      <trkpt lat="42.76472" lon="1.58806">
        <ele>1367.1320800781</ele>
        <time>2012-03-10T09:42:13Z</time>
      </trkpt>
      <trkpt lat="42.76476" lon="1.58814">
        <ele>1369.5354003906</ele>
        <time>2012-03-10T09:42:20Z</time>
      </trkpt>
      <trkpt lat="42.76478" lon="1.58821">
        <ele>1369.5354003906</ele>
        <time>2012-03-10T09:42:26Z</time>
      </trkpt>
      <trkpt lat="42.7648" lon="1.5883">
        <ele>1369.0546875</ele>
        <time>2012-03-10T09:42:33Z</time>
      </trkpt>
      <trkpt lat="42.76482" lon="1.58835">
        <ele>1370.4965820312</ele>
        <time>2012-03-10T09:42:38Z</time>
      </trkpt>
      <trkpt lat="42.76484" lon="1.58842">
        <ele>1371.4577636719</ele>
        <time>2012-03-10T09:42:44Z</time>
      </trkpt>
      <trkpt lat="42.76485" lon="1.58848">
        <ele>1372.9001464844</ele>
        <time>2012-03-10T09:42:49Z</time>
      </trkpt>
      <trkpt lat="42.76487" lon="1.58855">
        <ele>1375.7839355469</ele>
        <time>2012-03-10T09:42:56Z</time>
      </trkpt>
      <trkpt lat="42.76487" lon="1.58862">
        <ele>1378.66796875</ele>
        <time>2012-03-10T09:43:02Z</time>
      </trkpt>
      <trkpt lat="42.76487" lon="1.58868">
        <ele>1380.5905761719</ele>
        <time>2012-03-10T09:43:08Z</time>
      </trkpt>
      <trkpt lat="42.76485" lon="1.58873">
        <ele>1381.5517578125</ele>
        <time>2012-03-10T09:43:14Z</time>
      </trkpt>
      <trkpt lat="42.76484" lon="1.58875">
        <ele>1383.4743652344</ele>
        <time>2012-03-10T09:43:18Z</time>
      </trkpt>
      <trkpt lat="42.76484" lon="1.5888">
        <ele>1384.4357910156</ele>
        <time>2012-03-10T09:43:23Z</time>
      </trkpt>
      <trkpt lat="42.76482" lon="1.58883">
        <ele>1384.9165039062</ele>
        <time>2012-03-10T09:43:27Z</time>
      </trkpt>
      <trkpt lat="42.76482" lon="1.5889">
        <ele>1385.8776855469</ele>
        <time>2012-03-10T09:43:34Z</time>
      </trkpt>
      <trkpt lat="42.76482" lon="1.58897">
        <ele>1387.8002929688</ele>
        <time>2012-03-10T09:43:42Z</time>
      </trkpt>
      <trkpt lat="42.76481" lon="1.58903">
        <ele>1388.7619628906</ele>
        <time>2012-03-10T09:43:50Z</time>
      </trkpt>
      <trkpt lat="42.7648" lon="1.58908">
        <ele>1388.7619628906</ele>
        <time>2012-03-10T09:43:57Z</time>
      </trkpt>
      <trkpt lat="42.7648" lon="1.58915">
        <ele>1390.2038574219</ele>
        <time>2012-03-10T09:44:06Z</time>
      </trkpt>
      <trkpt lat="42.76479" lon="1.5892">
        <ele>1390.6843261719</ele>
        <time>2012-03-10T09:44:12Z</time>
      </trkpt>
      <trkpt lat="42.76477" lon="1.58923">
        <ele>1390.6843261719</ele>
        <time>2012-03-10T09:44:17Z</time>
      </trkpt>
      <trkpt lat="42.76476" lon="1.58926">
        <ele>1390.6843261719</ele>
        <time>2012-03-10T09:44:22Z</time>
      </trkpt>
      <trkpt lat="42.76475" lon="1.58929">
        <ele>1390.6843261719</ele>
        <time>2012-03-10T09:44:29Z</time>
      </trkpt>
      <trkpt lat="42.76475" lon="1.58931">
        <ele>1394.5295410156</ele>
        <time>2012-03-10T09:46:35Z</time>
      </trkpt>
      <trkpt lat="42.76475" lon="1.58931">
        <ele>1394.5295410156</ele>
        <time>2012-03-10T09:46:36Z</time>
      </trkpt>
      <trkpt lat="42.76472" lon="1.58933">
        <ele>1395.0102539062</ele>
        <time>2012-03-10T09:46:42Z</time>
      </trkpt>
      <trkpt lat="42.76469" lon="1.58935">
        <ele>1395.4909667969</ele>
        <time>2012-03-10T09:46:49Z</time>
      </trkpt>
      <trkpt lat="42.76467" lon="1.58936">
        <ele>1394.5295410156</ele>
        <time>2012-03-10T09:46:55Z</time>
      </trkpt>
      <trkpt lat="42.76463" lon="1.58933">
        <ele>1394.5295410156</ele>
        <time>2012-03-10T09:47:02Z</time>
      </trkpt>
      <trkpt lat="42.76459" lon="1.58931">
        <ele>1395.9716796875</ele>
        <time>2012-03-10T09:47:09Z</time>
      </trkpt>
      <trkpt lat="42.76456" lon="1.58931">
        <ele>1396.4523925781</ele>
        <time>2012-03-10T09:47:14Z</time>
      </trkpt>
      <trkpt lat="42.76453" lon="1.58929">
        <ele>1397.4135742188</ele>
        <time>2012-03-10T09:47:20Z</time>
      </trkpt>
      <trkpt lat="42.7645" lon="1.58929">
        <ele>1398.85546875</ele>
        <time>2012-03-10T09:47:27Z</time>
      </trkpt>
      <trkpt lat="42.76447" lon="1.58926">
        <ele>1398.85546875</ele>
        <time>2012-03-10T09:47:33Z</time>
      </trkpt>
      <trkpt lat="42.76446" lon="1.58924">
        <ele>1399.3361816406</ele>
        <time>2012-03-10T09:47:38Z</time>
      </trkpt>
      <trkpt lat="42.76444" lon="1.58922">
        <ele>1401.2587890625</ele>
        <time>2012-03-10T09:47:43Z</time>
      </trkpt>
      <trkpt lat="42.76442" lon="1.58918">
        <ele>1402.7006835938</ele>
        <time>2012-03-10T09:47:50Z</time>
      </trkpt>
      <trkpt lat="42.7644" lon="1.58913">
        <ele>1404.6235351562</ele>
        <time>2012-03-10T09:47:57Z</time>
      </trkpt>
      <trkpt lat="42.76439" lon="1.5891">
        <ele>1406.5461425781</ele>
        <time>2012-03-10T09:48:03Z</time>
      </trkpt>
      <trkpt lat="42.76436" lon="1.58908">
        <ele>1407.0268554688</ele>
        <time>2012-03-10T09:48:09Z</time>
      </trkpt>
      <trkpt lat="42.76434" lon="1.58906">
        <ele>1407.98828125</ele>
        <time>2012-03-10T09:48:15Z</time>
      </trkpt>
      <trkpt lat="42.76431" lon="1.58907">
        <ele>1408.46875</ele>
        <time>2012-03-10T09:48:19Z</time>
      </trkpt>
      <trkpt lat="42.76428" lon="1.58909">
        <ele>1409.9106445312</ele>
        <time>2012-03-10T09:48:27Z</time>
      </trkpt>
      <trkpt lat="42.76427" lon="1.5891">
        <ele>1410.3913574219</ele>
        <time>2012-03-10T09:48:30Z</time>
      </trkpt>
      <trkpt lat="42.76423" lon="1.58912">
        <ele>1412.3139648438</ele>
        <time>2012-03-10T09:48:37Z</time>
      </trkpt>
      <trkpt lat="42.7642" lon="1.58912">
        <ele>1413.755859375</ele>
        <time>2012-03-10T09:48:45Z</time>
      </trkpt>
      <trkpt lat="42.76417" lon="1.58912">
        <ele>1414.7172851562</ele>
        <time>2012-03-10T09:48:52Z</time>
      </trkpt>
      <trkpt lat="42.76415" lon="1.58911">
        <ele>1416.1591796875</ele>
        <time>2012-03-10T09:48:58Z</time>
      </trkpt>
      <trkpt lat="42.76413" lon="1.58911">
        <ele>1418.5625</ele>
        <time>2012-03-10T09:49:04Z</time>
      </trkpt>
      <trkpt lat="42.76411" lon="1.58911">
        <ele>1421.9272460938</ele>
        <time>2012-03-10T09:49:12Z</time>
      </trkpt>
      <trkpt lat="42.76408" lon="1.58912">
        <ele>1422.888671875</ele>
        <time>2012-03-10T09:49:18Z</time>
      </trkpt>
      <trkpt lat="42.76405" lon="1.58912">
        <ele>1425.2917480469</ele>
        <time>2012-03-10T09:49:25Z</time>
      </trkpt>
      <trkpt lat="42.76401" lon="1.58912">
        <ele>1426.2531738281</ele>
        <time>2012-03-10T09:49:32Z</time>
      </trkpt>
      <trkpt lat="42.76398" lon="1.58912">
        <ele>1426.7338867188</ele>
        <time>2012-03-10T09:49:38Z</time>
      </trkpt>
      <trkpt lat="42.76395" lon="1.58914">
        <ele>1428.17578125</ele>
        <time>2012-03-10T09:49:43Z</time>
      </trkpt>
      <trkpt lat="42.76395" lon="1.58916">
        <ele>1429.1369628906</ele>
        <time>2012-03-10T09:49:49Z</time>
      </trkpt>
      <trkpt lat="42.76396" lon="1.58918">
        <ele>1429.1369628906</ele>
        <time>2012-03-10T09:49:53Z</time>
      </trkpt>
      <trkpt lat="42.76397" lon="1.58922">
        <ele>1430.5791015625</ele>
        <time>2012-03-10T09:49:59Z</time>
      </trkpt>
      <trkpt lat="42.76399" lon="1.58925">
        <ele>1432.9821777344</ele>
        <time>2012-03-10T09:50:05Z</time>
      </trkpt>
      <trkpt lat="42.764" lon="1.58928">
        <ele>1433.9436035156</ele>
        <time>2012-03-10T09:50:11Z</time>
      </trkpt>
      <trkpt lat="42.764" lon="1.5893">
        <ele>1435.8662109375</ele>
        <time>2012-03-10T09:50:17Z</time>
      </trkpt>
      <trkpt lat="42.76401" lon="1.58937">
        <ele>1436.3471679688</ele>
        <time>2012-03-10T09:50:25Z</time>
      </trkpt>
      <trkpt lat="42.76402" lon="1.58944">
        <ele>1437.3083496094</ele>
        <time>2012-03-10T09:50:33Z</time>
      </trkpt>
      <trkpt lat="42.76402" lon="1.58951">
        <ele>1438.2697753906</ele>
        <time>2012-03-10T09:50:40Z</time>
      </trkpt>
      <trkpt lat="42.764" lon="1.58954">
        <ele>1439.7116699219</ele>
        <time>2012-03-10T09:50:46Z</time>
      </trkpt>
      <trkpt lat="42.76399" lon="1.58955">
        <ele>1439.7116699219</ele>
        <time>2012-03-10T09:50:56Z</time>
      </trkpt>
      <trkpt lat="42.76397" lon="1.58955">
        <ele>1441.1535644531</ele>
        <time>2012-03-10T09:51:04Z</time>
      </trkpt>
      <trkpt lat="42.76393" lon="1.58956">
        <ele>1442.1149902344</ele>
        <time>2012-03-10T09:51:10Z</time>
      </trkpt>
      <trkpt lat="42.7639" lon="1.58958">
        <ele>1443.076171875</ele>
        <time>2012-03-10T09:51:16Z</time>
      </trkpt>
      <trkpt lat="42.76387" lon="1.58958">
        <ele>1443.5568847656</ele>
        <time>2012-03-10T09:51:21Z</time>
      </trkpt>
      <trkpt lat="42.76382" lon="1.58961">
        <ele>1444.5180664062</ele>
        <time>2012-03-10T09:51:28Z</time>
      </trkpt>
      <trkpt lat="42.76377" lon="1.58961">
        <ele>1444.9987792969</ele>
        <time>2012-03-10T09:51:34Z</time>
      </trkpt>
      <trkpt lat="42.76373" lon="1.58961">
        <ele>1445.4794921875</ele>
        <time>2012-03-10T09:51:40Z</time>
      </trkpt>
      <trkpt lat="42.76369" lon="1.58961">
        <ele>1446.4409179688</ele>
        <time>2012-03-10T09:51:46Z</time>
      </trkpt>
      <trkpt lat="42.76361" lon="1.58965">
        <ele>1447.4020996094</ele>
        <time>2012-03-10T09:51:55Z</time>
      </trkpt>
      <trkpt lat="42.76357" lon="1.58967">
        <ele>1447.8828125</ele>
        <time>2012-03-10T09:52:02Z</time>
      </trkpt>
      <trkpt lat="42.7635" lon="1.5897">
        <ele>1448.8439941406</ele>
        <time>2012-03-10T09:52:11Z</time>
      </trkpt>
      <trkpt lat="42.76347" lon="1.58973">
        <ele>1449.8054199219</ele>
        <time>2012-03-10T09:52:18Z</time>
      </trkpt>
      <trkpt lat="42.76343" lon="1.58977">
        <ele>1450.2861328125</ele>
        <time>2012-03-10T09:52:25Z</time>
      </trkpt>
      <trkpt lat="42.76335" lon="1.58982">
        <ele>1450.7666015625</ele>
        <time>2012-03-10T09:52:35Z</time>
      </trkpt>
      <trkpt lat="42.76331" lon="1.58985">
        <ele>1451.2473144531</ele>
        <time>2012-03-10T09:52:42Z</time>
      </trkpt>
      <trkpt lat="42.76328" lon="1.58986">
        <ele>1451.7280273438</ele>
        <time>2012-03-10T09:52:48Z</time>
      </trkpt>
      <trkpt lat="42.76323" lon="1.58988">
        <ele>1454.1315917969</ele>
        <time>2012-03-10T09:52:56Z</time>
      </trkpt>
      <trkpt lat="42.7632" lon="1.58989">
        <ele>1456.5346679688</ele>
        <time>2012-03-10T09:53:03Z</time>
      </trkpt>
      <trkpt lat="42.76316" lon="1.58989">
        <ele>1457.49609375</ele>
        <time>2012-03-10T09:53:09Z</time>
      </trkpt>
      <trkpt lat="42.76313" lon="1.58989">
        <ele>1458.4572753906</ele>
        <time>2012-03-10T09:53:18Z</time>
      </trkpt>
      <trkpt lat="42.76307" lon="1.58992">
        <ele>1461.8220214844</ele>
        <time>2012-03-10T09:53:26Z</time>
      </trkpt>
      <trkpt lat="42.76304" lon="1.58994">
        <ele>1462.3024902344</ele>
        <time>2012-03-10T09:53:33Z</time>
      </trkpt>
      <trkpt lat="42.763" lon="1.58995">
        <ele>1463.2639160156</ele>
        <time>2012-03-10T09:53:40Z</time>
      </trkpt>
      <trkpt lat="42.76295" lon="1.58999">
        <ele>1465.1865234375</ele>
        <time>2012-03-10T09:53:49Z</time>
      </trkpt>
      <trkpt lat="42.7629" lon="1.59002">
        <ele>1467.5895996094</ele>
        <time>2012-03-10T09:53:57Z</time>
      </trkpt>
      <trkpt lat="42.76286" lon="1.59003">
        <ele>1469.0319824219</ele>
        <time>2012-03-10T09:54:04Z</time>
      </trkpt>
      <trkpt lat="42.76284" lon="1.59006">
        <ele>1469.9931640625</ele>
        <time>2012-03-10T09:54:11Z</time>
      </trkpt>
      <trkpt lat="42.76282" lon="1.59007">
        <ele>1470.4738769531</ele>
        <time>2012-03-10T09:54:19Z</time>
      </trkpt>
      <trkpt lat="42.76278" lon="1.59009">
        <ele>1472.396484375</ele>
        <time>2012-03-10T09:54:27Z</time>
      </trkpt>
      <trkpt lat="42.76276" lon="1.5901">
        <ele>1473.8383789062</ele>
        <time>2012-03-10T09:54:32Z</time>
      </trkpt>
      <trkpt lat="42.76274" lon="1.59012">
        <ele>1475.2802734375</ele>
        <time>2012-03-10T09:54:38Z</time>
      </trkpt>
      <trkpt lat="42.76271" lon="1.59013">
        <ele>1477.203125</ele>
        <time>2012-03-10T09:54:44Z</time>
      </trkpt>
      <trkpt lat="42.76268" lon="1.59013">
        <ele>1477.203125</ele>
        <time>2012-03-10T09:54:50Z</time>
      </trkpt>
      <trkpt lat="42.76265" lon="1.59012">
        <ele>1478.1643066406</ele>
        <time>2012-03-10T09:54:57Z</time>
      </trkpt>
      <trkpt lat="42.76263" lon="1.59013">
        <ele>1478.6450195312</ele>
        <time>2012-03-10T09:55:03Z</time>
      </trkpt>
      <trkpt lat="42.7626" lon="1.59013">
        <ele>1479.6062011719</ele>
        <time>2012-03-10T09:55:08Z</time>
      </trkpt>
      <trkpt lat="42.76257" lon="1.59015">
        <ele>1480.5676269531</ele>
        <time>2012-03-10T09:55:14Z</time>
      </trkpt>
      <trkpt lat="42.76254" lon="1.59018">
        <ele>1482.490234375</ele>
        <time>2012-03-10T09:55:22Z</time>
      </trkpt>
      <trkpt lat="42.7625" lon="1.59015">
        <ele>1482.970703125</ele>
        <time>2012-03-10T09:55:28Z</time>
      </trkpt>
      <trkpt lat="42.76246" lon="1.59016">
        <ele>1483.9321289062</ele>
        <time>2012-03-10T09:55:36Z</time>
      </trkpt>
      <trkpt lat="42.76244" lon="1.59017">
        <ele>1484.4130859375</ele>
        <time>2012-03-10T09:55:41Z</time>
      </trkpt>
      <trkpt lat="42.76241" lon="1.5902">
        <ele>1485.8549804688</ele>
        <time>2012-03-10T09:55:48Z</time>
      </trkpt>
      <trkpt lat="42.76238" lon="1.59022">
        <ele>1486.3356933594</ele>
        <time>2012-03-10T09:55:54Z</time>
      </trkpt>
      <trkpt lat="42.76235" lon="1.59024">
        <ele>1487.296875</ele>
        <time>2012-03-10T09:56:00Z</time>
      </trkpt>
      <trkpt lat="42.76233" lon="1.59027">
        <ele>1487.7775878906</ele>
        <time>2012-03-10T09:56:06Z</time>
      </trkpt>
      <trkpt lat="42.76229" lon="1.59032">
        <ele>1488.7390136719</ele>
        <time>2012-03-10T09:56:14Z</time>
      </trkpt>
      <trkpt lat="42.76225" lon="1.59035">
        <ele>1489.7001953125</ele>
        <time>2012-03-10T09:56:21Z</time>
      </trkpt>
      <trkpt lat="42.76225" lon="1.59035">
        <ele>1490.1809082031</ele>
        <time>2012-03-10T09:56:27Z</time>
      </trkpt>
      <trkpt lat="42.76225" lon="1.59035">
        <ele>1490.6613769531</ele>
        <time>2012-03-10T09:56:28Z</time>
      </trkpt>
      <trkpt lat="42.76224" lon="1.5904">
        <ele>1492.103515625</ele>
        <time>2012-03-10T10:05:38Z</time>
      </trkpt>
      <trkpt lat="42.76221" lon="1.59042">
        <ele>1491.6228027344</ele>
        <time>2012-03-10T10:05:44Z</time>
      </trkpt>
      <trkpt lat="42.76215" lon="1.59044">
        <ele>1492.103515625</ele>
        <time>2012-03-10T10:05:52Z</time>
      </trkpt>
      <trkpt lat="42.7621" lon="1.59045">
        <ele>1492.5842285156</ele>
        <time>2012-03-10T10:05:59Z</time>
      </trkpt>
      <trkpt lat="42.76204" lon="1.59046">
        <ele>1493.0646972656</ele>
        <time>2012-03-10T10:06:08Z</time>
      </trkpt>
      <trkpt lat="42.76198" lon="1.59047">
        <ele>1494.0261230469</ele>
        <time>2012-03-10T10:06:16Z</time>
      </trkpt>
      <trkpt lat="42.76193" lon="1.59047">
        <ele>1495.4680175781</ele>
        <time>2012-03-10T10:06:23Z</time>
      </trkpt>
      <trkpt lat="42.7619" lon="1.59046">
        <ele>1495.4680175781</ele>
        <time>2012-03-10T10:06:29Z</time>
      </trkpt>
      <trkpt lat="42.76184" lon="1.59046">
        <ele>1496.9099121094</ele>
        <time>2012-03-10T10:06:37Z</time>
      </trkpt>
      <trkpt lat="42.7618" lon="1.59046">
        <ele>1497.8713378906</ele>
        <time>2012-03-10T10:06:43Z</time>
      </trkpt>
      <trkpt lat="42.76176" lon="1.59047">
        <ele>1498.8325195312</ele>
        <time>2012-03-10T10:06:49Z</time>
      </trkpt>
      <trkpt lat="42.76172" lon="1.59048">
        <ele>1500.2749023438</ele>
        <time>2012-03-10T10:06:56Z</time>
      </trkpt>
      <trkpt lat="42.76168" lon="1.59046">
        <ele>1501.716796875</ele>
        <time>2012-03-10T10:07:03Z</time>
      </trkpt>
      <trkpt lat="42.76165" lon="1.59044">
        <ele>1503.1586914062</ele>
        <time>2012-03-10T10:07:09Z</time>
      </trkpt>
      <trkpt lat="42.76162" lon="1.59043">
        <ele>1504.1201171875</ele>
        <time>2012-03-10T10:07:14Z</time>
      </trkpt>
      <trkpt lat="42.76157" lon="1.59043">
        <ele>1505.0812988281</ele>
        <time>2012-03-10T10:07:22Z</time>
      </trkpt>
      <trkpt lat="42.76153" lon="1.59043">
        <ele>1506.0424804688</ele>
        <time>2012-03-10T10:07:29Z</time>
      </trkpt>
      <trkpt lat="42.76151" lon="1.59044">
        <ele>1507.4846191406</ele>
        <time>2012-03-10T10:07:35Z</time>
      </trkpt>
      <trkpt lat="42.76149" lon="1.59045">
        <ele>1507.9653320312</ele>
        <time>2012-03-10T10:07:41Z</time>
      </trkpt>
      <trkpt lat="42.76149" lon="1.59048">
        <ele>1508.4458007812</ele>
        <time>2012-03-10T10:07:46Z</time>
      </trkpt>
      <trkpt lat="42.76149" lon="1.59053">
        <ele>1508.9265136719</ele>
        <time>2012-03-10T10:07:52Z</time>
      </trkpt>
      <trkpt lat="42.76149" lon="1.59057">
        <ele>1509.8876953125</ele>
        <time>2012-03-10T10:07:58Z</time>
      </trkpt>
      <trkpt lat="42.76147" lon="1.59062">
        <ele>1510.3684082031</ele>
        <time>2012-03-10T10:08:05Z</time>
      </trkpt>
      <trkpt lat="42.76147" lon="1.59064">
        <ele>1511.810546875</ele>
        <time>2012-03-10T10:08:10Z</time>
      </trkpt>
      <trkpt lat="42.76148" lon="1.59071">
        <ele>1512.7717285156</ele>
        <time>2012-03-10T10:08:17Z</time>
      </trkpt>
      <trkpt lat="42.76146" lon="1.59078">
        <ele>1513.7329101562</ele>
        <time>2012-03-10T10:08:24Z</time>
      </trkpt>
      <trkpt lat="42.76144" lon="1.59084">
        <ele>1514.2136230469</ele>
        <time>2012-03-10T10:08:31Z</time>
      </trkpt>
      <trkpt lat="42.76142" lon="1.5909">
        <ele>1515.1750488281</ele>
        <time>2012-03-10T10:08:38Z</time>
      </trkpt>
      <trkpt lat="42.76138" lon="1.59095">
        <ele>1515.6557617188</ele>
        <time>2012-03-10T10:08:45Z</time>
      </trkpt>
      <trkpt lat="42.76134" lon="1.591">
        <ele>1516.6171875</ele>
        <time>2012-03-10T10:08:52Z</time>
      </trkpt>
      <trkpt lat="42.7613" lon="1.59103">
        <ele>1517.5783691406</ele>
        <time>2012-03-10T10:08:58Z</time>
      </trkpt>
      <trkpt lat="42.76123" lon="1.59103">
        <ele>1519.0205078125</ele>
        <time>2012-03-10T10:09:06Z</time>
      </trkpt>
      <trkpt lat="42.7612" lon="1.59103">
        <ele>1519.0205078125</ele>
        <time>2012-03-10T10:09:12Z</time>
      </trkpt>
      <trkpt lat="42.76115" lon="1.59104">
        <ele>1519.5012207031</ele>
        <time>2012-03-10T10:09:18Z</time>
      </trkpt>
      <trkpt lat="42.76111" lon="1.59104">
        <ele>1520.9431152344</ele>
        <time>2012-03-10T10:09:25Z</time>
      </trkpt>
      <trkpt lat="42.76107" lon="1.59104">
        <ele>1522.8657226562</ele>
        <time>2012-03-10T10:09:31Z</time>
      </trkpt>
      <trkpt lat="42.76102" lon="1.59105">
        <ele>1524.7883300781</ele>
        <time>2012-03-10T10:09:38Z</time>
      </trkpt>
      <trkpt lat="42.76096" lon="1.59106">
        <ele>1525.7495117188</ele>
        <time>2012-03-10T10:09:45Z</time>
      </trkpt>
      <trkpt lat="42.76093" lon="1.59108">
        <ele>1527.6721191406</ele>
        <time>2012-03-10T10:09:52Z</time>
      </trkpt>
      <trkpt lat="42.7609" lon="1.5911">
        <ele>1527.1916503906</ele>
        <time>2012-03-10T10:09:57Z</time>
      </trkpt>
      <trkpt lat="42.76086" lon="1.5911">
        <ele>1528.1528320312</ele>
        <time>2012-03-10T10:10:02Z</time>
      </trkpt>
      <trkpt lat="42.76083" lon="1.59112">
        <ele>1529.5947265625</ele>
        <time>2012-03-10T10:10:08Z</time>
      </trkpt>
      <trkpt lat="42.7608" lon="1.59113">
        <ele>1530.5561523438</ele>
        <time>2012-03-10T10:10:14Z</time>
      </trkpt>
      <trkpt lat="42.76077" lon="1.59114">
        <ele>1531.998046875</ele>
        <time>2012-03-10T10:10:19Z</time>
      </trkpt>
      <trkpt lat="42.76075" lon="1.59114">
        <ele>1532.9594726562</ele>
        <time>2012-03-10T10:10:25Z</time>
      </trkpt>
      <trkpt lat="42.76073" lon="1.59113">
        <ele>1533.9208984375</ele>
        <time>2012-03-10T10:10:32Z</time>
      </trkpt>
      <trkpt lat="42.76068" lon="1.59112">
        <ele>1535.8435058594</ele>
        <time>2012-03-10T10:10:41Z</time>
      </trkpt>
      <trkpt lat="42.76065" lon="1.59113">
        <ele>1537.7661132812</ele>
        <time>2012-03-10T10:10:47Z</time>
      </trkpt>
      <trkpt lat="42.76062" lon="1.59113">
        <ele>1538.7275390625</ele>
        <time>2012-03-10T10:10:52Z</time>
      </trkpt>
      <trkpt lat="42.76059" lon="1.59112">
        <ele>1540.1694335938</ele>
        <time>2012-03-10T10:10:58Z</time>
      </trkpt>
      <trkpt lat="42.76056" lon="1.5911">
        <ele>1541.1306152344</ele>
        <time>2012-03-10T10:11:05Z</time>
      </trkpt>
      <trkpt lat="42.76054" lon="1.59111">
        <ele>1542.0920410156</ele>
        <time>2012-03-10T10:11:11Z</time>
      </trkpt>
      <trkpt lat="42.76051" lon="1.59113">
        <ele>1543.5339355469</ele>
        <time>2012-03-10T10:11:17Z</time>
      </trkpt>
      <trkpt lat="42.76048" lon="1.59115">
        <ele>1544.9758300781</ele>
        <time>2012-03-10T10:11:23Z</time>
      </trkpt>
      <trkpt lat="42.76048" lon="1.59118">
        <ele>1545.9372558594</ele>
        <time>2012-03-10T10:11:27Z</time>
      </trkpt>
      <trkpt lat="42.76048" lon="1.59122">
        <ele>1546.8984375</ele>
        <time>2012-03-10T10:11:32Z</time>
      </trkpt>
      <trkpt lat="42.76047" lon="1.59123">
        <ele>1547.3791503906</ele>
        <time>2012-03-10T10:11:36Z</time>
      </trkpt>
      <trkpt lat="42.76043" lon="1.59121">
        <ele>1548.3405761719</ele>
        <time>2012-03-10T10:11:44Z</time>
      </trkpt>
      <trkpt lat="42.7604" lon="1.59121">
        <ele>1548.3405761719</ele>
        <time>2012-03-10T10:11:51Z</time>
      </trkpt>
      <trkpt lat="42.76036" lon="1.5912">
        <ele>1549.7827148438</ele>
        <time>2012-03-10T10:11:58Z</time>
      </trkpt>
      <trkpt lat="42.76033" lon="1.5912">
        <ele>1550.7438964844</ele>
        <time>2012-03-10T10:12:04Z</time>
      </trkpt>
      <trkpt lat="42.7603" lon="1.59122">
        <ele>1551.224609375</ele>
        <time>2012-03-10T10:12:12Z</time>
      </trkpt>
      <trkpt lat="42.7603" lon="1.59127">
        <ele>1551.7053222656</ele>
        <time>2012-03-10T10:12:18Z</time>
      </trkpt>
      <trkpt lat="42.76028" lon="1.5913">
        <ele>1552.1857910156</ele>
        <time>2012-03-10T10:12:24Z</time>
      </trkpt>
      <trkpt lat="42.76027" lon="1.59133">
        <ele>1552.6665039062</ele>
        <time>2012-03-10T10:12:29Z</time>
      </trkpt>
      <trkpt lat="42.76025" lon="1.59137">
        <ele>1553.6279296875</ele>
        <time>2012-03-10T10:12:34Z</time>
      </trkpt>
      <trkpt lat="42.76022" lon="1.59138">
        <ele>1554.5891113281</ele>
        <time>2012-03-10T10:12:40Z</time>
      </trkpt>
      <trkpt lat="42.76018" lon="1.59139">
        <ele>1556.9924316406</ele>
        <time>2012-03-10T10:12:47Z</time>
      </trkpt>
      <trkpt lat="42.76014" lon="1.59138">
        <ele>1558.4343261719</ele>
        <time>2012-03-10T10:12:53Z</time>
      </trkpt>
      <trkpt lat="42.76009" lon="1.59136">
        <ele>1559.8762207031</ele>
        <time>2012-03-10T10:13:01Z</time>
      </trkpt>
      <trkpt lat="42.76005" lon="1.59135">
        <ele>1561.318359375</ele>
        <time>2012-03-10T10:13:07Z</time>
      </trkpt>
      <trkpt lat="42.76" lon="1.59132">
        <ele>1561.7990722656</ele>
        <time>2012-03-10T10:13:15Z</time>
      </trkpt>
      <trkpt lat="42.75996" lon="1.59131">
        <ele>1562.7602539062</ele>
        <time>2012-03-10T10:13:21Z</time>
      </trkpt>
      <trkpt lat="42.75994" lon="1.59132">
        <ele>1564.6831054688</ele>
        <time>2012-03-10T10:13:28Z</time>
      </trkpt>
      <trkpt lat="42.75992" lon="1.59132">
        <ele>1565.64453125</ele>
        <time>2012-03-10T10:13:32Z</time>
      </trkpt>
      <trkpt lat="42.7599" lon="1.59133">
        <ele>1568.0476074219</ele>
        <time>2012-03-10T10:13:38Z</time>
      </trkpt>
      <trkpt lat="42.75988" lon="1.59134">
        <ele>1568.5283203125</ele>
        <time>2012-03-10T10:13:44Z</time>
      </trkpt>
      <trkpt lat="42.75985" lon="1.59133">
        <ele>1569.9702148438</ele>
        <time>2012-03-10T10:13:51Z</time>
      </trkpt>
      <trkpt lat="42.75983" lon="1.59131">
        <ele>1570.931640625</ele>
        <time>2012-03-10T10:13:58Z</time>
      </trkpt>
      <trkpt lat="42.75981" lon="1.59133">
        <ele>1572.3735351562</ele>
        <time>2012-03-10T10:14:03Z</time>
      </trkpt>
      <trkpt lat="42.75979" lon="1.59135">
        <ele>1573.3349609375</ele>
        <time>2012-03-10T10:14:08Z</time>
      </trkpt>
      <trkpt lat="42.75977" lon="1.59136">
        <ele>1574.2961425781</ele>
        <time>2012-03-10T10:14:13Z</time>
      </trkpt>
      <trkpt lat="42.75975" lon="1.59137">
        <ele>1575.2573242188</ele>
        <time>2012-03-10T10:14:18Z</time>
      </trkpt>
      <trkpt lat="42.75975" lon="1.59139">
        <ele>1575.2573242188</ele>
        <time>2012-03-10T10:14:24Z</time>
      </trkpt>
      <trkpt lat="42.75975" lon="1.59142">
        <ele>1575.7380371094</ele>
        <time>2012-03-10T10:14:29Z</time>
      </trkpt>
      <trkpt lat="42.75974" lon="1.59145">
        <ele>1577.1801757812</ele>
        <time>2012-03-10T10:14:35Z</time>
      </trkpt>
      <trkpt lat="42.75972" lon="1.59146">
        <ele>1578.6220703125</ele>
        <time>2012-03-10T10:14:40Z</time>
      </trkpt>
      <trkpt lat="42.7597" lon="1.59147">
        <ele>1580.0642089844</ele>
        <time>2012-03-10T10:14:46Z</time>
      </trkpt>
      <trkpt lat="42.75969" lon="1.5915">
        <ele>1581.0256347656</ele>
        <time>2012-03-10T10:14:51Z</time>
      </trkpt>
      <trkpt lat="42.75965" lon="1.59151">
        <ele>1582.4675292969</ele>
        <time>2012-03-10T10:14:57Z</time>
      </trkpt>
      <trkpt lat="42.75964" lon="1.59154">
        <ele>1582.9479980469</ele>
        <time>2012-03-10T10:15:03Z</time>
      </trkpt>
      <trkpt lat="42.75963" lon="1.59158">
        <ele>1583.4287109375</ele>
        <time>2012-03-10T10:15:07Z</time>
      </trkpt>
      <trkpt lat="42.75961" lon="1.59163">
        <ele>1583.4287109375</ele>
        <time>2012-03-10T10:15:13Z</time>
      </trkpt>
      <trkpt lat="42.7596" lon="1.5917">
        <ele>1582.4675292969</ele>
        <time>2012-03-10T10:15:20Z</time>
      </trkpt>
      <trkpt lat="42.75958" lon="1.59176">
        <ele>1583.9094238281</ele>
        <time>2012-03-10T10:15:25Z</time>
      </trkpt>
      <trkpt lat="42.75954" lon="1.59179">
        <ele>1585.3513183594</ele>
        <time>2012-03-10T10:15:31Z</time>
      </trkpt>
      <trkpt lat="42.7595" lon="1.5918">
        <ele>1587.2739257812</ele>
        <time>2012-03-10T10:15:37Z</time>
      </trkpt>
      <trkpt lat="42.75946" lon="1.59183">
        <ele>1588.2353515625</ele>
        <time>2012-03-10T10:15:43Z</time>
      </trkpt>
      <trkpt lat="42.7594" lon="1.59186">
        <ele>1589.1965332031</ele>
        <time>2012-03-10T10:15:50Z</time>
      </trkpt>
      <trkpt lat="42.75934" lon="1.59192">
        <ele>1590.1579589844</ele>
        <time>2012-03-10T10:15:58Z</time>
      </trkpt>
      <trkpt lat="42.75931" lon="1.59197">
        <ele>1591.119140625</ele>
        <time>2012-03-10T10:16:04Z</time>
      </trkpt>
      <trkpt lat="42.75928" lon="1.59202">
        <ele>1592.0805664062</ele>
        <time>2012-03-10T10:16:10Z</time>
      </trkpt>
      <trkpt lat="42.75927" lon="1.59207">
        <ele>1593.0417480469</ele>
        <time>2012-03-10T10:16:16Z</time>
      </trkpt>
      <trkpt lat="42.75924" lon="1.59213">
        <ele>1593.5224609375</ele>
        <time>2012-03-10T10:16:22Z</time>
      </trkpt>
      <trkpt lat="42.75922" lon="1.59216">
        <ele>1594.9643554688</ele>
        <time>2012-03-10T10:16:27Z</time>
      </trkpt>
      <trkpt lat="42.75918" lon="1.5922">
        <ele>1596.4067382812</ele>
        <time>2012-03-10T10:16:34Z</time>
      </trkpt>
      <trkpt lat="42.75914" lon="1.59222">
        <ele>1598.3291015625</ele>
        <time>2012-03-10T10:16:39Z</time>
      </trkpt>
      <trkpt lat="42.75912" lon="1.59225">
        <ele>1599.7712402344</ele>
        <time>2012-03-10T10:16:44Z</time>
      </trkpt>
      <trkpt lat="42.7591" lon="1.5923">
        <ele>1601.2131347656</ele>
        <time>2012-03-10T10:16:49Z</time>
      </trkpt>
      <trkpt lat="42.75907" lon="1.59233">
        <ele>1602.6550292969</ele>
        <time>2012-03-10T10:16:54Z</time>
      </trkpt>
      <trkpt lat="42.75905" lon="1.59237">
        <ele>1603.6164550781</ele>
        <time>2012-03-10T10:17:01Z</time>
      </trkpt>
      <trkpt lat="42.75902" lon="1.59237">
        <ele>1604.5776367188</ele>
        <time>2012-03-10T10:17:06Z</time>
      </trkpt>
      <trkpt lat="42.75898" lon="1.5924">
        <ele>1606.01953125</ele>
        <time>2012-03-10T10:17:12Z</time>
      </trkpt>
      <trkpt lat="42.75893" lon="1.59244">
        <ele>1607.9423828125</ele>
        <time>2012-03-10T10:17:19Z</time>
      </trkpt>
      <trkpt lat="42.75889" lon="1.59247">
        <ele>1609.8647460938</ele>
        <time>2012-03-10T10:17:26Z</time>
      </trkpt>
      <trkpt lat="42.75884" lon="1.5925">
        <ele>1611.7875976562</ele>
        <time>2012-03-10T10:17:33Z</time>
      </trkpt>
      <trkpt lat="42.75881" lon="1.59253">
        <ele>1613.2297363281</ele>
        <time>2012-03-10T10:17:39Z</time>
      </trkpt>
      <trkpt lat="42.75877" lon="1.59257">
        <ele>1615.15234375</ele>
        <time>2012-03-10T10:17:46Z</time>
      </trkpt>
      <trkpt lat="42.75874" lon="1.5926">
        <ele>1616.1135253906</ele>
        <time>2012-03-10T10:17:51Z</time>
      </trkpt>
      <trkpt lat="42.7587" lon="1.59261">
        <ele>1617.5554199219</ele>
        <time>2012-03-10T10:17:56Z</time>
      </trkpt>
      <trkpt lat="42.75866" lon="1.59262">
        <ele>1618.9975585938</ele>
        <time>2012-03-10T10:18:02Z</time>
      </trkpt>
      <trkpt lat="42.75863" lon="1.59266">
        <ele>1619.9587402344</ele>
        <time>2012-03-10T10:18:08Z</time>
      </trkpt>
      <trkpt lat="42.75859" lon="1.59269">
        <ele>1621.4006347656</ele>
        <time>2012-03-10T10:18:14Z</time>
      </trkpt>
      <trkpt lat="42.75855" lon="1.59271">
        <ele>1622.8427734375</ele>
        <time>2012-03-10T10:18:20Z</time>
      </trkpt>
      <trkpt lat="42.7585" lon="1.59272">
        <ele>1624.2846679688</ele>
        <time>2012-03-10T10:18:26Z</time>
      </trkpt>
      <trkpt lat="42.75845" lon="1.59273">
        <ele>1625.7265625</ele>
        <time>2012-03-10T10:18:33Z</time>
      </trkpt>
      <trkpt lat="42.7584" lon="1.59275">
        <ele>1626.6879882812</ele>
        <time>2012-03-10T10:18:40Z</time>
      </trkpt>
      <trkpt lat="42.75836" lon="1.59276">
        <ele>1627.6491699219</ele>
        <time>2012-03-10T10:18:45Z</time>
      </trkpt>
      <trkpt lat="42.75832" lon="1.59277">
        <ele>1628.6108398438</ele>
        <time>2012-03-10T10:18:50Z</time>
      </trkpt>
      <trkpt lat="42.75827" lon="1.59281">
        <ele>1630.052734375</ele>
        <time>2012-03-10T10:18:58Z</time>
      </trkpt>
      <trkpt lat="42.75824" lon="1.59288">
        <ele>1631.0141601562</ele>
        <time>2012-03-10T10:19:05Z</time>
      </trkpt>
      <trkpt lat="42.75821" lon="1.59294">
        <ele>1631.9753417969</ele>
        <time>2012-03-10T10:19:12Z</time>
      </trkpt>
      <trkpt lat="42.75819" lon="1.59299">
        <ele>1632.4560546875</ele>
        <time>2012-03-10T10:19:17Z</time>
      </trkpt>
      <trkpt lat="42.75816" lon="1.59302">
        <ele>1633.4172363281</ele>
        <time>2012-03-10T10:19:22Z</time>
      </trkpt>
      <trkpt lat="42.75811" lon="1.59304">
        <ele>1634.859375</ele>
        <time>2012-03-10T10:19:28Z</time>
      </trkpt>
      <trkpt lat="42.75807" lon="1.59309">
        <ele>1635.33984375</ele>
        <time>2012-03-10T10:19:35Z</time>
      </trkpt>
      <trkpt lat="42.75803" lon="1.59317">
        <ele>1637.2624511719</ele>
        <time>2012-03-10T10:19:44Z</time>
      </trkpt>
      <trkpt lat="42.75799" lon="1.59324">
        <ele>1638.2238769531</ele>
        <time>2012-03-10T10:19:52Z</time>
      </trkpt>
      <trkpt lat="42.75796" lon="1.59329">
        <ele>1638.7045898438</ele>
        <time>2012-03-10T10:19:58Z</time>
      </trkpt>
      <trkpt lat="42.75792" lon="1.59337">
        <ele>1640.146484375</ele>
        <time>2012-03-10T10:20:06Z</time>
      </trkpt>
      <trkpt lat="42.75789" lon="1.59344">
        <ele>1640.626953125</ele>
        <time>2012-03-10T10:20:13Z</time>
      </trkpt>
      <trkpt lat="42.75784" lon="1.59349">
        <ele>1641.5883789062</ele>
        <time>2012-03-10T10:20:20Z</time>
      </trkpt>
      <trkpt lat="42.75778" lon="1.59352">
        <ele>1642.5498046875</ele>
        <time>2012-03-10T10:20:26Z</time>
      </trkpt>
      <trkpt lat="42.75772" lon="1.59357">
        <ele>1643.0302734375</ele>
        <time>2012-03-10T10:20:33Z</time>
      </trkpt>
      <trkpt lat="42.75765" lon="1.59366">
        <ele>1644.953125</ele>
        <time>2012-03-10T10:20:42Z</time>
      </trkpt>
      <trkpt lat="42.75759" lon="1.59371">
        <ele>1645.4338378906</ele>
        <time>2012-03-10T10:20:48Z</time>
      </trkpt>
      <trkpt lat="42.75752" lon="1.5938">
        <ele>1646.3952636719</ele>
        <time>2012-03-10T10:20:58Z</time>
      </trkpt>
      <trkpt lat="42.75747" lon="1.59388">
        <ele>1646.8757324219</ele>
        <time>2012-03-10T10:21:07Z</time>
      </trkpt>
      <trkpt lat="42.75739" lon="1.59396">
        <ele>1647.3564453125</ele>
        <time>2012-03-10T10:21:16Z</time>
      </trkpt>
      <trkpt lat="42.75731" lon="1.59402">
        <ele>1646.8757324219</ele>
        <time>2012-03-10T10:21:24Z</time>
      </trkpt>
      <trkpt lat="42.75726" lon="1.59413">
        <ele>1646.8757324219</ele>
        <time>2012-03-10T10:21:33Z</time>
      </trkpt>
      <trkpt lat="42.75721" lon="1.59421">
        <ele>1646.8757324219</ele>
        <time>2012-03-10T10:21:40Z</time>
      </trkpt>
      <trkpt lat="42.75719" lon="1.5943">
        <ele>1646.3952636719</ele>
        <time>2012-03-10T10:21:47Z</time>
      </trkpt>
      <trkpt lat="42.75714" lon="1.59441">
        <ele>1646.3952636719</ele>
        <time>2012-03-10T10:21:55Z</time>
      </trkpt>
      <trkpt lat="42.75709" lon="1.59451">
        <ele>1646.3952636719</ele>
        <time>2012-03-10T10:22:04Z</time>
      </trkpt>
      <trkpt lat="42.75706" lon="1.59457">
        <ele>1646.3952636719</ele>
        <time>2012-03-10T10:22:09Z</time>
      </trkpt>
      <trkpt lat="42.75702" lon="1.59466">
        <ele>1645.9145507812</ele>
        <time>2012-03-10T10:22:17Z</time>
      </trkpt>
      <trkpt lat="42.75698" lon="1.59474">
        <ele>1646.8757324219</ele>
        <time>2012-03-10T10:22:24Z</time>
      </trkpt>
      <trkpt lat="42.75694" lon="1.59481">
        <ele>1647.3564453125</ele>
        <time>2012-03-10T10:22:31Z</time>
      </trkpt>
      <trkpt lat="42.75689" lon="1.59488">
        <ele>1648.3176269531</ele>
        <time>2012-03-10T10:22:38Z</time>
      </trkpt>
      <trkpt lat="42.75686" lon="1.59494">
        <ele>1648.7983398438</ele>
        <time>2012-03-10T10:22:44Z</time>
      </trkpt>
      <trkpt lat="42.75685" lon="1.59495">
        <ele>1649.759765625</ele>
        <time>2012-03-10T10:22:47Z</time>
      </trkpt>
      <trkpt lat="42.75681" lon="1.59498">
        <ele>1650.2404785156</ele>
        <time>2012-03-10T10:22:52Z</time>
      </trkpt>
      <trkpt lat="42.75678" lon="1.59501">
        <ele>1651.6823730469</ele>
        <time>2012-03-10T10:22:57Z</time>
      </trkpt>
      <trkpt lat="42.75675" lon="1.59505">
        <ele>1652.6435546875</ele>
        <time>2012-03-10T10:23:02Z</time>
      </trkpt>
      <trkpt lat="42.75671" lon="1.59509">
        <ele>1654.0856933594</ele>
        <time>2012-03-10T10:23:08Z</time>
      </trkpt>
      <trkpt lat="42.75667" lon="1.59511">
        <ele>1655.046875</ele>
        <time>2012-03-10T10:23:14Z</time>
      </trkpt>
      <trkpt lat="42.75662" lon="1.59518">
        <ele>1656.4887695312</ele>
        <time>2012-03-10T10:23:23Z</time>
      </trkpt>
      <trkpt lat="42.7566" lon="1.59525">
        <ele>1658.4113769531</ele>
        <time>2012-03-10T10:23:30Z</time>
      </trkpt>
      <trkpt lat="42.7566" lon="1.59532">
        <ele>1659.3728027344</ele>
        <time>2012-03-10T10:23:36Z</time>
      </trkpt>
      <trkpt lat="42.7566" lon="1.59538">
        <ele>1660.3342285156</ele>
        <time>2012-03-10T10:23:41Z</time>
      </trkpt>
      <trkpt lat="42.75658" lon="1.59547">
        <ele>1661.2956542969</ele>
        <time>2012-03-10T10:23:48Z</time>
      </trkpt>
      <trkpt lat="42.75656" lon="1.59554">
        <ele>1661.7763671875</ele>
        <time>2012-03-10T10:23:54Z</time>
      </trkpt>
      <trkpt lat="42.75655" lon="1.5956">
        <ele>1662.7375488281</ele>
        <time>2012-03-10T10:23:59Z</time>
      </trkpt>
      <trkpt lat="42.75653" lon="1.59566">
        <ele>1663.2182617188</ele>
        <time>2012-03-10T10:24:05Z</time>
      </trkpt>
      <trkpt lat="42.7565" lon="1.59576">
        <ele>1664.66015625</ele>
        <time>2012-03-10T10:24:15Z</time>
      </trkpt>
      <trkpt lat="42.75649" lon="1.5958">
        <ele>1665.6215820312</ele>
        <time>2012-03-10T10:24:27Z</time>
      </trkpt>
      <trkpt lat="42.75649" lon="1.59581">
        <ele>1665.6215820312</ele>
        <time>2012-03-10T10:24:36Z</time>
      </trkpt>
      <trkpt lat="42.75646" lon="1.59588">
        <ele>1666.5827636719</ele>
        <time>2012-03-10T10:24:43Z</time>
      </trkpt>
      <trkpt lat="42.75642" lon="1.59597">
        <ele>1668.5053710938</ele>
        <time>2012-03-10T10:24:52Z</time>
      </trkpt>
      <trkpt lat="42.75639" lon="1.59607">
        <ele>1669.947265625</ele>
        <time>2012-03-10T10:25:01Z</time>
      </trkpt>
      <trkpt lat="42.75636" lon="1.59616">
        <ele>1671.8698730469</ele>
        <time>2012-03-10T10:25:10Z</time>
      </trkpt>
      <trkpt lat="42.75633" lon="1.59622">
        <ele>1673.3120117188</ele>
        <time>2012-03-10T10:25:17Z</time>
      </trkpt>
      <trkpt lat="42.75632" lon="1.59628">
        <ele>1674.75390625</ele>
        <time>2012-03-10T10:25:23Z</time>
      </trkpt>
      <trkpt lat="42.75632" lon="1.59634">
        <ele>1675.7150878906</ele>
        <time>2012-03-10T10:25:28Z</time>
      </trkpt>
      <trkpt lat="42.75629" lon="1.59642">
        <ele>1677.6379394531</ele>
        <time>2012-03-10T10:25:36Z</time>
      </trkpt>
      <trkpt lat="42.75628" lon="1.59652">
        <ele>1679.0798339844</ele>
        <time>2012-03-10T10:25:45Z</time>
      </trkpt>
      <trkpt lat="42.75626" lon="1.5966">
        <ele>1680.5219726562</ele>
        <time>2012-03-10T10:25:53Z</time>
      </trkpt>
      <trkpt lat="42.75621" lon="1.59665">
        <ele>1682.4445800781</ele>
        <time>2012-03-10T10:26:01Z</time>
      </trkpt>
      <trkpt lat="42.7562" lon="1.59669">
        <ele>1683.4057617188</ele>
        <time>2012-03-10T10:26:07Z</time>
      </trkpt>
      <trkpt lat="42.7562" lon="1.59674">
        <ele>1684.3671875</ele>
        <time>2012-03-10T10:26:12Z</time>
      </trkpt>
      <trkpt lat="42.7562" lon="1.59683">
        <ele>1685.8090820312</ele>
        <time>2012-03-10T10:26:20Z</time>
      </trkpt>
      <trkpt lat="42.75618" lon="1.59687">
        <ele>1687.2509765625</ele>
        <time>2012-03-10T10:26:26Z</time>
      </trkpt>
      <trkpt lat="42.75614" lon="1.5969">
        <ele>1688.2124023438</ele>
        <time>2012-03-10T10:26:32Z</time>
      </trkpt>
      <trkpt lat="42.75612" lon="1.59695">
        <ele>1689.1735839844</ele>
        <time>2012-03-10T10:26:39Z</time>
      </trkpt>
      <trkpt lat="42.75611" lon="1.59703">
        <ele>1690.6154785156</ele>
        <time>2012-03-10T10:26:46Z</time>
      </trkpt>
      <trkpt lat="42.7561" lon="1.59711">
        <ele>1691.5769042969</ele>
        <time>2012-03-10T10:26:54Z</time>
      </trkpt>
      <trkpt lat="42.7561" lon="1.59712">
        <ele>1692.0578613281</ele>
        <time>2012-03-10T10:26:56Z</time>
      </trkpt>
      <trkpt lat="42.75609" lon="1.59717">
        <ele>1693.0190429688</ele>
        <time>2012-03-10T10:32:22Z</time>
      </trkpt>
      <trkpt lat="42.75609" lon="1.59717">
        <ele>1693.0190429688</ele>
        <time>2012-03-10T10:32:23Z</time>
      </trkpt>
      <trkpt lat="42.75607" lon="1.5972">
        <ele>1693.4997558594</ele>
        <time>2012-03-10T10:32:28Z</time>
      </trkpt>
      <trkpt lat="42.75598" lon="1.59732">
        <ele>1695.4223632812</ele>
        <time>2012-03-10T10:32:38Z</time>
      </trkpt>
      <trkpt lat="42.75595" lon="1.5974">
        <ele>1696.3837890625</ele>
        <time>2012-03-10T10:32:44Z</time>
      </trkpt>
      <trkpt lat="42.75589" lon="1.5975">
        <ele>1697.8256835938</ele>
        <time>2012-03-10T10:32:53Z</time>
      </trkpt>
      <trkpt lat="42.75584" lon="1.59756">
        <ele>1698.3061523438</ele>
        <time>2012-03-10T10:33:00Z</time>
      </trkpt>
      <trkpt lat="42.75582" lon="1.59761">
        <ele>1699.267578125</ele>
        <time>2012-03-10T10:33:05Z</time>
      </trkpt>
      <trkpt lat="42.75579" lon="1.59768">
        <ele>1700.2290039062</ele>
        <time>2012-03-10T10:33:12Z</time>
      </trkpt>
      <trkpt lat="42.75577" lon="1.59774">
        <ele>1701.1901855469</ele>
        <time>2012-03-10T10:33:18Z</time>
      </trkpt>
      <trkpt lat="42.75576" lon="1.59782">
        <ele>1701.6708984375</ele>
        <time>2012-03-10T10:33:26Z</time>
      </trkpt>
      <trkpt lat="42.75574" lon="1.59788">
        <ele>1702.6320800781</ele>
        <time>2012-03-10T10:33:32Z</time>
      </trkpt>
      <trkpt lat="42.75572" lon="1.59797">
        <ele>1704.07421875</ele>
        <time>2012-03-10T10:33:40Z</time>
      </trkpt>
      <trkpt lat="42.7557" lon="1.59804">
        <ele>1704.5546875</ele>
        <time>2012-03-10T10:33:47Z</time>
      </trkpt>
      <trkpt lat="42.75566" lon="1.59812">
        <ele>1705.0354003906</ele>
        <time>2012-03-10T10:33:54Z</time>
      </trkpt>
      <trkpt lat="42.75565" lon="1.5982">
        <ele>1705.9965820312</ele>
        <time>2012-03-10T10:34:01Z</time>
      </trkpt>
      <trkpt lat="42.75563" lon="1.59829">
        <ele>1706.4772949219</ele>
        <time>2012-03-10T10:34:09Z</time>
      </trkpt>
      <trkpt lat="42.75561" lon="1.59837">
        <ele>1706.4772949219</ele>
        <time>2012-03-10T10:34:16Z</time>
      </trkpt>
      <trkpt lat="42.7556" lon="1.59844">
        <ele>1705.9965820312</ele>
        <time>2012-03-10T10:34:22Z</time>
      </trkpt>
      <trkpt lat="42.75557" lon="1.59853">
        <ele>1705.9965820312</ele>
        <time>2012-03-10T10:34:30Z</time>
      </trkpt>
      <trkpt lat="42.75555" lon="1.59865">
        <ele>1705.5161132812</ele>
        <time>2012-03-10T10:34:40Z</time>
      </trkpt>
      <trkpt lat="42.75555" lon="1.59874">
        <ele>1705.5161132812</ele>
        <time>2012-03-10T10:34:47Z</time>
      </trkpt>
      <trkpt lat="42.75555" lon="1.59878">
        <ele>1705.9965820312</ele>
        <time>2012-03-10T10:34:54Z</time>
      </trkpt>
      <trkpt lat="42.75554" lon="1.59884">
        <ele>1705.5161132812</ele>
        <time>2012-03-10T10:35:02Z</time>
      </trkpt>
      <trkpt lat="42.75554" lon="1.59888">
        <ele>1705.0354003906</ele>
        <time>2012-03-10T10:35:08Z</time>
      </trkpt>
      <trkpt lat="42.75554" lon="1.5989">
        <ele>1705.0354003906</ele>
        <time>2012-03-10T10:35:14Z</time>
      </trkpt>
      <trkpt lat="42.75549" lon="1.59897">
        <ele>1704.07421875</ele>
        <time>2012-03-10T10:35:20Z</time>
      </trkpt>
      <trkpt lat="42.75543" lon="1.59902">
        <ele>1702.1513671875</ele>
        <time>2012-03-10T10:35:28Z</time>
      </trkpt>
      <trkpt lat="42.75539" lon="1.59908">
        <ele>1701.1901855469</ele>
        <time>2012-03-10T10:35:35Z</time>
      </trkpt>
      <trkpt lat="42.75537" lon="1.59914">
        <ele>1700.2290039062</ele>
        <time>2012-03-10T10:35:42Z</time>
      </trkpt>
      <trkpt lat="42.75536" lon="1.5992">
        <ele>1698.7868652344</ele>
        <time>2012-03-10T10:35:48Z</time>
      </trkpt>
      <trkpt lat="42.75534" lon="1.59925">
        <ele>1697.8256835938</ele>
        <time>2012-03-10T10:35:53Z</time>
      </trkpt>
      <trkpt lat="42.7553" lon="1.59931">
        <ele>1695.9030761719</ele>
        <time>2012-03-10T10:35:59Z</time>
      </trkpt>
      <trkpt lat="42.75526" lon="1.59936">
        <ele>1694.4609375</ele>
        <time>2012-03-10T10:36:05Z</time>
      </trkpt>
      <trkpt lat="42.75521" lon="1.59942">
        <ele>1693.4997558594</ele>
        <time>2012-03-10T10:36:11Z</time>
      </trkpt>
      <trkpt lat="42.75516" lon="1.59951">
        <ele>1691.5769042969</ele>
        <time>2012-03-10T10:36:19Z</time>
      </trkpt>
      <trkpt lat="42.75514" lon="1.59956">
        <ele>1690.6154785156</ele>
        <time>2012-03-10T10:36:25Z</time>
      </trkpt>
      <trkpt lat="42.75512" lon="1.59962">
        <ele>1689.1735839844</ele>
        <time>2012-03-10T10:36:31Z</time>
      </trkpt>
      <trkpt lat="42.75509" lon="1.59965">
        <ele>1688.2124023438</ele>
        <time>2012-03-10T10:36:36Z</time>
      </trkpt>
      <trkpt lat="42.75502" lon="1.59976">
        <ele>1686.2897949219</ele>
        <time>2012-03-10T10:36:45Z</time>
      </trkpt>
      <trkpt lat="42.75497" lon="1.59986">
        <ele>1685.8090820312</ele>
        <time>2012-03-10T10:36:53Z</time>
      </trkpt>
      <trkpt lat="42.75495" lon="1.59994">
        <ele>1687.2509765625</ele>
        <time>2012-03-10T10:36:59Z</time>
      </trkpt>
      <trkpt lat="42.75492" lon="1.60003">
        <ele>1688.2124023438</ele>
        <time>2012-03-10T10:37:06Z</time>
      </trkpt>
      <trkpt lat="42.75492" lon="1.60008">
        <ele>1688.6931152344</ele>
        <time>2012-03-10T10:37:11Z</time>
      </trkpt>
      <trkpt lat="42.75491" lon="1.60015">
        <ele>1689.654296875</ele>
        <time>2012-03-10T10:37:17Z</time>
      </trkpt>
      <trkpt lat="42.75489" lon="1.60023">
        <ele>1690.6154785156</ele>
        <time>2012-03-10T10:37:23Z</time>
      </trkpt>
      <trkpt lat="42.75486" lon="1.6003">
        <ele>1691.5769042969</ele>
        <time>2012-03-10T10:37:30Z</time>
      </trkpt>
      <trkpt lat="42.75486" lon="1.60031">
        <ele>1691.0961914062</ele>
        <time>2012-03-10T10:37:36Z</time>
      </trkpt>
      <trkpt lat="42.75486" lon="1.60036">
        <ele>1692.0578613281</ele>
        <time>2012-03-10T10:37:43Z</time>
      </trkpt>
      <trkpt lat="42.75488" lon="1.60044">
        <ele>1693.0190429688</ele>
        <time>2012-03-10T10:37:50Z</time>
      </trkpt>
      <trkpt lat="42.75489" lon="1.60052">
        <ele>1693.98046875</ele>
        <time>2012-03-10T10:37:56Z</time>
      </trkpt>
      <trkpt lat="42.75489" lon="1.60062">
        <ele>1695.4223632812</ele>
        <time>2012-03-10T10:38:03Z</time>
      </trkpt>
      <trkpt lat="42.75488" lon="1.60068">
        <ele>1696.3837890625</ele>
        <time>2012-03-10T10:38:09Z</time>
      </trkpt>
      <trkpt lat="42.75487" lon="1.60074">
        <ele>1697.8256835938</ele>
        <time>2012-03-10T10:38:15Z</time>
      </trkpt>
      <trkpt lat="42.75486" lon="1.60083">
        <ele>1698.7868652344</ele>
        <time>2012-03-10T10:38:23Z</time>
      </trkpt>
      <trkpt lat="42.75485" lon="1.60092">
        <ele>1699.7482910156</ele>
        <time>2012-03-10T10:38:30Z</time>
      </trkpt>
      <trkpt lat="42.75487" lon="1.601">
        <ele>1700.7094726562</ele>
        <time>2012-03-10T10:38:36Z</time>
      </trkpt>
      <trkpt lat="42.75487" lon="1.60107">
        <ele>1701.1901855469</ele>
        <time>2012-03-10T10:38:42Z</time>
      </trkpt>
      <trkpt lat="42.75486" lon="1.60115">
        <ele>1702.1513671875</ele>
        <time>2012-03-10T10:38:49Z</time>
      </trkpt>
      <trkpt lat="42.75486" lon="1.60123">
        <ele>1703.1127929688</ele>
        <time>2012-03-10T10:38:55Z</time>
      </trkpt>
      <trkpt lat="42.75485" lon="1.60129">
        <ele>1704.07421875</ele>
        <time>2012-03-10T10:39:00Z</time>
      </trkpt>
      <trkpt lat="42.75484" lon="1.60138">
        <ele>1705.0354003906</ele>
        <time>2012-03-10T10:39:07Z</time>
      </trkpt>
      <trkpt lat="42.75479" lon="1.60144">
        <ele>1706.4772949219</ele>
        <time>2012-03-10T10:39:14Z</time>
      </trkpt>
      <trkpt lat="42.75476" lon="1.60152">
        <ele>1707.4387207031</ele>
        <time>2012-03-10T10:39:21Z</time>
      </trkpt>
      <trkpt lat="42.75475" lon="1.60163">
        <ele>1708.4001464844</ele>
        <time>2012-03-10T10:39:30Z</time>
      </trkpt>
      <trkpt lat="42.75473" lon="1.60176">
        <ele>1709.3615722656</ele>
        <time>2012-03-10T10:39:40Z</time>
      </trkpt>
      <trkpt lat="42.75472" lon="1.60182">
        <ele>1710.3227539062</ele>
        <time>2012-03-10T10:39:44Z</time>
      </trkpt>
      <trkpt lat="42.75472" lon="1.60192">
        <ele>1710.3227539062</ele>
        <time>2012-03-10T10:39:52Z</time>
      </trkpt>
      <trkpt lat="42.7547" lon="1.60201">
        <ele>1710.8034667969</ele>
        <time>2012-03-10T10:39:58Z</time>
      </trkpt>
      <trkpt lat="42.75469" lon="1.60205">
        <ele>1711.7648925781</ele>
        <time>2012-03-10T10:40:02Z</time>
      </trkpt>
      <trkpt lat="42.75468" lon="1.60212">
        <ele>1712.2453613281</ele>
        <time>2012-03-10T10:40:08Z</time>
      </trkpt>
      <trkpt lat="42.75466" lon="1.60219">
        <ele>1713.2067871094</ele>
        <time>2012-03-10T10:40:14Z</time>
      </trkpt>
      <trkpt lat="42.75463" lon="1.60227">
        <ele>1714.16796875</ele>
        <time>2012-03-10T10:40:21Z</time>
      </trkpt>
      <trkpt lat="42.7546" lon="1.60234">
        <ele>1715.6101074219</ele>
        <time>2012-03-10T10:40:28Z</time>
      </trkpt>
      <trkpt lat="42.75457" lon="1.60239">
        <ele>1716.0905761719</ele>
        <time>2012-03-10T10:40:34Z</time>
      </trkpt>
      <trkpt lat="42.75457" lon="1.60244">
        <ele>1717.0520019531</ele>
        <time>2012-03-10T10:40:39Z</time>
      </trkpt>
      <trkpt lat="42.75458" lon="1.60253">
        <ele>1718.4938964844</ele>
        <time>2012-03-10T10:40:47Z</time>
      </trkpt>
      <trkpt lat="42.75457" lon="1.6026">
        <ele>1719.4553222656</ele>
        <time>2012-03-10T10:40:53Z</time>
      </trkpt>
      <trkpt lat="42.75454" lon="1.60265">
        <ele>1720.4165039062</ele>
        <time>2012-03-10T10:40:59Z</time>
      </trkpt>
      <trkpt lat="42.7545" lon="1.60268">
        <ele>1721.8583984375</ele>
        <time>2012-03-10T10:41:05Z</time>
      </trkpt>
      <trkpt lat="42.75449" lon="1.60273">
        <ele>1722.8198242188</ele>
        <time>2012-03-10T10:41:10Z</time>
      </trkpt>
      <trkpt lat="42.75451" lon="1.6028">
        <ele>1723.7810058594</ele>
        <time>2012-03-10T10:41:17Z</time>
      </trkpt>
      <trkpt lat="42.75449" lon="1.60289">
        <ele>1725.7038574219</ele>
        <time>2012-03-10T10:41:25Z</time>
      </trkpt>
      <trkpt lat="42.75444" lon="1.60295">
        <ele>1728.1071777344</ele>
        <time>2012-03-10T10:41:33Z</time>
      </trkpt>
      <trkpt lat="42.75442" lon="1.60299">
        <ele>1728.587890625</ele>
        <time>2012-03-10T10:41:38Z</time>
      </trkpt>
      <trkpt lat="42.75441" lon="1.60303">
        <ele>1729.5490722656</ele>
        <time>2012-03-10T10:41:42Z</time>
      </trkpt>
      <trkpt lat="42.75439" lon="1.60308">
        <ele>1730.0297851562</ele>
        <time>2012-03-10T10:41:48Z</time>
      </trkpt>
      <trkpt lat="42.75439" lon="1.60314">
        <ele>1730.9912109375</ele>
        <time>2012-03-10T10:41:55Z</time>
      </trkpt>
      <trkpt lat="42.7544" lon="1.60321">
        <ele>1732.4331054688</ele>
        <time>2012-03-10T10:42:01Z</time>
      </trkpt>
      <trkpt lat="42.75439" lon="1.60329">
        <ele>1734.3557128906</ele>
        <time>2012-03-10T10:42:09Z</time>
      </trkpt>
      <trkpt lat="42.75438" lon="1.60338">
        <ele>1735.7976074219</ele>
        <time>2012-03-10T10:42:17Z</time>
      </trkpt>
      <trkpt lat="42.75434" lon="1.60345">
        <ele>1738.2009277344</ele>
        <time>2012-03-10T10:42:25Z</time>
      </trkpt>
      <trkpt lat="42.75431" lon="1.6035">
        <ele>1739.162109375</ele>
        <time>2012-03-10T10:42:32Z</time>
      </trkpt>
      <trkpt lat="42.7543" lon="1.60356">
        <ele>1739.6428222656</ele>
        <time>2012-03-10T10:42:39Z</time>
      </trkpt>
      <trkpt lat="42.75428" lon="1.6036">
        <ele>1740.6042480469</ele>
        <time>2012-03-10T10:42:43Z</time>
      </trkpt>
      <trkpt lat="42.75426" lon="1.60365">
        <ele>1741.5656738281</ele>
        <time>2012-03-10T10:42:50Z</time>
      </trkpt>
      <trkpt lat="42.75425" lon="1.60371">
        <ele>1742.0463867188</ele>
        <time>2012-03-10T10:42:56Z</time>
      </trkpt>
      <trkpt lat="42.75423" lon="1.60377">
        <ele>1743.0075683594</ele>
        <time>2012-03-10T10:43:02Z</time>
      </trkpt>
      <trkpt lat="42.75417" lon="1.60378">
        <ele>1743.9689941406</ele>
        <time>2012-03-10T10:43:09Z</time>
      </trkpt>
      <trkpt lat="42.75415" lon="1.60384">
        <ele>1744.9301757812</ele>
        <time>2012-03-10T10:43:16Z</time>
      </trkpt>
      <trkpt lat="42.75415" lon="1.60389">
        <ele>1745.4108886719</ele>
        <time>2012-03-10T10:43:21Z</time>
      </trkpt>
      <trkpt lat="42.75414" lon="1.60395">
        <ele>1746.3723144531</ele>
        <time>2012-03-10T10:43:27Z</time>
      </trkpt>
      <trkpt lat="42.75415" lon="1.60402">
        <ele>1747.3334960938</ele>
        <time>2012-03-10T10:43:33Z</time>
      </trkpt>
      <trkpt lat="42.75415" lon="1.60407">
        <ele>1747.8142089844</ele>
        <time>2012-03-10T10:43:38Z</time>
      </trkpt>
      <trkpt lat="42.75412" lon="1.60412">
        <ele>1748.775390625</ele>
        <time>2012-03-10T10:43:44Z</time>
      </trkpt>
      <trkpt lat="42.75407" lon="1.60414">
        <ele>1749.2561035156</ele>
        <time>2012-03-10T10:43:50Z</time>
      </trkpt>
      <trkpt lat="42.75405" lon="1.60418">
        <ele>1750.2175292969</ele>
        <time>2012-03-10T10:43:56Z</time>
      </trkpt>
      <trkpt lat="42.75405" lon="1.60425">
        <ele>1750.6979980469</ele>
        <time>2012-03-10T10:44:02Z</time>
      </trkpt>
      <trkpt lat="42.75404" lon="1.60431">
        <ele>1751.6594238281</ele>
        <time>2012-03-10T10:44:08Z</time>
      </trkpt>
      <trkpt lat="42.75402" lon="1.60436">
        <ele>1752.6206054688</ele>
        <time>2012-03-10T10:44:13Z</time>
      </trkpt>
      <trkpt lat="42.75401" lon="1.6044">
        <ele>1753.58203125</ele>
        <time>2012-03-10T10:44:18Z</time>
      </trkpt>
      <trkpt lat="42.75398" lon="1.60442">
        <ele>1755.0239257812</ele>
        <time>2012-03-10T10:44:24Z</time>
      </trkpt>
      <trkpt lat="42.75396" lon="1.60447">
        <ele>1755.5046386719</ele>
        <time>2012-03-10T10:44:29Z</time>
      </trkpt>
      <trkpt lat="42.75394" lon="1.60451">
        <ele>1756.4660644531</ele>
        <time>2012-03-10T10:44:35Z</time>
      </trkpt>
      <trkpt lat="42.75393" lon="1.60455">
        <ele>1757.4274902344</ele>
        <time>2012-03-10T10:44:54Z</time>
      </trkpt>
      <trkpt lat="42.75391" lon="1.60462">
        <ele>1757.908203125</ele>
        <time>2012-03-10T10:45:00Z</time>
      </trkpt>
      <trkpt lat="42.75388" lon="1.60471">
        <ele>1758.388671875</ele>
        <time>2012-03-10T10:45:08Z</time>
      </trkpt>
      <trkpt lat="42.75387" lon="1.60478">
        <ele>1759.3500976562</ele>
        <time>2012-03-10T10:45:14Z</time>
      </trkpt>
      <trkpt lat="42.75385" lon="1.60484">
        <ele>1759.8305664062</ele>
        <time>2012-03-10T10:45:19Z</time>
      </trkpt>
      <trkpt lat="42.75383" lon="1.60494">
        <ele>1761.2727050781</ele>
        <time>2012-03-10T10:45:27Z</time>
      </trkpt>
      <trkpt lat="42.75381" lon="1.605">
        <ele>1761.7534179688</ele>
        <time>2012-03-10T10:45:33Z</time>
      </trkpt>
      <trkpt lat="42.7538" lon="1.60504">
        <ele>1762.2338867188</ele>
        <time>2012-03-10T10:45:39Z</time>
      </trkpt>
      <trkpt lat="42.75379" lon="1.60508">
        <ele>1763.1953125</ele>
        <time>2012-03-10T10:45:50Z</time>
      </trkpt>
      <trkpt lat="42.75379" lon="1.60514">
        <ele>1764.1564941406</ele>
        <time>2012-03-10T10:45:56Z</time>
      </trkpt>
      <trkpt lat="42.75378" lon="1.60521">
        <ele>1765.5986328125</ele>
        <time>2012-03-10T10:46:03Z</time>
      </trkpt>
      <trkpt lat="42.75377" lon="1.60527">
        <ele>1767.0405273438</ele>
        <time>2012-03-10T10:46:10Z</time>
      </trkpt>
      <trkpt lat="42.75373" lon="1.60534">
        <ele>1769.4438476562</ele>
        <time>2012-03-10T10:46:18Z</time>
      </trkpt>
      <trkpt lat="42.7537" lon="1.60542">
        <ele>1770.8857421875</ele>
        <time>2012-03-10T10:46:26Z</time>
      </trkpt>
      <trkpt lat="42.75367" lon="1.60549">
        <ele>1772.3278808594</ele>
        <time>2012-03-10T10:46:34Z</time>
      </trkpt>
      <trkpt lat="42.75365" lon="1.60554">
        <ele>1773.2893066406</ele>
        <time>2012-03-10T10:46:40Z</time>
      </trkpt>
      <trkpt lat="42.75366" lon="1.60561">
        <ele>1774.7312011719</ele>
        <time>2012-03-10T10:46:46Z</time>
      </trkpt>
      <trkpt lat="42.75362" lon="1.60566">
        <ele>1775.6923828125</ele>
        <time>2012-03-10T10:46:53Z</time>
      </trkpt>
      <trkpt lat="42.7536" lon="1.60571">
        <ele>1777.1345214844</ele>
        <time>2012-03-10T10:46:59Z</time>
      </trkpt>
      <trkpt lat="42.75359" lon="1.60575">
        <ele>1777.6149902344</ele>
        <time>2012-03-10T10:47:05Z</time>
      </trkpt>
      <trkpt lat="42.75355" lon="1.6058">
        <ele>1779.5375976562</ele>
        <time>2012-03-10T10:47:12Z</time>
      </trkpt>
      <trkpt lat="42.75355" lon="1.60585">
        <ele>1780.4990234375</ele>
        <time>2012-03-10T10:47:18Z</time>
      </trkpt>
      <trkpt lat="42.75355" lon="1.60585">
        <ele>1780.4990234375</ele>
        <time>2012-03-10T10:47:27Z</time>
      </trkpt>
      <trkpt lat="42.75354" lon="1.60589">
        <ele>1780.9797363281</ele>
        <time>2012-03-10T10:47:46Z</time>
      </trkpt>
      <trkpt lat="42.75352" lon="1.60594">
        <ele>1782.4216308594</ele>
        <time>2012-03-10T10:47:53Z</time>
      </trkpt>
      <trkpt lat="42.75354" lon="1.60605">
        <ele>1783.3828125</ele>
        <time>2012-03-10T10:48:02Z</time>
      </trkpt>
      <trkpt lat="42.7535" lon="1.60612">
        <ele>1785.3054199219</ele>
        <time>2012-03-10T10:48:11Z</time>
      </trkpt>
      <trkpt lat="42.75348" lon="1.6062">
        <ele>1786.7473144531</ele>
        <time>2012-03-10T10:48:19Z</time>
      </trkpt>
      <trkpt lat="42.75346" lon="1.60628">
        <ele>1788.6704101562</ele>
        <time>2012-03-10T10:48:27Z</time>
      </trkpt>
      <trkpt lat="42.75344" lon="1.60632">
        <ele>1789.6315917969</ele>
        <time>2012-03-10T10:48:33Z</time>
      </trkpt>
      <trkpt lat="42.75343" lon="1.60638">
        <ele>1790.1123046875</ele>
        <time>2012-03-10T10:48:39Z</time>
      </trkpt>
      <trkpt lat="42.75341" lon="1.60642">
        <ele>1790.5927734375</ele>
        <time>2012-03-10T10:48:44Z</time>
      </trkpt>
      <trkpt lat="42.75339" lon="1.60646">
        <ele>1791.5541992188</ele>
        <time>2012-03-10T10:48:49Z</time>
      </trkpt>
      <trkpt lat="42.75337" lon="1.60651">
        <ele>1792.515625</ele>
        <time>2012-03-10T10:48:55Z</time>
      </trkpt>
      <trkpt lat="42.75335" lon="1.60658">
        <ele>1793.9575195312</ele>
        <time>2012-03-10T10:49:03Z</time>
      </trkpt>
      <trkpt lat="42.7533" lon="1.60662">
        <ele>1795.3994140625</ele>
        <time>2012-03-10T10:49:10Z</time>
      </trkpt>
      <trkpt lat="42.75325" lon="1.60662">
        <ele>1795.8801269531</ele>
        <time>2012-03-10T10:49:16Z</time>
      </trkpt>
      <trkpt lat="42.75319" lon="1.60662">
        <ele>1796.8413085938</ele>
        <time>2012-03-10T10:49:23Z</time>
      </trkpt>
      <trkpt lat="42.75317" lon="1.60664">
        <ele>1797.3220214844</ele>
        <time>2012-03-10T10:49:29Z</time>
      </trkpt>
      <trkpt lat="42.75317" lon="1.60669">
        <ele>1798.283203125</ele>
        <time>2012-03-10T10:49:35Z</time>
      </trkpt>
      <trkpt lat="42.75317" lon="1.60676">
        <ele>1799.2446289062</ele>
        <time>2012-03-10T10:49:42Z</time>
      </trkpt>
      <trkpt lat="42.75316" lon="1.60681">
        <ele>1800.2060546875</ele>
        <time>2012-03-10T10:49:48Z</time>
      </trkpt>
      <trkpt lat="42.75313" lon="1.60688">
        <ele>1801.6479492188</ele>
        <time>2012-03-10T10:49:56Z</time>
      </trkpt>
      <trkpt lat="42.75309" lon="1.60693">
        <ele>1803.5705566406</ele>
        <time>2012-03-10T10:50:04Z</time>
      </trkpt>
      <trkpt lat="42.75301" lon="1.60698">
        <ele>1806.4545898438</ele>
        <time>2012-03-10T10:50:16Z</time>
      </trkpt>
      <trkpt lat="42.75297" lon="1.60701">
        <ele>1807.416015625</ele>
        <time>2012-03-10T10:50:24Z</time>
      </trkpt>
      <trkpt lat="42.75296" lon="1.60708">
        <ele>1808.8579101562</ele>
        <time>2012-03-10T10:50:31Z</time>
      </trkpt>
      <trkpt lat="42.75295" lon="1.60715">
        <ele>1810.2998046875</ele>
        <time>2012-03-10T10:50:38Z</time>
      </trkpt>
      <trkpt lat="42.75292" lon="1.60714">
        <ele>1810.7805175781</ele>
        <time>2012-03-10T10:50:43Z</time>
      </trkpt>
      <trkpt lat="42.75289" lon="1.60715">
        <ele>1811.7419433594</ele>
        <time>2012-03-10T10:50:51Z</time>
      </trkpt>
      <trkpt lat="42.75287" lon="1.60714">
        <ele>1812.2224121094</ele>
        <time>2012-03-10T10:51:00Z</time>
      </trkpt>
      <trkpt lat="42.75286" lon="1.60716">
        <ele>1812.703125</ele>
        <time>2012-03-10T10:51:05Z</time>
      </trkpt>
      <trkpt lat="42.75286" lon="1.60723">
        <ele>1813.6643066406</ele>
        <time>2012-03-10T10:51:12Z</time>
      </trkpt>
      <trkpt lat="42.75285" lon="1.60729">
        <ele>1815.1064453125</ele>
        <time>2012-03-10T10:51:19Z</time>
      </trkpt>
      <trkpt lat="42.7528" lon="1.60727">
        <ele>1816.0676269531</ele>
        <time>2012-03-10T10:51:27Z</time>
      </trkpt>
      <trkpt lat="42.75274" lon="1.60726">
        <ele>1817.0290527344</ele>
        <time>2012-03-10T10:51:36Z</time>
      </trkpt>
      <trkpt lat="42.7527" lon="1.60724">
        <ele>1817.5095214844</ele>
        <time>2012-03-10T10:51:41Z</time>
      </trkpt>
      <trkpt lat="42.75266" lon="1.60723">
        <ele>1818.4709472656</ele>
        <time>2012-03-10T10:51:48Z</time>
      </trkpt>
      <trkpt lat="42.75263" lon="1.60725">
        <ele>1819.4323730469</ele>
        <time>2012-03-10T10:51:54Z</time>
      </trkpt>
      <trkpt lat="42.75259" lon="1.60728">
        <ele>1820.8745117188</ele>
        <time>2012-03-10T10:52:00Z</time>
      </trkpt>
      <trkpt lat="42.75256" lon="1.60733">
        <ele>1821.8356933594</ele>
        <time>2012-03-10T10:52:07Z</time>
      </trkpt>
      <trkpt lat="42.75257" lon="1.60738">
        <ele>1822.7971191406</ele>
        <time>2012-03-10T10:52:12Z</time>
      </trkpt>
      <trkpt lat="42.75256" lon="1.60744">
        <ele>1824.7197265625</ele>
        <time>2012-03-10T10:52:18Z</time>
      </trkpt>
      <trkpt lat="42.75254" lon="1.60747">
        <ele>1825.2001953125</ele>
        <time>2012-03-10T10:52:22Z</time>
      </trkpt>
      <trkpt lat="42.75254" lon="1.60752">
        <ele>1826.6423339844</ele>
        <time>2012-03-10T10:52:27Z</time>
      </trkpt>
      <trkpt lat="42.75253" lon="1.60757">
        <ele>1827.123046875</ele>
        <time>2012-03-10T10:52:32Z</time>
      </trkpt>
      <trkpt lat="42.75251" lon="1.60759">
        <ele>1828.0842285156</ele>
        <time>2012-03-10T10:52:37Z</time>
      </trkpt>
      <trkpt lat="42.75251" lon="1.60759">
        <ele>1828.0842285156</ele>
        <time>2012-03-10T10:52:51Z</time>
      </trkpt>
      <trkpt lat="42.75251" lon="1.60762">
        <ele>1828.5649414062</ele>
        <time>2012-03-10T10:52:59Z</time>
      </trkpt>
      <trkpt lat="42.75251" lon="1.60771">
        <ele>1830.0068359375</ele>
        <time>2012-03-10T10:53:07Z</time>
      </trkpt>
      <trkpt lat="42.75251" lon="1.60778">
        <ele>1831.9294433594</ele>
        <time>2012-03-10T10:53:14Z</time>
      </trkpt>
      <trkpt lat="42.75249" lon="1.60784">
        <ele>1832.890625</ele>
        <time>2012-03-10T10:53:20Z</time>
      </trkpt>
      <trkpt lat="42.75244" lon="1.60791">
        <ele>1834.3327636719</ele>
        <time>2012-03-10T10:53:29Z</time>
      </trkpt>
      <trkpt lat="42.75241" lon="1.60795">
        <ele>1835.2939453125</ele>
        <time>2012-03-10T10:53:35Z</time>
      </trkpt>
      <trkpt lat="42.75237" lon="1.60802">
        <ele>1837.216796875</ele>
        <time>2012-03-10T10:53:43Z</time>
      </trkpt>
      <trkpt lat="42.75233" lon="1.60808">
        <ele>1838.1782226562</ele>
        <time>2012-03-10T10:53:51Z</time>
      </trkpt>
      <trkpt lat="42.75225" lon="1.60812">
        <ele>1839.1394042969</ele>
        <time>2012-03-10T10:54:01Z</time>
      </trkpt>
      <trkpt lat="42.7522" lon="1.60817">
        <ele>1839.6201171875</ele>
        <time>2012-03-10T10:54:09Z</time>
      </trkpt>
      <trkpt lat="42.75215" lon="1.60824">
        <ele>1841.0620117188</ele>
        <time>2012-03-10T10:54:18Z</time>
      </trkpt>
      <trkpt lat="42.7521" lon="1.6083">
        <ele>1842.0234375</ele>
        <time>2012-03-10T10:54:26Z</time>
      </trkpt>
      <trkpt lat="42.75205" lon="1.60837">
        <ele>1843.4653320312</ele>
        <time>2012-03-10T10:54:35Z</time>
      </trkpt>
      <trkpt lat="42.752" lon="1.60843">
        <ele>1844.9072265625</ele>
        <time>2012-03-10T10:54:43Z</time>
      </trkpt>
      <trkpt lat="42.75192" lon="1.60848">
        <ele>1845.8686523438</ele>
        <time>2012-03-10T10:54:54Z</time>
      </trkpt>
      <trkpt lat="42.75184" lon="1.60854">
        <ele>1847.7912597656</ele>
        <time>2012-03-10T10:55:05Z</time>
      </trkpt>
      <trkpt lat="42.7518" lon="1.60859">
        <ele>1848.7524414062</ele>
        <time>2012-03-10T10:55:13Z</time>
      </trkpt>
      <trkpt lat="42.7518" lon="1.60865">
        <ele>1850.1945800781</ele>
        <time>2012-03-10T10:55:20Z</time>
      </trkpt>
      <trkpt lat="42.7518" lon="1.60871">
        <ele>1851.1557617188</ele>
        <time>2012-03-10T10:55:26Z</time>
      </trkpt>
      <trkpt lat="42.75181" lon="1.60876">
        <ele>1852.1171875</ele>
        <time>2012-03-10T10:55:31Z</time>
      </trkpt>
      <trkpt lat="42.75177" lon="1.60881">
        <ele>1853.5593261719</ele>
        <time>2012-03-10T10:55:38Z</time>
      </trkpt>
      <trkpt lat="42.75173" lon="1.60887">
        <ele>1855.0012207031</ele>
        <time>2012-03-10T10:55:47Z</time>
      </trkpt>
      <trkpt lat="42.75171" lon="1.60892">
        <ele>1855.9624023438</ele>
        <time>2012-03-10T10:55:53Z</time>
      </trkpt>
      <trkpt lat="42.75167" lon="1.60895">
        <ele>1856.923828125</ele>
        <time>2012-03-10T10:56:00Z</time>
      </trkpt>
      <trkpt lat="42.75167" lon="1.60895">
        <ele>1857.4045410156</ele>
        <time>2012-03-10T10:56:01Z</time>
      </trkpt>
      <trkpt lat="42.75167" lon="1.60898">
        <ele>1856.4431152344</ele>
        <time>2012-03-10T10:58:37Z</time>
      </trkpt>
      <trkpt lat="42.75167" lon="1.60898">
        <ele>1856.4431152344</ele>
        <time>2012-03-10T10:58:38Z</time>
      </trkpt>
      <trkpt lat="42.75166" lon="1.609">
        <ele>1856.4431152344</ele>
        <time>2012-03-10T10:58:44Z</time>
      </trkpt>
      <trkpt lat="42.75161" lon="1.60902">
        <ele>1857.4045410156</ele>
        <time>2012-03-10T10:58:50Z</time>
      </trkpt>
      <trkpt lat="42.75159" lon="1.60909">
        <ele>1859.3271484375</ele>
        <time>2012-03-10T10:58:58Z</time>
      </trkpt>
      <trkpt lat="42.7516" lon="1.60917">
        <ele>1861.2497558594</ele>
        <time>2012-03-10T10:59:06Z</time>
      </trkpt>
      <trkpt lat="42.75161" lon="1.60924">
        <ele>1862.6916503906</ele>
        <time>2012-03-10T10:59:14Z</time>
      </trkpt>
      <trkpt lat="42.75161" lon="1.6093">
        <ele>1864.1335449219</ele>
        <time>2012-03-10T10:59:21Z</time>
      </trkpt>
      <trkpt lat="42.75162" lon="1.60934">
        <ele>1865.0949707031</ele>
        <time>2012-03-10T10:59:27Z</time>
      </trkpt>
      <trkpt lat="42.75164" lon="1.60938">
        <ele>1866.5368652344</ele>
        <time>2012-03-10T10:59:33Z</time>
      </trkpt>
      <trkpt lat="42.75167" lon="1.60943">
        <ele>1867.017578125</ele>
        <time>2012-03-10T10:59:40Z</time>
      </trkpt>
      <trkpt lat="42.75169" lon="1.60947">
        <ele>1867.498046875</ele>
        <time>2012-03-10T10:59:45Z</time>
      </trkpt>
      <trkpt lat="42.75171" lon="1.60953">
        <ele>1868.9404296875</ele>
        <time>2012-03-10T10:59:52Z</time>
      </trkpt>
      <trkpt lat="42.75172" lon="1.60959">
        <ele>1869.9016113281</ele>
        <time>2012-03-10T10:59:58Z</time>
      </trkpt>
      <trkpt lat="42.75173" lon="1.60964">
        <ele>1870.3823242188</ele>
        <time>2012-03-10T11:00:04Z</time>
      </trkpt>
      <trkpt lat="42.75174" lon="1.60972">
        <ele>1871.3435058594</ele>
        <time>2012-03-10T11:00:11Z</time>
      </trkpt>
      <trkpt lat="42.75175" lon="1.6098">
        <ele>1872.7856445312</ele>
        <time>2012-03-10T11:00:19Z</time>
      </trkpt>
      <trkpt lat="42.75175" lon="1.60986">
        <ele>1873.2663574219</ele>
        <time>2012-03-10T11:00:25Z</time>
      </trkpt>
      <trkpt lat="42.75174" lon="1.60993">
        <ele>1875.1887207031</ele>
        <time>2012-03-10T11:00:32Z</time>
      </trkpt>
      <trkpt lat="42.75171" lon="1.60996">
        <ele>1875.6694335938</ele>
        <time>2012-03-10T11:00:37Z</time>
      </trkpt>
      <trkpt lat="42.75171" lon="1.61">
        <ele>1877.1115722656</ele>
        <time>2012-03-10T11:00:42Z</time>
      </trkpt>
      <trkpt lat="42.75169" lon="1.61006">
        <ele>1878.0727539062</ele>
        <time>2012-03-10T11:00:49Z</time>
      </trkpt>
      <trkpt lat="42.75166" lon="1.61004">
        <ele>1879.0339355469</ele>
        <time>2012-03-10T11:00:55Z</time>
      </trkpt>
      <trkpt lat="42.75162" lon="1.61002">
        <ele>1879.9953613281</ele>
        <time>2012-03-10T11:01:02Z</time>
      </trkpt>
      <trkpt lat="42.75159" lon="1.61">
        <ele>1880.9567871094</ele>
        <time>2012-03-10T11:01:08Z</time>
      </trkpt>
      <trkpt lat="42.75156" lon="1.60999">
        <ele>1881.4372558594</ele>
        <time>2012-03-10T11:01:14Z</time>
      </trkpt>
      <trkpt lat="42.75153" lon="1.61001">
        <ele>1882.3986816406</ele>
        <time>2012-03-10T11:01:19Z</time>
      </trkpt>
      <trkpt lat="42.75149" lon="1.61">
        <ele>1883.3598632812</ele>
        <time>2012-03-10T11:01:25Z</time>
      </trkpt>
      <trkpt lat="42.75145" lon="1.61002">
        <ele>1884.3215332031</ele>
        <time>2012-03-10T11:01:32Z</time>
      </trkpt>
      <trkpt lat="42.7514" lon="1.61007">
        <ele>1886.244140625</ele>
        <time>2012-03-10T11:01:41Z</time>
      </trkpt>
      <trkpt lat="42.75136" lon="1.61011">
        <ele>1887.6860351562</ele>
        <time>2012-03-10T11:01:49Z</time>
      </trkpt>
      <trkpt lat="42.75132" lon="1.61016">
        <ele>1888.6474609375</ele>
        <time>2012-03-10T11:01:57Z</time>
      </trkpt>
      <trkpt lat="42.75129" lon="1.61021">
        <ele>1890.0893554688</ele>
        <time>2012-03-10T11:02:04Z</time>
      </trkpt>
      <trkpt lat="42.75127" lon="1.61025">
        <ele>1891.53125</ele>
        <time>2012-03-10T11:02:09Z</time>
      </trkpt>
      <trkpt lat="42.75123" lon="1.61028">
        <ele>1892.4926757812</ele>
        <time>2012-03-10T11:02:15Z</time>
      </trkpt>
      <trkpt lat="42.75119" lon="1.6103">
        <ele>1893.4538574219</ele>
        <time>2012-03-10T11:02:21Z</time>
      </trkpt>
      <trkpt lat="42.75116" lon="1.61033">
        <ele>1894.4150390625</ele>
        <time>2012-03-10T11:02:27Z</time>
      </trkpt>
      <trkpt lat="42.75111" lon="1.61035">
        <ele>1895.8571777344</ele>
        <time>2012-03-10T11:02:34Z</time>
      </trkpt>
      <trkpt lat="42.75106" lon="1.61035">
        <ele>1896.818359375</ele>
        <time>2012-03-10T11:02:40Z</time>
      </trkpt>
      <trkpt lat="42.75101" lon="1.61036">
        <ele>1897.2990722656</ele>
        <time>2012-03-10T11:02:47Z</time>
      </trkpt>
      <trkpt lat="42.75097" lon="1.6104">
        <ele>1898.7409667969</ele>
        <time>2012-03-10T11:02:54Z</time>
      </trkpt>
      <trkpt lat="42.75093" lon="1.61045">
        <ele>1899.7023925781</ele>
        <time>2012-03-10T11:03:00Z</time>
      </trkpt>
      <trkpt lat="42.75091" lon="1.61051">
        <ele>1900.1833496094</ele>
        <time>2012-03-10T11:03:06Z</time>
      </trkpt>
      <trkpt lat="42.75087" lon="1.6106">
        <ele>1901.14453125</ele>
        <time>2012-03-10T11:03:14Z</time>
      </trkpt>
      <trkpt lat="42.75085" lon="1.61068">
        <ele>1901.6252441406</ele>
        <time>2012-03-10T11:03:20Z</time>
      </trkpt>
      <trkpt lat="42.75081" lon="1.61076">
        <ele>1902.1057128906</ele>
        <time>2012-03-10T11:03:27Z</time>
      </trkpt>
      <trkpt lat="42.75076" lon="1.61084">
        <ele>1902.1057128906</ele>
        <time>2012-03-10T11:03:35Z</time>
      </trkpt>
      <trkpt lat="42.7507" lon="1.61092">
        <ele>1902.1057128906</ele>
        <time>2012-03-10T11:03:43Z</time>
      </trkpt>
      <trkpt lat="42.75064" lon="1.611">
        <ele>1902.1057128906</ele>
        <time>2012-03-10T11:03:52Z</time>
      </trkpt>
      <trkpt lat="42.75058" lon="1.61106">
        <ele>1902.5864257812</ele>
        <time>2012-03-10T11:04:00Z</time>
      </trkpt>
      <trkpt lat="42.75054" lon="1.61111">
        <ele>1902.5864257812</ele>
        <time>2012-03-10T11:04:06Z</time>
      </trkpt>
      <trkpt lat="42.7505" lon="1.61117">
        <ele>1903.0671386719</ele>
        <time>2012-03-10T11:04:12Z</time>
      </trkpt>
      <trkpt lat="42.75043" lon="1.61123">
        <ele>1904.0285644531</ele>
        <time>2012-03-10T11:04:21Z</time>
      </trkpt>
      <trkpt lat="42.75038" lon="1.61129">
        <ele>1904.5090332031</ele>
        <time>2012-03-10T11:04:28Z</time>
      </trkpt>
      <trkpt lat="42.75033" lon="1.61138">
        <ele>1905.9509277344</ele>
        <time>2012-03-10T11:04:36Z</time>
      </trkpt>
      <trkpt lat="42.75028" lon="1.61143">
        <ele>1906.9123535156</ele>
        <time>2012-03-10T11:04:43Z</time>
      </trkpt>
      <trkpt lat="42.75023" lon="1.6115">
        <ele>1907.3930664062</ele>
        <time>2012-03-10T11:04:51Z</time>
      </trkpt>
      <trkpt lat="42.75018" lon="1.61157">
        <ele>1908.3542480469</ele>
        <time>2012-03-10T11:04:58Z</time>
      </trkpt>
      <trkpt lat="42.75013" lon="1.61164">
        <ele>1908.8349609375</ele>
        <time>2012-03-10T11:05:06Z</time>
      </trkpt>
      <trkpt lat="42.75009" lon="1.6117">
        <ele>1909.7961425781</ele>
        <time>2012-03-10T11:05:13Z</time>
      </trkpt>
      <trkpt lat="42.75002" lon="1.61176">
        <ele>1910.2768554688</ele>
        <time>2012-03-10T11:05:23Z</time>
      </trkpt>
      <trkpt lat="42.74999" lon="1.61179">
        <ele>1910.7575683594</ele>
        <time>2012-03-10T11:05:29Z</time>
      </trkpt>
      <trkpt lat="42.74996" lon="1.61181">
        <ele>1910.2768554688</ele>
        <time>2012-03-10T11:05:34Z</time>
      </trkpt>
      <trkpt lat="42.74992" lon="1.61188">
        <ele>1910.7575683594</ele>
        <time>2012-03-10T11:05:42Z</time>
      </trkpt>
      <trkpt lat="42.74989" lon="1.61193">
        <ele>1910.7575683594</ele>
        <time>2012-03-10T11:05:49Z</time>
      </trkpt>
      <trkpt lat="42.74986" lon="1.612">
        <ele>1910.7575683594</ele>
        <time>2012-03-10T11:05:56Z</time>
      </trkpt>
      <trkpt lat="42.74985" lon="1.61202">
        <ele>1910.2768554688</ele>
        <time>2012-03-10T11:06:02Z</time>
      </trkpt>
      <trkpt lat="42.74985" lon="1.61205">
        <ele>1911.23828125</ele>
        <time>2012-03-10T11:06:09Z</time>
      </trkpt>
      <trkpt lat="42.74986" lon="1.61209">
        <ele>1910.7575683594</ele>
        <time>2012-03-10T11:06:14Z</time>
      </trkpt>
      <trkpt lat="42.74984" lon="1.61215">
        <ele>1910.7575683594</ele>
        <time>2012-03-10T11:06:20Z</time>
      </trkpt>
      <trkpt lat="42.74987" lon="1.61219">
        <ele>1910.7575683594</ele>
        <time>2012-03-10T11:06:26Z</time>
      </trkpt>
      <trkpt lat="42.74989" lon="1.61219">
        <ele>1910.7575683594</ele>
        <time>2012-03-10T11:06:31Z</time>
      </trkpt>
      <trkpt lat="42.74989" lon="1.6122">
        <ele>1911.23828125</ele>
        <time>2012-03-10T11:06:39Z</time>
      </trkpt>
      <trkpt lat="42.74989" lon="1.6122">
        <ele>1910.2768554688</ele>
        <time>2012-03-10T11:06:46Z</time>
      </trkpt>
      <trkpt lat="42.74988" lon="1.61223">
        <ele>1910.7575683594</ele>
        <time>2012-03-10T11:06:52Z</time>
      </trkpt>
      <trkpt lat="42.74984" lon="1.61228">
        <ele>1910.7575683594</ele>
        <time>2012-03-10T11:06:58Z</time>
      </trkpt>
      <trkpt lat="42.74979" lon="1.61235">
        <ele>1909.7961425781</ele>
        <time>2012-03-10T11:07:05Z</time>
      </trkpt>
      <trkpt lat="42.74974" lon="1.61243">
        <ele>1908.8349609375</ele>
        <time>2012-03-10T11:07:13Z</time>
      </trkpt>
      <trkpt lat="42.74973" lon="1.61245">
        <ele>1908.3542480469</ele>
        <time>2012-03-10T11:07:15Z</time>
      </trkpt>
      <trkpt lat="42.74971" lon="1.6125">
        <ele>1908.3542480469</ele>
        <time>2012-03-10T11:07:19Z</time>
      </trkpt>
      <trkpt lat="42.74963" lon="1.61264">
        <ele>1907.3930664062</ele>
        <time>2012-03-10T11:07:30Z</time>
      </trkpt>
      <trkpt lat="42.74958" lon="1.61273">
        <ele>1906.9123535156</ele>
        <time>2012-03-10T11:07:37Z</time>
      </trkpt>
      <trkpt lat="42.74953" lon="1.61282">
        <ele>1907.3930664062</ele>
        <time>2012-03-10T11:07:45Z</time>
      </trkpt>
      <trkpt lat="42.74947" lon="1.61291">
        <ele>1906.9123535156</ele>
        <time>2012-03-10T11:07:54Z</time>
      </trkpt>
      <trkpt lat="42.74942" lon="1.61298">
        <ele>1907.3930664062</ele>
        <time>2012-03-10T11:08:02Z</time>
      </trkpt>
      <trkpt lat="42.74936" lon="1.61304">
        <ele>1908.3542480469</ele>
        <time>2012-03-10T11:08:10Z</time>
      </trkpt>
      <trkpt lat="42.74931" lon="1.61308">
        <ele>1907.8737792969</ele>
        <time>2012-03-10T11:08:17Z</time>
      </trkpt>
      <trkpt lat="42.74927" lon="1.61316">
        <ele>1909.3156738281</ele>
        <time>2012-03-10T11:08:25Z</time>
      </trkpt>
      <trkpt lat="42.74922" lon="1.61321">
        <ele>1908.8349609375</ele>
        <time>2012-03-10T11:08:32Z</time>
      </trkpt>
      <trkpt lat="42.74921" lon="1.61321">
        <ele>1907.8737792969</ele>
        <time>2012-03-10T11:08:38Z</time>
      </trkpt>
      <trkpt lat="42.7492" lon="1.61322">
        <ele>1907.8737792969</ele>
        <time>2012-03-10T11:08:46Z</time>
      </trkpt>
      <trkpt lat="42.7492" lon="1.61322">
        <ele>1908.3542480469</ele>
        <time>2012-03-10T11:08:54Z</time>
      </trkpt>
      <trkpt lat="42.7492" lon="1.6132">
        <ele>1909.3156738281</ele>
        <time>2012-03-10T11:09:02Z</time>
      </trkpt>
      <trkpt lat="42.7492" lon="1.61322">
        <ele>1908.8349609375</ele>
        <time>2012-03-10T11:09:07Z</time>
      </trkpt>
      <trkpt lat="42.7492" lon="1.61322">
        <ele>1908.3542480469</ele>
        <time>2012-03-10T11:09:17Z</time>
      </trkpt>
      <trkpt lat="42.74917" lon="1.61321">
        <ele>1906.9123535156</ele>
        <time>2012-03-10T11:09:25Z</time>
      </trkpt>
      <trkpt lat="42.7491" lon="1.61318">
        <ele>1904.5090332031</ele>
        <time>2012-03-10T11:09:31Z</time>
      </trkpt>
      <trkpt lat="42.74905" lon="1.61313">
        <ele>1902.5864257812</ele>
        <time>2012-03-10T11:09:36Z</time>
      </trkpt>
      <trkpt lat="42.74899" lon="1.61311">
        <ele>1900.6638183594</ele>
        <time>2012-03-10T11:09:42Z</time>
      </trkpt>
      <trkpt lat="42.74894" lon="1.61305">
        <ele>1898.2602539062</ele>
        <time>2012-03-10T11:09:51Z</time>
      </trkpt>
      <trkpt lat="42.74889" lon="1.61301">
        <ele>1896.818359375</ele>
        <time>2012-03-10T11:09:58Z</time>
      </trkpt>
      <trkpt lat="42.74881" lon="1.61298">
        <ele>1895.3764648438</ele>
        <time>2012-03-10T11:10:07Z</time>
      </trkpt>
      <trkpt lat="42.74873" lon="1.61299">
        <ele>1893.4538574219</ele>
        <time>2012-03-10T11:10:15Z</time>
      </trkpt>
      <trkpt lat="42.74867" lon="1.613">
        <ele>1892.4926757812</ele>
        <time>2012-03-10T11:10:21Z</time>
      </trkpt>
      <trkpt lat="42.74858" lon="1.61302">
        <ele>1891.0505371094</ele>
        <time>2012-03-10T11:10:29Z</time>
      </trkpt>
      <trkpt lat="42.74849" lon="1.61304">
        <ele>1890.0893554688</ele>
        <time>2012-03-10T11:10:37Z</time>
      </trkpt>
      <trkpt lat="42.74842" lon="1.61308">
        <ele>1889.1279296875</ele>
        <time>2012-03-10T11:10:44Z</time>
      </trkpt>
      <trkpt lat="42.74835" lon="1.61309">
        <ele>1888.1667480469</ele>
        <time>2012-03-10T11:10:51Z</time>
      </trkpt>
      <trkpt lat="42.74827" lon="1.61312">
        <ele>1886.724609375</ele>
        <time>2012-03-10T11:10:59Z</time>
      </trkpt>
      <trkpt lat="42.74819" lon="1.61311">
        <ele>1884.8022460938</ele>
        <time>2012-03-10T11:11:06Z</time>
      </trkpt>
      <trkpt lat="42.7481" lon="1.61311">
        <ele>1883.3598632812</ele>
        <time>2012-03-10T11:11:14Z</time>
      </trkpt>
      <trkpt lat="42.74801" lon="1.61316">
        <ele>1881.91796875</ele>
        <time>2012-03-10T11:11:22Z</time>
      </trkpt>
      <trkpt lat="42.74789" lon="1.61321">
        <ele>1881.4372558594</ele>
        <time>2012-03-10T11:11:31Z</time>
      </trkpt>
      <trkpt lat="42.74782" lon="1.61325">
        <ele>1880.9567871094</ele>
        <time>2012-03-10T11:11:38Z</time>
      </trkpt>
      <trkpt lat="42.74773" lon="1.6133">
        <ele>1879.9953613281</ele>
        <time>2012-03-10T11:11:46Z</time>
      </trkpt>
      <trkpt lat="42.74764" lon="1.61328">
        <ele>1879.0339355469</ele>
        <time>2012-03-10T11:11:54Z</time>
      </trkpt>
      <trkpt lat="42.74757" lon="1.61333">
        <ele>1877.5920410156</ele>
        <time>2012-03-10T11:12:01Z</time>
      </trkpt>
      <trkpt lat="42.74751" lon="1.61341">
        <ele>1876.630859375</ele>
        <time>2012-03-10T11:12:09Z</time>
      </trkpt>
      <trkpt lat="42.74745" lon="1.61347">
        <ele>1875.6694335938</ele>
        <time>2012-03-10T11:12:16Z</time>
      </trkpt>
      <trkpt lat="42.74738" lon="1.61352">
        <ele>1874.2275390625</ele>
        <time>2012-03-10T11:12:25Z</time>
      </trkpt>
      <trkpt lat="42.74734" lon="1.61358">
        <ele>1873.2663574219</ele>
        <time>2012-03-10T11:12:31Z</time>
      </trkpt>
      <trkpt lat="42.74731" lon="1.61363">
        <ele>1871.82421875</ele>
        <time>2012-03-10T11:12:37Z</time>
      </trkpt>
      <trkpt lat="42.74728" lon="1.61364">
        <ele>1870.8630371094</ele>
        <time>2012-03-10T11:12:40Z</time>
      </trkpt>
      <trkpt lat="42.74718" lon="1.61368">
        <ele>1867.9787597656</ele>
        <time>2012-03-10T11:12:49Z</time>
      </trkpt>
      <trkpt lat="42.74712" lon="1.61368">
        <ele>1866.5368652344</ele>
        <time>2012-03-10T11:12:56Z</time>
      </trkpt>
      <trkpt lat="42.74705" lon="1.61372">
        <ele>1864.6142578125</ele>
        <time>2012-03-10T11:13:04Z</time>
      </trkpt>
      <trkpt lat="42.74701" lon="1.61376">
        <ele>1863.6528320312</ele>
        <time>2012-03-10T11:13:09Z</time>
      </trkpt>
      <trkpt lat="42.74694" lon="1.61377">
        <ele>1861.2497558594</ele>
        <time>2012-03-10T11:13:17Z</time>
      </trkpt>
      <trkpt lat="42.74689" lon="1.61379">
        <ele>1859.8076171875</ele>
        <time>2012-03-10T11:13:23Z</time>
      </trkpt>
      <trkpt lat="42.74685" lon="1.61382">
        <ele>1858.3657226562</ele>
        <time>2012-03-10T11:13:27Z</time>
      </trkpt>
      <trkpt lat="42.74677" lon="1.61382">
        <ele>1856.923828125</ele>
        <time>2012-03-10T11:13:34Z</time>
      </trkpt>
      <trkpt lat="42.74672" lon="1.61387">
        <ele>1855.9624023438</ele>
        <time>2012-03-10T11:13:39Z</time>
      </trkpt>
      <trkpt lat="42.74663" lon="1.61393">
        <ele>1854.0400390625</ele>
        <time>2012-03-10T11:13:48Z</time>
      </trkpt>
      <trkpt lat="42.74656" lon="1.61398">
        <ele>1852.5979003906</ele>
        <time>2012-03-10T11:13:56Z</time>
      </trkpt>
      <trkpt lat="42.74655" lon="1.61399">
        <ele>1852.5979003906</ele>
        <time>2012-03-10T11:13:57Z</time>
      </trkpt>
      <trkpt lat="42.74647" lon="1.61406">
        <ele>1851.1557617188</ele>
        <time>2012-03-10T11:14:05Z</time>
      </trkpt>
      <trkpt lat="42.74637" lon="1.6141">
        <ele>1849.2331542969</ele>
        <time>2012-03-10T11:14:14Z</time>
      </trkpt>
      <trkpt lat="42.74628" lon="1.61415">
        <ele>1846.8298339844</ele>
        <time>2012-03-10T11:14:22Z</time>
      </trkpt>
      <trkpt lat="42.74621" lon="1.61419">
        <ele>1845.8686523438</ele>
        <time>2012-03-10T11:14:29Z</time>
      </trkpt>
      <trkpt lat="42.74612" lon="1.61423">
        <ele>1843.9460449219</ele>
        <time>2012-03-10T11:14:37Z</time>
      </trkpt>
      <trkpt lat="42.74608" lon="1.61424">
        <ele>1843.4653320312</ele>
        <time>2012-03-10T11:14:41Z</time>
      </trkpt>
      <trkpt lat="42.74604" lon="1.61428">
        <ele>1842.5041503906</ele>
        <time>2012-03-10T11:14:45Z</time>
      </trkpt>
      <trkpt lat="42.74596" lon="1.61431">
        <ele>1841.0620117188</ele>
        <time>2012-03-10T11:14:53Z</time>
      </trkpt>
      <trkpt lat="42.74587" lon="1.61434">
        <ele>1840.1008300781</ele>
        <time>2012-03-10T11:15:01Z</time>
      </trkpt>
      <trkpt lat="42.74578" lon="1.61437">
        <ele>1838.1782226562</ele>
        <time>2012-03-10T11:15:09Z</time>
      </trkpt>
      <trkpt lat="42.74569" lon="1.6144">
        <ele>1836.2556152344</ele>
        <time>2012-03-10T11:15:18Z</time>
      </trkpt>
      <trkpt lat="42.74559" lon="1.61443">
        <ele>1834.8134765625</ele>
        <time>2012-03-10T11:15:26Z</time>
      </trkpt>
      <trkpt lat="42.74557" lon="1.61446">
        <ele>1835.2939453125</ele>
        <time>2012-03-10T11:15:29Z</time>
      </trkpt>
      <trkpt lat="42.74547" lon="1.61454">
        <ele>1834.8134765625</ele>
        <time>2012-03-10T11:15:38Z</time>
      </trkpt>
      <trkpt lat="42.74538" lon="1.61461">
        <ele>1833.8520507812</ele>
        <time>2012-03-10T11:15:46Z</time>
      </trkpt>
      <trkpt lat="42.74529" lon="1.61467">
        <ele>1832.41015625</ele>
        <time>2012-03-10T11:15:54Z</time>
      </trkpt>
      <trkpt lat="42.7452" lon="1.61476">
        <ele>1831.4487304688</ele>
        <time>2012-03-10T11:16:03Z</time>
      </trkpt>
      <trkpt lat="42.74512" lon="1.61481">
        <ele>1830.0068359375</ele>
        <time>2012-03-10T11:16:10Z</time>
      </trkpt>
      <trkpt lat="42.74503" lon="1.61486">
        <ele>1828.0842285156</ele>
        <time>2012-03-10T11:16:19Z</time>
      </trkpt>
      <trkpt lat="42.74496" lon="1.61494">
        <ele>1827.123046875</ele>
        <time>2012-03-10T11:16:27Z</time>
      </trkpt>
      <trkpt lat="42.74486" lon="1.61506">
        <ele>1825.2001953125</ele>
        <time>2012-03-10T11:16:37Z</time>
      </trkpt>
      <trkpt lat="42.74476" lon="1.61518">
        <ele>1823.7583007812</ele>
        <time>2012-03-10T11:16:48Z</time>
      </trkpt>
      <trkpt lat="42.74467" lon="1.61527">
        <ele>1822.31640625</ele>
        <time>2012-03-10T11:16:56Z</time>
      </trkpt>
      <trkpt lat="42.74459" lon="1.61538">
        <ele>1821.3549804688</ele>
        <time>2012-03-10T11:17:05Z</time>
      </trkpt>
      <trkpt lat="42.7445" lon="1.6155">
        <ele>1819.9128417969</ele>
        <time>2012-03-10T11:17:15Z</time>
      </trkpt>
      <trkpt lat="42.7444" lon="1.6156">
        <ele>1817.5095214844</ele>
        <time>2012-03-10T11:17:24Z</time>
      </trkpt>
      <trkpt lat="42.74433" lon="1.6157">
        <ele>1816.5483398438</ele>
        <time>2012-03-10T11:17:32Z</time>
      </trkpt>
      <trkpt lat="42.74424" lon="1.61579">
        <ele>1815.5871582031</ele>
        <time>2012-03-10T11:17:41Z</time>
      </trkpt>
      <trkpt lat="42.74414" lon="1.61588">
        <ele>1814.1450195312</ele>
        <time>2012-03-10T11:17:50Z</time>
      </trkpt>
      <trkpt lat="42.74405" lon="1.61599">
        <ele>1813.1838378906</ele>
        <time>2012-03-10T11:17:59Z</time>
      </trkpt>
      <trkpt lat="42.74395" lon="1.61608">
        <ele>1811.7419433594</ele>
        <time>2012-03-10T11:18:08Z</time>
      </trkpt>
      <trkpt lat="42.74385" lon="1.61617">
        <ele>1810.7805175781</ele>
        <time>2012-03-10T11:18:17Z</time>
      </trkpt>
      <trkpt lat="42.74377" lon="1.61624">
        <ele>1809.3386230469</ele>
        <time>2012-03-10T11:18:24Z</time>
      </trkpt>
      <trkpt lat="42.74366" lon="1.61632">
        <ele>1808.3771972656</ele>
        <time>2012-03-10T11:18:33Z</time>
      </trkpt>
      <trkpt lat="42.74356" lon="1.61642">
        <ele>1807.8967285156</ele>
        <time>2012-03-10T11:18:43Z</time>
      </trkpt>
      <trkpt lat="42.74345" lon="1.6165">
        <ele>1808.3771972656</ele>
        <time>2012-03-10T11:18:54Z</time>
      </trkpt>
      <trkpt lat="42.7434" lon="1.61653">
        <ele>1808.3771972656</ele>
        <time>2012-03-10T11:19:01Z</time>
      </trkpt>
      <trkpt lat="42.74331" lon="1.61656">
        <ele>1807.8967285156</ele>
        <time>2012-03-10T11:19:09Z</time>
      </trkpt>
      <trkpt lat="42.74321" lon="1.61657">
        <ele>1807.8967285156</ele>
        <time>2012-03-10T11:19:17Z</time>
      </trkpt>
      <trkpt lat="42.74313" lon="1.61656">
        <ele>1807.416015625</ele>
        <time>2012-03-10T11:19:23Z</time>
      </trkpt>
      <trkpt lat="42.74305" lon="1.6166">
        <ele>1807.8967285156</ele>
        <time>2012-03-10T11:19:30Z</time>
      </trkpt>
      <trkpt lat="42.74302" lon="1.6166">
        <ele>1807.8967285156</ele>
        <time>2012-03-10T11:19:32Z</time>
      </trkpt>
      <trkpt lat="42.74292" lon="1.61661">
        <ele>1808.3771972656</ele>
        <time>2012-03-10T11:19:38Z</time>
      </trkpt>
      <trkpt lat="42.7428" lon="1.61661">
        <ele>1809.3386230469</ele>
        <time>2012-03-10T11:19:47Z</time>
      </trkpt>
      <trkpt lat="42.74275" lon="1.6166">
        <ele>1808.8579101562</ele>
        <time>2012-03-10T11:19:51Z</time>
      </trkpt>
      <trkpt lat="42.74271" lon="1.61662">
        <ele>1809.8190917969</ele>
        <time>2012-03-10T11:19:58Z</time>
      </trkpt>
      <trkpt lat="42.74271" lon="1.61663">
        <ele>1809.3386230469</ele>
        <time>2012-03-10T11:20:04Z</time>
      </trkpt>
      <trkpt lat="42.74271" lon="1.61662">
        <ele>1808.8579101562</ele>
        <time>2012-03-10T11:20:14Z</time>
      </trkpt>
      <trkpt lat="42.74272" lon="1.61662">
        <ele>1808.3771972656</ele>
        <time>2012-03-10T11:20:23Z</time>
      </trkpt>
      <trkpt lat="42.74272" lon="1.61662">
        <ele>1807.8967285156</ele>
        <time>2012-03-10T11:20:29Z</time>
      </trkpt>
      <trkpt lat="42.74272" lon="1.61661">
        <ele>1807.416015625</ele>
        <time>2012-03-10T11:20:38Z</time>
      </trkpt>
      <trkpt lat="42.74273" lon="1.61661">
        <ele>1807.416015625</ele>
        <time>2012-03-10T11:20:47Z</time>
      </trkpt>
      <trkpt lat="42.74273" lon="1.61661">
        <ele>1806.4545898438</ele>
        <time>2012-03-10T11:20:53Z</time>
      </trkpt>
      <trkpt lat="42.74273" lon="1.61661">
        <ele>1805.9738769531</ele>
        <time>2012-03-10T11:21:11Z</time>
      </trkpt>
      <trkpt lat="42.74273" lon="1.61661">
        <ele>1806.9353027344</ele>
        <time>2012-03-10T11:21:24Z</time>
      </trkpt>
      <trkpt lat="42.74272" lon="1.61661">
        <ele>1806.9353027344</ele>
        <time>2012-03-10T11:21:30Z</time>
      </trkpt>
      <trkpt lat="42.74272" lon="1.6166">
        <ele>1806.4545898438</ele>
        <time>2012-03-10T11:21:40Z</time>
      </trkpt>
      <trkpt lat="42.74272" lon="1.61661">
        <ele>1806.9353027344</ele>
        <time>2012-03-10T11:21:54Z</time>
      </trkpt>
      <trkpt lat="42.74271" lon="1.61661">
        <ele>1806.9353027344</ele>
        <time>2012-03-10T11:22:01Z</time>
      </trkpt>
      <trkpt lat="42.74272" lon="1.61661">
        <ele>1805.4934082031</ele>
        <time>2012-03-10T11:22:10Z</time>
      </trkpt>
      <trkpt lat="42.74272" lon="1.61661">
        <ele>1805.4934082031</ele>
        <time>2012-03-10T11:22:18Z</time>
      </trkpt>
      <trkpt lat="42.74272" lon="1.61661">
        <ele>1804.5319824219</ele>
        <time>2012-03-10T11:22:29Z</time>
      </trkpt>
      <trkpt lat="42.74272" lon="1.61661">
        <ele>1804.5319824219</ele>
        <time>2012-03-10T11:22:41Z</time>
      </trkpt>
      <trkpt lat="42.74272" lon="1.61661">
        <ele>1805.9738769531</ele>
        <time>2012-03-10T11:22:56Z</time>
      </trkpt>
      <trkpt lat="42.74271" lon="1.61661">
        <ele>1805.9738769531</ele>
        <time>2012-03-10T11:23:05Z</time>
      </trkpt>
      <trkpt lat="42.74271" lon="1.6166">
        <ele>1806.4545898438</ele>
        <time>2012-03-10T11:23:12Z</time>
      </trkpt>
      <trkpt lat="42.7427" lon="1.6166">
        <ele>1806.9353027344</ele>
        <time>2012-03-10T11:23:22Z</time>
      </trkpt>
      <trkpt lat="42.74269" lon="1.6166">
        <ele>1806.9353027344</ele>
        <time>2012-03-10T11:23:35Z</time>
      </trkpt>
      <trkpt lat="42.7427" lon="1.61659">
        <ele>1805.9738769531</ele>
        <time>2012-03-10T11:23:47Z</time>
      </trkpt>
      <trkpt lat="42.74269" lon="1.6166">
        <ele>1806.4545898438</ele>
        <time>2012-03-10T11:23:55Z</time>
      </trkpt>
      <trkpt lat="42.7427" lon="1.6166">
        <ele>1806.4545898438</ele>
        <time>2012-03-10T11:23:58Z</time>
      </trkpt>
      <trkpt lat="42.7427" lon="1.6166">
        <ele>1805.9738769531</ele>
        <time>2012-03-10T11:23:59Z</time>
      </trkpt>
      <trkpt lat="42.74266" lon="1.6166">
        <ele>1805.9738769531</ele>
        <time>2012-03-10T11:24:03Z</time>
      </trkpt>
      <trkpt lat="42.74261" lon="1.61659">
        <ele>1806.4545898438</ele>
        <time>2012-03-10T11:24:09Z</time>
      </trkpt>
      <trkpt lat="42.74255" lon="1.61659">
        <ele>1806.9353027344</ele>
        <time>2012-03-10T11:24:17Z</time>
      </trkpt>
      <trkpt lat="42.74249" lon="1.6166">
        <ele>1807.8967285156</ele>
        <time>2012-03-10T11:24:25Z</time>
      </trkpt>
      <trkpt lat="42.74243" lon="1.61657">
        <ele>1808.3771972656</ele>
        <time>2012-03-10T11:24:33Z</time>
      </trkpt>
      <trkpt lat="42.74237" lon="1.61657">
        <ele>1810.7805175781</ele>
        <time>2012-03-10T11:24:40Z</time>
      </trkpt>
      <trkpt lat="42.74232" lon="1.61657">
        <ele>1811.7419433594</ele>
        <time>2012-03-10T11:24:45Z</time>
      </trkpt>
      <trkpt lat="42.74224" lon="1.61656">
        <ele>1812.2224121094</ele>
        <time>2012-03-10T11:24:54Z</time>
      </trkpt>
      <trkpt lat="42.74218" lon="1.61655">
        <ele>1813.1838378906</ele>
        <time>2012-03-10T11:25:01Z</time>
      </trkpt>
      <trkpt lat="42.74211" lon="1.61654">
        <ele>1814.6257324219</ele>
        <time>2012-03-10T11:25:08Z</time>
      </trkpt>
      <trkpt lat="42.74206" lon="1.61654">
        <ele>1815.1064453125</ele>
        <time>2012-03-10T11:25:14Z</time>
      </trkpt>
      <trkpt lat="42.74199" lon="1.61652">
        <ele>1816.0676269531</ele>
        <time>2012-03-10T11:25:21Z</time>
      </trkpt>
      <trkpt lat="42.74193" lon="1.61651">
        <ele>1817.0290527344</ele>
        <time>2012-03-10T11:25:28Z</time>
      </trkpt>
      <trkpt lat="42.74187" lon="1.6165">
        <ele>1817.5095214844</ele>
        <time>2012-03-10T11:25:33Z</time>
      </trkpt>
      <trkpt lat="42.74178" lon="1.61651">
        <ele>1818.9516601562</ele>
        <time>2012-03-10T11:25:43Z</time>
      </trkpt>
      <trkpt lat="42.74172" lon="1.61649">
        <ele>1819.4323730469</ele>
        <time>2012-03-10T11:25:49Z</time>
      </trkpt>
      <trkpt lat="42.74165" lon="1.61648">
        <ele>1820.3937988281</ele>
        <time>2012-03-10T11:25:56Z</time>
      </trkpt>
      <trkpt lat="42.74157" lon="1.61646">
        <ele>1820.8745117188</ele>
        <time>2012-03-10T11:26:03Z</time>
      </trkpt>
      <trkpt lat="42.74148" lon="1.61645">
        <ele>1820.8745117188</ele>
        <time>2012-03-10T11:26:12Z</time>
      </trkpt>
      <trkpt lat="42.74139" lon="1.61644">
        <ele>1821.8356933594</ele>
        <time>2012-03-10T11:26:20Z</time>
      </trkpt>
      <trkpt lat="42.7413" lon="1.61644">
        <ele>1822.7971191406</ele>
        <time>2012-03-10T11:26:29Z</time>
      </trkpt>
      <trkpt lat="42.74125" lon="1.61645">
        <ele>1823.2778320312</ele>
        <time>2012-03-10T11:26:34Z</time>
      </trkpt>
      <trkpt lat="42.74115" lon="1.61643">
        <ele>1824.2390136719</ele>
        <time>2012-03-10T11:26:43Z</time>
      </trkpt>
      <trkpt lat="42.74114" lon="1.61643">
        <ele>1824.2390136719</ele>
        <time>2012-03-10T11:26:44Z</time>
      </trkpt>
      <trkpt lat="42.74105" lon="1.61639">
        <ele>1825.6809082031</ele>
        <time>2012-03-10T11:26:53Z</time>
      </trkpt>
      <trkpt lat="42.74098" lon="1.61634">
        <ele>1826.6423339844</ele>
        <time>2012-03-10T11:27:01Z</time>
      </trkpt>
      <trkpt lat="42.74089" lon="1.6163">
        <ele>1827.603515625</ele>
        <time>2012-03-10T11:27:10Z</time>
      </trkpt>
      <trkpt lat="42.74081" lon="1.61628">
        <ele>1828.5649414062</ele>
        <time>2012-03-10T11:27:18Z</time>
      </trkpt>
      <trkpt lat="42.74072" lon="1.61626">
        <ele>1830.0068359375</ele>
        <time>2012-03-10T11:27:28Z</time>
      </trkpt>
      <trkpt lat="42.74064" lon="1.61624">
        <ele>1831.9294433594</ele>
        <time>2012-03-10T11:27:36Z</time>
      </trkpt>
      <trkpt lat="42.74059" lon="1.61623">
        <ele>1832.41015625</ele>
        <time>2012-03-10T11:27:42Z</time>
      </trkpt>
      <trkpt lat="42.74051" lon="1.61621">
        <ele>1833.8520507812</ele>
        <time>2012-03-10T11:27:50Z</time>
      </trkpt>
      <trkpt lat="42.74044" lon="1.61618">
        <ele>1835.2939453125</ele>
        <time>2012-03-10T11:27:58Z</time>
      </trkpt>
      <trkpt lat="42.74039" lon="1.61617">
        <ele>1836.2556152344</ele>
        <time>2012-03-10T11:28:04Z</time>
      </trkpt>
      <trkpt lat="42.74031" lon="1.61615">
        <ele>1837.6975097656</ele>
        <time>2012-03-10T11:28:12Z</time>
      </trkpt>
      <trkpt lat="42.74026" lon="1.61612">
        <ele>1839.6201171875</ele>
        <time>2012-03-10T11:28:19Z</time>
      </trkpt>
      <trkpt lat="42.74021" lon="1.6161">
        <ele>1840.5812988281</ele>
        <time>2012-03-10T11:28:25Z</time>
      </trkpt>
      <trkpt lat="42.74015" lon="1.61606">
        <ele>1841.5427246094</ele>
        <time>2012-03-10T11:28:33Z</time>
      </trkpt>
      <trkpt lat="42.74009" lon="1.61603">
        <ele>1842.5041503906</ele>
        <time>2012-03-10T11:28:40Z</time>
      </trkpt>
      <trkpt lat="42.74004" lon="1.616">
        <ele>1843.9460449219</ele>
        <time>2012-03-10T11:28:47Z</time>
      </trkpt>
      <trkpt lat="42.73999" lon="1.61597">
        <ele>1844.9072265625</ele>
        <time>2012-03-10T11:28:53Z</time>
      </trkpt>
      <trkpt lat="42.73993" lon="1.61595">
        <ele>1845.3879394531</ele>
        <time>2012-03-10T11:29:00Z</time>
      </trkpt>
      <trkpt lat="42.73989" lon="1.61594">
        <ele>1845.8686523438</ele>
        <time>2012-03-10T11:29:05Z</time>
      </trkpt>
      <trkpt lat="42.73983" lon="1.61591">
        <ele>1847.310546875</ele>
        <time>2012-03-10T11:29:12Z</time>
      </trkpt>
      <trkpt lat="42.73978" lon="1.61589">
        <ele>1848.7524414062</ele>
        <time>2012-03-10T11:29:18Z</time>
      </trkpt>
      <trkpt lat="42.73974" lon="1.61588">
        <ele>1849.2331542969</ele>
        <time>2012-03-10T11:29:23Z</time>
      </trkpt>
      <trkpt lat="42.73969" lon="1.61586">
        <ele>1850.1945800781</ele>
        <time>2012-03-10T11:29:29Z</time>
      </trkpt>
      <trkpt lat="42.73962" lon="1.61583">
        <ele>1852.5979003906</ele>
        <time>2012-03-10T11:29:36Z</time>
      </trkpt>
      <trkpt lat="42.73957" lon="1.61581">
        <ele>1853.5593261719</ele>
        <time>2012-03-10T11:29:43Z</time>
      </trkpt>
      <trkpt lat="42.73952" lon="1.61579">
        <ele>1854.5205078125</ele>
        <time>2012-03-10T11:29:49Z</time>
      </trkpt>
      <trkpt lat="42.73946" lon="1.61577">
        <ele>1855.9624023438</ele>
        <time>2012-03-10T11:29:56Z</time>
      </trkpt>
      <trkpt lat="42.73941" lon="1.61576">
        <ele>1857.8852539062</ele>
        <time>2012-03-10T11:30:02Z</time>
      </trkpt>
      <trkpt lat="42.73938" lon="1.61576">
        <ele>1858.3657226562</ele>
        <time>2012-03-10T11:30:06Z</time>
      </trkpt>
      <trkpt lat="42.73933" lon="1.61574">
        <ele>1859.8076171875</ele>
        <time>2012-03-10T11:30:12Z</time>
      </trkpt>
      <trkpt lat="42.73928" lon="1.61572">
        <ele>1860.7690429688</ele>
        <time>2012-03-10T11:30:18Z</time>
      </trkpt>
      <trkpt lat="42.73925" lon="1.61571">
        <ele>1861.2497558594</ele>
        <time>2012-03-10T11:30:25Z</time>
      </trkpt>
      <trkpt lat="42.73923" lon="1.61571">
        <ele>1860.7690429688</ele>
        <time>2012-03-10T11:30:32Z</time>
      </trkpt>
      <trkpt lat="42.73918" lon="1.6157">
        <ele>1861.73046875</ele>
        <time>2012-03-10T11:30:38Z</time>
      </trkpt>
      <trkpt lat="42.73914" lon="1.61568">
        <ele>1863.1723632812</ele>
        <time>2012-03-10T11:30:44Z</time>
      </trkpt>
      <trkpt lat="42.73911" lon="1.61568">
        <ele>1863.6528320312</ele>
        <time>2012-03-10T11:30:48Z</time>
      </trkpt>
      <trkpt lat="42.73907" lon="1.61567">
        <ele>1865.0949707031</ele>
        <time>2012-03-10T11:30:53Z</time>
      </trkpt>
      <trkpt lat="42.73902" lon="1.61565">
        <ele>1866.0561523438</ele>
        <time>2012-03-10T11:30:59Z</time>
      </trkpt>
      <trkpt lat="42.73896" lon="1.61563">
        <ele>1867.498046875</ele>
        <time>2012-03-10T11:31:05Z</time>
      </trkpt>
      <trkpt lat="42.73893" lon="1.61562">
        <ele>1868.4597167969</ele>
        <time>2012-03-10T11:31:09Z</time>
      </trkpt>
      <trkpt lat="42.73889" lon="1.61561">
        <ele>1869.4211425781</ele>
        <time>2012-03-10T11:31:14Z</time>
      </trkpt>
      <trkpt lat="42.73884" lon="1.61559">
        <ele>1870.3823242188</ele>
        <time>2012-03-10T11:31:20Z</time>
      </trkpt>
      <trkpt lat="42.7388" lon="1.61557">
        <ele>1871.82421875</ele>
        <time>2012-03-10T11:31:26Z</time>
      </trkpt>
      <trkpt lat="42.7388" lon="1.61557">
        <ele>1872.3049316406</ele>
        <time>2012-03-10T11:31:33Z</time>
      </trkpt>
      <trkpt lat="42.73878" lon="1.61557">
        <ele>1872.3049316406</ele>
        <time>2012-03-10T11:31:44Z</time>
      </trkpt>
      <trkpt lat="42.73876" lon="1.61556">
        <ele>1872.7856445312</ele>
        <time>2012-03-10T11:31:50Z</time>
      </trkpt>
      <trkpt lat="42.73872" lon="1.61555">
        <ele>1874.2275390625</ele>
        <time>2012-03-10T11:31:59Z</time>
      </trkpt>
      <trkpt lat="42.73867" lon="1.61554">
        <ele>1875.6694335938</ele>
        <time>2012-03-10T11:32:05Z</time>
      </trkpt>
      <trkpt lat="42.73863" lon="1.61553">
        <ele>1877.1115722656</ele>
        <time>2012-03-10T11:32:10Z</time>
      </trkpt>
      <trkpt lat="42.73859" lon="1.61551">
        <ele>1878.5534667969</ele>
        <time>2012-03-10T11:32:16Z</time>
      </trkpt>
      <trkpt lat="42.73856" lon="1.61549">
        <ele>1879.5146484375</ele>
        <time>2012-03-10T11:32:22Z</time>
      </trkpt>
      <trkpt lat="42.73853" lon="1.61547">
        <ele>1880.4760742188</ele>
        <time>2012-03-10T11:32:27Z</time>
      </trkpt>
      <trkpt lat="42.73848" lon="1.61547">
        <ele>1881.91796875</ele>
        <time>2012-03-10T11:32:34Z</time>
      </trkpt>
      <trkpt lat="42.73846" lon="1.61546">
        <ele>1882.3986816406</ele>
        <time>2012-03-10T11:32:40Z</time>
      </trkpt>
      <trkpt lat="42.73843" lon="1.61543">
        <ele>1883.8405761719</ele>
        <time>2012-03-10T11:32:46Z</time>
      </trkpt>
      <trkpt lat="42.73841" lon="1.61542">
        <ele>1883.8405761719</ele>
        <time>2012-03-10T11:32:54Z</time>
      </trkpt>
      <trkpt lat="42.73839" lon="1.6154">
        <ele>1884.8022460938</ele>
        <time>2012-03-10T11:33:01Z</time>
      </trkpt>
      <trkpt lat="42.73837" lon="1.61538">
        <ele>1885.2827148438</ele>
        <time>2012-03-10T11:33:06Z</time>
      </trkpt>
      <trkpt lat="42.73834" lon="1.61535">
        <ele>1886.724609375</ele>
        <time>2012-03-10T11:33:12Z</time>
      </trkpt>
      <trkpt lat="42.73832" lon="1.61533">
        <ele>1888.6474609375</ele>
        <time>2012-03-10T11:33:17Z</time>
      </trkpt>
      <trkpt lat="42.73828" lon="1.61531">
        <ele>1890.0893554688</ele>
        <time>2012-03-10T11:33:23Z</time>
      </trkpt>
      <trkpt lat="42.73825" lon="1.61527">
        <ele>1891.53125</ele>
        <time>2012-03-10T11:33:30Z</time>
      </trkpt>
      <trkpt lat="42.73823" lon="1.61525">
        <ele>1892.0119628906</ele>
        <time>2012-03-10T11:33:36Z</time>
      </trkpt>
      <trkpt lat="42.7382" lon="1.61523">
        <ele>1893.4538574219</ele>
        <time>2012-03-10T11:33:52Z</time>
      </trkpt>
      <trkpt lat="42.73817" lon="1.6152">
        <ele>1894.4150390625</ele>
        <time>2012-03-10T11:33:58Z</time>
      </trkpt>
      <trkpt lat="42.73812" lon="1.61516">
        <ele>1896.337890625</ele>
        <time>2012-03-10T11:34:06Z</time>
      </trkpt>
      <trkpt lat="42.73809" lon="1.61514">
        <ele>1898.2602539062</ele>
        <time>2012-03-10T11:34:11Z</time>
      </trkpt>
      <trkpt lat="42.73806" lon="1.61511">
        <ele>1900.1833496094</ele>
        <time>2012-03-10T11:34:17Z</time>
      </trkpt>
      <trkpt lat="42.73802" lon="1.61508">
        <ele>1901.6252441406</ele>
        <time>2012-03-10T11:34:23Z</time>
      </trkpt>
      <trkpt lat="42.738" lon="1.61506">
        <ele>1902.5864257812</ele>
        <time>2012-03-10T11:34:28Z</time>
      </trkpt>
      <trkpt lat="42.73798" lon="1.61504">
        <ele>1903.0671386719</ele>
        <time>2012-03-10T11:34:35Z</time>
      </trkpt>
      <trkpt lat="42.73794" lon="1.615">
        <ele>1904.5090332031</ele>
        <time>2012-03-10T11:34:41Z</time>
      </trkpt>
      <trkpt lat="42.73791" lon="1.61497">
        <ele>1905.4704589844</ele>
        <time>2012-03-10T11:34:46Z</time>
      </trkpt>
      <trkpt lat="42.73788" lon="1.61492">
        <ele>1906.431640625</ele>
        <time>2012-03-10T11:34:52Z</time>
      </trkpt>
      <trkpt lat="42.73785" lon="1.61489">
        <ele>1907.3930664062</ele>
        <time>2012-03-10T11:34:58Z</time>
      </trkpt>
      <trkpt lat="42.73782" lon="1.61487">
        <ele>1908.8349609375</ele>
        <time>2012-03-10T11:35:02Z</time>
      </trkpt>
      <trkpt lat="42.73782" lon="1.61487">
        <ele>1908.8349609375</ele>
        <time>2012-03-10T11:35:10Z</time>
      </trkpt>
      <trkpt lat="42.73779" lon="1.61484">
        <ele>1909.7961425781</ele>
        <time>2012-03-10T11:35:16Z</time>
      </trkpt>
      <trkpt lat="42.73775" lon="1.61482">
        <ele>1911.23828125</ele>
        <time>2012-03-10T11:35:21Z</time>
      </trkpt>
      <trkpt lat="42.73772" lon="1.6148">
        <ele>1912.1994628906</ele>
        <time>2012-03-10T11:35:26Z</time>
      </trkpt>
      <trkpt lat="42.73769" lon="1.61476">
        <ele>1913.6413574219</ele>
        <time>2012-03-10T11:35:32Z</time>
      </trkpt>
      <trkpt lat="42.73766" lon="1.61474">
        <ele>1915.0834960938</ele>
        <time>2012-03-10T11:35:37Z</time>
      </trkpt>
      <trkpt lat="42.73761" lon="1.61471">
        <ele>1916.5256347656</ele>
        <time>2012-03-10T11:35:43Z</time>
      </trkpt>
      <trkpt lat="42.73761" lon="1.61471">
        <ele>1917.0063476562</ele>
        <time>2012-03-10T11:35:48Z</time>
      </trkpt>
      <trkpt lat="42.73757" lon="1.6147">
        <ele>1917.9675292969</ele>
        <time>2012-03-10T11:35:54Z</time>
      </trkpt>
      <trkpt lat="42.73753" lon="1.61468">
        <ele>1919.4096679688</ele>
        <time>2012-03-10T11:35:59Z</time>
      </trkpt>
      <trkpt lat="42.7375" lon="1.61466">
        <ele>1921.33203125</ele>
        <time>2012-03-10T11:36:04Z</time>
      </trkpt>
      <trkpt lat="42.73746" lon="1.61464">
        <ele>1922.2934570312</ele>
        <time>2012-03-10T11:36:09Z</time>
      </trkpt>
      <trkpt lat="42.73744" lon="1.61463">
        <ele>1922.7741699219</ele>
        <time>2012-03-10T11:36:13Z</time>
      </trkpt>
      <trkpt lat="42.73742" lon="1.61461">
        <ele>1923.2548828125</ele>
        <time>2012-03-10T11:36:18Z</time>
      </trkpt>
      <trkpt lat="42.73737" lon="1.61459">
        <ele>1925.1772460938</ele>
        <time>2012-03-10T11:36:25Z</time>
      </trkpt>
      <trkpt lat="42.73734" lon="1.61457">
        <ele>1925.6579589844</ele>
        <time>2012-03-10T11:36:29Z</time>
      </trkpt>
      <trkpt lat="42.73734" lon="1.61456">
        <ele>1925.6579589844</ele>
        <time>2012-03-10T11:36:35Z</time>
      </trkpt>
      <trkpt lat="42.73732" lon="1.61456">
        <ele>1926.138671875</ele>
        <time>2012-03-10T11:36:44Z</time>
      </trkpt>
      <trkpt lat="42.73732" lon="1.61455">
        <ele>1926.138671875</ele>
        <time>2012-03-10T11:36:52Z</time>
      </trkpt>
      <trkpt lat="42.73732" lon="1.61456">
        <ele>1926.6193847656</ele>
        <time>2012-03-10T11:37:20Z</time>
      </trkpt>
      <trkpt lat="42.73733" lon="1.61456">
        <ele>1926.6193847656</ele>
        <time>2012-03-10T11:37:31Z</time>
      </trkpt>
      <trkpt lat="42.73732" lon="1.61456">
        <ele>1926.6193847656</ele>
        <time>2012-03-10T11:37:37Z</time>
      </trkpt>
      <trkpt lat="42.73731" lon="1.61454">
        <ele>1927.5805664062</ele>
        <time>2012-03-10T11:37:56Z</time>
      </trkpt>
      <trkpt lat="42.73726" lon="1.61451">
        <ele>1929.0224609375</ele>
        <time>2012-03-10T11:38:03Z</time>
      </trkpt>
      <trkpt lat="42.73722" lon="1.61449">
        <ele>1930.4645996094</ele>
        <time>2012-03-10T11:38:07Z</time>
      </trkpt>
      <trkpt lat="42.73716" lon="1.61444">
        <ele>1931.9064941406</ele>
        <time>2012-03-10T11:38:14Z</time>
      </trkpt>
      <trkpt lat="42.73711" lon="1.61441">
        <ele>1933.3486328125</ele>
        <time>2012-03-10T11:38:20Z</time>
      </trkpt>
      <trkpt lat="42.73706" lon="1.61438">
        <ele>1934.7907714844</ele>
        <time>2012-03-10T11:38:26Z</time>
      </trkpt>
      <trkpt lat="42.73701" lon="1.61436">
        <ele>1936.2326660156</ele>
        <time>2012-03-10T11:38:32Z</time>
      </trkpt>
      <trkpt lat="42.73699" lon="1.61434">
        <ele>1936.2326660156</ele>
        <time>2012-03-10T11:38:37Z</time>
      </trkpt>
      <trkpt lat="42.73697" lon="1.61432">
        <ele>1937.1938476562</ele>
        <time>2012-03-10T11:38:49Z</time>
      </trkpt>
      <trkpt lat="42.73693" lon="1.6143">
        <ele>1937.6745605469</ele>
        <time>2012-03-10T11:38:55Z</time>
      </trkpt>
      <trkpt lat="42.7369" lon="1.61428">
        <ele>1938.6359863281</ele>
        <time>2012-03-10T11:38:59Z</time>
      </trkpt>
      <trkpt lat="42.73686" lon="1.61425">
        <ele>1940.0778808594</ele>
        <time>2012-03-10T11:39:05Z</time>
      </trkpt>
      <trkpt lat="42.73684" lon="1.61423">
        <ele>1941.0390625</ele>
        <time>2012-03-10T11:39:09Z</time>
      </trkpt>
      <trkpt lat="42.73682" lon="1.61421">
        <ele>1942.0004882812</ele>
        <time>2012-03-10T11:39:13Z</time>
      </trkpt>
      <trkpt lat="42.7368" lon="1.6142">
        <ele>1942.9616699219</ele>
        <time>2012-03-10T11:39:21Z</time>
      </trkpt>
      <trkpt lat="42.73677" lon="1.61417">
        <ele>1943.9230957031</ele>
        <time>2012-03-10T11:39:26Z</time>
      </trkpt>
      <trkpt lat="42.73674" lon="1.61413">
        <ele>1945.3649902344</ele>
        <time>2012-03-10T11:39:32Z</time>
      </trkpt>
      <trkpt lat="42.73669" lon="1.6141">
        <ele>1946.3264160156</ele>
        <time>2012-03-10T11:39:38Z</time>
      </trkpt>
      <trkpt lat="42.73666" lon="1.61408">
        <ele>1946.8068847656</ele>
        <time>2012-03-10T11:39:42Z</time>
      </trkpt>
      <trkpt lat="42.73663" lon="1.61406">
        <ele>1947.7683105469</ele>
        <time>2012-03-10T11:39:47Z</time>
      </trkpt>
      <trkpt lat="42.73663" lon="1.61405">
        <ele>1948.2490234375</ele>
        <time>2012-03-10T11:39:52Z</time>
      </trkpt>
      <trkpt lat="42.73661" lon="1.61403">
        <ele>1948.7297363281</ele>
        <time>2012-03-10T11:39:58Z</time>
      </trkpt>
      <trkpt lat="42.73656" lon="1.614">
        <ele>1950.171875</ele>
        <time>2012-03-10T11:40:04Z</time>
      </trkpt>
      <trkpt lat="42.73653" lon="1.61397">
        <ele>1951.1330566406</ele>
        <time>2012-03-10T11:40:09Z</time>
      </trkpt>
      <trkpt lat="42.73648" lon="1.61394">
        <ele>1952.5749511719</ele>
        <time>2012-03-10T11:40:16Z</time>
      </trkpt>
      <trkpt lat="42.73647" lon="1.61393">
        <ele>1952.0942382812</ele>
        <time>2012-03-10T11:40:22Z</time>
      </trkpt>
      <trkpt lat="42.73643" lon="1.6139">
        <ele>1953.0556640625</ele>
        <time>2012-03-10T11:40:34Z</time>
      </trkpt>
      <trkpt lat="42.7364" lon="1.61385">
        <ele>1954.0170898438</ele>
        <time>2012-03-10T11:40:40Z</time>
      </trkpt>
      <trkpt lat="42.73634" lon="1.61378">
        <ele>1955.939453125</ele>
        <time>2012-03-10T11:40:49Z</time>
      </trkpt>
      <trkpt lat="42.73626" lon="1.61374">
        <ele>1957.3815917969</ele>
        <time>2012-03-10T11:40:58Z</time>
      </trkpt>
      <trkpt lat="42.73619" lon="1.61371">
        <ele>1958.8234863281</ele>
        <time>2012-03-10T11:41:06Z</time>
      </trkpt>
      <trkpt lat="42.73613" lon="1.61367">
        <ele>1959.7846679688</ele>
        <time>2012-03-10T11:41:14Z</time>
      </trkpt>
      <trkpt lat="42.73607" lon="1.61362">
        <ele>1960.74609375</ele>
        <time>2012-03-10T11:41:22Z</time>
      </trkpt>
      <trkpt lat="42.73602" lon="1.61363">
        <ele>1961.2268066406</ele>
        <time>2012-03-10T11:41:28Z</time>
      </trkpt>
      <trkpt lat="42.73598" lon="1.61359">
        <ele>1961.7075195312</ele>
        <time>2012-03-10T11:41:33Z</time>
      </trkpt>
      <trkpt lat="42.73594" lon="1.61352">
        <ele>1962.6687011719</ele>
        <time>2012-03-10T11:41:40Z</time>
      </trkpt>
      <trkpt lat="42.73587" lon="1.61347">
        <ele>1963.6298828125</ele>
        <time>2012-03-10T11:41:48Z</time>
      </trkpt>
      <trkpt lat="42.73586" lon="1.61347">
        <ele>1963.6298828125</ele>
        <time>2012-03-10T11:41:54Z</time>
      </trkpt>
      <trkpt lat="42.73584" lon="1.61347">
        <ele>1963.6298828125</ele>
        <time>2012-03-10T11:42:00Z</time>
      </trkpt>
      <trkpt lat="42.73579" lon="1.61342">
        <ele>1964.1108398438</ele>
        <time>2012-03-10T11:42:07Z</time>
      </trkpt>
      <trkpt lat="42.73573" lon="1.61338">
        <ele>1965.072265625</ele>
        <time>2012-03-10T11:42:14Z</time>
      </trkpt>
      <trkpt lat="42.73568" lon="1.61335">
        <ele>1965.5529785156</ele>
        <time>2012-03-10T11:42:19Z</time>
      </trkpt>
      <trkpt lat="42.73563" lon="1.61327">
        <ele>1966.0334472656</ele>
        <time>2012-03-10T11:42:28Z</time>
      </trkpt>
      <trkpt lat="42.73557" lon="1.61318">
        <ele>1967.4753417969</ele>
        <time>2012-03-10T11:42:37Z</time>
      </trkpt>
      <trkpt lat="42.7355" lon="1.61311">
        <ele>1967.9560546875</ele>
        <time>2012-03-10T11:42:45Z</time>
      </trkpt>
      <trkpt lat="42.73543" lon="1.61311">
        <ele>1967.9560546875</ele>
        <time>2012-03-10T11:42:53Z</time>
      </trkpt>
      <trkpt lat="42.73538" lon="1.61315">
        <ele>1968.4367675781</ele>
        <time>2012-03-10T11:42:59Z</time>
      </trkpt>
      <trkpt lat="42.73533" lon="1.61321">
        <ele>1968.4367675781</ele>
        <time>2012-03-10T11:43:06Z</time>
      </trkpt>
      <trkpt lat="42.73532" lon="1.61322">
        <ele>1968.4367675781</ele>
        <time>2012-03-10T11:43:07Z</time>
      </trkpt>
      <trkpt lat="42.73524" lon="1.61331">
        <ele>1968.9174804688</ele>
        <time>2012-03-10T11:43:16Z</time>
      </trkpt>
      <trkpt lat="42.73514" lon="1.61332">
        <ele>1967.4753417969</ele>
        <time>2012-03-10T11:43:25Z</time>
      </trkpt>
      <trkpt lat="42.73508" lon="1.61332">
        <ele>1966.9948730469</ele>
        <time>2012-03-10T11:43:32Z</time>
      </trkpt>
      <trkpt lat="42.73508" lon="1.61332">
        <ele>1966.5141601562</ele>
        <time>2012-03-10T11:43:37Z</time>
      </trkpt>
      <trkpt lat="42.73507" lon="1.61327">
        <ele>1965.5529785156</ele>
        <time>2012-03-10T11:48:05Z</time>
      </trkpt>
      <trkpt lat="42.73507" lon="1.61327">
        <ele>1965.5529785156</ele>
        <time>2012-03-10T11:48:06Z</time>
      </trkpt>
      <trkpt lat="42.73503" lon="1.61326">
        <ele>1964.5915527344</ele>
        <time>2012-03-10T11:48:10Z</time>
      </trkpt>
      <trkpt lat="42.73491" lon="1.61324">
        <ele>1962.6687011719</ele>
        <time>2012-03-10T11:48:21Z</time>
      </trkpt>
      <trkpt lat="42.73481" lon="1.61324">
        <ele>1960.74609375</ele>
        <time>2012-03-10T11:48:30Z</time>
      </trkpt>
      <trkpt lat="42.73472" lon="1.61325">
        <ele>1959.3041992188</ele>
        <time>2012-03-10T11:48:38Z</time>
      </trkpt>
      <trkpt lat="42.73463" lon="1.61329">
        <ele>1956.4201660156</ele>
        <time>2012-03-10T11:48:47Z</time>
      </trkpt>
      <trkpt lat="42.7346" lon="1.61332">
        <ele>1955.458984375</ele>
        <time>2012-03-10T11:48:51Z</time>
      </trkpt>
      <trkpt lat="42.73456" lon="1.6134">
        <ele>1954.4975585938</ele>
        <time>2012-03-10T11:48:58Z</time>
      </trkpt>
      <trkpt lat="42.73453" lon="1.61349">
        <ele>1953.5363769531</ele>
        <time>2012-03-10T11:49:05Z</time>
      </trkpt>
      <trkpt lat="42.73451" lon="1.61353">
        <ele>1953.5363769531</ele>
        <time>2012-03-10T11:49:10Z</time>
      </trkpt>
      <trkpt lat="42.7345" lon="1.6136">
        <ele>1953.5363769531</ele>
        <time>2012-03-10T11:49:15Z</time>
      </trkpt>
      <trkpt lat="42.73447" lon="1.61369">
        <ele>1952.5749511719</ele>
        <time>2012-03-10T11:49:24Z</time>
      </trkpt>
      <trkpt lat="42.73447" lon="1.61372">
        <ele>1952.0942382812</ele>
        <time>2012-03-10T11:49:30Z</time>
      </trkpt>
      <trkpt lat="42.73446" lon="1.61378">
        <ele>1952.0942382812</ele>
        <time>2012-03-10T11:49:37Z</time>
      </trkpt>
      <trkpt lat="42.73446" lon="1.61382">
        <ele>1952.0942382812</ele>
        <time>2012-03-10T11:49:43Z</time>
      </trkpt>
      <trkpt lat="42.73441" lon="1.61389">
        <ele>1951.1330566406</ele>
        <time>2012-03-10T11:49:51Z</time>
      </trkpt>
      <trkpt lat="42.73437" lon="1.61399">
        <ele>1949.6911621094</ele>
        <time>2012-03-10T11:49:59Z</time>
      </trkpt>
      <trkpt lat="42.73437" lon="1.614">
        <ele>1949.6911621094</ele>
        <time>2012-03-10T11:50:00Z</time>
      </trkpt>
      <trkpt lat="42.73438" lon="1.61406">
        <ele>1949.2104492188</ele>
        <time>2012-03-10T11:50:04Z</time>
      </trkpt>
      <trkpt lat="42.73441" lon="1.61418">
        <ele>1949.2104492188</ele>
        <time>2012-03-10T11:50:13Z</time>
      </trkpt>
      <trkpt lat="42.73442" lon="1.61432">
        <ele>1948.2490234375</ele>
        <time>2012-03-10T11:50:22Z</time>
      </trkpt>
      <trkpt lat="42.73441" lon="1.61446">
        <ele>1947.7683105469</ele>
        <time>2012-03-10T11:50:31Z</time>
      </trkpt>
      <trkpt lat="42.73441" lon="1.61463">
        <ele>1946.8068847656</ele>
        <time>2012-03-10T11:50:42Z</time>
      </trkpt>
      <trkpt lat="42.73442" lon="1.61475">
        <ele>1946.3264160156</ele>
        <time>2012-03-10T11:50:50Z</time>
      </trkpt>
      <trkpt lat="42.73441" lon="1.61489">
        <ele>1945.3649902344</ele>
        <time>2012-03-10T11:50:58Z</time>
      </trkpt>
      <trkpt lat="42.7344" lon="1.61502">
        <ele>1943.9230957031</ele>
        <time>2012-03-10T11:51:06Z</time>
      </trkpt>
      <trkpt lat="42.73438" lon="1.61515">
        <ele>1942.9616699219</ele>
        <time>2012-03-10T11:51:14Z</time>
      </trkpt>
      <trkpt lat="42.73438" lon="1.61523">
        <ele>1942.4812011719</ele>
        <time>2012-03-10T11:51:20Z</time>
      </trkpt>
      <trkpt lat="42.73438" lon="1.61535">
        <ele>1940.5583496094</ele>
        <time>2012-03-10T11:51:27Z</time>
      </trkpt>
      <trkpt lat="42.73436" lon="1.6155">
        <ele>1939.1164550781</ele>
        <time>2012-03-10T11:51:36Z</time>
      </trkpt>
      <trkpt lat="42.73434" lon="1.61563">
        <ele>1937.1938476562</ele>
        <time>2012-03-10T11:51:44Z</time>
      </trkpt>
      <trkpt lat="42.73432" lon="1.61578">
        <ele>1935.751953125</ele>
        <time>2012-03-10T11:51:53Z</time>
      </trkpt>
      <trkpt lat="42.73431" lon="1.61589">
        <ele>1934.7907714844</ele>
        <time>2012-03-10T11:52:00Z</time>
      </trkpt>
      <trkpt lat="42.73429" lon="1.61603">
        <ele>1933.8293457031</ele>
        <time>2012-03-10T11:52:09Z</time>
      </trkpt>
      <trkpt lat="42.73427" lon="1.61616">
        <ele>1932.8679199219</ele>
        <time>2012-03-10T11:52:17Z</time>
      </trkpt>
      <trkpt lat="42.73425" lon="1.61632">
        <ele>1932.3874511719</ele>
        <time>2012-03-10T11:52:27Z</time>
      </trkpt>
      <trkpt lat="42.73423" lon="1.6164">
        <ele>1931.42578125</ele>
        <time>2012-03-10T11:52:35Z</time>
      </trkpt>
      <trkpt lat="42.73422" lon="1.61643">
        <ele>1931.42578125</ele>
        <time>2012-03-10T11:52:40Z</time>
      </trkpt>
      <trkpt lat="42.73425" lon="1.61646">
        <ele>1930.9453125</ele>
        <time>2012-03-10T11:52:47Z</time>
      </trkpt>
      <trkpt lat="42.73432" lon="1.61646">
        <ele>1930.4645996094</ele>
        <time>2012-03-10T11:52:54Z</time>
      </trkpt>
      <trkpt lat="42.73434" lon="1.61645">
        <ele>1930.9453125</ele>
        <time>2012-03-10T11:53:00Z</time>
      </trkpt>
      <trkpt lat="42.73433" lon="1.61646">
        <ele>1931.9064941406</ele>
        <time>2012-03-10T11:53:08Z</time>
      </trkpt>
      <trkpt lat="42.73429" lon="1.61654">
        <ele>1931.9064941406</ele>
        <time>2012-03-10T11:53:15Z</time>
      </trkpt>
      <trkpt lat="42.73424" lon="1.61666">
        <ele>1931.42578125</ele>
        <time>2012-03-10T11:53:23Z</time>
      </trkpt>
      <trkpt lat="42.73421" lon="1.61682">
        <ele>1929.5031738281</ele>
        <time>2012-03-10T11:53:33Z</time>
      </trkpt>
      <trkpt lat="42.73419" lon="1.61697">
        <ele>1927.5805664062</ele>
        <time>2012-03-10T11:53:42Z</time>
      </trkpt>
      <trkpt lat="42.73418" lon="1.61713">
        <ele>1925.1772460938</ele>
        <time>2012-03-10T11:53:51Z</time>
      </trkpt>
      <trkpt lat="42.73418" lon="1.61727">
        <ele>1923.7353515625</ele>
        <time>2012-03-10T11:53:59Z</time>
      </trkpt>
      <trkpt lat="42.73418" lon="1.6174">
        <ele>1922.2934570312</ele>
        <time>2012-03-10T11:54:06Z</time>
      </trkpt>
      <trkpt lat="42.73414" lon="1.61756">
        <ele>1920.8515625</ele>
        <time>2012-03-10T11:54:15Z</time>
      </trkpt>
      <trkpt lat="42.73412" lon="1.6177">
        <ele>1918.9289550781</ele>
        <time>2012-03-10T11:54:24Z</time>
      </trkpt>
      <trkpt lat="42.73406" lon="1.61785">
        <ele>1917.4868164062</ele>
        <time>2012-03-10T11:54:34Z</time>
      </trkpt>
      <trkpt lat="42.73399" lon="1.61795">
        <ele>1916.5256347656</ele>
        <time>2012-03-10T11:54:42Z</time>
      </trkpt>
      <trkpt lat="42.7339" lon="1.61804">
        <ele>1915.5642089844</ele>
        <time>2012-03-10T11:54:51Z</time>
      </trkpt>
      <trkpt lat="42.73385" lon="1.61811">
        <ele>1915.0834960938</ele>
        <time>2012-03-10T11:54:57Z</time>
      </trkpt>
      <trkpt lat="42.73381" lon="1.61819">
        <ele>1914.6027832031</ele>
        <time>2012-03-10T11:55:03Z</time>
      </trkpt>
      <trkpt lat="42.73375" lon="1.61828">
        <ele>1913.6413574219</ele>
        <time>2012-03-10T11:55:11Z</time>
      </trkpt>
      <trkpt lat="42.73372" lon="1.61831">
        <ele>1913.6413574219</ele>
        <time>2012-03-10T11:55:18Z</time>
      </trkpt>
      <trkpt lat="42.73368" lon="1.61831">
        <ele>1913.6413574219</ele>
        <time>2012-03-10T11:55:25Z</time>
      </trkpt>
      <trkpt lat="42.73369" lon="1.61836">
        <ele>1913.6413574219</ele>
        <time>2012-03-10T11:55:32Z</time>
      </trkpt>
      <trkpt lat="42.73372" lon="1.61842">
        <ele>1913.1608886719</ele>
        <time>2012-03-10T11:55:38Z</time>
      </trkpt>
      <trkpt lat="42.73373" lon="1.61846">
        <ele>1913.1608886719</ele>
        <time>2012-03-10T11:55:40Z</time>
      </trkpt>
      <trkpt lat="42.73373" lon="1.61852">
        <ele>1912.6801757812</ele>
        <time>2012-03-10T11:55:44Z</time>
      </trkpt>
      <trkpt lat="42.73373" lon="1.61856">
        <ele>1912.1994628906</ele>
        <time>2012-03-10T11:55:46Z</time>
      </trkpt>
      <trkpt lat="42.73372" lon="1.61859">
        <ele>1912.1994628906</ele>
        <time>2012-03-10T11:55:54Z</time>
      </trkpt>
      <trkpt lat="42.73372" lon="1.61863">
        <ele>1912.1994628906</ele>
        <time>2012-03-10T11:55:59Z</time>
      </trkpt>
      <trkpt lat="42.73372" lon="1.61867">
        <ele>1911.7189941406</ele>
        <time>2012-03-10T11:56:02Z</time>
      </trkpt>
      <trkpt lat="42.73371" lon="1.61883">
        <ele>1909.7961425781</ele>
        <time>2012-03-10T11:56:12Z</time>
      </trkpt>
      <trkpt lat="42.73371" lon="1.619">
        <ele>1908.3542480469</ele>
        <time>2012-03-10T11:56:21Z</time>
      </trkpt>
      <trkpt lat="42.73367" lon="1.61915">
        <ele>1907.3930664062</ele>
        <time>2012-03-10T11:56:30Z</time>
      </trkpt>
      <trkpt lat="42.73365" lon="1.61922">
        <ele>1906.9123535156</ele>
        <time>2012-03-10T11:56:34Z</time>
      </trkpt>
      <trkpt lat="42.73365" lon="1.6193">
        <ele>1905.9509277344</ele>
        <time>2012-03-10T11:56:39Z</time>
      </trkpt>
      <trkpt lat="42.73363" lon="1.61948">
        <ele>1904.9897460938</ele>
        <time>2012-03-10T11:56:49Z</time>
      </trkpt>
      <trkpt lat="42.73363" lon="1.6196">
        <ele>1904.0285644531</ele>
        <time>2012-03-10T11:56:56Z</time>
      </trkpt>
      <trkpt lat="42.73363" lon="1.61977">
        <ele>1903.0671386719</ele>
        <time>2012-03-10T11:57:05Z</time>
      </trkpt>
      <trkpt lat="42.73362" lon="1.61991">
        <ele>1902.1057128906</ele>
        <time>2012-03-10T11:57:13Z</time>
      </trkpt>
      <trkpt lat="42.73359" lon="1.62005">
        <ele>1901.14453125</ele>
        <time>2012-03-10T11:57:21Z</time>
      </trkpt>
      <trkpt lat="42.73358" lon="1.62014">
        <ele>1900.6638183594</ele>
        <time>2012-03-10T11:57:27Z</time>
      </trkpt>
      <trkpt lat="42.73356" lon="1.62022">
        <ele>1900.6638183594</ele>
        <time>2012-03-10T11:57:32Z</time>
      </trkpt>
      <trkpt lat="42.73355" lon="1.62035">
        <ele>1900.1833496094</ele>
        <time>2012-03-10T11:57:40Z</time>
      </trkpt>
      <trkpt lat="42.73352" lon="1.62049">
        <ele>1899.7023925781</ele>
        <time>2012-03-10T11:57:48Z</time>
      </trkpt>
      <trkpt lat="42.73347" lon="1.62063">
        <ele>1899.2216796875</ele>
        <time>2012-03-10T11:57:57Z</time>
      </trkpt>
      <trkpt lat="42.73341" lon="1.62074">
        <ele>1899.2216796875</ele>
        <time>2012-03-10T11:58:05Z</time>
      </trkpt>
      <trkpt lat="42.73338" lon="1.62081">
        <ele>1898.7409667969</ele>
        <time>2012-03-10T11:58:10Z</time>
      </trkpt>
      <trkpt lat="42.73332" lon="1.62094">
        <ele>1897.2990722656</ele>
        <time>2012-03-10T11:58:18Z</time>
      </trkpt>
      <trkpt lat="42.73326" lon="1.6211">
        <ele>1895.8571777344</ele>
        <time>2012-03-10T11:58:28Z</time>
      </trkpt>
      <trkpt lat="42.73322" lon="1.6212">
        <ele>1894.8957519531</ele>
        <time>2012-03-10T11:58:34Z</time>
      </trkpt>
      <trkpt lat="42.73318" lon="1.62135">
        <ele>1893.4538574219</ele>
        <time>2012-03-10T11:58:43Z</time>
      </trkpt>
      <trkpt lat="42.73314" lon="1.6215">
        <ele>1892.0119628906</ele>
        <time>2012-03-10T11:58:52Z</time>
      </trkpt>
      <trkpt lat="42.7331" lon="1.62162">
        <ele>1890.5698242188</ele>
        <time>2012-03-10T11:58:59Z</time>
      </trkpt>
      <trkpt lat="42.73306" lon="1.62174">
        <ele>1889.1279296875</ele>
        <time>2012-03-10T11:59:06Z</time>
      </trkpt>
      <trkpt lat="42.73303" lon="1.62185">
        <ele>1888.6474609375</ele>
        <time>2012-03-10T11:59:12Z</time>
      </trkpt>
      <trkpt lat="42.73298" lon="1.62199">
        <ele>1886.724609375</ele>
        <time>2012-03-10T11:59:21Z</time>
      </trkpt>
      <trkpt lat="42.73294" lon="1.6221">
        <ele>1885.7634277344</ele>
        <time>2012-03-10T11:59:28Z</time>
      </trkpt>
      <trkpt lat="42.73291" lon="1.62224">
        <ele>1884.3215332031</ele>
        <time>2012-03-10T11:59:36Z</time>
      </trkpt>
      <trkpt lat="42.73289" lon="1.62239">
        <ele>1882.3986816406</ele>
        <time>2012-03-10T11:59:45Z</time>
      </trkpt>
      <trkpt lat="42.73287" lon="1.62253">
        <ele>1880.9567871094</ele>
        <time>2012-03-10T11:59:53Z</time>
      </trkpt>
      <trkpt lat="42.73285" lon="1.62268">
        <ele>1879.9953613281</ele>
        <time>2012-03-10T12:00:01Z</time>
      </trkpt>
      <trkpt lat="42.7328" lon="1.6228">
        <ele>1879.0339355469</ele>
        <time>2012-03-10T12:00:09Z</time>
      </trkpt>
      <trkpt lat="42.73274" lon="1.62296">
        <ele>1876.630859375</ele>
        <time>2012-03-10T12:00:19Z</time>
      </trkpt>
      <trkpt lat="42.7327" lon="1.62308">
        <ele>1874.7082519531</ele>
        <time>2012-03-10T12:00:27Z</time>
      </trkpt>
      <trkpt lat="42.73268" lon="1.6232">
        <ele>1873.7468261719</ele>
        <time>2012-03-10T12:00:34Z</time>
      </trkpt>
      <trkpt lat="42.73267" lon="1.62323">
        <ele>1873.2663574219</ele>
        <time>2012-03-10T12:00:36Z</time>
      </trkpt>
      <trkpt lat="42.73265" lon="1.62343">
        <ele>1872.3049316406</ele>
        <time>2012-03-10T12:00:47Z</time>
      </trkpt>
      <trkpt lat="42.73264" lon="1.62354">
        <ele>1870.8630371094</ele>
        <time>2012-03-10T12:00:54Z</time>
      </trkpt>
      <trkpt lat="42.73261" lon="1.62364">
        <ele>1869.4211425781</ele>
        <time>2012-03-10T12:01:01Z</time>
      </trkpt>
      <trkpt lat="42.7326" lon="1.62368">
        <ele>1868.9404296875</ele>
        <time>2012-03-10T12:01:07Z</time>
      </trkpt>
      <trkpt lat="42.73261" lon="1.62372">
        <ele>1868.4597167969</ele>
        <time>2012-03-10T12:01:13Z</time>
      </trkpt>
      <trkpt lat="42.7326" lon="1.6239">
        <ele>1866.5368652344</ele>
        <time>2012-03-10T12:01:23Z</time>
      </trkpt>
      <trkpt lat="42.73261" lon="1.62406">
        <ele>1864.1335449219</ele>
        <time>2012-03-10T12:01:32Z</time>
      </trkpt>
      <trkpt lat="42.7326" lon="1.6241">
        <ele>1864.1335449219</ele>
        <time>2012-03-10T12:01:34Z</time>
      </trkpt>
      <trkpt lat="42.7326" lon="1.62426">
        <ele>1861.2497558594</ele>
        <time>2012-03-10T12:01:43Z</time>
      </trkpt>
      <trkpt lat="42.73261" lon="1.62444">
        <ele>1859.3271484375</ele>
        <time>2012-03-10T12:01:52Z</time>
      </trkpt>
      <trkpt lat="42.73262" lon="1.62458">
        <ele>1856.923828125</ele>
        <time>2012-03-10T12:02:00Z</time>
      </trkpt>
      <trkpt lat="42.73263" lon="1.62469">
        <ele>1855.4819335938</ele>
        <time>2012-03-10T12:02:06Z</time>
      </trkpt>
      <trkpt lat="42.73264" lon="1.62485">
        <ele>1853.0786132812</ele>
        <time>2012-03-10T12:02:15Z</time>
      </trkpt>
      <trkpt lat="42.73265" lon="1.625">
        <ele>1851.1557617188</ele>
        <time>2012-03-10T12:02:23Z</time>
      </trkpt>
      <trkpt lat="42.73266" lon="1.62514">
        <ele>1849.7138671875</ele>
        <time>2012-03-10T12:02:31Z</time>
      </trkpt>
      <trkpt lat="42.73268" lon="1.62529">
        <ele>1847.7912597656</ele>
        <time>2012-03-10T12:02:39Z</time>
      </trkpt>
      <trkpt lat="42.7327" lon="1.62549">
        <ele>1845.3879394531</ele>
        <time>2012-03-10T12:02:51Z</time>
      </trkpt>
      <trkpt lat="42.73273" lon="1.62565">
        <ele>1843.4653320312</ele>
        <time>2012-03-10T12:03:00Z</time>
      </trkpt>
      <trkpt lat="42.73275" lon="1.62584">
        <ele>1841.0620117188</ele>
        <time>2012-03-10T12:03:11Z</time>
      </trkpt>
      <trkpt lat="42.73278" lon="1.62591">
        <ele>1840.5812988281</ele>
        <time>2012-03-10T12:03:17Z</time>
      </trkpt>
      <trkpt lat="42.73279" lon="1.62601">
        <ele>1838.1782226562</ele>
        <time>2012-03-10T12:03:25Z</time>
      </trkpt>
      <trkpt lat="42.7328" lon="1.62608">
        <ele>1837.6975097656</ele>
        <time>2012-03-10T12:03:32Z</time>
      </trkpt>
      <trkpt lat="42.73281" lon="1.62624">
        <ele>1834.8134765625</ele>
        <time>2012-03-10T12:03:42Z</time>
      </trkpt>
      <trkpt lat="42.73288" lon="1.62636">
        <ele>1832.890625</ele>
        <time>2012-03-10T12:03:52Z</time>
      </trkpt>
      <trkpt lat="42.73294" lon="1.62644">
        <ele>1832.41015625</ele>
        <time>2012-03-10T12:04:00Z</time>
      </trkpt>
      <trkpt lat="42.73302" lon="1.62653">
        <ele>1831.4487304688</ele>
        <time>2012-03-10T12:04:09Z</time>
      </trkpt>
      <trkpt lat="42.73304" lon="1.62655">
        <ele>1831.4487304688</ele>
        <time>2012-03-10T12:04:14Z</time>
      </trkpt>
      <trkpt lat="42.73307" lon="1.62662">
        <ele>1830.0068359375</ele>
        <time>2012-03-10T12:04:19Z</time>
      </trkpt>
      <trkpt lat="42.73306" lon="1.62675">
        <ele>1828.5649414062</ele>
        <time>2012-03-10T12:04:26Z</time>
      </trkpt>
      <trkpt lat="42.73307" lon="1.62687">
        <ele>1827.123046875</ele>
        <time>2012-03-10T12:04:33Z</time>
      </trkpt>
      <trkpt lat="42.73308" lon="1.62702">
        <ele>1825.2001953125</ele>
        <time>2012-03-10T12:04:41Z</time>
      </trkpt>
      <trkpt lat="42.73306" lon="1.62717">
        <ele>1824.2390136719</ele>
        <time>2012-03-10T12:04:50Z</time>
      </trkpt>
      <trkpt lat="42.73301" lon="1.62728">
        <ele>1823.7583007812</ele>
        <time>2012-03-10T12:04:58Z</time>
      </trkpt>
      <trkpt lat="42.73295" lon="1.62738">
        <ele>1823.2778320312</ele>
        <time>2012-03-10T12:05:08Z</time>
      </trkpt>
      <trkpt lat="42.73294" lon="1.62747">
        <ele>1822.7971191406</ele>
        <time>2012-03-10T12:05:16Z</time>
      </trkpt>
      <trkpt lat="42.73292" lon="1.62749">
        <ele>1822.7971191406</ele>
        <time>2012-03-10T12:05:23Z</time>
      </trkpt>
      <trkpt lat="42.73291" lon="1.6275">
        <ele>1823.2778320312</ele>
        <time>2012-03-10T12:05:28Z</time>
      </trkpt>
      <trkpt lat="42.73287" lon="1.62753">
        <ele>1823.2778320312</ele>
        <time>2012-03-10T12:05:33Z</time>
      </trkpt>
      <trkpt lat="42.73277" lon="1.62762">
        <ele>1822.7971191406</ele>
        <time>2012-03-10T12:05:43Z</time>
      </trkpt>
      <trkpt lat="42.73272" lon="1.62766">
        <ele>1821.8356933594</ele>
        <time>2012-03-10T12:05:48Z</time>
      </trkpt>
      <trkpt lat="42.73263" lon="1.62775">
        <ele>1821.8356933594</ele>
        <time>2012-03-10T12:05:57Z</time>
      </trkpt>
      <trkpt lat="42.73256" lon="1.62782">
        <ele>1821.3549804688</ele>
        <time>2012-03-10T12:06:04Z</time>
      </trkpt>
      <trkpt lat="42.73248" lon="1.62789">
        <ele>1820.8745117188</ele>
        <time>2012-03-10T12:06:11Z</time>
      </trkpt>
      <trkpt lat="42.73246" lon="1.62792">
        <ele>1819.9128417969</ele>
        <time>2012-03-10T12:06:14Z</time>
      </trkpt>
      <trkpt lat="42.73234" lon="1.62799">
        <ele>1818.4709472656</ele>
        <time>2012-03-10T12:06:25Z</time>
      </trkpt>
      <trkpt lat="42.73227" lon="1.628">
        <ele>1817.990234375</ele>
        <time>2012-03-10T12:06:32Z</time>
      </trkpt>
      <trkpt lat="42.73224" lon="1.62797">
        <ele>1817.990234375</ele>
        <time>2012-03-10T12:06:41Z</time>
      </trkpt>
      <trkpt lat="42.73222" lon="1.62794">
        <ele>1817.5095214844</ele>
        <time>2012-03-10T12:06:47Z</time>
      </trkpt>
      <trkpt lat="42.73223" lon="1.62791">
        <ele>1817.990234375</ele>
        <time>2012-03-10T12:06:53Z</time>
      </trkpt>
      <trkpt lat="42.73223" lon="1.62791">
        <ele>1817.5095214844</ele>
        <time>2012-03-10T12:07:02Z</time>
      </trkpt>
      <trkpt lat="42.73223" lon="1.62791">
        <ele>1816.5483398438</ele>
        <time>2012-03-10T12:07:20Z</time>
      </trkpt>
      <trkpt lat="42.73223" lon="1.62791">
        <ele>1814.6257324219</ele>
        <time>2012-03-10T12:07:33Z</time>
      </trkpt>
      <trkpt lat="42.73223" lon="1.62791">
        <ele>1814.6257324219</ele>
        <time>2012-03-10T12:07:36Z</time>
      </trkpt>
      <trkpt lat="42.73224" lon="1.62793">
        <ele>1811.7419433594</ele>
        <time>2012-03-10T12:24:52Z</time>
      </trkpt>
      <trkpt lat="42.73224" lon="1.62793">
        <ele>1811.7419433594</ele>
        <time>2012-03-10T12:24:53Z</time>
      </trkpt>
      <trkpt lat="42.73224" lon="1.62792">
        <ele>1809.3386230469</ele>
        <time>2012-03-10T12:25:03Z</time>
      </trkpt>
      <trkpt lat="42.73224" lon="1.62797">
        <ele>1809.3386230469</ele>
        <time>2012-03-10T12:25:09Z</time>
      </trkpt>
      <trkpt lat="42.7323" lon="1.62798">
        <ele>1809.3386230469</ele>
        <time>2012-03-10T12:25:16Z</time>
      </trkpt>
      <trkpt lat="42.73238" lon="1.62796">
        <ele>1809.8190917969</ele>
        <time>2012-03-10T12:25:25Z</time>
      </trkpt>
      <trkpt lat="42.73241" lon="1.62795">
        <ele>1810.2998046875</ele>
        <time>2012-03-10T12:25:31Z</time>
      </trkpt>
      <trkpt lat="42.73244" lon="1.62793">
        <ele>1811.2612304688</ele>
        <time>2012-03-10T12:25:38Z</time>
      </trkpt>
      <trkpt lat="42.7325" lon="1.62789">
        <ele>1812.2224121094</ele>
        <time>2012-03-10T12:25:45Z</time>
      </trkpt>
      <trkpt lat="42.73257" lon="1.62785">
        <ele>1813.1838378906</ele>
        <time>2012-03-10T12:25:53Z</time>
      </trkpt>
      <trkpt lat="42.73259" lon="1.62784">
        <ele>1813.1838378906</ele>
        <time>2012-03-10T12:25:55Z</time>
      </trkpt>
      <trkpt lat="42.73267" lon="1.62781">
        <ele>1813.6643066406</ele>
        <time>2012-03-10T12:26:03Z</time>
      </trkpt>
      <trkpt lat="42.73273" lon="1.6278">
        <ele>1813.6643066406</ele>
        <time>2012-03-10T12:26:09Z</time>
      </trkpt>
      <trkpt lat="42.73283" lon="1.62779">
        <ele>1813.1838378906</ele>
        <time>2012-03-10T12:26:19Z</time>
      </trkpt>
      <trkpt lat="42.73291" lon="1.62774">
        <ele>1813.1838378906</ele>
        <time>2012-03-10T12:26:27Z</time>
      </trkpt>
      <trkpt lat="42.73297" lon="1.62771">
        <ele>1812.703125</ele>
        <time>2012-03-10T12:26:33Z</time>
      </trkpt>
      <trkpt lat="42.73303" lon="1.62764">
        <ele>1813.1838378906</ele>
        <time>2012-03-10T12:26:41Z</time>
      </trkpt>
      <trkpt lat="42.73308" lon="1.62759">
        <ele>1813.6643066406</ele>
        <time>2012-03-10T12:26:48Z</time>
      </trkpt>
      <trkpt lat="42.73314" lon="1.62752">
        <ele>1813.6643066406</ele>
        <time>2012-03-10T12:26:57Z</time>
      </trkpt>
      <trkpt lat="42.73318" lon="1.62747">
        <ele>1813.6643066406</ele>
        <time>2012-03-10T12:27:03Z</time>
      </trkpt>
      <trkpt lat="42.73324" lon="1.62741">
        <ele>1814.1450195312</ele>
        <time>2012-03-10T12:27:11Z</time>
      </trkpt>
      <trkpt lat="42.73329" lon="1.62736">
        <ele>1814.6257324219</ele>
        <time>2012-03-10T12:27:18Z</time>
      </trkpt>
      <trkpt lat="42.73333" lon="1.62732">
        <ele>1815.1064453125</ele>
        <time>2012-03-10T12:27:24Z</time>
      </trkpt>
      <trkpt lat="42.73338" lon="1.62728">
        <ele>1815.1064453125</ele>
        <time>2012-03-10T12:27:31Z</time>
      </trkpt>
      <trkpt lat="42.73343" lon="1.62722">
        <ele>1815.5871582031</ele>
        <time>2012-03-10T12:27:39Z</time>
      </trkpt>
      <trkpt lat="42.73348" lon="1.62718">
        <ele>1816.5483398438</ele>
        <time>2012-03-10T12:27:46Z</time>
      </trkpt>
      <trkpt lat="42.73352" lon="1.62717">
        <ele>1817.5095214844</ele>
        <time>2012-03-10T12:27:51Z</time>
      </trkpt>
      <trkpt lat="42.73357" lon="1.62713">
        <ele>1818.4709472656</ele>
        <time>2012-03-10T12:27:58Z</time>
      </trkpt>
      <trkpt lat="42.73362" lon="1.62708">
        <ele>1819.4323730469</ele>
        <time>2012-03-10T12:28:05Z</time>
      </trkpt>
      <trkpt lat="42.73366" lon="1.62701">
        <ele>1820.3937988281</ele>
        <time>2012-03-10T12:28:13Z</time>
      </trkpt>
      <trkpt lat="42.7337" lon="1.62697">
        <ele>1821.3549804688</ele>
        <time>2012-03-10T12:28:19Z</time>
      </trkpt>
      <trkpt lat="42.73373" lon="1.6269">
        <ele>1822.7971191406</ele>
        <time>2012-03-10T12:28:26Z</time>
      </trkpt>
      <trkpt lat="42.73378" lon="1.62685">
        <ele>1823.2778320312</ele>
        <time>2012-03-10T12:28:33Z</time>
      </trkpt>
      <trkpt lat="42.73382" lon="1.62678">
        <ele>1823.7583007812</ele>
        <time>2012-03-10T12:28:40Z</time>
      </trkpt>
      <trkpt lat="42.73385" lon="1.6267">
        <ele>1825.2001953125</ele>
        <time>2012-03-10T12:28:48Z</time>
      </trkpt>
      <trkpt lat="42.73389" lon="1.62662">
        <ele>1825.6809082031</ele>
        <time>2012-03-10T12:28:56Z</time>
      </trkpt>
      <trkpt lat="42.73394" lon="1.62654">
        <ele>1826.1616210938</ele>
        <time>2012-03-10T12:29:05Z</time>
      </trkpt>
      <trkpt lat="42.73398" lon="1.62646">
        <ele>1827.123046875</ele>
        <time>2012-03-10T12:29:13Z</time>
      </trkpt>
      <trkpt lat="42.73402" lon="1.62639">
        <ele>1828.5649414062</ele>
        <time>2012-03-10T12:29:20Z</time>
      </trkpt>
      <trkpt lat="42.73405" lon="1.62632">
        <ele>1829.5261230469</ele>
        <time>2012-03-10T12:29:27Z</time>
      </trkpt>
      <trkpt lat="42.73408" lon="1.62625">
        <ele>1830.0068359375</ele>
        <time>2012-03-10T12:29:34Z</time>
      </trkpt>
      <trkpt lat="42.73411" lon="1.62617">
        <ele>1830.0068359375</ele>
        <time>2012-03-10T12:29:42Z</time>
      </trkpt>
      <trkpt lat="42.73413" lon="1.62612">
        <ele>1830.0068359375</ele>
        <time>2012-03-10T12:29:48Z</time>
      </trkpt>
      <trkpt lat="42.73415" lon="1.62603">
        <ele>1830.4875488281</ele>
        <time>2012-03-10T12:29:56Z</time>
      </trkpt>
      <trkpt lat="42.73415" lon="1.62597">
        <ele>1830.4875488281</ele>
        <time>2012-03-10T12:30:03Z</time>
      </trkpt>
      <trkpt lat="42.73415" lon="1.62592">
        <ele>1831.4487304688</ele>
        <time>2012-03-10T12:30:09Z</time>
      </trkpt>
      <trkpt lat="42.73417" lon="1.62586">
        <ele>1831.9294433594</ele>
        <time>2012-03-10T12:30:15Z</time>
      </trkpt>
      <trkpt lat="42.73419" lon="1.62581">
        <ele>1832.41015625</ele>
        <time>2012-03-10T12:30:21Z</time>
      </trkpt>
      <trkpt lat="42.73421" lon="1.62575">
        <ele>1832.890625</ele>
        <time>2012-03-10T12:30:27Z</time>
      </trkpt>
      <trkpt lat="42.73425" lon="1.62568">
        <ele>1833.3713378906</ele>
        <time>2012-03-10T12:30:35Z</time>
      </trkpt>
      <trkpt lat="42.73429" lon="1.62562">
        <ele>1832.890625</ele>
        <time>2012-03-10T12:30:42Z</time>
      </trkpt>
      <trkpt lat="42.73432" lon="1.62554">
        <ele>1833.8520507812</ele>
        <time>2012-03-10T12:30:49Z</time>
      </trkpt>
      <trkpt lat="42.73438" lon="1.62547">
        <ele>1834.3327636719</ele>
        <time>2012-03-10T12:30:57Z</time>
      </trkpt>
      <trkpt lat="42.73443" lon="1.62538">
        <ele>1835.2939453125</ele>
        <time>2012-03-10T12:31:06Z</time>
      </trkpt>
      <trkpt lat="42.73446" lon="1.62532">
        <ele>1836.2556152344</ele>
        <time>2012-03-10T12:31:12Z</time>
      </trkpt>
      <trkpt lat="42.7345" lon="1.62526">
        <ele>1837.216796875</ele>
        <time>2012-03-10T12:31:18Z</time>
      </trkpt>
      <trkpt lat="42.73452" lon="1.6252">
        <ele>1838.1782226562</ele>
        <time>2012-03-10T12:31:24Z</time>
      </trkpt>
      <trkpt lat="42.73457" lon="1.62513">
        <ele>1838.6589355469</ele>
        <time>2012-03-10T12:31:31Z</time>
      </trkpt>
      <trkpt lat="42.73459" lon="1.62509">
        <ele>1838.6589355469</ele>
        <time>2012-03-10T12:31:37Z</time>
      </trkpt>
      <trkpt lat="42.73458" lon="1.62508">
        <ele>1838.1782226562</ele>
        <time>2012-03-10T12:31:46Z</time>
      </trkpt>
      <trkpt lat="42.7346" lon="1.62503">
        <ele>1838.6589355469</ele>
        <time>2012-03-10T12:31:58Z</time>
      </trkpt>
      <trkpt lat="42.73462" lon="1.62496">
        <ele>1839.1394042969</ele>
        <time>2012-03-10T12:32:04Z</time>
      </trkpt>
      <trkpt lat="42.73466" lon="1.62489">
        <ele>1839.6201171875</ele>
        <time>2012-03-10T12:32:13Z</time>
      </trkpt>
      <trkpt lat="42.73471" lon="1.62483">
        <ele>1839.1394042969</ele>
        <time>2012-03-10T12:32:20Z</time>
      </trkpt>
      <trkpt lat="42.73474" lon="1.62476">
        <ele>1839.1394042969</ele>
        <time>2012-03-10T12:32:28Z</time>
      </trkpt>
      <trkpt lat="42.73479" lon="1.62469">
        <ele>1839.6201171875</ele>
        <time>2012-03-10T12:32:37Z</time>
      </trkpt>
      <trkpt lat="42.73484" lon="1.62462">
        <ele>1840.1008300781</ele>
        <time>2012-03-10T12:32:45Z</time>
      </trkpt>
      <trkpt lat="42.73486" lon="1.62457">
        <ele>1840.1008300781</ele>
        <time>2012-03-10T12:32:51Z</time>
      </trkpt>
      <trkpt lat="42.73489" lon="1.6245">
        <ele>1841.0620117188</ele>
        <time>2012-03-10T12:32:59Z</time>
      </trkpt>
      <trkpt lat="42.7349" lon="1.62449">
        <ele>1841.0620117188</ele>
        <time>2012-03-10T12:33:04Z</time>
      </trkpt>
      <trkpt lat="42.73495" lon="1.62443">
        <ele>1840.5812988281</ele>
        <time>2012-03-10T12:33:12Z</time>
      </trkpt>
      <trkpt lat="42.73499" lon="1.62438">
        <ele>1840.5812988281</ele>
        <time>2012-03-10T12:33:18Z</time>
      </trkpt>
      <trkpt lat="42.73503" lon="1.62432">
        <ele>1841.0620117188</ele>
        <time>2012-03-10T12:33:26Z</time>
      </trkpt>
      <trkpt lat="42.73508" lon="1.62426">
        <ele>1841.0620117188</ele>
        <time>2012-03-10T12:33:33Z</time>
      </trkpt>
      <trkpt lat="42.73511" lon="1.62421">
        <ele>1841.5427246094</ele>
        <time>2012-03-10T12:33:39Z</time>
      </trkpt>
      <trkpt lat="42.73515" lon="1.62416">
        <ele>1841.5427246094</ele>
        <time>2012-03-10T12:33:45Z</time>
      </trkpt>
      <trkpt lat="42.73516" lon="1.6241">
        <ele>1842.5041503906</ele>
        <time>2012-03-10T12:33:51Z</time>
      </trkpt>
      <trkpt lat="42.73523" lon="1.62401">
        <ele>1842.9846191406</ele>
        <time>2012-03-10T12:34:01Z</time>
      </trkpt>
      <trkpt lat="42.73528" lon="1.62392">
        <ele>1842.9846191406</ele>
        <time>2012-03-10T12:34:10Z</time>
      </trkpt>
      <trkpt lat="42.73533" lon="1.62385">
        <ele>1844.4265136719</ele>
        <time>2012-03-10T12:34:18Z</time>
      </trkpt>
      <trkpt lat="42.73539" lon="1.62376">
        <ele>1845.8686523438</ele>
        <time>2012-03-10T12:34:27Z</time>
      </trkpt>
      <trkpt lat="42.73545" lon="1.62367">
        <ele>1846.8298339844</ele>
        <time>2012-03-10T12:34:36Z</time>
      </trkpt>
      <trkpt lat="42.73551" lon="1.62358">
        <ele>1847.7912597656</ele>
        <time>2012-03-10T12:34:45Z</time>
      </trkpt>
      <trkpt lat="42.73556" lon="1.62351">
        <ele>1848.7524414062</ele>
        <time>2012-03-10T12:34:53Z</time>
      </trkpt>
      <trkpt lat="42.7356" lon="1.62346">
        <ele>1848.7524414062</ele>
        <time>2012-03-10T12:35:00Z</time>
      </trkpt>
      <trkpt lat="42.73565" lon="1.62339">
        <ele>1849.2331542969</ele>
        <time>2012-03-10T12:35:08Z</time>
      </trkpt>
      <trkpt lat="42.73571" lon="1.62335">
        <ele>1848.2717285156</ele>
        <time>2012-03-10T12:35:15Z</time>
      </trkpt>
      <trkpt lat="42.73576" lon="1.62332">
        <ele>1848.2717285156</ele>
        <time>2012-03-10T12:35:22Z</time>
      </trkpt>
      <trkpt lat="42.73582" lon="1.62328">
        <ele>1847.7912597656</ele>
        <time>2012-03-10T12:35:30Z</time>
      </trkpt>
      <trkpt lat="42.73589" lon="1.62324">
        <ele>1847.7912597656</ele>
        <time>2012-03-10T12:35:38Z</time>
      </trkpt>
      <trkpt lat="42.73595" lon="1.6232">
        <ele>1847.7912597656</ele>
        <time>2012-03-10T12:35:45Z</time>
      </trkpt>
      <trkpt lat="42.73604" lon="1.62317">
        <ele>1847.7912597656</ele>
        <time>2012-03-10T12:35:55Z</time>
      </trkpt>
      <trkpt lat="42.73611" lon="1.62313">
        <ele>1847.310546875</ele>
        <time>2012-03-10T12:36:03Z</time>
      </trkpt>
      <trkpt lat="42.73618" lon="1.6231">
        <ele>1847.310546875</ele>
        <time>2012-03-10T12:36:10Z</time>
      </trkpt>
      <trkpt lat="42.73626" lon="1.62306">
        <ele>1847.7912597656</ele>
        <time>2012-03-10T12:36:20Z</time>
      </trkpt>
      <trkpt lat="42.73633" lon="1.62302">
        <ele>1847.7912597656</ele>
        <time>2012-03-10T12:36:28Z</time>
      </trkpt>
      <trkpt lat="42.7364" lon="1.62298">
        <ele>1848.2717285156</ele>
        <time>2012-03-10T12:36:36Z</time>
      </trkpt>
      <trkpt lat="42.73642" lon="1.62296">
        <ele>1848.7524414062</ele>
        <time>2012-03-10T12:36:42Z</time>
      </trkpt>
      <trkpt lat="42.73643" lon="1.62295">
        <ele>1849.7138671875</ele>
        <time>2012-03-10T12:36:50Z</time>
      </trkpt>
      <trkpt lat="42.7365" lon="1.62291">
        <ele>1849.7138671875</ele>
        <time>2012-03-10T12:36:58Z</time>
      </trkpt>
      <trkpt lat="42.73657" lon="1.62286">
        <ele>1850.1945800781</ele>
        <time>2012-03-10T12:37:07Z</time>
      </trkpt>
      <trkpt lat="42.73664" lon="1.62282">
        <ele>1850.6750488281</ele>
        <time>2012-03-10T12:37:15Z</time>
      </trkpt>
      <trkpt lat="42.7367" lon="1.62278">
        <ele>1851.1557617188</ele>
        <time>2012-03-10T12:37:21Z</time>
      </trkpt>
      <trkpt lat="42.73678" lon="1.62273">
        <ele>1851.1557617188</ele>
        <time>2012-03-10T12:37:30Z</time>
      </trkpt>
      <trkpt lat="42.73684" lon="1.62268">
        <ele>1851.6364746094</ele>
        <time>2012-03-10T12:37:37Z</time>
      </trkpt>
      <trkpt lat="42.7369" lon="1.62261">
        <ele>1852.1171875</ele>
        <time>2012-03-10T12:37:45Z</time>
      </trkpt>
      <trkpt lat="42.73698" lon="1.62257">
        <ele>1852.1171875</ele>
        <time>2012-03-10T12:37:53Z</time>
      </trkpt>
      <trkpt lat="42.73703" lon="1.62252">
        <ele>1852.5979003906</ele>
        <time>2012-03-10T12:37:59Z</time>
      </trkpt>
      <trkpt lat="42.7371" lon="1.62246">
        <ele>1852.5979003906</ele>
        <time>2012-03-10T12:38:07Z</time>
      </trkpt>
      <trkpt lat="42.73716" lon="1.62241">
        <ele>1852.5979003906</ele>
        <time>2012-03-10T12:38:14Z</time>
      </trkpt>
      <trkpt lat="42.73724" lon="1.62236">
        <ele>1852.1171875</ele>
        <time>2012-03-10T12:38:22Z</time>
      </trkpt>
      <trkpt lat="42.73733" lon="1.62228">
        <ele>1852.1171875</ele>
        <time>2012-03-10T12:38:32Z</time>
      </trkpt>
      <trkpt lat="42.73739" lon="1.62218">
        <ele>1852.1171875</ele>
        <time>2012-03-10T12:38:41Z</time>
      </trkpt>
      <trkpt lat="42.73745" lon="1.62211">
        <ele>1852.1171875</ele>
        <time>2012-03-10T12:38:48Z</time>
      </trkpt>
      <trkpt lat="42.73751" lon="1.62201">
        <ele>1852.1171875</ele>
        <time>2012-03-10T12:38:57Z</time>
      </trkpt>
      <trkpt lat="42.73756" lon="1.62193">
        <ele>1851.6364746094</ele>
        <time>2012-03-10T12:39:05Z</time>
      </trkpt>
      <trkpt lat="42.73763" lon="1.62186">
        <ele>1851.1557617188</ele>
        <time>2012-03-10T12:39:13Z</time>
      </trkpt>
      <trkpt lat="42.73768" lon="1.62179">
        <ele>1850.6750488281</ele>
        <time>2012-03-10T12:39:20Z</time>
      </trkpt>
      <trkpt lat="42.73771" lon="1.62174">
        <ele>1850.6750488281</ele>
        <time>2012-03-10T12:39:24Z</time>
      </trkpt>
      <trkpt lat="42.7377" lon="1.62162">
        <ele>1851.1557617188</ele>
        <time>2012-03-10T12:39:33Z</time>
      </trkpt>
      <trkpt lat="42.7377" lon="1.6216">
        <ele>1851.1557617188</ele>
        <time>2012-03-10T12:39:34Z</time>
      </trkpt>
      <trkpt lat="42.73769" lon="1.62154">
        <ele>1851.6364746094</ele>
        <time>2012-03-10T12:39:39Z</time>
      </trkpt>
      <trkpt lat="42.73769" lon="1.6215">
        <ele>1851.6364746094</ele>
        <time>2012-03-10T12:39:46Z</time>
      </trkpt>
      <trkpt lat="42.73769" lon="1.6215">
        <ele>1850.6750488281</ele>
        <time>2012-03-10T12:40:02Z</time>
      </trkpt>
      <trkpt lat="42.73769" lon="1.6215">
        <ele>1849.2331542969</ele>
        <time>2012-03-10T12:40:11Z</time>
      </trkpt>
      <trkpt lat="42.7377" lon="1.62148">
        <ele>1847.7912597656</ele>
        <time>2012-03-10T12:40:20Z</time>
      </trkpt>
      <trkpt lat="42.73772" lon="1.6214">
        <ele>1848.2717285156</ele>
        <time>2012-03-10T12:40:26Z</time>
      </trkpt>
      <trkpt lat="42.73772" lon="1.62134">
        <ele>1847.7912597656</ele>
        <time>2012-03-10T12:40:33Z</time>
      </trkpt>
      <trkpt lat="42.73774" lon="1.62125">
        <ele>1848.2717285156</ele>
        <time>2012-03-10T12:40:41Z</time>
      </trkpt>
      <trkpt lat="42.73773" lon="1.62116">
        <ele>1849.2331542969</ele>
        <time>2012-03-10T12:40:48Z</time>
      </trkpt>
      <trkpt lat="42.73777" lon="1.62112">
        <ele>1848.7524414062</ele>
        <time>2012-03-10T12:40:54Z</time>
      </trkpt>
      <trkpt lat="42.73782" lon="1.62111">
        <ele>1847.310546875</ele>
        <time>2012-03-10T12:40:58Z</time>
      </trkpt>
      <trkpt lat="42.73786" lon="1.62111">
        <ele>1846.3493652344</ele>
        <time>2012-03-10T12:41:02Z</time>
      </trkpt>
      <trkpt lat="42.73796" lon="1.62113">
        <ele>1844.9072265625</ele>
        <time>2012-03-10T12:41:10Z</time>
      </trkpt>
      <trkpt lat="42.73802" lon="1.62112">
        <ele>1843.9460449219</ele>
        <time>2012-03-10T12:41:16Z</time>
      </trkpt>
      <trkpt lat="42.73808" lon="1.62104">
        <ele>1842.9846191406</ele>
        <time>2012-03-10T12:41:23Z</time>
      </trkpt>
      <trkpt lat="42.73812" lon="1.62094">
        <ele>1842.9846191406</ele>
        <time>2012-03-10T12:41:31Z</time>
      </trkpt>
      <trkpt lat="42.73816" lon="1.62085">
        <ele>1842.9846191406</ele>
        <time>2012-03-10T12:41:38Z</time>
      </trkpt>
      <trkpt lat="42.73819" lon="1.62076">
        <ele>1843.4653320312</ele>
        <time>2012-03-10T12:41:45Z</time>
      </trkpt>
      <trkpt lat="42.73821" lon="1.62063">
        <ele>1843.4653320312</ele>
        <time>2012-03-10T12:41:54Z</time>
      </trkpt>
      <trkpt lat="42.73822" lon="1.6206">
        <ele>1843.4653320312</ele>
        <time>2012-03-10T12:42:00Z</time>
      </trkpt>
      <trkpt lat="42.73818" lon="1.62054">
        <ele>1844.4265136719</ele>
        <time>2012-03-10T12:42:06Z</time>
      </trkpt>
      <trkpt lat="42.73815" lon="1.62047">
        <ele>1845.3879394531</ele>
        <time>2012-03-10T12:42:11Z</time>
      </trkpt>
      <trkpt lat="42.73811" lon="1.62043">
        <ele>1846.3493652344</ele>
        <time>2012-03-10T12:42:16Z</time>
      </trkpt>
      <trkpt lat="42.73805" lon="1.6204">
        <ele>1845.8686523438</ele>
        <time>2012-03-10T12:42:24Z</time>
      </trkpt>
      <trkpt lat="42.73803" lon="1.62038">
        <ele>1845.8686523438</ele>
        <time>2012-03-10T12:42:29Z</time>
      </trkpt>
      <trkpt lat="42.73801" lon="1.62034">
        <ele>1845.8686523438</ele>
        <time>2012-03-10T12:42:35Z</time>
      </trkpt>
      <trkpt lat="42.73797" lon="1.62029">
        <ele>1846.8298339844</ele>
        <time>2012-03-10T12:42:41Z</time>
      </trkpt>
      <trkpt lat="42.73791" lon="1.62024">
        <ele>1848.2717285156</ele>
        <time>2012-03-10T12:42:48Z</time>
      </trkpt>
      <trkpt lat="42.73787" lon="1.62019">
        <ele>1848.7524414062</ele>
        <time>2012-03-10T12:42:55Z</time>
      </trkpt>
      <trkpt lat="42.73784" lon="1.62013">
        <ele>1849.2331542969</ele>
        <time>2012-03-10T12:43:01Z</time>
      </trkpt>
      <trkpt lat="42.73783" lon="1.62012">
        <ele>1850.1945800781</ele>
        <time>2012-03-10T12:43:10Z</time>
      </trkpt>
      <trkpt lat="42.73779" lon="1.62004">
        <ele>1849.7138671875</ele>
        <time>2012-03-10T12:43:18Z</time>
      </trkpt>
      <trkpt lat="42.73775" lon="1.61999">
        <ele>1849.7138671875</ele>
        <time>2012-03-10T12:43:24Z</time>
      </trkpt>
      <trkpt lat="42.7377" lon="1.61995">
        <ele>1850.1945800781</ele>
        <time>2012-03-10T12:43:30Z</time>
      </trkpt>
      <trkpt lat="42.73765" lon="1.6199">
        <ele>1851.1557617188</ele>
        <time>2012-03-10T12:43:37Z</time>
      </trkpt>
      <trkpt lat="42.73761" lon="1.61984">
        <ele>1851.6364746094</ele>
        <time>2012-03-10T12:43:43Z</time>
      </trkpt>
      <trkpt lat="42.73758" lon="1.61977">
        <ele>1852.1171875</ele>
        <time>2012-03-10T12:43:50Z</time>
      </trkpt>
      <trkpt lat="42.73751" lon="1.61968">
        <ele>1853.5593261719</ele>
        <time>2012-03-10T12:44:00Z</time>
      </trkpt>
      <trkpt lat="42.73746" lon="1.61961">
        <ele>1854.0400390625</ele>
        <time>2012-03-10T12:44:08Z</time>
      </trkpt>
      <trkpt lat="42.73741" lon="1.61954">
        <ele>1855.0012207031</ele>
        <time>2012-03-10T12:44:16Z</time>
      </trkpt>
      <trkpt lat="42.73737" lon="1.61952">
        <ele>1855.9624023438</ele>
        <time>2012-03-10T12:44:22Z</time>
      </trkpt>
      <trkpt lat="42.73732" lon="1.6195">
        <ele>1856.4431152344</ele>
        <time>2012-03-10T12:44:28Z</time>
      </trkpt>
      <trkpt lat="42.73728" lon="1.61945">
        <ele>1857.4045410156</ele>
        <time>2012-03-10T12:44:35Z</time>
      </trkpt>
      <trkpt lat="42.73724" lon="1.61943">
        <ele>1858.3657226562</ele>
        <time>2012-03-10T12:44:41Z</time>
      </trkpt>
      <trkpt lat="42.73719" lon="1.61941">
        <ele>1858.8464355469</ele>
        <time>2012-03-10T12:44:47Z</time>
      </trkpt>
      <trkpt lat="42.73715" lon="1.6194">
        <ele>1859.8076171875</ele>
        <time>2012-03-10T12:44:53Z</time>
      </trkpt>
      <trkpt lat="42.73711" lon="1.61937">
        <ele>1860.7690429688</ele>
        <time>2012-03-10T12:44:59Z</time>
      </trkpt>
      <trkpt lat="42.73705" lon="1.61941">
        <ele>1862.2109375</ele>
        <time>2012-03-10T12:45:07Z</time>
      </trkpt>
      <trkpt lat="42.737" lon="1.61943">
        <ele>1863.1723632812</ele>
        <time>2012-03-10T12:45:14Z</time>
      </trkpt>
      <trkpt lat="42.73695" lon="1.61941">
        <ele>1864.6142578125</ele>
        <time>2012-03-10T12:45:22Z</time>
      </trkpt>
      <trkpt lat="42.7369" lon="1.6194">
        <ele>1865.0949707031</ele>
        <time>2012-03-10T12:45:29Z</time>
      </trkpt>
      <trkpt lat="42.73686" lon="1.61939">
        <ele>1865.5756835938</ele>
        <time>2012-03-10T12:45:34Z</time>
      </trkpt>
      <trkpt lat="42.73682" lon="1.61937">
        <ele>1866.5368652344</ele>
        <time>2012-03-10T12:45:39Z</time>
      </trkpt>
      <trkpt lat="42.73676" lon="1.61931">
        <ele>1867.017578125</ele>
        <time>2012-03-10T12:45:47Z</time>
      </trkpt>
      <trkpt lat="42.73671" lon="1.61927">
        <ele>1867.498046875</ele>
        <time>2012-03-10T12:45:54Z</time>
      </trkpt>
      <trkpt lat="42.73666" lon="1.61926">
        <ele>1868.4597167969</ele>
        <time>2012-03-10T12:46:01Z</time>
      </trkpt>
      <trkpt lat="42.73659" lon="1.61928">
        <ele>1869.9016113281</ele>
        <time>2012-03-10T12:46:08Z</time>
      </trkpt>
      <trkpt lat="42.73654" lon="1.61929">
        <ele>1870.3823242188</ele>
        <time>2012-03-10T12:46:14Z</time>
      </trkpt>
      <trkpt lat="42.73649" lon="1.61928">
        <ele>1871.3435058594</ele>
        <time>2012-03-10T12:46:20Z</time>
      </trkpt>
      <trkpt lat="42.73644" lon="1.61925">
        <ele>1872.3049316406</ele>
        <time>2012-03-10T12:46:27Z</time>
      </trkpt>
      <trkpt lat="42.73639" lon="1.61923">
        <ele>1872.7856445312</ele>
        <time>2012-03-10T12:46:33Z</time>
      </trkpt>
      <trkpt lat="42.73634" lon="1.61924">
        <ele>1873.2663574219</ele>
        <time>2012-03-10T12:46:40Z</time>
      </trkpt>
      <trkpt lat="42.73628" lon="1.61925">
        <ele>1874.2275390625</ele>
        <time>2012-03-10T12:46:47Z</time>
      </trkpt>
      <trkpt lat="42.73622" lon="1.61924">
        <ele>1874.7082519531</ele>
        <time>2012-03-10T12:46:53Z</time>
      </trkpt>
      <trkpt lat="42.73618" lon="1.61918">
        <ele>1875.1887207031</ele>
        <time>2012-03-10T12:47:00Z</time>
      </trkpt>
      <trkpt lat="42.73613" lon="1.61913">
        <ele>1876.1501464844</ele>
        <time>2012-03-10T12:47:07Z</time>
      </trkpt>
      <trkpt lat="42.73609" lon="1.61909">
        <ele>1876.630859375</ele>
        <time>2012-03-10T12:47:13Z</time>
      </trkpt>
      <trkpt lat="42.73605" lon="1.61905">
        <ele>1877.1115722656</ele>
        <time>2012-03-10T12:47:19Z</time>
      </trkpt>
      <trkpt lat="42.736" lon="1.61901">
        <ele>1877.1115722656</ele>
        <time>2012-03-10T12:47:25Z</time>
      </trkpt>
      <trkpt lat="42.73596" lon="1.61896">
        <ele>1878.0727539062</ele>
        <time>2012-03-10T12:47:31Z</time>
      </trkpt>
      <trkpt lat="42.73591" lon="1.6189">
        <ele>1878.5534667969</ele>
        <time>2012-03-10T12:47:38Z</time>
      </trkpt>
      <trkpt lat="42.73587" lon="1.61886">
        <ele>1879.9953613281</ele>
        <time>2012-03-10T12:47:44Z</time>
      </trkpt>
      <trkpt lat="42.73583" lon="1.61879">
        <ele>1880.9567871094</ele>
        <time>2012-03-10T12:47:51Z</time>
      </trkpt>
      <trkpt lat="42.73579" lon="1.61872">
        <ele>1881.91796875</ele>
        <time>2012-03-10T12:47:59Z</time>
      </trkpt>
      <trkpt lat="42.73575" lon="1.6187">
        <ele>1882.8791503906</ele>
        <time>2012-03-10T12:48:05Z</time>
      </trkpt>
      <trkpt lat="42.7357" lon="1.61873">
        <ele>1883.8405761719</ele>
        <time>2012-03-10T12:48:11Z</time>
      </trkpt>
      <trkpt lat="42.73566" lon="1.61875">
        <ele>1884.3215332031</ele>
        <time>2012-03-10T12:48:17Z</time>
      </trkpt>
      <trkpt lat="42.73561" lon="1.61876">
        <ele>1884.8022460938</ele>
        <time>2012-03-10T12:48:23Z</time>
      </trkpt>
      <trkpt lat="42.73557" lon="1.61875">
        <ele>1885.2827148438</ele>
        <time>2012-03-10T12:48:28Z</time>
      </trkpt>
      <trkpt lat="42.73554" lon="1.61869">
        <ele>1885.2827148438</ele>
        <time>2012-03-10T12:48:33Z</time>
      </trkpt>
      <trkpt lat="42.73553" lon="1.6186">
        <ele>1886.244140625</ele>
        <time>2012-03-10T12:48:41Z</time>
      </trkpt>
      <trkpt lat="42.73553" lon="1.61852">
        <ele>1887.6860351562</ele>
        <time>2012-03-10T12:48:48Z</time>
      </trkpt>
      <trkpt lat="42.73554" lon="1.61844">
        <ele>1889.1279296875</ele>
        <time>2012-03-10T12:48:55Z</time>
      </trkpt>
      <trkpt lat="42.73555" lon="1.61836">
        <ele>1889.6086425781</ele>
        <time>2012-03-10T12:49:02Z</time>
      </trkpt>
      <trkpt lat="42.73555" lon="1.61829">
        <ele>1890.5698242188</ele>
        <time>2012-03-10T12:49:09Z</time>
      </trkpt>
      <trkpt lat="42.73554" lon="1.61819">
        <ele>1892.0119628906</ele>
        <time>2012-03-10T12:49:18Z</time>
      </trkpt>
      <trkpt lat="42.73554" lon="1.61813">
        <ele>1892.9731445312</ele>
        <time>2012-03-10T12:49:24Z</time>
      </trkpt>
      <trkpt lat="42.73553" lon="1.61804">
        <ele>1893.9345703125</ele>
        <time>2012-03-10T12:49:32Z</time>
      </trkpt>
      <trkpt lat="42.73553" lon="1.61796">
        <ele>1895.3764648438</ele>
        <time>2012-03-10T12:49:39Z</time>
      </trkpt>
      <trkpt lat="42.73555" lon="1.61788">
        <ele>1895.8571777344</ele>
        <time>2012-03-10T12:49:46Z</time>
      </trkpt>
      <trkpt lat="42.73555" lon="1.61781">
        <ele>1896.818359375</ele>
        <time>2012-03-10T12:49:52Z</time>
      </trkpt>
      <trkpt lat="42.73554" lon="1.61772">
        <ele>1898.2602539062</ele>
        <time>2012-03-10T12:49:59Z</time>
      </trkpt>
      <trkpt lat="42.73555" lon="1.61764">
        <ele>1899.7023925781</ele>
        <time>2012-03-10T12:50:07Z</time>
      </trkpt>
      <trkpt lat="42.73556" lon="1.61752">
        <ele>1901.14453125</ele>
        <time>2012-03-10T12:50:18Z</time>
      </trkpt>
      <trkpt lat="42.73556" lon="1.61751">
        <ele>1901.14453125</ele>
        <time>2012-03-10T12:50:23Z</time>
      </trkpt>
      <trkpt lat="42.73556" lon="1.6175">
        <ele>1900.6638183594</ele>
        <time>2012-03-10T12:50:34Z</time>
      </trkpt>
      <trkpt lat="42.73556" lon="1.61749">
        <ele>1902.1057128906</ele>
        <time>2012-03-10T12:50:42Z</time>
      </trkpt>
      <trkpt lat="42.73554" lon="1.61743">
        <ele>1903.0671386719</ele>
        <time>2012-03-10T12:50:49Z</time>
      </trkpt>
      <trkpt lat="42.73553" lon="1.61735">
        <ele>1904.0285644531</ele>
        <time>2012-03-10T12:50:57Z</time>
      </trkpt>
      <trkpt lat="42.7355" lon="1.61728">
        <ele>1905.4704589844</ele>
        <time>2012-03-10T12:51:06Z</time>
      </trkpt>
      <trkpt lat="42.73548" lon="1.61724">
        <ele>1906.431640625</ele>
        <time>2012-03-10T12:51:12Z</time>
      </trkpt>
      <trkpt lat="42.73547" lon="1.61719">
        <ele>1907.3930664062</ele>
        <time>2012-03-10T12:51:17Z</time>
      </trkpt>
      <trkpt lat="42.73547" lon="1.61711">
        <ele>1908.8349609375</ele>
        <time>2012-03-10T12:51:25Z</time>
      </trkpt>
      <trkpt lat="42.73543" lon="1.61709">
        <ele>1908.8349609375</ele>
        <time>2012-03-10T12:51:32Z</time>
      </trkpt>
      <trkpt lat="42.73541" lon="1.61705">
        <ele>1909.3156738281</ele>
        <time>2012-03-10T12:51:37Z</time>
      </trkpt>
      <trkpt lat="42.7354" lon="1.61699">
        <ele>1910.2768554688</ele>
        <time>2012-03-10T12:51:44Z</time>
      </trkpt>
      <trkpt lat="42.73539" lon="1.61693">
        <ele>1912.1994628906</ele>
        <time>2012-03-10T12:51:50Z</time>
      </trkpt>
      <trkpt lat="42.7354" lon="1.61687">
        <ele>1913.1608886719</ele>
        <time>2012-03-10T12:51:56Z</time>
      </trkpt>
      <trkpt lat="42.7354" lon="1.6168">
        <ele>1913.6413574219</ele>
        <time>2012-03-10T12:52:04Z</time>
      </trkpt>
      <trkpt lat="42.73542" lon="1.61674">
        <ele>1914.6027832031</ele>
        <time>2012-03-10T12:52:10Z</time>
      </trkpt>
      <trkpt lat="42.73543" lon="1.61667">
        <ele>1915.5642089844</ele>
        <time>2012-03-10T12:52:17Z</time>
      </trkpt>
      <trkpt lat="42.73545" lon="1.6166">
        <ele>1916.5256347656</ele>
        <time>2012-03-10T12:52:25Z</time>
      </trkpt>
      <trkpt lat="42.73547" lon="1.61654">
        <ele>1916.5256347656</ele>
        <time>2012-03-10T12:52:31Z</time>
      </trkpt>
      <trkpt lat="42.7355" lon="1.61646">
        <ele>1916.044921875</ele>
        <time>2012-03-10T12:52:40Z</time>
      </trkpt>
      <trkpt lat="42.73553" lon="1.61641">
        <ele>1916.044921875</ele>
        <time>2012-03-10T12:52:46Z</time>
      </trkpt>
      <trkpt lat="42.73556" lon="1.61634">
        <ele>1916.5256347656</ele>
        <time>2012-03-10T12:52:53Z</time>
      </trkpt>
      <trkpt lat="42.73559" lon="1.61631">
        <ele>1916.5256347656</ele>
        <time>2012-03-10T12:52:59Z</time>
      </trkpt>
      <trkpt lat="42.73559" lon="1.6163">
        <ele>1916.5256347656</ele>
        <time>2012-03-10T12:53:08Z</time>
      </trkpt>
      <trkpt lat="42.73561" lon="1.61628">
        <ele>1917.0063476562</ele>
        <time>2012-03-10T12:53:13Z</time>
      </trkpt>
      <trkpt lat="42.73568" lon="1.61621">
        <ele>1916.5256347656</ele>
        <time>2012-03-10T12:53:23Z</time>
      </trkpt>
      <trkpt lat="42.73575" lon="1.61614">
        <ele>1916.044921875</ele>
        <time>2012-03-10T12:53:32Z</time>
      </trkpt>
      <trkpt lat="42.7358" lon="1.61608">
        <ele>1916.044921875</ele>
        <time>2012-03-10T12:53:39Z</time>
      </trkpt>
      <trkpt lat="42.73587" lon="1.61602">
        <ele>1915.0834960938</ele>
        <time>2012-03-10T12:53:48Z</time>
      </trkpt>
      <trkpt lat="42.73594" lon="1.61596">
        <ele>1914.6027832031</ele>
        <time>2012-03-10T12:53:58Z</time>
      </trkpt>
      <trkpt lat="42.73599" lon="1.61592">
        <ele>1914.1220703125</ele>
        <time>2012-03-10T12:54:05Z</time>
      </trkpt>
      <trkpt lat="42.73603" lon="1.61587">
        <ele>1914.1220703125</ele>
        <time>2012-03-10T12:54:12Z</time>
      </trkpt>
      <trkpt lat="42.73608" lon="1.61585">
        <ele>1914.1220703125</ele>
        <time>2012-03-10T12:54:18Z</time>
      </trkpt>
      <trkpt lat="42.73614" lon="1.6158">
        <ele>1913.6413574219</ele>
        <time>2012-03-10T12:54:27Z</time>
      </trkpt>
      <trkpt lat="42.7362" lon="1.61576">
        <ele>1913.6413574219</ele>
        <time>2012-03-10T12:54:36Z</time>
      </trkpt>
      <trkpt lat="42.73625" lon="1.61573">
        <ele>1913.6413574219</ele>
        <time>2012-03-10T12:54:43Z</time>
      </trkpt>
      <trkpt lat="42.73631" lon="1.61569">
        <ele>1913.6413574219</ele>
        <time>2012-03-10T12:54:52Z</time>
      </trkpt>
      <trkpt lat="42.73635" lon="1.61566">
        <ele>1913.1608886719</ele>
        <time>2012-03-10T12:54:59Z</time>
      </trkpt>
      <trkpt lat="42.73641" lon="1.61562">
        <ele>1913.1608886719</ele>
        <time>2012-03-10T12:55:07Z</time>
      </trkpt>
      <trkpt lat="42.73645" lon="1.61558">
        <ele>1913.1608886719</ele>
        <time>2012-03-10T12:55:14Z</time>
      </trkpt>
      <trkpt lat="42.73648" lon="1.61556">
        <ele>1913.1608886719</ele>
        <time>2012-03-10T12:55:19Z</time>
      </trkpt>
      <trkpt lat="42.73652" lon="1.61553">
        <ele>1913.6413574219</ele>
        <time>2012-03-10T12:55:25Z</time>
      </trkpt>
      <trkpt lat="42.73656" lon="1.61549">
        <ele>1914.1220703125</ele>
        <time>2012-03-10T12:55:32Z</time>
      </trkpt>
      <trkpt lat="42.7366" lon="1.61546">
        <ele>1914.6027832031</ele>
        <time>2012-03-10T12:55:38Z</time>
      </trkpt>
      <trkpt lat="42.73665" lon="1.61542">
        <ele>1914.6027832031</ele>
        <time>2012-03-10T12:55:45Z</time>
      </trkpt>
      <trkpt lat="42.73669" lon="1.61538">
        <ele>1915.0834960938</ele>
        <time>2012-03-10T12:55:52Z</time>
      </trkpt>
      <trkpt lat="42.73674" lon="1.61535">
        <ele>1915.5642089844</ele>
        <time>2012-03-10T12:55:58Z</time>
      </trkpt>
      <trkpt lat="42.73678" lon="1.61531">
        <ele>1916.044921875</ele>
        <time>2012-03-10T12:56:05Z</time>
      </trkpt>
      <trkpt lat="42.73683" lon="1.61528">
        <ele>1916.044921875</ele>
        <time>2012-03-10T12:56:12Z</time>
      </trkpt>
      <trkpt lat="42.73689" lon="1.61524">
        <ele>1916.044921875</ele>
        <time>2012-03-10T12:56:20Z</time>
      </trkpt>
      <trkpt lat="42.73694" lon="1.6152">
        <ele>1916.5256347656</ele>
        <time>2012-03-10T12:56:27Z</time>
      </trkpt>
      <trkpt lat="42.73698" lon="1.61516">
        <ele>1916.5256347656</ele>
        <time>2012-03-10T12:56:34Z</time>
      </trkpt>
      <trkpt lat="42.73704" lon="1.61512">
        <ele>1917.0063476562</ele>
        <time>2012-03-10T12:56:42Z</time>
      </trkpt>
      <trkpt lat="42.73709" lon="1.61507">
        <ele>1917.4868164062</ele>
        <time>2012-03-10T12:56:49Z</time>
      </trkpt>
      <trkpt lat="42.73716" lon="1.61503">
        <ele>1916.5256347656</ele>
        <time>2012-03-10T12:56:57Z</time>
      </trkpt>
      <trkpt lat="42.73721" lon="1.61502">
        <ele>1915.0834960938</ele>
        <time>2012-03-10T12:57:05Z</time>
      </trkpt>
      <trkpt lat="42.73725" lon="1.61498">
        <ele>1915.0834960938</ele>
        <time>2012-03-10T12:57:12Z</time>
      </trkpt>
      <trkpt lat="42.73732" lon="1.61494">
        <ele>1914.1220703125</ele>
        <time>2012-03-10T12:57:20Z</time>
      </trkpt>
      <trkpt lat="42.73738" lon="1.61492">
        <ele>1913.1608886719</ele>
        <time>2012-03-10T12:57:27Z</time>
      </trkpt>
      <trkpt lat="42.73743" lon="1.61488">
        <ele>1913.1608886719</ele>
        <time>2012-03-10T12:57:34Z</time>
      </trkpt>
      <trkpt lat="42.73749" lon="1.61484">
        <ele>1913.1608886719</ele>
        <time>2012-03-10T12:57:41Z</time>
      </trkpt>
      <trkpt lat="42.73755" lon="1.6148">
        <ele>1912.6801757812</ele>
        <time>2012-03-10T12:57:48Z</time>
      </trkpt>
      <trkpt lat="42.73762" lon="1.61473">
        <ele>1911.7189941406</ele>
        <time>2012-03-10T12:57:57Z</time>
      </trkpt>
      <trkpt lat="42.73763" lon="1.61473">
        <ele>1911.7189941406</ele>
        <time>2012-03-10T12:57:58Z</time>
      </trkpt>
      <trkpt lat="42.73771" lon="1.61466">
        <ele>1910.2768554688</ele>
        <time>2012-03-10T12:58:07Z</time>
      </trkpt>
      <trkpt lat="42.73778" lon="1.61459">
        <ele>1909.3156738281</ele>
        <time>2012-03-10T12:58:16Z</time>
      </trkpt>
      <trkpt lat="42.73779" lon="1.61455">
        <ele>1909.3156738281</ele>
        <time>2012-03-10T12:58:19Z</time>
      </trkpt>
      <trkpt lat="42.73784" lon="1.61446">
        <ele>1909.3156738281</ele>
        <time>2012-03-10T12:58:28Z</time>
      </trkpt>
      <trkpt lat="42.73785" lon="1.61448">
        <ele>1908.3542480469</ele>
        <time>2012-03-10T12:58:33Z</time>
      </trkpt>
      <trkpt lat="42.73784" lon="1.61456">
        <ele>1907.8737792969</ele>
        <time>2012-03-10T12:58:40Z</time>
      </trkpt>
      <trkpt lat="42.73783" lon="1.61465">
        <ele>1907.3930664062</ele>
        <time>2012-03-10T12:58:47Z</time>
      </trkpt>
      <trkpt lat="42.73783" lon="1.61474">
        <ele>1905.4704589844</ele>
        <time>2012-03-10T12:58:55Z</time>
      </trkpt>
      <trkpt lat="42.73785" lon="1.61482">
        <ele>1903.5478515625</ele>
        <time>2012-03-10T12:59:01Z</time>
      </trkpt>
      <trkpt lat="42.73785" lon="1.61485">
        <ele>1903.0671386719</ele>
        <time>2012-03-10T12:59:07Z</time>
      </trkpt>
      <trkpt lat="42.73785" lon="1.61485">
        <ele>1903.5478515625</ele>
        <time>2012-03-10T12:59:16Z</time>
      </trkpt>
      <trkpt lat="42.73786" lon="1.61486">
        <ele>1902.1057128906</ele>
        <time>2012-03-10T12:59:39Z</time>
      </trkpt>
      <trkpt lat="42.7379" lon="1.61493">
        <ele>1899.7023925781</ele>
        <time>2012-03-10T12:59:45Z</time>
      </trkpt>
      <trkpt lat="42.73795" lon="1.615">
        <ele>1897.7797851562</ele>
        <time>2012-03-10T12:59:51Z</time>
      </trkpt>
      <trkpt lat="42.73804" lon="1.61507">
        <ele>1894.8957519531</ele>
        <time>2012-03-10T13:00:01Z</time>
      </trkpt>
      <trkpt lat="42.73814" lon="1.61516">
        <ele>1890.0893554688</ele>
        <time>2012-03-10T13:00:12Z</time>
      </trkpt>
      <trkpt lat="42.73825" lon="1.61526">
        <ele>1884.8022460938</ele>
        <time>2012-03-10T13:00:22Z</time>
      </trkpt>
      <trkpt lat="42.73835" lon="1.61534">
        <ele>1880.4760742188</ele>
        <time>2012-03-10T13:00:31Z</time>
      </trkpt>
      <trkpt lat="42.73843" lon="1.61539">
        <ele>1877.1115722656</ele>
        <time>2012-03-10T13:00:38Z</time>
      </trkpt>
      <trkpt lat="42.7385" lon="1.61544">
        <ele>1874.7082519531</ele>
        <time>2012-03-10T13:00:45Z</time>
      </trkpt>
      <trkpt lat="42.73858" lon="1.61547">
        <ele>1871.82421875</ele>
        <time>2012-03-10T13:00:52Z</time>
      </trkpt>
      <trkpt lat="42.73866" lon="1.61548">
        <ele>1869.9016113281</ele>
        <time>2012-03-10T13:00:59Z</time>
      </trkpt>
      <trkpt lat="42.73867" lon="1.61549">
        <ele>1869.4211425781</ele>
        <time>2012-03-10T13:01:00Z</time>
      </trkpt>
      <trkpt lat="42.73876" lon="1.61555">
        <ele>1866.0561523438</ele>
        <time>2012-03-10T13:01:09Z</time>
      </trkpt>
      <trkpt lat="42.73885" lon="1.6156">
        <ele>1865.0949707031</ele>
        <time>2012-03-10T13:01:16Z</time>
      </trkpt>
      <trkpt lat="42.73893" lon="1.61561">
        <ele>1862.2109375</ele>
        <time>2012-03-10T13:01:23Z</time>
      </trkpt>
      <trkpt lat="42.73903" lon="1.61563">
        <ele>1859.3271484375</ele>
        <time>2012-03-10T13:01:31Z</time>
      </trkpt>
      <trkpt lat="42.73912" lon="1.61564">
        <ele>1857.8852539062</ele>
        <time>2012-03-10T13:01:38Z</time>
      </trkpt>
      <trkpt lat="42.7392" lon="1.61567">
        <ele>1855.4819335938</ele>
        <time>2012-03-10T13:01:45Z</time>
      </trkpt>
      <trkpt lat="42.7393" lon="1.61571">
        <ele>1853.5593261719</ele>
        <time>2012-03-10T13:01:53Z</time>
      </trkpt>
      <trkpt lat="42.7394" lon="1.61575">
        <ele>1851.1557617188</ele>
        <time>2012-03-10T13:02:01Z</time>
      </trkpt>
      <trkpt lat="42.73952" lon="1.61577">
        <ele>1848.2717285156</ele>
        <time>2012-03-10T13:02:10Z</time>
      </trkpt>
      <trkpt lat="42.7396" lon="1.61581">
        <ele>1845.8686523438</ele>
        <time>2012-03-10T13:02:17Z</time>
      </trkpt>
      <trkpt lat="42.7397" lon="1.61584">
        <ele>1844.4265136719</ele>
        <time>2012-03-10T13:02:24Z</time>
      </trkpt>
      <trkpt lat="42.73979" lon="1.61586">
        <ele>1842.9846191406</ele>
        <time>2012-03-10T13:02:31Z</time>
      </trkpt>
      <trkpt lat="42.7399" lon="1.61586">
        <ele>1840.5812988281</ele>
        <time>2012-03-10T13:02:39Z</time>
      </trkpt>
      <trkpt lat="42.73999" lon="1.61586">
        <ele>1838.6589355469</ele>
        <time>2012-03-10T13:02:46Z</time>
      </trkpt>
      <trkpt lat="42.7401" lon="1.61587">
        <ele>1837.216796875</ele>
        <time>2012-03-10T13:02:54Z</time>
      </trkpt>
      <trkpt lat="42.74018" lon="1.61586">
        <ele>1835.2939453125</ele>
        <time>2012-03-10T13:03:01Z</time>
      </trkpt>
      <trkpt lat="42.74028" lon="1.61589">
        <ele>1833.8520507812</ele>
        <time>2012-03-10T13:03:08Z</time>
      </trkpt>
      <trkpt lat="42.74038" lon="1.6159">
        <ele>1830.9682617188</ele>
        <time>2012-03-10T13:03:17Z</time>
      </trkpt>
      <trkpt lat="42.74047" lon="1.6159">
        <ele>1829.5261230469</ele>
        <time>2012-03-10T13:03:24Z</time>
      </trkpt>
      <trkpt lat="42.74058" lon="1.61591">
        <ele>1827.603515625</ele>
        <time>2012-03-10T13:03:33Z</time>
      </trkpt>
      <trkpt lat="42.7407" lon="1.61592">
        <ele>1825.2001953125</ele>
        <time>2012-03-10T13:03:42Z</time>
      </trkpt>
      <trkpt lat="42.74081" lon="1.61591">
        <ele>1823.7583007812</ele>
        <time>2012-03-10T13:03:50Z</time>
      </trkpt>
      <trkpt lat="42.74092" lon="1.61592">
        <ele>1821.8356933594</ele>
        <time>2012-03-10T13:03:58Z</time>
      </trkpt>
      <trkpt lat="42.74104" lon="1.61591">
        <ele>1819.4323730469</ele>
        <time>2012-03-10T13:04:07Z</time>
      </trkpt>
      <trkpt lat="42.7411" lon="1.61587">
        <ele>1817.5095214844</ele>
        <time>2012-03-10T13:04:13Z</time>
      </trkpt>
      <trkpt lat="42.74119" lon="1.61583">
        <ele>1816.5483398438</ele>
        <time>2012-03-10T13:04:20Z</time>
      </trkpt>
      <trkpt lat="42.74128" lon="1.6158">
        <ele>1815.1064453125</ele>
        <time>2012-03-10T13:04:27Z</time>
      </trkpt>
      <trkpt lat="42.74137" lon="1.61578">
        <ele>1813.6643066406</ele>
        <time>2012-03-10T13:04:35Z</time>
      </trkpt>
      <trkpt lat="42.74146" lon="1.61575">
        <ele>1812.703125</ele>
        <time>2012-03-10T13:04:42Z</time>
      </trkpt>
      <trkpt lat="42.74154" lon="1.61571">
        <ele>1811.2612304688</ele>
        <time>2012-03-10T13:04:51Z</time>
      </trkpt>
      <trkpt lat="42.74164" lon="1.61567">
        <ele>1809.3386230469</ele>
        <time>2012-03-10T13:05:00Z</time>
      </trkpt>
      <trkpt lat="42.74173" lon="1.61564">
        <ele>1807.416015625</ele>
        <time>2012-03-10T13:05:09Z</time>
      </trkpt>
      <trkpt lat="42.74181" lon="1.61563">
        <ele>1805.4934082031</ele>
        <time>2012-03-10T13:05:16Z</time>
      </trkpt>
      <trkpt lat="42.7419" lon="1.61558">
        <ele>1803.5705566406</ele>
        <time>2012-03-10T13:05:24Z</time>
      </trkpt>
      <trkpt lat="42.74195" lon="1.61556">
        <ele>1802.1284179688</ele>
        <time>2012-03-10T13:05:29Z</time>
      </trkpt>
      <trkpt lat="42.74203" lon="1.61555">
        <ele>1800.2060546875</ele>
        <time>2012-03-10T13:05:36Z</time>
      </trkpt>
      <trkpt lat="42.74213" lon="1.61552">
        <ele>1797.802734375</ele>
        <time>2012-03-10T13:05:45Z</time>
      </trkpt>
      <trkpt lat="42.74218" lon="1.61546">
        <ele>1796.3608398438</ele>
        <time>2012-03-10T13:05:51Z</time>
      </trkpt>
      <trkpt lat="42.74223" lon="1.6154">
        <ele>1794.9187011719</ele>
        <time>2012-03-10T13:05:59Z</time>
      </trkpt>
      <trkpt lat="42.74231" lon="1.61533">
        <ele>1793.4768066406</ele>
        <time>2012-03-10T13:06:08Z</time>
      </trkpt>
      <trkpt lat="42.74238" lon="1.61529">
        <ele>1792.0349121094</ele>
        <time>2012-03-10T13:06:16Z</time>
      </trkpt>
      <trkpt lat="42.74243" lon="1.61525">
        <ele>1790.5927734375</ele>
        <time>2012-03-10T13:06:22Z</time>
      </trkpt>
      <trkpt lat="42.7425" lon="1.61519">
        <ele>1787.7087402344</ele>
        <time>2012-03-10T13:06:30Z</time>
      </trkpt>
      <trkpt lat="42.74253" lon="1.61515">
        <ele>1787.2280273438</ele>
        <time>2012-03-10T13:06:34Z</time>
      </trkpt>
      <trkpt lat="42.74255" lon="1.61508">
        <ele>1785.7861328125</ele>
        <time>2012-03-10T13:06:40Z</time>
      </trkpt>
      <trkpt lat="42.74257" lon="1.61497">
        <ele>1783.3828125</ele>
        <time>2012-03-10T13:06:48Z</time>
      </trkpt>
      <trkpt lat="42.7426" lon="1.61486">
        <ele>1781.4602050781</ele>
        <time>2012-03-10T13:06:56Z</time>
      </trkpt>
      <trkpt lat="42.74262" lon="1.61479">
        <ele>1780.0183105469</ele>
        <time>2012-03-10T13:07:01Z</time>
      </trkpt>
      <trkpt lat="42.74265" lon="1.61471">
        <ele>1777.6149902344</ele>
        <time>2012-03-10T13:07:08Z</time>
      </trkpt>
      <trkpt lat="42.74266" lon="1.61466">
        <ele>1775.2116699219</ele>
        <time>2012-03-10T13:07:15Z</time>
      </trkpt>
      <trkpt lat="42.74265" lon="1.61459">
        <ele>1772.80859375</ele>
        <time>2012-03-10T13:07:22Z</time>
      </trkpt>
      <trkpt lat="42.74265" lon="1.61459">
        <ele>1772.80859375</ele>
        <time>2012-03-10T13:07:30Z</time>
      </trkpt>
      <trkpt lat="42.74265" lon="1.61459">
        <ele>1772.3278808594</ele>
        <time>2012-03-10T13:07:54Z</time>
      </trkpt>
    </trkseg>
  </trk>
  <trk>
    <name><![CDATA[Rando-course]]></name>
    <cmt><![CDATA[Pla de Montcam]]></cmt>
    <trkseg>
      <trkpt lat="42.74265" lon="1.61459">
        <ele>1772.3278808594</ele>
        <time>2012-03-10T13:07:58Z</time>
      </trkpt>
      <trkpt lat="42.74265" lon="1.61459">
        <ele>1771.8469238281</ele>
        <time>2012-03-10T13:07:59Z</time>
      </trkpt>
      <trkpt lat="42.74266" lon="1.61458">
        <ele>1768.482421875</ele>
        <time>2012-03-10T13:08:15Z</time>
      </trkpt>
      <trkpt lat="42.74265" lon="1.61457">
        <ele>1766.5598144531</ele>
        <time>2012-03-10T13:08:26Z</time>
      </trkpt>
      <trkpt lat="42.74264" lon="1.61457">
        <ele>1768.0017089844</ele>
        <time>2012-03-10T13:08:55Z</time>
      </trkpt>
      <trkpt lat="42.7426" lon="1.61455">
        <ele>1767.5209960938</ele>
        <time>2012-03-10T13:09:02Z</time>
      </trkpt>
      <trkpt lat="42.74258" lon="1.61454">
        <ele>1767.5209960938</ele>
        <time>2012-03-10T13:09:07Z</time>
      </trkpt>
      <trkpt lat="42.74257" lon="1.61454">
        <ele>1768.9631347656</ele>
        <time>2012-03-10T13:09:28Z</time>
      </trkpt>
      <trkpt lat="42.74257" lon="1.61455">
        <ele>1769.4438476562</ele>
        <time>2012-03-10T13:09:48Z</time>
      </trkpt>
      <trkpt lat="42.74257" lon="1.61455">
        <ele>1769.4438476562</ele>
        <time>2012-03-10T13:09:51Z</time>
      </trkpt>
      <trkpt lat="42.74257" lon="1.61453">
        <ele>1767.5209960938</ele>
        <time>2012-03-10T13:09:58Z</time>
      </trkpt>
      <trkpt lat="42.74256" lon="1.6145">
        <ele>1766.5598144531</ele>
        <time>2012-03-10T13:10:00Z</time>
      </trkpt>
      <trkpt lat="42.74255" lon="1.61435">
        <ele>1762.7145996094</ele>
        <time>2012-03-10T13:10:08Z</time>
      </trkpt>
      <trkpt lat="42.74256" lon="1.61422">
        <ele>1758.8693847656</ele>
        <time>2012-03-10T13:10:16Z</time>
      </trkpt>
      <trkpt lat="42.74257" lon="1.61413">
        <ele>1756.4660644531</ele>
        <time>2012-03-10T13:10:23Z</time>
      </trkpt>
      <trkpt lat="42.74256" lon="1.61401">
        <ele>1754.0627441406</ele>
        <time>2012-03-10T13:10:33Z</time>
      </trkpt>
      <trkpt lat="42.74257" lon="1.61394">
        <ele>1752.1398925781</ele>
        <time>2012-03-10T13:10:39Z</time>
      </trkpt>
      <trkpt lat="42.74257" lon="1.61382">
        <ele>1749.7368164062</ele>
        <time>2012-03-10T13:10:48Z</time>
      </trkpt>
      <trkpt lat="42.74258" lon="1.61368">
        <ele>1746.3723144531</ele>
        <time>2012-03-10T13:10:58Z</time>
      </trkpt>
      <trkpt lat="42.7426" lon="1.6136">
        <ele>1743.9689941406</ele>
        <time>2012-03-10T13:11:05Z</time>
      </trkpt>
      <trkpt lat="42.74259" lon="1.61355">
        <ele>1743.48828125</ele>
        <time>2012-03-10T13:11:11Z</time>
      </trkpt>
      <trkpt lat="42.74259" lon="1.61347">
        <ele>1742.5270996094</ele>
        <time>2012-03-10T13:11:18Z</time>
      </trkpt>
      <trkpt lat="42.74258" lon="1.61344">
        <ele>1741.0849609375</ele>
        <time>2012-03-10T13:11:25Z</time>
      </trkpt>
      <trkpt lat="42.74261" lon="1.61335">
        <ele>1738.681640625</ele>
        <time>2012-03-10T13:11:32Z</time>
      </trkpt>
      <trkpt lat="42.7426" lon="1.61329">
        <ele>1738.2009277344</ele>
        <time>2012-03-10T13:11:37Z</time>
      </trkpt>
      <trkpt lat="42.74259" lon="1.61315">
        <ele>1735.7976074219</ele>
        <time>2012-03-10T13:11:46Z</time>
      </trkpt>
      <trkpt lat="42.74259" lon="1.61306">
        <ele>1733.3942871094</ele>
        <time>2012-03-10T13:11:53Z</time>
      </trkpt>
      <trkpt lat="42.7426" lon="1.61299">
        <ele>1731.9523925781</ele>
        <time>2012-03-10T13:11:58Z</time>
      </trkpt>
      <trkpt lat="42.74264" lon="1.61294">
        <ele>1730.0297851562</ele>
        <time>2012-03-10T13:12:04Z</time>
      </trkpt>
      <trkpt lat="42.74264" lon="1.61286">
        <ele>1728.587890625</ele>
        <time>2012-03-10T13:12:10Z</time>
      </trkpt>
      <trkpt lat="42.74266" lon="1.61277">
        <ele>1726.1845703125</ele>
        <time>2012-03-10T13:12:18Z</time>
      </trkpt>
      <trkpt lat="42.74267" lon="1.61273">
        <ele>1725.2231445312</ele>
        <time>2012-03-10T13:12:24Z</time>
      </trkpt>
      <trkpt lat="42.74267" lon="1.61271">
        <ele>1724.7426757812</ele>
        <time>2012-03-10T13:12:29Z</time>
      </trkpt>
      <trkpt lat="42.74266" lon="1.6127">
        <ele>1725.2231445312</ele>
        <time>2012-03-10T13:12:33Z</time>
      </trkpt>
      <trkpt lat="42.74265" lon="1.61267">
        <ele>1724.2619628906</ele>
        <time>2012-03-10T13:12:39Z</time>
      </trkpt>
      <trkpt lat="42.74265" lon="1.61265">
        <ele>1722.8198242188</ele>
        <time>2012-03-10T13:12:48Z</time>
      </trkpt>
      <trkpt lat="42.74264" lon="1.61264">
        <ele>1722.8198242188</ele>
        <time>2012-03-10T13:12:55Z</time>
      </trkpt>
      <trkpt lat="42.74263" lon="1.6126">
        <ele>1720.8972167969</ele>
        <time>2012-03-10T13:13:02Z</time>
      </trkpt>
      <trkpt lat="42.74261" lon="1.61254">
        <ele>1718.974609375</ele>
        <time>2012-03-10T13:13:09Z</time>
      </trkpt>
      <trkpt lat="42.74259" lon="1.61251">
        <ele>1716.5712890625</ele>
        <time>2012-03-10T13:13:15Z</time>
      </trkpt>
      <trkpt lat="42.74258" lon="1.6125">
        <ele>1716.5712890625</ele>
        <time>2012-03-10T13:13:20Z</time>
      </trkpt>
      <trkpt lat="42.74257" lon="1.61247">
        <ele>1715.1293945312</ele>
        <time>2012-03-10T13:13:30Z</time>
      </trkpt>
      <trkpt lat="42.74256" lon="1.61243">
        <ele>1713.6872558594</ele>
        <time>2012-03-10T13:13:36Z</time>
      </trkpt>
      <trkpt lat="42.74259" lon="1.61242">
        <ele>1713.6872558594</ele>
        <time>2012-03-10T13:13:41Z</time>
      </trkpt>
      <trkpt lat="42.74262" lon="1.61241">
        <ele>1714.16796875</ele>
        <time>2012-03-10T13:13:47Z</time>
      </trkpt>
      <trkpt lat="42.74263" lon="1.61238">
        <ele>1714.6486816406</ele>
        <time>2012-03-10T13:13:53Z</time>
      </trkpt>
      <trkpt lat="42.74263" lon="1.61238">
        <ele>1714.6486816406</ele>
        <time>2012-03-10T13:13:57Z</time>
      </trkpt>
      <trkpt lat="42.74286" lon="1.605">
        <ele>1468.5512695312</ele>
        <time>2012-03-10T13:36:10Z</time>
      </trkpt>
      <trkpt lat="42.74286" lon="1.605">
        <ele>1468.5512695312</ele>
        <time>2012-03-10T13:36:11Z</time>
      </trkpt>
      <trkpt lat="42.74287" lon="1.605">
        <ele>1466.1477050781</ele>
        <time>2012-03-10T13:36:19Z</time>
      </trkpt>
      <trkpt lat="42.74286" lon="1.605">
        <ele>1466.1477050781</ele>
        <time>2012-03-10T13:36:27Z</time>
      </trkpt>
      <trkpt lat="42.74286" lon="1.605">
        <ele>1466.1477050781</ele>
        <time>2012-03-10T13:36:36Z</time>
      </trkpt>
      <trkpt lat="42.74287" lon="1.60501">
        <ele>1465.1865234375</ele>
        <time>2012-03-10T13:36:46Z</time>
      </trkpt>
      <trkpt lat="42.74287" lon="1.605">
        <ele>1465.1865234375</ele>
        <time>2012-03-10T13:36:53Z</time>
      </trkpt>
      <trkpt lat="42.74287" lon="1.60498">
        <ele>1466.6284179688</ele>
        <time>2012-03-10T13:37:10Z</time>
      </trkpt>
      <trkpt lat="42.74287" lon="1.60499">
        <ele>1466.6284179688</ele>
        <time>2012-03-10T13:37:16Z</time>
      </trkpt>
      <trkpt lat="42.74287" lon="1.60498">
        <ele>1466.6284179688</ele>
        <time>2012-03-10T13:37:35Z</time>
      </trkpt>
      <trkpt lat="42.74288" lon="1.60498">
        <ele>1468.5512695312</ele>
        <time>2012-03-10T13:37:50Z</time>
      </trkpt>
      <trkpt lat="42.74288" lon="1.60497">
        <ele>1468.5512695312</ele>
        <time>2012-03-10T13:37:56Z</time>
      </trkpt>
      <trkpt lat="42.74287" lon="1.60498">
        <ele>1466.6284179688</ele>
        <time>2012-03-10T13:38:24Z</time>
      </trkpt>
      <trkpt lat="42.74286" lon="1.60499">
        <ele>1464.2250976562</ele>
        <time>2012-03-10T13:38:52Z</time>
      </trkpt>
      <trkpt lat="42.74286" lon="1.60498">
        <ele>1465.6672363281</ele>
        <time>2012-03-10T13:39:25Z</time>
      </trkpt>
      <trkpt lat="42.74286" lon="1.60498">
        <ele>1466.1477050781</ele>
        <time>2012-03-10T13:39:41Z</time>
      </trkpt>
      <trkpt lat="42.74286" lon="1.60499">
        <ele>1464.7058105469</ele>
        <time>2012-03-10T13:39:52Z</time>
      </trkpt>
      <trkpt lat="42.74286" lon="1.60499">
        <ele>1463.7443847656</ele>
        <time>2012-03-10T13:40:04Z</time>
      </trkpt>
      <trkpt lat="42.74287" lon="1.605">
        <ele>1464.2250976562</ele>
        <time>2012-03-10T13:40:11Z</time>
      </trkpt>
      <trkpt lat="42.74286" lon="1.605">
        <ele>1464.7058105469</ele>
        <time>2012-03-10T13:40:20Z</time>
      </trkpt>
      <trkpt lat="42.74286" lon="1.60499">
        <ele>1466.6284179688</ele>
        <time>2012-03-10T13:40:33Z</time>
      </trkpt>
      <trkpt lat="42.74286" lon="1.60501">
        <ele>1467.5895996094</ele>
        <time>2012-03-10T13:40:39Z</time>
      </trkpt>
      <trkpt lat="42.74284" lon="1.60501">
        <ele>1476.7224121094</ele>
        <time>2012-03-10T13:40:58Z</time>
      </trkpt>
      <trkpt lat="42.74285" lon="1.60498">
        <ele>1476.2416992188</ele>
        <time>2012-03-10T13:41:06Z</time>
      </trkpt>
      <trkpt lat="42.74284" lon="1.60498">
        <ele>1472.396484375</ele>
        <time>2012-03-10T13:41:21Z</time>
      </trkpt>
      <trkpt lat="42.74284" lon="1.60496">
        <ele>1470.4738769531</ele>
        <time>2012-03-10T13:41:29Z</time>
      </trkpt>
      <trkpt lat="42.74284" lon="1.60495">
        <ele>1466.6284179688</ele>
        <time>2012-03-10T13:41:47Z</time>
      </trkpt>
      <trkpt lat="42.74285" lon="1.60497">
        <ele>1463.2639160156</ele>
        <time>2012-03-10T13:41:52Z</time>
      </trkpt>
      <trkpt lat="42.74284" lon="1.60498">
        <ele>1463.2639160156</ele>
        <time>2012-03-10T13:41:55Z</time>
      </trkpt>
      <trkpt lat="42.74284" lon="1.60495">
        <ele>1464.2250976562</ele>
        <time>2012-03-10T13:42:00Z</time>
      </trkpt>
      <trkpt lat="42.74286" lon="1.60489">
        <ele>1464.2250976562</ele>
        <time>2012-03-10T13:42:06Z</time>
      </trkpt>
      <trkpt lat="42.7429" lon="1.60483">
        <ele>1463.2639160156</ele>
        <time>2012-03-10T13:42:13Z</time>
      </trkpt>
      <trkpt lat="42.74294" lon="1.60475">
        <ele>1462.783203125</ele>
        <time>2012-03-10T13:42:20Z</time>
      </trkpt>
      <trkpt lat="42.74297" lon="1.60467">
        <ele>1460.8605957031</ele>
        <time>2012-03-10T13:42:28Z</time>
      </trkpt>
      <trkpt lat="42.74297" lon="1.60463">
        <ele>1458.4572753906</ele>
        <time>2012-03-10T13:42:33Z</time>
      </trkpt>
      <trkpt lat="42.74295" lon="1.60458">
        <ele>1456.5346679688</ele>
        <time>2012-03-10T13:42:38Z</time>
      </trkpt>
      <trkpt lat="42.74294" lon="1.60453">
        <ele>1455.5734863281</ele>
        <time>2012-03-10T13:42:43Z</time>
      </trkpt>
      <trkpt lat="42.74296" lon="1.60445">
        <ele>1454.1315917969</ele>
        <time>2012-03-10T13:42:51Z</time>
      </trkpt>
      <trkpt lat="42.74294" lon="1.60443">
        <ele>1453.6508789062</ele>
        <time>2012-03-10T13:42:57Z</time>
      </trkpt>
      <trkpt lat="42.74292" lon="1.60442">
        <ele>1451.7280273438</ele>
        <time>2012-03-10T13:43:04Z</time>
      </trkpt>
      <trkpt lat="42.74294" lon="1.60434">
        <ele>1449.8054199219</ele>
        <time>2012-03-10T13:43:11Z</time>
      </trkpt>
      <trkpt lat="42.74297" lon="1.60426">
        <ele>1450.2861328125</ele>
        <time>2012-03-10T13:43:18Z</time>
      </trkpt>
      <trkpt lat="42.74301" lon="1.60418">
        <ele>1450.2861328125</ele>
        <time>2012-03-10T13:43:26Z</time>
      </trkpt>
      <trkpt lat="42.74302" lon="1.60414">
        <ele>1450.7666015625</ele>
        <time>2012-03-10T13:43:32Z</time>
      </trkpt>
      <trkpt lat="42.74304" lon="1.60409">
        <ele>1448.36328125</ele>
        <time>2012-03-10T13:43:38Z</time>
      </trkpt>
      <trkpt lat="42.74305" lon="1.60408">
        <ele>1448.36328125</ele>
        <time>2012-03-10T13:43:42Z</time>
      </trkpt>
      <trkpt lat="42.74304" lon="1.60407">
        <ele>1446.9213867188</ele>
        <time>2012-03-10T13:43:48Z</time>
      </trkpt>
      <trkpt lat="42.74304" lon="1.60404">
        <ele>1444.0375976562</ele>
        <time>2012-03-10T13:43:55Z</time>
      </trkpt>
      <trkpt lat="42.74304" lon="1.604">
        <ele>1441.6342773438</ele>
        <time>2012-03-10T13:44:02Z</time>
      </trkpt>
      <trkpt lat="42.74303" lon="1.60394">
        <ele>1442.1149902344</ele>
        <time>2012-03-10T13:44:09Z</time>
      </trkpt>
      <trkpt lat="42.74303" lon="1.6039">
        <ele>1440.1923828125</ele>
        <time>2012-03-10T13:44:16Z</time>
      </trkpt>
      <trkpt lat="42.74304" lon="1.60385">
        <ele>1439.2309570312</ele>
        <time>2012-03-10T13:44:22Z</time>
      </trkpt>
      <trkpt lat="42.74305" lon="1.6038">
        <ele>1435.8662109375</ele>
        <time>2012-03-10T13:44:29Z</time>
      </trkpt>
      <trkpt lat="42.74308" lon="1.60377">
        <ele>1435.3854980469</ele>
        <time>2012-03-10T13:44:34Z</time>
      </trkpt>
      <trkpt lat="42.7431" lon="1.60375">
        <ele>1434.9050292969</ele>
        <time>2012-03-10T13:44:39Z</time>
      </trkpt>
      <trkpt lat="42.7431" lon="1.60371">
        <ele>1432.9821777344</ele>
        <time>2012-03-10T13:44:44Z</time>
      </trkpt>
      <trkpt lat="42.7431" lon="1.60366">
        <ele>1433.9436035156</ele>
        <time>2012-03-10T13:44:48Z</time>
      </trkpt>
      <trkpt lat="42.74311" lon="1.60363">
        <ele>1434.4243164062</ele>
        <time>2012-03-10T13:44:55Z</time>
      </trkpt>
      <trkpt lat="42.74313" lon="1.60359">
        <ele>1435.8662109375</ele>
        <time>2012-03-10T13:45:00Z</time>
      </trkpt>
      <trkpt lat="42.74313" lon="1.60351">
        <ele>1435.8662109375</ele>
        <time>2012-03-10T13:45:07Z</time>
      </trkpt>
      <trkpt lat="42.74314" lon="1.60346">
        <ele>1434.9050292969</ele>
        <time>2012-03-10T13:45:13Z</time>
      </trkpt>
      <trkpt lat="42.74316" lon="1.60343">
        <ele>1434.4243164062</ele>
        <time>2012-03-10T13:45:17Z</time>
      </trkpt>
      <trkpt lat="42.74316" lon="1.60337">
        <ele>1436.3471679688</ele>
        <time>2012-03-10T13:45:24Z</time>
      </trkpt>
      <trkpt lat="42.74317" lon="1.60329">
        <ele>1439.2309570312</ele>
        <time>2012-03-10T13:45:31Z</time>
      </trkpt>
      <trkpt lat="42.74319" lon="1.60326">
        <ele>1444.5180664062</ele>
        <time>2012-03-10T13:45:37Z</time>
      </trkpt>
      <trkpt lat="42.74323" lon="1.60324">
        <ele>1447.4020996094</ele>
        <time>2012-03-10T13:45:44Z</time>
      </trkpt>
      <trkpt lat="42.74325" lon="1.60318">
        <ele>1448.8439941406</ele>
        <time>2012-03-10T13:45:49Z</time>
      </trkpt>
      <trkpt lat="42.74326" lon="1.60313">
        <ele>1447.4020996094</ele>
        <time>2012-03-10T13:45:54Z</time>
      </trkpt>
      <trkpt lat="42.74327" lon="1.60307">
        <ele>1445.4794921875</ele>
        <time>2012-03-10T13:46:00Z</time>
      </trkpt>
      <trkpt lat="42.74327" lon="1.60302">
        <ele>1444.0375976562</ele>
        <time>2012-03-10T13:46:06Z</time>
      </trkpt>
      <trkpt lat="42.74325" lon="1.60296">
        <ele>1441.1535644531</ele>
        <time>2012-03-10T13:46:12Z</time>
      </trkpt>
      <trkpt lat="42.74327" lon="1.60292">
        <ele>1440.6728515625</ele>
        <time>2012-03-10T13:46:19Z</time>
      </trkpt>
      <trkpt lat="42.74328" lon="1.60289">
        <ele>1441.1535644531</ele>
        <time>2012-03-10T13:46:25Z</time>
      </trkpt>
      <trkpt lat="42.74329" lon="1.60287">
        <ele>1440.1923828125</ele>
        <time>2012-03-10T13:46:30Z</time>
      </trkpt>
      <trkpt lat="42.7433" lon="1.60283">
        <ele>1439.2309570312</ele>
        <time>2012-03-10T13:46:35Z</time>
      </trkpt>
      <trkpt lat="42.74331" lon="1.60278">
        <ele>1437.7890625</ele>
        <time>2012-03-10T13:46:41Z</time>
      </trkpt>
      <trkpt lat="42.74335" lon="1.60273">
        <ele>1438.7504882812</ele>
        <time>2012-03-10T13:46:47Z</time>
      </trkpt>
      <trkpt lat="42.74339" lon="1.6027">
        <ele>1441.1535644531</ele>
        <time>2012-03-10T13:46:53Z</time>
      </trkpt>
      <trkpt lat="42.74343" lon="1.60264">
        <ele>1442.595703125</ele>
        <time>2012-03-10T13:47:00Z</time>
      </trkpt>
      <trkpt lat="42.74344" lon="1.60259">
        <ele>1443.5568847656</ele>
        <time>2012-03-10T13:47:05Z</time>
      </trkpt>
      <trkpt lat="42.74342" lon="1.60256">
        <ele>1442.595703125</ele>
        <time>2012-03-10T13:47:11Z</time>
      </trkpt>
      <trkpt lat="42.74342" lon="1.60249">
        <ele>1440.6728515625</ele>
        <time>2012-03-10T13:47:17Z</time>
      </trkpt>
      <trkpt lat="42.74343" lon="1.60247">
        <ele>1443.076171875</ele>
        <time>2012-03-10T13:47:20Z</time>
      </trkpt>
      <trkpt lat="42.74344" lon="1.60243">
        <ele>1444.0375976562</ele>
        <time>2012-03-10T13:47:25Z</time>
      </trkpt>
      <trkpt lat="42.74348" lon="1.60239">
        <ele>1444.0375976562</ele>
        <time>2012-03-10T13:47:31Z</time>
      </trkpt>
      <trkpt lat="42.74348" lon="1.60234">
        <ele>1443.076171875</ele>
        <time>2012-03-10T13:47:38Z</time>
      </trkpt>
      <trkpt lat="42.74347" lon="1.60229">
        <ele>1440.6728515625</ele>
        <time>2012-03-10T13:47:45Z</time>
      </trkpt>
      <trkpt lat="42.74348" lon="1.60222">
        <ele>1439.2309570312</ele>
        <time>2012-03-10T13:47:52Z</time>
      </trkpt>
      <trkpt lat="42.74347" lon="1.60218">
        <ele>1437.3083496094</ele>
        <time>2012-03-10T13:47:59Z</time>
      </trkpt>
      <trkpt lat="42.74344" lon="1.60215">
        <ele>1434.4243164062</ele>
        <time>2012-03-10T13:48:04Z</time>
      </trkpt>
      <trkpt lat="42.74342" lon="1.60212">
        <ele>1431.5402832031</ele>
        <time>2012-03-10T13:48:08Z</time>
      </trkpt>
      <trkpt lat="42.7434" lon="1.60206">
        <ele>1429.1369628906</ele>
        <time>2012-03-10T13:48:14Z</time>
      </trkpt>
      <trkpt lat="42.74342" lon="1.60197">
        <ele>1426.7338867188</ele>
        <time>2012-03-10T13:48:21Z</time>
      </trkpt>
      <trkpt lat="42.74341" lon="1.60195">
        <ele>1426.7338867188</ele>
        <time>2012-03-10T13:48:22Z</time>
      </trkpt>
      <trkpt lat="42.7434" lon="1.60188">
        <ele>1424.3305664062</ele>
        <time>2012-03-10T13:48:29Z</time>
      </trkpt>
      <trkpt lat="42.7434" lon="1.60186">
        <ele>1422.888671875</ele>
        <time>2012-03-10T13:48:34Z</time>
      </trkpt>
      <trkpt lat="42.74339" lon="1.60179">
        <ele>1418.0817871094</ele>
        <time>2012-03-10T13:48:41Z</time>
      </trkpt>
      <trkpt lat="42.7434" lon="1.60172">
        <ele>1415.6787109375</ele>
        <time>2012-03-10T13:48:46Z</time>
      </trkpt>
      <trkpt lat="42.7434" lon="1.60169">
        <ele>1412.7946777344</ele>
        <time>2012-03-10T13:48:52Z</time>
      </trkpt>
      <trkpt lat="42.7434" lon="1.60168">
        <ele>1412.7946777344</ele>
        <time>2012-03-10T13:49:06Z</time>
      </trkpt>
      <trkpt lat="42.7434" lon="1.60165">
        <ele>1412.3139648438</ele>
        <time>2012-03-10T13:49:13Z</time>
      </trkpt>
      <trkpt lat="42.74339" lon="1.6016">
        <ele>1409.4301757812</ele>
        <time>2012-03-10T13:49:20Z</time>
      </trkpt>
      <trkpt lat="42.74338" lon="1.60154">
        <ele>1407.5075683594</ele>
        <time>2012-03-10T13:49:26Z</time>
      </trkpt>
      <trkpt lat="42.74338" lon="1.60153">
        <ele>1406.0654296875</ele>
        <time>2012-03-10T13:49:31Z</time>
      </trkpt>
      <trkpt lat="42.74336" lon="1.60148">
        <ele>1405.1042480469</ele>
        <time>2012-03-10T13:49:36Z</time>
      </trkpt>
      <trkpt lat="42.74335" lon="1.60145">
        <ele>1404.6235351562</ele>
        <time>2012-03-10T13:49:38Z</time>
      </trkpt>
      <trkpt lat="42.74332" lon="1.60137">
        <ele>1405.1042480469</ele>
        <time>2012-03-10T13:49:44Z</time>
      </trkpt>
      <trkpt lat="42.74331" lon="1.60131">
        <ele>1404.6235351562</ele>
        <time>2012-03-10T13:49:49Z</time>
      </trkpt>
      <trkpt lat="42.74326" lon="1.60122">
        <ele>1402.7006835938</ele>
        <time>2012-03-10T13:49:57Z</time>
      </trkpt>
      <trkpt lat="42.74324" lon="1.60119">
        <ele>1402.2199707031</ele>
        <time>2012-03-10T13:50:00Z</time>
      </trkpt>
      <trkpt lat="42.74316" lon="1.60113">
        <ele>1401.2587890625</ele>
        <time>2012-03-10T13:50:08Z</time>
      </trkpt>
      <trkpt lat="42.74309" lon="1.60109">
        <ele>1397.4135742188</ele>
        <time>2012-03-10T13:50:15Z</time>
      </trkpt>
      <trkpt lat="42.74305" lon="1.60104">
        <ele>1396.4523925781</ele>
        <time>2012-03-10T13:50:20Z</time>
      </trkpt>
      <trkpt lat="42.74303" lon="1.60101">
        <ele>1395.9716796875</ele>
        <time>2012-03-10T13:50:25Z</time>
      </trkpt>
      <trkpt lat="42.74301" lon="1.60092">
        <ele>1395.0102539062</ele>
        <time>2012-03-10T13:50:31Z</time>
      </trkpt>
      <trkpt lat="42.74297" lon="1.60087">
        <ele>1393.0876464844</ele>
        <time>2012-03-10T13:50:35Z</time>
      </trkpt>
      <trkpt lat="42.74292" lon="1.60082">
        <ele>1393.0876464844</ele>
        <time>2012-03-10T13:50:40Z</time>
      </trkpt>
      <trkpt lat="42.74287" lon="1.60073">
        <ele>1391.1650390625</ele>
        <time>2012-03-10T13:50:47Z</time>
      </trkpt>
      <trkpt lat="42.74282" lon="1.60067">
        <ele>1387.8002929688</ele>
        <time>2012-03-10T13:50:54Z</time>
      </trkpt>
      <trkpt lat="42.74278" lon="1.60059">
        <ele>1385.3969726562</ele>
        <time>2012-03-10T13:51:01Z</time>
      </trkpt>
      <trkpt lat="42.74275" lon="1.60051">
        <ele>1383.4743652344</ele>
        <time>2012-03-10T13:51:08Z</time>
      </trkpt>
      <trkpt lat="42.74273" lon="1.60044">
        <ele>1382.0324707031</ele>
        <time>2012-03-10T13:51:14Z</time>
      </trkpt>
      <trkpt lat="42.74272" lon="1.60041">
        <ele>1381.5517578125</ele>
        <time>2012-03-10T13:51:16Z</time>
      </trkpt>
      <trkpt lat="42.74271" lon="1.60029">
        <ele>1379.6291503906</ele>
        <time>2012-03-10T13:51:24Z</time>
      </trkpt>
      <trkpt lat="42.74272" lon="1.60022">
        <ele>1377.7065429688</ele>
        <time>2012-03-10T13:51:31Z</time>
      </trkpt>
      <trkpt lat="42.74273" lon="1.60016">
        <ele>1376.7453613281</ele>
        <time>2012-03-10T13:51:38Z</time>
      </trkpt>
      <trkpt lat="42.74272" lon="1.60009">
        <ele>1376.2646484375</ele>
        <time>2012-03-10T13:51:43Z</time>
      </trkpt>
      <trkpt lat="42.74274" lon="1.59999">
        <ele>1375.3032226562</ele>
        <time>2012-03-10T13:51:50Z</time>
      </trkpt>
      <trkpt lat="42.74271" lon="1.59983">
        <ele>1376.7453613281</ele>
        <time>2012-03-10T13:52:00Z</time>
      </trkpt>
      <trkpt lat="42.74266" lon="1.59977">
        <ele>1375.7839355469</ele>
        <time>2012-03-10T13:52:06Z</time>
      </trkpt>
      <trkpt lat="42.74266" lon="1.59974">
        <ele>1374.8227539062</ele>
        <time>2012-03-10T13:52:08Z</time>
      </trkpt>
      <trkpt lat="42.74266" lon="1.59968">
        <ele>1374.3420410156</ele>
        <time>2012-03-10T13:52:12Z</time>
      </trkpt>
      <trkpt lat="42.74264" lon="1.59958">
        <ele>1371.9384765625</ele>
        <time>2012-03-10T13:52:19Z</time>
      </trkpt>
      <trkpt lat="42.74262" lon="1.59946">
        <ele>1370.9772949219</ele>
        <time>2012-03-10T13:52:27Z</time>
      </trkpt>
      <trkpt lat="42.7426" lon="1.59938">
        <ele>1370.0158691406</ele>
        <time>2012-03-10T13:52:33Z</time>
      </trkpt>
      <trkpt lat="42.74263" lon="1.59929">
        <ele>1368.0932617188</ele>
        <time>2012-03-10T13:52:40Z</time>
      </trkpt>
      <trkpt lat="42.74266" lon="1.59918">
        <ele>1366.6513671875</ele>
        <time>2012-03-10T13:52:48Z</time>
      </trkpt>
      <trkpt lat="42.74268" lon="1.59909">
        <ele>1364.7287597656</ele>
        <time>2012-03-10T13:52:55Z</time>
      </trkpt>
      <trkpt lat="42.74269" lon="1.59902">
        <ele>1363.2868652344</ele>
        <time>2012-03-10T13:53:01Z</time>
      </trkpt>
      <trkpt lat="42.74272" lon="1.599">
        <ele>1363.7673339844</ele>
        <time>2012-03-10T13:53:07Z</time>
      </trkpt>
      <trkpt lat="42.74274" lon="1.59898">
        <ele>1364.7287597656</ele>
        <time>2012-03-10T13:53:12Z</time>
      </trkpt>
      <trkpt lat="42.74277" lon="1.59892">
        <ele>1363.7673339844</ele>
        <time>2012-03-10T13:53:19Z</time>
      </trkpt>
      <trkpt lat="42.74279" lon="1.59884">
        <ele>1362.8061523438</ele>
        <time>2012-03-10T13:53:26Z</time>
      </trkpt>
      <trkpt lat="42.74282" lon="1.59879">
        <ele>1363.2868652344</ele>
        <time>2012-03-10T13:53:32Z</time>
      </trkpt>
      <trkpt lat="42.74284" lon="1.59877">
        <ele>1362.8061523438</ele>
        <time>2012-03-10T13:53:36Z</time>
      </trkpt>
      <trkpt lat="42.74287" lon="1.59875">
        <ele>1361.8449707031</ele>
        <time>2012-03-10T13:53:42Z</time>
      </trkpt>
      <trkpt lat="42.74291" lon="1.5987">
        <ele>1361.8449707031</ele>
        <time>2012-03-10T13:53:48Z</time>
      </trkpt>
      <trkpt lat="42.74294" lon="1.59864">
        <ele>1361.3642578125</ele>
        <time>2012-03-10T13:53:54Z</time>
      </trkpt>
      <trkpt lat="42.74298" lon="1.59851">
        <ele>1357.9997558594</ele>
        <time>2012-03-10T13:54:04Z</time>
      </trkpt>
      <trkpt lat="42.743" lon="1.59848">
        <ele>1357.0383300781</ele>
        <time>2012-03-10T13:54:09Z</time>
      </trkpt>
      <trkpt lat="42.74301" lon="1.59846">
        <ele>1355.5961914062</ele>
        <time>2012-03-10T13:54:14Z</time>
      </trkpt>
      <trkpt lat="42.74305" lon="1.59842">
        <ele>1353.6735839844</ele>
        <time>2012-03-10T13:54:21Z</time>
      </trkpt>
      <trkpt lat="42.74309" lon="1.59839">
        <ele>1351.2702636719</ele>
        <time>2012-03-10T13:54:28Z</time>
      </trkpt>
      <trkpt lat="42.74312" lon="1.59833">
        <ele>1350.3090820312</ele>
        <time>2012-03-10T13:54:34Z</time>
      </trkpt>
      <trkpt lat="42.74313" lon="1.59829">
        <ele>1348.3862304688</ele>
        <time>2012-03-10T13:54:39Z</time>
      </trkpt>
      <trkpt lat="42.74314" lon="1.59821">
        <ele>1347.4250488281</ele>
        <time>2012-03-10T13:54:46Z</time>
      </trkpt>
      <trkpt lat="42.74316" lon="1.59816">
        <ele>1345.0217285156</ele>
        <time>2012-03-10T13:54:51Z</time>
      </trkpt>
      <trkpt lat="42.74316" lon="1.59812">
        <ele>1343.5798339844</ele>
        <time>2012-03-10T13:54:56Z</time>
      </trkpt>
      <trkpt lat="42.74316" lon="1.59807">
        <ele>1342.1379394531</ele>
        <time>2012-03-10T13:55:00Z</time>
      </trkpt>
      <trkpt lat="42.74318" lon="1.598">
        <ele>1340.2153320312</ele>
        <time>2012-03-10T13:55:06Z</time>
      </trkpt>
      <trkpt lat="42.74319" lon="1.59794">
        <ele>1338.7731933594</ele>
        <time>2012-03-10T13:55:11Z</time>
      </trkpt>
      <trkpt lat="42.7432" lon="1.59786">
        <ele>1337.8117675781</ele>
        <time>2012-03-10T13:55:17Z</time>
      </trkpt>
      <trkpt lat="42.74323" lon="1.59784">
        <ele>1335.4084472656</ele>
        <time>2012-03-10T13:55:23Z</time>
      </trkpt>
      <trkpt lat="42.74326" lon="1.59782">
        <ele>1333.0051269531</ele>
        <time>2012-03-10T13:55:28Z</time>
      </trkpt>
      <trkpt lat="42.7433" lon="1.59778">
        <ele>1330.6020507812</ele>
        <time>2012-03-10T13:55:35Z</time>
      </trkpt>
      <trkpt lat="42.74333" lon="1.59772">
        <ele>1331.5632324219</ele>
        <time>2012-03-10T13:55:41Z</time>
      </trkpt>
      <trkpt lat="42.74335" lon="1.59767">
        <ele>1331.0827636719</ele>
        <time>2012-03-10T13:55:46Z</time>
      </trkpt>
      <trkpt lat="42.74335" lon="1.59763">
        <ele>1330.6020507812</ele>
        <time>2012-03-10T13:55:52Z</time>
      </trkpt>
      <trkpt lat="42.74335" lon="1.5976">
        <ele>1329.640625</ele>
        <time>2012-03-10T13:55:58Z</time>
      </trkpt>
      <trkpt lat="42.74337" lon="1.59758">
        <ele>1327.7180175781</ele>
        <time>2012-03-10T13:56:03Z</time>
      </trkpt>
      <trkpt lat="42.7434" lon="1.59757">
        <ele>1324.8342285156</ele>
        <time>2012-03-10T13:56:08Z</time>
      </trkpt>
      <trkpt lat="42.74343" lon="1.59756">
        <ele>1321.9499511719</ele>
        <time>2012-03-10T13:56:13Z</time>
      </trkpt>
      <trkpt lat="42.74345" lon="1.59749">
        <ele>1322.4306640625</ele>
        <time>2012-03-10T13:56:18Z</time>
      </trkpt>
      <trkpt lat="42.74348" lon="1.59743">
        <ele>1321.4692382812</ele>
        <time>2012-03-10T13:56:24Z</time>
      </trkpt>
      <trkpt lat="42.74351" lon="1.59737">
        <ele>1319.0661621094</ele>
        <time>2012-03-10T13:56:30Z</time>
      </trkpt>
      <trkpt lat="42.74354" lon="1.59732">
        <ele>1317.1435546875</ele>
        <time>2012-03-10T13:56:38Z</time>
      </trkpt>
      <trkpt lat="42.74358" lon="1.59728">
        <ele>1317.6240234375</ele>
        <time>2012-03-10T13:56:45Z</time>
      </trkpt>
      <trkpt lat="42.74362" lon="1.59723">
        <ele>1317.1435546875</ele>
        <time>2012-03-10T13:56:51Z</time>
      </trkpt>
      <trkpt lat="42.74364" lon="1.59718">
        <ele>1317.1435546875</ele>
        <time>2012-03-10T13:56:57Z</time>
      </trkpt>
      <trkpt lat="42.74369" lon="1.59712">
        <ele>1315.2209472656</ele>
        <time>2012-03-10T13:57:03Z</time>
      </trkpt>
      <trkpt lat="42.74371" lon="1.59711">
        <ele>1314.740234375</ele>
        <time>2012-03-10T13:57:05Z</time>
      </trkpt>
      <trkpt lat="42.74378" lon="1.59706">
        <ele>1310.4143066406</ele>
        <time>2012-03-10T13:57:12Z</time>
      </trkpt>
      <trkpt lat="42.74384" lon="1.59698">
        <ele>1307.5302734375</ele>
        <time>2012-03-10T13:57:20Z</time>
      </trkpt>
      <trkpt lat="42.74386" lon="1.59692">
        <ele>1308.4916992188</ele>
        <time>2012-03-10T13:57:26Z</time>
      </trkpt>
      <trkpt lat="42.74389" lon="1.59681">
        <ele>1307.5302734375</ele>
        <time>2012-03-10T13:57:33Z</time>
      </trkpt>
      <trkpt lat="42.74394" lon="1.59671">
        <ele>1303.6850585938</ele>
        <time>2012-03-10T13:57:41Z</time>
      </trkpt>
      <trkpt lat="42.74395" lon="1.5967">
        <ele>1303.2043457031</ele>
        <time>2012-03-10T13:57:43Z</time>
      </trkpt>
      <trkpt lat="42.74398" lon="1.59661">
        <ele>1300.3205566406</ele>
        <time>2012-03-10T13:57:49Z</time>
      </trkpt>
      <trkpt lat="42.74403" lon="1.5965">
        <ele>1299.3591308594</ele>
        <time>2012-03-10T13:57:56Z</time>
      </trkpt>
      <trkpt lat="42.74403" lon="1.59649">
        <ele>1299.3591308594</ele>
        <time>2012-03-10T13:57:57Z</time>
      </trkpt>
      <trkpt lat="42.74405" lon="1.59645">
        <ele>1297.9172363281</ele>
        <time>2012-03-10T13:58:01Z</time>
      </trkpt>
      <trkpt lat="42.74407" lon="1.59636">
        <ele>1296.9558105469</ele>
        <time>2012-03-10T13:58:07Z</time>
      </trkpt>
      <trkpt lat="42.74408" lon="1.59635">
        <ele>1296.4753417969</ele>
        <time>2012-03-10T13:58:08Z</time>
      </trkpt>
      <trkpt lat="42.74411" lon="1.59629">
        <ele>1294.5524902344</ele>
        <time>2012-03-10T13:58:14Z</time>
      </trkpt>
      <trkpt lat="42.74412" lon="1.59621">
        <ele>1292.1494140625</ele>
        <time>2012-03-10T13:58:21Z</time>
      </trkpt>
      <trkpt lat="42.74412" lon="1.59615">
        <ele>1289.7458496094</ele>
        <time>2012-03-10T13:58:27Z</time>
      </trkpt>
      <trkpt lat="42.74414" lon="1.59607">
        <ele>1287.8232421875</ele>
        <time>2012-03-10T13:58:34Z</time>
      </trkpt>
      <trkpt lat="42.74415" lon="1.59599">
        <ele>1285.419921875</ele>
        <time>2012-03-10T13:58:40Z</time>
      </trkpt>
      <trkpt lat="42.74416" lon="1.59597">
        <ele>1283.4973144531</ele>
        <time>2012-03-10T13:58:44Z</time>
      </trkpt>
      <trkpt lat="42.74416" lon="1.59591">
        <ele>1281.0942382812</ele>
        <time>2012-03-10T13:58:51Z</time>
      </trkpt>
      <trkpt lat="42.74416" lon="1.59584">
        <ele>1280.6135253906</ele>
        <time>2012-03-10T13:58:56Z</time>
      </trkpt>
      <trkpt lat="42.74416" lon="1.59579">
        <ele>1279.6520996094</ele>
        <time>2012-03-10T13:59:01Z</time>
      </trkpt>
      <trkpt lat="42.74416" lon="1.59572">
        <ele>1277.2490234375</ele>
        <time>2012-03-10T13:59:07Z</time>
      </trkpt>
      <trkpt lat="42.74414" lon="1.59565">
        <ele>1273.4035644531</ele>
        <time>2012-03-10T13:59:14Z</time>
      </trkpt>
      <trkpt lat="42.74415" lon="1.59559">
        <ele>1271.4807128906</ele>
        <time>2012-03-10T13:59:20Z</time>
      </trkpt>
      <trkpt lat="42.74413" lon="1.59552">
        <ele>1270.0388183594</ele>
        <time>2012-03-10T13:59:27Z</time>
      </trkpt>
      <trkpt lat="42.74409" lon="1.59547">
        <ele>1268.1162109375</ele>
        <time>2012-03-10T13:59:33Z</time>
      </trkpt>
      <trkpt lat="42.74408" lon="1.59539">
        <ele>1264.2709960938</ele>
        <time>2012-03-10T13:59:40Z</time>
      </trkpt>
      <trkpt lat="42.74412" lon="1.59537">
        <ele>1262.3483886719</ele>
        <time>2012-03-10T13:59:45Z</time>
      </trkpt>
      <trkpt lat="42.74411" lon="1.59533">
        <ele>1259.4643554688</ele>
        <time>2012-03-10T13:59:50Z</time>
      </trkpt>
      <trkpt lat="42.74408" lon="1.59529">
        <ele>1257.0610351562</ele>
        <time>2012-03-10T13:59:55Z</time>
      </trkpt>
      <trkpt lat="42.74405" lon="1.59525">
        <ele>1254.1772460938</ele>
        <time>2012-03-10T14:00:01Z</time>
      </trkpt>
      <trkpt lat="42.74403" lon="1.59521">
        <ele>1252.7351074219</ele>
        <time>2012-03-10T14:00:06Z</time>
      </trkpt>
      <trkpt lat="42.74404" lon="1.59519">
        <ele>1251.2932128906</ele>
        <time>2012-03-10T14:00:09Z</time>
      </trkpt>
      <trkpt lat="42.74405" lon="1.59519">
        <ele>1250.8125</ele>
        <time>2012-03-10T14:00:23Z</time>
      </trkpt>
      <trkpt lat="42.74406" lon="1.59516">
        <ele>1249.8513183594</ele>
        <time>2012-03-10T14:00:29Z</time>
      </trkpt>
      <trkpt lat="42.74405" lon="1.59514">
        <ele>1247.9287109375</ele>
        <time>2012-03-10T14:00:35Z</time>
      </trkpt>
      <trkpt lat="42.74406" lon="1.59511">
        <ele>1248.4091796875</ele>
        <time>2012-03-10T14:00:38Z</time>
      </trkpt>
      <trkpt lat="42.74413" lon="1.59507">
        <ele>1247.4479980469</ele>
        <time>2012-03-10T14:00:45Z</time>
      </trkpt>
      <trkpt lat="42.74423" lon="1.59505">
        <ele>1244.0834960938</ele>
        <time>2012-03-10T14:00:55Z</time>
      </trkpt>
      <trkpt lat="42.7443" lon="1.59502">
        <ele>1242.1606445312</ele>
        <time>2012-03-10T14:01:03Z</time>
      </trkpt>
      <trkpt lat="42.74437" lon="1.59498">
        <ele>1240.2380371094</ele>
        <time>2012-03-10T14:01:12Z</time>
      </trkpt>
      <trkpt lat="42.7444" lon="1.59494">
        <ele>1240.2380371094</ele>
        <time>2012-03-10T14:01:16Z</time>
      </trkpt>
      <trkpt lat="42.74443" lon="1.59485">
        <ele>1243.1218261719</ele>
        <time>2012-03-10T14:01:22Z</time>
      </trkpt>
      <trkpt lat="42.74446" lon="1.59471">
        <ele>1243.6025390625</ele>
        <time>2012-03-10T14:01:31Z</time>
      </trkpt>
      <trkpt lat="42.74447" lon="1.59464">
        <ele>1243.1218261719</ele>
        <time>2012-03-10T14:01:35Z</time>
      </trkpt>
      <trkpt lat="42.74448" lon="1.59452">
        <ele>1242.1606445312</ele>
        <time>2012-03-10T14:01:43Z</time>
      </trkpt>
      <trkpt lat="42.74445" lon="1.59437">
        <ele>1242.1606445312</ele>
        <time>2012-03-10T14:01:52Z</time>
      </trkpt>
      <trkpt lat="42.74437" lon="1.5943">
        <ele>1240.7185058594</ele>
        <time>2012-03-10T14:02:00Z</time>
      </trkpt>
      <trkpt lat="42.74426" lon="1.59425">
        <ele>1239.7573242188</ele>
        <time>2012-03-10T14:02:08Z</time>
      </trkpt>
      <trkpt lat="42.74419" lon="1.59421">
        <ele>1238.3154296875</ele>
        <time>2012-03-10T14:02:14Z</time>
      </trkpt>
      <trkpt lat="42.7441" lon="1.59422">
        <ele>1239.7573242188</ele>
        <time>2012-03-10T14:02:20Z</time>
      </trkpt>
      <trkpt lat="42.74406" lon="1.59425">
        <ele>1240.2380371094</ele>
        <time>2012-03-10T14:02:25Z</time>
      </trkpt>
      <trkpt lat="42.74401" lon="1.59431">
        <ele>1240.7185058594</ele>
        <time>2012-03-10T14:02:30Z</time>
      </trkpt>
      <trkpt lat="42.74395" lon="1.59439">
        <ele>1240.7185058594</ele>
        <time>2012-03-10T14:02:35Z</time>
      </trkpt>
      <trkpt lat="42.74392" lon="1.5944">
        <ele>1239.7573242188</ele>
        <time>2012-03-10T14:02:37Z</time>
      </trkpt>
      <trkpt lat="42.74385" lon="1.59436">
        <ele>1238.3154296875</ele>
        <time>2012-03-10T14:02:43Z</time>
      </trkpt>
      <trkpt lat="42.74382" lon="1.59428">
        <ele>1236.3928222656</ele>
        <time>2012-03-10T14:02:47Z</time>
      </trkpt>
      <trkpt lat="42.74384" lon="1.59423">
        <ele>1234.9509277344</ele>
        <time>2012-03-10T14:02:51Z</time>
      </trkpt>
      <trkpt lat="42.74384" lon="1.59421">
        <ele>1234.4702148438</ele>
        <time>2012-03-10T14:02:54Z</time>
      </trkpt>
      <trkpt lat="42.74386" lon="1.59405">
        <ele>1233.9895019531</ele>
        <time>2012-03-10T14:03:04Z</time>
      </trkpt>
      <trkpt lat="42.74385" lon="1.59393">
        <ele>1232.5476074219</ele>
        <time>2012-03-10T14:03:11Z</time>
      </trkpt>
      <trkpt lat="42.74384" lon="1.59382">
        <ele>1233.5087890625</ele>
        <time>2012-03-10T14:03:17Z</time>
      </trkpt>
      <trkpt lat="42.74383" lon="1.59379">
        <ele>1233.0280761719</ele>
        <time>2012-03-10T14:03:19Z</time>
      </trkpt>
      <trkpt lat="42.7438" lon="1.59372">
        <ele>1235.4313964844</ele>
        <time>2012-03-10T14:03:23Z</time>
      </trkpt>
      <trkpt lat="42.74379" lon="1.59359">
        <ele>1234.4702148438</ele>
        <time>2012-03-10T14:03:31Z</time>
      </trkpt>
      <trkpt lat="42.74379" lon="1.59354">
        <ele>1233.9895019531</ele>
        <time>2012-03-10T14:03:34Z</time>
      </trkpt>
      <trkpt lat="42.7438" lon="1.59345">
        <ele>1233.0280761719</ele>
        <time>2012-03-10T14:03:39Z</time>
      </trkpt>
      <trkpt lat="42.74381" lon="1.59335">
        <ele>1233.5087890625</ele>
        <time>2012-03-10T14:03:44Z</time>
      </trkpt>
      <trkpt lat="42.74381" lon="1.59331">
        <ele>1233.5087890625</ele>
        <time>2012-03-10T14:03:46Z</time>
      </trkpt>
      <trkpt lat="42.74386" lon="1.59318">
        <ele>1234.9509277344</ele>
        <time>2012-03-10T14:03:53Z</time>
      </trkpt>
      <trkpt lat="42.74393" lon="1.59312">
        <ele>1233.5087890625</ele>
        <time>2012-03-10T14:03:59Z</time>
      </trkpt>
      <trkpt lat="42.74395" lon="1.5931">
        <ele>1233.0280761719</ele>
        <time>2012-03-10T14:04:01Z</time>
      </trkpt>
      <trkpt lat="42.744" lon="1.59303">
        <ele>1232.0668945312</ele>
        <time>2012-03-10T14:04:07Z</time>
      </trkpt>
      <trkpt lat="42.74405" lon="1.59292">
        <ele>1228.7023925781</ele>
        <time>2012-03-10T14:04:14Z</time>
      </trkpt>
      <trkpt lat="42.74405" lon="1.59291">
        <ele>1228.2216796875</ele>
        <time>2012-03-10T14:04:15Z</time>
      </trkpt>
      <trkpt lat="42.74408" lon="1.59282">
        <ele>1226.7795410156</ele>
        <time>2012-03-10T14:04:21Z</time>
      </trkpt>
      <trkpt lat="42.74409" lon="1.59281">
        <ele>1225.8181152344</ele>
        <time>2012-03-10T14:04:22Z</time>
      </trkpt>
      <trkpt lat="42.74411" lon="1.59279">
        <ele>1224.8569335938</ele>
        <time>2012-03-10T14:04:24Z</time>
      </trkpt>
      <trkpt lat="42.74416" lon="1.59269">
        <ele>1224.3762207031</ele>
        <time>2012-03-10T14:04:30Z</time>
      </trkpt>
      <trkpt lat="42.74418" lon="1.59266">
        <ele>1225.3374023438</ele>
        <time>2012-03-10T14:04:32Z</time>
      </trkpt>
      <trkpt lat="42.74419" lon="1.59261">
        <ele>1227.7407226562</ele>
        <time>2012-03-10T14:04:34Z</time>
      </trkpt>
      <trkpt lat="42.74425" lon="1.59253">
        <ele>1228.2216796875</ele>
        <time>2012-03-10T14:04:40Z</time>
      </trkpt>
      <trkpt lat="42.74431" lon="1.59247">
        <ele>1226.7795410156</ele>
        <time>2012-03-10T14:04:46Z</time>
      </trkpt>
      <trkpt lat="42.74437" lon="1.59238">
        <ele>1225.8181152344</ele>
        <time>2012-03-10T14:04:52Z</time>
      </trkpt>
      <trkpt lat="42.74441" lon="1.59229">
        <ele>1224.8569335938</ele>
        <time>2012-03-10T14:04:58Z</time>
      </trkpt>
      <trkpt lat="42.74447" lon="1.59218">
        <ele>1221.4921875</ele>
        <time>2012-03-10T14:05:06Z</time>
      </trkpt>
      <trkpt lat="42.7445" lon="1.59208">
        <ele>1221.01171875</ele>
        <time>2012-03-10T14:05:12Z</time>
      </trkpt>
      <trkpt lat="42.74454" lon="1.5919">
        <ele>1218.1276855469</ele>
        <time>2012-03-10T14:05:22Z</time>
      </trkpt>
      <trkpt lat="42.74455" lon="1.59184">
        <ele>1218.1276855469</ele>
        <time>2012-03-10T14:05:25Z</time>
      </trkpt>
      <trkpt lat="42.74458" lon="1.59168">
        <ele>1218.6083984375</ele>
        <time>2012-03-10T14:05:33Z</time>
      </trkpt>
      <trkpt lat="42.74462" lon="1.59151">
        <ele>1219.5698242188</ele>
        <time>2012-03-10T14:05:40Z</time>
      </trkpt>
      <trkpt lat="42.74468" lon="1.59131">
        <ele>1219.0891113281</ele>
        <time>2012-03-10T14:05:47Z</time>
      </trkpt>
      <trkpt lat="42.74474" lon="1.59118">
        <ele>1217.1665039062</ele>
        <time>2012-03-10T14:05:53Z</time>
      </trkpt>
      <trkpt lat="42.74482" lon="1.59098">
        <ele>1214.7631835938</ele>
        <time>2012-03-10T14:06:01Z</time>
      </trkpt>
      <trkpt lat="42.74488" lon="1.59083">
        <ele>1213.3212890625</ele>
        <time>2012-03-10T14:06:07Z</time>
      </trkpt>
      <trkpt lat="42.74494" lon="1.59064">
        <ele>1212.3598632812</ele>
        <time>2012-03-10T14:06:14Z</time>
      </trkpt>
      <trkpt lat="42.745" lon="1.59047">
        <ele>1211.8791503906</ele>
        <time>2012-03-10T14:06:20Z</time>
      </trkpt>
      <trkpt lat="42.74504" lon="1.59035">
        <ele>1212.3598632812</ele>
        <time>2012-03-10T14:06:25Z</time>
      </trkpt>
      <trkpt lat="42.7451" lon="1.5902">
        <ele>1208.0339355469</ele>
        <time>2012-03-10T14:06:31Z</time>
      </trkpt>
      <trkpt lat="42.74514" lon="1.59013">
        <ele>1206.591796875</ele>
        <time>2012-03-10T14:06:34Z</time>
      </trkpt>
      <trkpt lat="42.74519" lon="1.58995">
        <ele>1202.7465820312</ele>
        <time>2012-03-10T14:06:41Z</time>
      </trkpt>
      <trkpt lat="42.74525" lon="1.58978">
        <ele>1202.7465820312</ele>
        <time>2012-03-10T14:06:47Z</time>
      </trkpt>
      <trkpt lat="42.74531" lon="1.5896">
        <ele>1200.8239746094</ele>
        <time>2012-03-10T14:06:53Z</time>
      </trkpt>
      <trkpt lat="42.74534" lon="1.58951">
        <ele>1199.8627929688</ele>
        <time>2012-03-10T14:06:56Z</time>
      </trkpt>
      <trkpt lat="42.74539" lon="1.58935">
        <ele>1199.3820800781</ele>
        <time>2012-03-10T14:07:03Z</time>
      </trkpt>
      <trkpt lat="42.7454" lon="1.58933">
        <ele>1199.3820800781</ele>
        <time>2012-03-10T14:07:04Z</time>
      </trkpt>
      <trkpt lat="42.74543" lon="1.5892">
        <ele>1200.8239746094</ele>
        <time>2012-03-10T14:07:10Z</time>
      </trkpt>
      <trkpt lat="42.74548" lon="1.58908">
        <ele>1199.3820800781</ele>
        <time>2012-03-10T14:07:18Z</time>
      </trkpt>
      <trkpt lat="42.74551" lon="1.58901">
        <ele>1197.9401855469</ele>
        <time>2012-03-10T14:07:22Z</time>
      </trkpt>
      <trkpt lat="42.74553" lon="1.58891">
        <ele>1199.3820800781</ele>
        <time>2012-03-10T14:07:28Z</time>
      </trkpt>
      <trkpt lat="42.74554" lon="1.58883">
        <ele>1198.9013671875</ele>
        <time>2012-03-10T14:07:32Z</time>
      </trkpt>
      <trkpt lat="42.74556" lon="1.58873">
        <ele>1197.9401855469</ele>
        <time>2012-03-10T14:07:37Z</time>
      </trkpt>
      <trkpt lat="42.74558" lon="1.58865">
        <ele>1198.9013671875</ele>
        <time>2012-03-10T14:07:41Z</time>
      </trkpt>
      <trkpt lat="42.74561" lon="1.58846">
        <ele>1199.8627929688</ele>
        <time>2012-03-10T14:07:50Z</time>
      </trkpt>
      <trkpt lat="42.74562" lon="1.58833">
        <ele>1198.9013671875</ele>
        <time>2012-03-10T14:07:56Z</time>
      </trkpt>
      <trkpt lat="42.74564" lon="1.58819">
        <ele>1196.017578125</ele>
        <time>2012-03-10T14:08:04Z</time>
      </trkpt>
      <trkpt lat="42.74566" lon="1.5881">
        <ele>1195.5366210938</ele>
        <time>2012-03-10T14:08:09Z</time>
      </trkpt>
      <trkpt lat="42.74566" lon="1.58808">
        <ele>1195.0559082031</ele>
        <time>2012-03-10T14:08:10Z</time>
      </trkpt>
      <trkpt lat="42.74568" lon="1.58789">
        <ele>1194.5751953125</ele>
        <time>2012-03-10T14:08:19Z</time>
      </trkpt>
      <trkpt lat="42.74569" lon="1.58785">
        <ele>1194.0947265625</ele>
        <time>2012-03-10T14:08:21Z</time>
      </trkpt>
      <trkpt lat="42.7457" lon="1.58775">
        <ele>1191.2106933594</ele>
        <time>2012-03-10T14:08:27Z</time>
      </trkpt>
      <trkpt lat="42.74571" lon="1.58767">
        <ele>1189.2880859375</ele>
        <time>2012-03-10T14:08:31Z</time>
      </trkpt>
      <trkpt lat="42.74574" lon="1.58756">
        <ele>1190.7299804688</ele>
        <time>2012-03-10T14:08:37Z</time>
      </trkpt>
      <trkpt lat="42.74579" lon="1.58742">
        <ele>1191.2106933594</ele>
        <time>2012-03-10T14:08:45Z</time>
      </trkpt>
      <trkpt lat="42.74582" lon="1.58737">
        <ele>1191.2106933594</ele>
        <time>2012-03-10T14:08:48Z</time>
      </trkpt>
      <trkpt lat="42.74593" lon="1.58724">
        <ele>1191.69140625</ele>
        <time>2012-03-10T14:08:57Z</time>
      </trkpt>
      <trkpt lat="42.74604" lon="1.58713">
        <ele>1190.2495117188</ele>
        <time>2012-03-10T14:09:05Z</time>
      </trkpt>
      <trkpt lat="42.74617" lon="1.58703">
        <ele>1189.2880859375</ele>
        <time>2012-03-10T14:09:14Z</time>
      </trkpt>
      <trkpt lat="42.74627" lon="1.58697">
        <ele>1186.884765625</ele>
        <time>2012-03-10T14:09:20Z</time>
      </trkpt>
      <trkpt lat="42.74634" lon="1.58689">
        <ele>1184.4816894531</ele>
        <time>2012-03-10T14:09:25Z</time>
      </trkpt>
      <trkpt lat="42.7464" lon="1.58678">
        <ele>1181.59765625</ele>
        <time>2012-03-10T14:09:32Z</time>
      </trkpt>
      <trkpt lat="42.74647" lon="1.58667">
        <ele>1180.1557617188</ele>
        <time>2012-03-10T14:09:39Z</time>
      </trkpt>
      <trkpt lat="42.74657" lon="1.58654">
        <ele>1179.1940917969</ele>
        <time>2012-03-10T14:09:48Z</time>
      </trkpt>
      <trkpt lat="42.74665" lon="1.58648">
        <ele>1178.2329101562</ele>
        <time>2012-03-10T14:09:54Z</time>
      </trkpt>
      <trkpt lat="42.74673" lon="1.5864">
        <ele>1181.1171875</ele>
        <time>2012-03-10T14:10:00Z</time>
      </trkpt>
      <trkpt lat="42.74679" lon="1.58632">
        <ele>1185.4428710938</ele>
        <time>2012-03-10T14:10:05Z</time>
      </trkpt>
      <trkpt lat="42.74688" lon="1.58627">
        <ele>1183.0395507812</ele>
        <time>2012-03-10T14:10:10Z</time>
      </trkpt>
      <trkpt lat="42.74697" lon="1.58623">
        <ele>1180.1557617188</ele>
        <time>2012-03-10T14:10:16Z</time>
      </trkpt>
      <trkpt lat="42.74699" lon="1.58622">
        <ele>1179.1940917969</ele>
        <time>2012-03-10T14:10:17Z</time>
      </trkpt>
      <trkpt lat="42.74706" lon="1.5862">
        <ele>1177.2717285156</ele>
        <time>2012-03-10T14:10:21Z</time>
      </trkpt>
      <trkpt lat="42.74715" lon="1.58616">
        <ele>1175.8295898438</ele>
        <time>2012-03-10T14:10:27Z</time>
      </trkpt>
      <trkpt lat="42.74725" lon="1.58615">
        <ele>1172.4650878906</ele>
        <time>2012-03-10T14:10:33Z</time>
      </trkpt>
      <trkpt lat="42.7473" lon="1.58615">
        <ele>1171.984375</ele>
        <time>2012-03-10T14:10:36Z</time>
      </trkpt>
      <trkpt lat="42.7474" lon="1.58615">
        <ele>1171.5036621094</ele>
        <time>2012-03-10T14:10:43Z</time>
      </trkpt>
      <trkpt lat="42.74749" lon="1.58615">
        <ele>1171.984375</ele>
        <time>2012-03-10T14:10:50Z</time>
      </trkpt>
      <trkpt lat="42.74757" lon="1.58615">
        <ele>1171.984375</ele>
        <time>2012-03-10T14:10:57Z</time>
      </trkpt>
      <trkpt lat="42.74764" lon="1.58608">
        <ele>1170.0617675781</ele>
        <time>2012-03-10T14:11:04Z</time>
      </trkpt>
      <trkpt lat="42.74765" lon="1.58607">
        <ele>1169.5812988281</ele>
        <time>2012-03-10T14:11:05Z</time>
      </trkpt>
      <trkpt lat="42.74767" lon="1.58593">
        <ele>1167.6584472656</ele>
        <time>2012-03-10T14:11:13Z</time>
      </trkpt>
      <trkpt lat="42.74767" lon="1.5859">
        <ele>1168.1391601562</ele>
        <time>2012-03-10T14:11:18Z</time>
      </trkpt>
      <trkpt lat="42.74765" lon="1.58581">
        <ele>1170.5424804688</ele>
        <time>2012-03-10T14:11:25Z</time>
      </trkpt>
      <trkpt lat="42.74762" lon="1.58566">
        <ele>1171.0231933594</ele>
        <time>2012-03-10T14:11:34Z</time>
      </trkpt>
      <trkpt lat="42.7476" lon="1.58555">
        <ele>1171.984375</ele>
        <time>2012-03-10T14:11:40Z</time>
      </trkpt>
      <trkpt lat="42.74757" lon="1.58544">
        <ele>1173.9069824219</ele>
        <time>2012-03-10T14:11:45Z</time>
      </trkpt>
      <trkpt lat="42.74759" lon="1.58532">
        <ele>1173.4265136719</ele>
        <time>2012-03-10T14:11:52Z</time>
      </trkpt>
      <trkpt lat="42.74761" lon="1.58525">
        <ele>1172.4650878906</ele>
        <time>2012-03-10T14:11:56Z</time>
      </trkpt>
      <trkpt lat="42.74766" lon="1.58515">
        <ele>1172.4650878906</ele>
        <time>2012-03-10T14:12:01Z</time>
      </trkpt>
      <trkpt lat="42.7477" lon="1.58504">
        <ele>1172.9458007812</ele>
        <time>2012-03-10T14:12:07Z</time>
      </trkpt>
      <trkpt lat="42.74776" lon="1.58491">
        <ele>1171.984375</ele>
        <time>2012-03-10T14:12:15Z</time>
      </trkpt>
      <trkpt lat="42.74777" lon="1.58487">
        <ele>1171.984375</ele>
        <time>2012-03-10T14:12:17Z</time>
      </trkpt>
      <trkpt lat="42.74782" lon="1.58476">
        <ele>1170.5424804688</ele>
        <time>2012-03-10T14:12:24Z</time>
      </trkpt>
      <trkpt lat="42.74783" lon="1.58472">
        <ele>1170.5424804688</ele>
        <time>2012-03-10T14:12:26Z</time>
      </trkpt>
      <trkpt lat="42.74786" lon="1.58463">
        <ele>1171.0231933594</ele>
        <time>2012-03-10T14:12:31Z</time>
      </trkpt>
      <trkpt lat="42.74788" lon="1.58453">
        <ele>1171.0231933594</ele>
        <time>2012-03-10T14:12:36Z</time>
      </trkpt>
      <trkpt lat="42.74792" lon="1.58437">
        <ele>1170.5424804688</ele>
        <time>2012-03-10T14:12:44Z</time>
      </trkpt>
      <trkpt lat="42.74795" lon="1.58425">
        <ele>1168.6198730469</ele>
        <time>2012-03-10T14:12:50Z</time>
      </trkpt>
      <trkpt lat="42.74797" lon="1.58418">
        <ele>1167.1779785156</ele>
        <time>2012-03-10T14:12:54Z</time>
      </trkpt>
      <trkpt lat="42.748" lon="1.58408">
        <ele>1163.3325195312</ele>
        <time>2012-03-10T14:13:00Z</time>
      </trkpt>
      <trkpt lat="42.74802" lon="1.58399">
        <ele>1161.890625</ele>
        <time>2012-03-10T14:13:04Z</time>
      </trkpt>
      <trkpt lat="42.74803" lon="1.5839">
        <ele>1162.37109375</ele>
        <time>2012-03-10T14:13:09Z</time>
      </trkpt>
      <trkpt lat="42.74803" lon="1.5838">
        <ele>1161.4099121094</ele>
        <time>2012-03-10T14:13:14Z</time>
      </trkpt>
      <trkpt lat="42.74807" lon="1.58371">
        <ele>1159.9677734375</ele>
        <time>2012-03-10T14:13:20Z</time>
      </trkpt>
      <trkpt lat="42.74807" lon="1.58363">
        <ele>1159.9677734375</ele>
        <time>2012-03-10T14:13:24Z</time>
      </trkpt>
      <trkpt lat="42.74807" lon="1.58348">
        <ele>1159.4873046875</ele>
        <time>2012-03-10T14:13:32Z</time>
      </trkpt>
      <trkpt lat="42.74807" lon="1.58331">
        <ele>1160.4484863281</ele>
        <time>2012-03-10T14:13:40Z</time>
      </trkpt>
      <trkpt lat="42.74807" lon="1.58317">
        <ele>1161.4099121094</ele>
        <time>2012-03-10T14:13:47Z</time>
      </trkpt>
      <trkpt lat="42.74807" lon="1.58309">
        <ele>1159.0065917969</ele>
        <time>2012-03-10T14:13:52Z</time>
      </trkpt>
      <trkpt lat="42.74807" lon="1.58299">
        <ele>1159.4873046875</ele>
        <time>2012-03-10T14:13:57Z</time>
      </trkpt>
      <trkpt lat="42.74808" lon="1.58285">
        <ele>1158.5258789062</ele>
        <time>2012-03-10T14:14:04Z</time>
      </trkpt>
      <trkpt lat="42.74808" lon="1.58269">
        <ele>1158.5258789062</ele>
        <time>2012-03-10T14:14:12Z</time>
      </trkpt>
      <trkpt lat="42.74811" lon="1.58255">
        <ele>1156.6032714844</ele>
        <time>2012-03-10T14:14:19Z</time>
      </trkpt>
      <trkpt lat="42.74816" lon="1.58242">
        <ele>1154.6806640625</ele>
        <time>2012-03-10T14:14:27Z</time>
      </trkpt>
      <trkpt lat="42.7482" lon="1.58231">
        <ele>1153.2387695312</ele>
        <time>2012-03-10T14:14:34Z</time>
      </trkpt>
      <trkpt lat="42.74823" lon="1.58218">
        <ele>1152.7580566406</ele>
        <time>2012-03-10T14:14:42Z</time>
      </trkpt>
      <trkpt lat="42.74825" lon="1.58207">
        <ele>1153.2387695312</ele>
        <time>2012-03-10T14:14:48Z</time>
      </trkpt>
      <trkpt lat="42.74826" lon="1.58209">
        <ele>1152.27734375</ele>
        <time>2012-03-10T14:14:52Z</time>
      </trkpt>
      <trkpt lat="42.74826" lon="1.5821">
        <ele>1152.27734375</ele>
        <time>2012-03-10T14:14:53Z</time>
      </trkpt>
      <trkpt lat="42.74825" lon="1.58217">
        <ele>1152.7580566406</ele>
        <time>2012-03-10T14:14:59Z</time>
      </trkpt>
      <trkpt lat="42.74823" lon="1.58226">
        <ele>1149.8742675781</ele>
        <time>2012-03-10T14:15:05Z</time>
      </trkpt>
      <trkpt lat="42.74821" lon="1.58234">
        <ele>1149.3935546875</ele>
        <time>2012-03-10T14:15:11Z</time>
      </trkpt>
      <trkpt lat="42.74822" lon="1.58238">
        <ele>1148.9128417969</ele>
        <time>2012-03-10T14:15:14Z</time>
      </trkpt>
      <trkpt lat="42.74826" lon="1.5824">
        <ele>1149.3935546875</ele>
        <time>2012-03-10T14:15:21Z</time>
      </trkpt>
      <trkpt lat="42.74828" lon="1.58237">
        <ele>1149.8742675781</ele>
        <time>2012-03-10T14:15:27Z</time>
      </trkpt>
      <trkpt lat="42.7483" lon="1.58241">
        <ele>1151.3161621094</ele>
        <time>2012-03-10T14:15:32Z</time>
      </trkpt>
      <trkpt lat="42.74831" lon="1.58243">
        <ele>1152.7580566406</ele>
        <time>2012-03-10T14:15:38Z</time>
      </trkpt>
      <trkpt lat="42.74833" lon="1.58241">
        <ele>1153.7194824219</ele>
        <time>2012-03-10T14:15:42Z</time>
      </trkpt>
      <trkpt lat="42.74835" lon="1.58238">
        <ele>1153.7194824219</ele>
        <time>2012-03-10T14:15:47Z</time>
      </trkpt>
      <trkpt lat="42.74837" lon="1.58234">
        <ele>1154.6806640625</ele>
        <time>2012-03-10T14:15:52Z</time>
      </trkpt>
      <trkpt lat="42.7484" lon="1.58231">
        <ele>1154.2001953125</ele>
        <time>2012-03-10T14:15:57Z</time>
      </trkpt>
      <trkpt lat="42.74842" lon="1.5823">
        <ele>1153.7194824219</ele>
        <time>2012-03-10T14:16:02Z</time>
      </trkpt>
      <trkpt lat="42.74843" lon="1.5823">
        <ele>1153.7194824219</ele>
        <time>2012-03-10T14:16:08Z</time>
      </trkpt>
      <trkpt lat="42.74845" lon="1.58234">
        <ele>1153.7194824219</ele>
        <time>2012-03-10T14:16:14Z</time>
      </trkpt>
      <trkpt lat="42.74847" lon="1.58235">
        <ele>1153.7194824219</ele>
        <time>2012-03-10T14:16:21Z</time>
      </trkpt>
      <trkpt lat="42.74849" lon="1.58233">
        <ele>1154.2001953125</ele>
        <time>2012-03-10T14:16:27Z</time>
      </trkpt>
      <trkpt lat="42.7485" lon="1.5823">
        <ele>1154.6806640625</ele>
        <time>2012-03-10T14:16:34Z</time>
      </trkpt>
      <trkpt lat="42.74847" lon="1.58229">
        <ele>1155.1613769531</ele>
        <time>2012-03-10T14:16:54Z</time>
      </trkpt>
      <trkpt lat="42.74846" lon="1.58233">
        <ele>1156.6032714844</ele>
        <time>2012-03-10T14:17:00Z</time>
      </trkpt>
      <trkpt lat="42.74844" lon="1.58235">
        <ele>1159.0065917969</ele>
        <time>2012-03-10T14:17:06Z</time>
      </trkpt>
      <trkpt lat="42.74842" lon="1.58234">
        <ele>1157.5646972656</ele>
        <time>2012-03-10T14:17:13Z</time>
      </trkpt>
      <trkpt lat="42.74841" lon="1.58231">
        <ele>1156.1225585938</ele>
        <time>2012-03-10T14:17:21Z</time>
      </trkpt>
      <trkpt lat="42.74839" lon="1.58235">
        <ele>1154.6806640625</ele>
        <time>2012-03-10T14:17:29Z</time>
      </trkpt>
      <trkpt lat="42.74835" lon="1.5824">
        <ele>1153.7194824219</ele>
        <time>2012-03-10T14:17:34Z</time>
      </trkpt>
      <trkpt lat="42.74832" lon="1.58245">
        <ele>1154.2001953125</ele>
        <time>2012-03-10T14:17:41Z</time>
      </trkpt>
      <trkpt lat="42.7483" lon="1.58244">
        <ele>1153.2387695312</ele>
        <time>2012-03-10T14:17:46Z</time>
      </trkpt>
      <trkpt lat="42.74829" lon="1.58238">
        <ele>1151.796875</ele>
        <time>2012-03-10T14:17:53Z</time>
      </trkpt>
      <trkpt lat="42.74828" lon="1.58239">
        <ele>1151.3161621094</ele>
        <time>2012-03-10T14:17:59Z</time>
      </trkpt>
      <trkpt lat="42.74826" lon="1.5824">
        <ele>1149.3935546875</ele>
        <time>2012-03-10T14:18:04Z</time>
      </trkpt>
      <trkpt lat="42.74823" lon="1.58239">
        <ele>1146.5095214844</ele>
        <time>2012-03-10T14:18:10Z</time>
      </trkpt>
      <trkpt lat="42.74823" lon="1.58238">
        <ele>1146.0288085938</ele>
        <time>2012-03-10T14:18:11Z</time>
      </trkpt>
      <trkpt lat="42.74823" lon="1.58228">
        <ele>1147.470703125</ele>
        <time>2012-03-10T14:18:16Z</time>
      </trkpt>
      <trkpt lat="42.74825" lon="1.58217">
        <ele>1148.9128417969</ele>
        <time>2012-03-10T14:18:23Z</time>
      </trkpt>
      <trkpt lat="42.74823" lon="1.5821">
        <ele>1157.083984375</ele>
        <time>2012-03-10T14:18:28Z</time>
      </trkpt>
      <trkpt lat="42.74826" lon="1.58191">
        <ele>1158.5258789062</ele>
        <time>2012-03-10T14:18:38Z</time>
      </trkpt>
      <trkpt lat="42.74831" lon="1.58177">
        <ele>1155.6420898438</ele>
        <time>2012-03-10T14:18:47Z</time>
      </trkpt>
      <trkpt lat="42.74834" lon="1.58166">
        <ele>1154.6806640625</ele>
        <time>2012-03-10T14:18:54Z</time>
      </trkpt>
      <trkpt lat="42.74842" lon="1.5816">
        <ele>1151.3161621094</ele>
        <time>2012-03-10T14:19:01Z</time>
      </trkpt>
      <trkpt lat="42.74852" lon="1.58157">
        <ele>1148.9128417969</ele>
        <time>2012-03-10T14:19:08Z</time>
      </trkpt>
      <trkpt lat="42.74858" lon="1.58156">
        <ele>1148.9128417969</ele>
        <time>2012-03-10T14:19:12Z</time>
      </trkpt>
      <trkpt lat="42.74868" lon="1.58157">
        <ele>1147.9514160156</ele>
        <time>2012-03-10T14:19:19Z</time>
      </trkpt>
      <trkpt lat="42.74875" lon="1.58157">
        <ele>1146.9899902344</ele>
        <time>2012-03-10T14:19:25Z</time>
      </trkpt>
      <trkpt lat="42.74881" lon="1.58157">
        <ele>1145.0673828125</ele>
        <time>2012-03-10T14:19:29Z</time>
      </trkpt>
      <trkpt lat="42.74889" lon="1.58158">
        <ele>1140.2609863281</ele>
        <time>2012-03-10T14:19:35Z</time>
      </trkpt>
      <trkpt lat="42.74896" lon="1.58157">
        <ele>1139.7802734375</ele>
        <time>2012-03-10T14:19:40Z</time>
      </trkpt>
      <trkpt lat="42.74899" lon="1.58155">
        <ele>1140.7414550781</ele>
        <time>2012-03-10T14:19:42Z</time>
      </trkpt>
      <trkpt lat="42.74907" lon="1.58152">
        <ele>1142.6643066406</ele>
        <time>2012-03-10T14:19:47Z</time>
      </trkpt>
      <trkpt lat="42.74913" lon="1.5815">
        <ele>1142.6643066406</ele>
        <time>2012-03-10T14:19:51Z</time>
      </trkpt>
      <trkpt lat="42.74918" lon="1.58147">
        <ele>1142.6643066406</ele>
        <time>2012-03-10T14:19:55Z</time>
      </trkpt>
      <trkpt lat="42.74923" lon="1.58145">
        <ele>1141.7028808594</ele>
        <time>2012-03-10T14:19:58Z</time>
      </trkpt>
      <trkpt lat="42.74928" lon="1.58139">
        <ele>1144.5866699219</ele>
        <time>2012-03-10T14:20:03Z</time>
      </trkpt>
      <trkpt lat="42.74929" lon="1.58138">
        <ele>1144.5866699219</ele>
        <time>2012-03-10T14:20:04Z</time>
      </trkpt>
      <trkpt lat="42.74936" lon="1.58131">
        <ele>1144.5866699219</ele>
        <time>2012-03-10T14:20:10Z</time>
      </trkpt>
      <trkpt lat="42.74946" lon="1.58126">
        <ele>1142.18359375</ele>
        <time>2012-03-10T14:20:17Z</time>
      </trkpt>
      <trkpt lat="42.74955" lon="1.58122">
        <ele>1139.7802734375</ele>
        <time>2012-03-10T14:20:24Z</time>
      </trkpt>
      <trkpt lat="42.74958" lon="1.5812">
        <ele>1139.7802734375</ele>
        <time>2012-03-10T14:20:26Z</time>
      </trkpt>
      <trkpt lat="42.74965" lon="1.58115">
        <ele>1138.8190917969</ele>
        <time>2012-03-10T14:20:31Z</time>
      </trkpt>
      <trkpt lat="42.74971" lon="1.58109">
        <ele>1140.2609863281</ele>
        <time>2012-03-10T14:20:35Z</time>
      </trkpt>
      <trkpt lat="42.74976" lon="1.58104">
        <ele>1140.7414550781</ele>
        <time>2012-03-10T14:20:39Z</time>
      </trkpt>
      <trkpt lat="42.74983" lon="1.58091">
        <ele>1145.5480957031</ele>
        <time>2012-03-10T14:20:46Z</time>
      </trkpt>
      <trkpt lat="42.74987" lon="1.58084">
        <ele>1143.6254882812</ele>
        <time>2012-03-10T14:20:50Z</time>
      </trkpt>
      <trkpt lat="42.74988" lon="1.5808">
        <ele>1145.0673828125</ele>
        <time>2012-03-10T14:20:52Z</time>
      </trkpt>
      <trkpt lat="42.74991" lon="1.58069">
        <ele>1147.9514160156</ele>
        <time>2012-03-10T14:20:57Z</time>
      </trkpt>
      <trkpt lat="42.74989" lon="1.5806">
        <ele>1149.8742675781</ele>
        <time>2012-03-10T14:21:00Z</time>
      </trkpt>
      <trkpt lat="42.7499" lon="1.58058">
        <ele>1150.3549804688</ele>
        <time>2012-03-10T14:21:01Z</time>
      </trkpt>
      <trkpt lat="42.74995" lon="1.58051">
        <ele>1144.5866699219</ele>
        <time>2012-03-10T14:21:07Z</time>
      </trkpt>
      <trkpt lat="42.75" lon="1.58046">
        <ele>1141.2221679688</ele>
        <time>2012-03-10T14:21:11Z</time>
      </trkpt>
      <trkpt lat="42.75003" lon="1.58036">
        <ele>1140.2609863281</ele>
        <time>2012-03-10T14:21:16Z</time>
      </trkpt>
      <trkpt lat="42.75005" lon="1.58033">
        <ele>1138.3383789062</ele>
        <time>2012-03-10T14:21:18Z</time>
      </trkpt>
      <trkpt lat="42.75008" lon="1.58026">
        <ele>1134.4931640625</ele>
        <time>2012-03-10T14:21:23Z</time>
      </trkpt>
      <trkpt lat="42.75012" lon="1.58015">
        <ele>1131.1284179688</ele>
        <time>2012-03-10T14:21:27Z</time>
      </trkpt>
      <trkpt lat="42.75013" lon="1.58011">
        <ele>1129.6862792969</ele>
        <time>2012-03-10T14:21:28Z</time>
      </trkpt>
      <trkpt lat="42.75017" lon="1.57999">
        <ele>1125.3603515625</ele>
        <time>2012-03-10T14:21:34Z</time>
      </trkpt>
      <trkpt lat="42.75018" lon="1.57992">
        <ele>1124.8798828125</ele>
        <time>2012-03-10T14:21:37Z</time>
      </trkpt>
      <trkpt lat="42.75019" lon="1.57987">
        <ele>1124.8798828125</ele>
        <time>2012-03-10T14:21:39Z</time>
      </trkpt>
      <trkpt lat="42.7502" lon="1.57984">
        <ele>1125.8410644531</ele>
        <time>2012-03-10T14:21:41Z</time>
      </trkpt>
      <trkpt lat="42.75021" lon="1.57977">
        <ele>1124.3991699219</ele>
        <time>2012-03-10T14:21:44Z</time>
      </trkpt>
      <trkpt lat="42.75022" lon="1.57974">
        <ele>1123.4379882812</ele>
        <time>2012-03-10T14:21:46Z</time>
      </trkpt>
      <trkpt lat="42.75026" lon="1.57965">
        <ele>1120.5539550781</ele>
        <time>2012-03-10T14:21:52Z</time>
      </trkpt>
      <trkpt lat="42.75029" lon="1.5795">
        <ele>1123.9184570312</ele>
        <time>2012-03-10T14:21:58Z</time>
      </trkpt>
      <trkpt lat="42.7503" lon="1.57937">
        <ele>1126.8024902344</ele>
        <time>2012-03-10T14:22:03Z</time>
      </trkpt>
      <trkpt lat="42.75032" lon="1.57933">
        <ele>1127.283203125</ele>
        <time>2012-03-10T14:22:05Z</time>
      </trkpt>
      <trkpt lat="42.75032" lon="1.57922">
        <ele>1126.3217773438</ele>
        <time>2012-03-10T14:22:10Z</time>
      </trkpt>
      <trkpt lat="42.75035" lon="1.57915">
        <ele>1123.4379882812</ele>
        <time>2012-03-10T14:22:14Z</time>
      </trkpt>
      <trkpt lat="42.75035" lon="1.57912">
        <ele>1124.3991699219</ele>
        <time>2012-03-10T14:22:15Z</time>
      </trkpt>
      <trkpt lat="42.75037" lon="1.57899">
        <ele>1120.5539550781</ele>
        <time>2012-03-10T14:22:22Z</time>
      </trkpt>
      <trkpt lat="42.75037" lon="1.57887">
        <ele>1119.5927734375</ele>
        <time>2012-03-10T14:22:27Z</time>
      </trkpt>
      <trkpt lat="42.75037" lon="1.57877">
        <ele>1119.1120605469</ele>
        <time>2012-03-10T14:22:32Z</time>
      </trkpt>
      <trkpt lat="42.75038" lon="1.57867">
        <ele>1116.2280273438</ele>
        <time>2012-03-10T14:22:38Z</time>
      </trkpt>
      <trkpt lat="42.75037" lon="1.57864">
        <ele>1116.2280273438</ele>
        <time>2012-03-10T14:22:39Z</time>
      </trkpt>
      <trkpt lat="42.75037" lon="1.57853">
        <ele>1111.9020996094</ele>
        <time>2012-03-10T14:22:46Z</time>
      </trkpt>
      <trkpt lat="42.75036" lon="1.57842">
        <ele>1111.9020996094</ele>
        <time>2012-03-10T14:22:51Z</time>
      </trkpt>
      <trkpt lat="42.75035" lon="1.57835">
        <ele>1111.9020996094</ele>
        <time>2012-03-10T14:22:53Z</time>
      </trkpt>
      <trkpt lat="42.75035" lon="1.57825">
        <ele>1111.4213867188</ele>
        <time>2012-03-10T14:22:57Z</time>
      </trkpt>
      <trkpt lat="42.75036" lon="1.57806">
        <ele>1109.9792480469</ele>
        <time>2012-03-10T14:23:07Z</time>
      </trkpt>
      <trkpt lat="42.75036" lon="1.57804">
        <ele>1109.4987792969</ele>
        <time>2012-03-10T14:23:08Z</time>
      </trkpt>
      <trkpt lat="42.75036" lon="1.57796">
        <ele>1109.0180664062</ele>
        <time>2012-03-10T14:23:12Z</time>
      </trkpt>
      <trkpt lat="42.75034" lon="1.57784">
        <ele>1109.0180664062</ele>
        <time>2012-03-10T14:23:18Z</time>
      </trkpt>
      <trkpt lat="42.75035" lon="1.57773">
        <ele>1107.0954589844</ele>
        <time>2012-03-10T14:23:24Z</time>
      </trkpt>
      <trkpt lat="42.75035" lon="1.57762">
        <ele>1103.2502441406</ele>
        <time>2012-03-10T14:23:30Z</time>
      </trkpt>
      <trkpt lat="42.75036" lon="1.57758">
        <ele>1099.8854980469</ele>
        <time>2012-03-10T14:23:33Z</time>
      </trkpt>
      <trkpt lat="42.75037" lon="1.57753">
        <ele>1097.962890625</ele>
        <time>2012-03-10T14:23:36Z</time>
      </trkpt>
      <trkpt lat="42.75036" lon="1.57746">
        <ele>1098.443359375</ele>
        <time>2012-03-10T14:23:40Z</time>
      </trkpt>
      <trkpt lat="42.75035" lon="1.57737">
        <ele>1101.8083496094</ele>
        <time>2012-03-10T14:23:44Z</time>
      </trkpt>
      <trkpt lat="42.75033" lon="1.57723">
        <ele>1105.1728515625</ele>
        <time>2012-03-10T14:23:49Z</time>
      </trkpt>
      <trkpt lat="42.75031" lon="1.57713">
        <ele>1102.2888183594</ele>
        <time>2012-03-10T14:23:54Z</time>
      </trkpt>
      <trkpt lat="42.75029" lon="1.57703">
        <ele>1099.8854980469</ele>
        <time>2012-03-10T14:23:59Z</time>
      </trkpt>
      <trkpt lat="42.75029" lon="1.57692">
        <ele>1097.0014648438</ele>
        <time>2012-03-10T14:24:05Z</time>
      </trkpt>
      <trkpt lat="42.75032" lon="1.5768">
        <ele>1093.6369628906</ele>
        <time>2012-03-10T14:24:11Z</time>
      </trkpt>
      <trkpt lat="42.75039" lon="1.57668">
        <ele>1093.6369628906</ele>
        <time>2012-03-10T14:24:18Z</time>
      </trkpt>
      <trkpt lat="42.75043" lon="1.57658">
        <ele>1093.6369628906</ele>
        <time>2012-03-10T14:24:23Z</time>
      </trkpt>
      <trkpt lat="42.75048" lon="1.5765">
        <ele>1093.15625</ele>
        <time>2012-03-10T14:24:28Z</time>
      </trkpt>
      <trkpt lat="42.75056" lon="1.5764">
        <ele>1091.2336425781</ele>
        <time>2012-03-10T14:24:35Z</time>
      </trkpt>
      <trkpt lat="42.75062" lon="1.57634">
        <ele>1092.67578125</ele>
        <time>2012-03-10T14:24:40Z</time>
      </trkpt>
      <trkpt lat="42.75072" lon="1.57629">
        <ele>1094.5981445312</ele>
        <time>2012-03-10T14:24:47Z</time>
      </trkpt>
      <trkpt lat="42.7508" lon="1.5763">
        <ele>1094.1176757812</ele>
        <time>2012-03-10T14:24:52Z</time>
      </trkpt>
      <trkpt lat="42.75092" lon="1.57632">
        <ele>1091.7143554688</ele>
        <time>2012-03-10T14:24:59Z</time>
      </trkpt>
      <trkpt lat="42.75103" lon="1.57634">
        <ele>1089.7917480469</ele>
        <time>2012-03-10T14:25:06Z</time>
      </trkpt>
      <trkpt lat="42.75113" lon="1.57636">
        <ele>1087.3884277344</ele>
        <time>2012-03-10T14:25:13Z</time>
      </trkpt>
      <trkpt lat="42.75121" lon="1.57636">
        <ele>1088.3498535156</ele>
        <time>2012-03-10T14:25:17Z</time>
      </trkpt>
      <trkpt lat="42.75127" lon="1.57634">
        <ele>1088.8305664062</ele>
        <time>2012-03-10T14:25:22Z</time>
      </trkpt>
      <trkpt lat="42.75135" lon="1.57629">
        <ele>1089.3110351562</ele>
        <time>2012-03-10T14:25:27Z</time>
      </trkpt>
      <trkpt lat="42.75143" lon="1.57622">
        <ele>1093.15625</ele>
        <time>2012-03-10T14:25:33Z</time>
      </trkpt>
      <trkpt lat="42.75145" lon="1.57619">
        <ele>1094.5981445312</ele>
        <time>2012-03-10T14:25:35Z</time>
      </trkpt>
      <trkpt lat="42.7515" lon="1.57613">
        <ele>1096.5209960938</ele>
        <time>2012-03-10T14:25:40Z</time>
      </trkpt>
      <trkpt lat="42.75159" lon="1.57611">
        <ele>1096.5209960938</ele>
        <time>2012-03-10T14:25:44Z</time>
      </trkpt>
      <trkpt lat="42.75165" lon="1.57609">
        <ele>1093.15625</ele>
        <time>2012-03-10T14:25:48Z</time>
      </trkpt>
      <trkpt lat="42.75172" lon="1.57604">
        <ele>1092.1950683594</ele>
        <time>2012-03-10T14:25:55Z</time>
      </trkpt>
      <trkpt lat="42.75182" lon="1.57603">
        <ele>1087.3884277344</ele>
        <time>2012-03-10T14:26:02Z</time>
      </trkpt>
      <trkpt lat="42.7519" lon="1.57604">
        <ele>1084.5046386719</ele>
        <time>2012-03-10T14:26:08Z</time>
      </trkpt>
      <trkpt lat="42.75197" lon="1.57602">
        <ele>1083.54296875</ele>
        <time>2012-03-10T14:26:13Z</time>
      </trkpt>
      <trkpt lat="42.75207" lon="1.576">
        <ele>1085.4658203125</ele>
        <time>2012-03-10T14:26:19Z</time>
      </trkpt>
      <trkpt lat="42.75214" lon="1.57598">
        <ele>1084.9853515625</ele>
        <time>2012-03-10T14:26:24Z</time>
      </trkpt>
      <trkpt lat="42.75219" lon="1.57594">
        <ele>1089.3110351562</ele>
        <time>2012-03-10T14:26:29Z</time>
      </trkpt>
      <trkpt lat="42.75226" lon="1.57591">
        <ele>1090.2724609375</ele>
        <time>2012-03-10T14:26:34Z</time>
      </trkpt>
      <trkpt lat="42.75234" lon="1.5759">
        <ele>1090.7529296875</ele>
        <time>2012-03-10T14:26:39Z</time>
      </trkpt>
      <trkpt lat="42.75237" lon="1.57586">
        <ele>1092.1950683594</ele>
        <time>2012-03-10T14:26:43Z</time>
      </trkpt>
      <trkpt lat="42.7524" lon="1.57584">
        <ele>1092.1950683594</ele>
        <time>2012-03-10T14:26:45Z</time>
      </trkpt>
      <trkpt lat="42.75249" lon="1.57589">
        <ele>1086.4272460938</ele>
        <time>2012-03-10T14:26:49Z</time>
      </trkpt>
      <trkpt lat="42.75253" lon="1.57591">
        <ele>1084.5046386719</ele>
        <time>2012-03-10T14:26:51Z</time>
      </trkpt>
      <trkpt lat="42.75261" lon="1.57588">
        <ele>1080.6591796875</ele>
        <time>2012-03-10T14:26:57Z</time>
      </trkpt>
      <trkpt lat="42.7527" lon="1.57587">
        <ele>1079.2170410156</ele>
        <time>2012-03-10T14:27:03Z</time>
      </trkpt>
      <trkpt lat="42.75274" lon="1.57582">
        <ele>1076.8139648438</ele>
        <time>2012-03-10T14:27:07Z</time>
      </trkpt>
      <trkpt lat="42.75283" lon="1.57578">
        <ele>1073.4494628906</ele>
        <time>2012-03-10T14:27:13Z</time>
      </trkpt>
      <trkpt lat="42.75285" lon="1.57576">
        <ele>1073.4494628906</ele>
        <time>2012-03-10T14:27:15Z</time>
      </trkpt>
      <trkpt lat="42.75298" lon="1.57576">
        <ele>1071.0461425781</ele>
        <time>2012-03-10T14:27:24Z</time>
      </trkpt>
      <trkpt lat="42.75303" lon="1.57578">
        <ele>1070.5654296875</ele>
        <time>2012-03-10T14:27:27Z</time>
      </trkpt>
      <trkpt lat="42.75308" lon="1.57579">
        <ele>1070.0847167969</ele>
        <time>2012-03-10T14:27:32Z</time>
      </trkpt>
      <trkpt lat="42.75312" lon="1.57577">
        <ele>1072.4880371094</ele>
        <time>2012-03-10T14:27:36Z</time>
      </trkpt>
      <trkpt lat="42.75313" lon="1.57577">
        <ele>1073.4494628906</ele>
        <time>2012-03-10T14:27:37Z</time>
      </trkpt>
      <trkpt lat="42.75324" lon="1.57571">
        <ele>1074.8913574219</ele>
        <time>2012-03-10T14:27:44Z</time>
      </trkpt>
      <trkpt lat="42.75328" lon="1.57571">
        <ele>1073.9299316406</ele>
        <time>2012-03-10T14:27:46Z</time>
      </trkpt>
      <trkpt lat="42.75335" lon="1.57572">
        <ele>1072.4880371094</ele>
        <time>2012-03-10T14:27:50Z</time>
      </trkpt>
      <trkpt lat="42.75347" lon="1.57579">
        <ele>1070.0847167969</ele>
        <time>2012-03-10T14:27:57Z</time>
      </trkpt>
      <trkpt lat="42.75354" lon="1.57585">
        <ele>1067.6811523438</ele>
        <time>2012-03-10T14:28:02Z</time>
      </trkpt>
      <trkpt lat="42.75359" lon="1.57591">
        <ele>1069.1235351562</ele>
        <time>2012-03-10T14:28:07Z</time>
      </trkpt>
      <trkpt lat="42.75368" lon="1.57596">
        <ele>1072.4880371094</ele>
        <time>2012-03-10T14:28:13Z</time>
      </trkpt>
      <trkpt lat="42.7537" lon="1.57597">
        <ele>1072.4880371094</ele>
        <time>2012-03-10T14:28:14Z</time>
      </trkpt>
      <trkpt lat="42.7538" lon="1.57597">
        <ele>1071.5266113281</ele>
        <time>2012-03-10T14:28:20Z</time>
      </trkpt>
      <trkpt lat="42.75386" lon="1.57599">
        <ele>1071.0461425781</ele>
        <time>2012-03-10T14:28:25Z</time>
      </trkpt>
      <trkpt lat="42.75393" lon="1.57599">
        <ele>1072.4880371094</ele>
        <time>2012-03-10T14:28:29Z</time>
      </trkpt>
      <trkpt lat="42.75394" lon="1.57599">
        <ele>1072.96875</ele>
        <time>2012-03-10T14:28:30Z</time>
      </trkpt>
      <trkpt lat="42.75401" lon="1.57599">
        <ele>1070.5654296875</ele>
        <time>2012-03-10T14:28:35Z</time>
      </trkpt>
      <trkpt lat="42.75406" lon="1.57599">
        <ele>1070.0847167969</ele>
        <time>2012-03-10T14:28:38Z</time>
      </trkpt>
      <trkpt lat="42.75413" lon="1.57599">
        <ele>1068.162109375</ele>
        <time>2012-03-10T14:28:42Z</time>
      </trkpt>
      <trkpt lat="42.75416" lon="1.57599">
        <ele>1068.162109375</ele>
        <time>2012-03-10T14:28:44Z</time>
      </trkpt>
      <trkpt lat="42.75426" lon="1.57597">
        <ele>1066.7199707031</ele>
        <time>2012-03-10T14:28:51Z</time>
      </trkpt>
      <trkpt lat="42.75435" lon="1.57594">
        <ele>1064.7973632812</ele>
        <time>2012-03-10T14:28:57Z</time>
      </trkpt>
      <trkpt lat="42.75443" lon="1.57593">
        <ele>1062.3940429688</ele>
        <time>2012-03-10T14:29:03Z</time>
      </trkpt>
      <trkpt lat="42.75452" lon="1.57593">
        <ele>1059.5102539062</ele>
        <time>2012-03-10T14:29:09Z</time>
      </trkpt>
      <trkpt lat="42.75462" lon="1.57593">
        <ele>1058.068359375</ele>
        <time>2012-03-10T14:29:15Z</time>
      </trkpt>
      <trkpt lat="42.75471" lon="1.57593">
        <ele>1058.068359375</ele>
        <time>2012-03-10T14:29:21Z</time>
      </trkpt>
      <trkpt lat="42.75474" lon="1.57593">
        <ele>1058.068359375</ele>
        <time>2012-03-10T14:29:23Z</time>
      </trkpt>
      <trkpt lat="42.75483" lon="1.5759">
        <ele>1058.548828125</ele>
        <time>2012-03-10T14:29:29Z</time>
      </trkpt>
      <trkpt lat="42.75484" lon="1.5759">
        <ele>1059.0295410156</ele>
        <time>2012-03-10T14:29:30Z</time>
      </trkpt>
      <trkpt lat="42.75492" lon="1.57587">
        <ele>1058.068359375</ele>
        <time>2012-03-10T14:29:35Z</time>
      </trkpt>
      <trkpt lat="42.75499" lon="1.57584">
        <ele>1057.5876464844</ele>
        <time>2012-03-10T14:29:40Z</time>
      </trkpt>
      <trkpt lat="42.7551" lon="1.57582">
        <ele>1055.6650390625</ele>
        <time>2012-03-10T14:29:47Z</time>
      </trkpt>
      <trkpt lat="42.75515" lon="1.57582">
        <ele>1054.7036132812</ele>
        <time>2012-03-10T14:29:51Z</time>
      </trkpt>
      <trkpt lat="42.75528" lon="1.57579">
        <ele>1053.26171875</ele>
        <time>2012-03-10T14:29:59Z</time>
      </trkpt>
      <trkpt lat="42.75535" lon="1.57578">
        <ele>1052.7810058594</ele>
        <time>2012-03-10T14:30:04Z</time>
      </trkpt>
      <trkpt lat="42.75543" lon="1.57578">
        <ele>1051.8195800781</ele>
        <time>2012-03-10T14:30:09Z</time>
      </trkpt>
      <trkpt lat="42.75553" lon="1.57578">
        <ele>1050.3776855469</ele>
        <time>2012-03-10T14:30:16Z</time>
      </trkpt>
      <trkpt lat="42.75563" lon="1.57578">
        <ele>1047.9743652344</ele>
        <time>2012-03-10T14:30:22Z</time>
      </trkpt>
      <trkpt lat="42.75576" lon="1.57579">
        <ele>1046.0517578125</ele>
        <time>2012-03-10T14:30:29Z</time>
      </trkpt>
      <trkpt lat="42.75582" lon="1.5758">
        <ele>1045.0903320312</ele>
        <time>2012-03-10T14:30:34Z</time>
      </trkpt>
      <trkpt lat="42.75584" lon="1.5758">
        <ele>1045.0903320312</ele>
        <time>2012-03-10T14:30:35Z</time>
      </trkpt>
      <trkpt lat="42.75593" lon="1.57582">
        <ele>1046.5324707031</ele>
        <time>2012-03-10T14:30:41Z</time>
      </trkpt>
      <trkpt lat="42.75602" lon="1.57583">
        <ele>1045.0903320312</ele>
        <time>2012-03-10T14:30:47Z</time>
      </trkpt>
      <trkpt lat="42.75611" lon="1.57582">
        <ele>1042.6872558594</ele>
        <time>2012-03-10T14:30:53Z</time>
      </trkpt>
      <trkpt lat="42.75622" lon="1.57581">
        <ele>1040.7644042969</ele>
        <time>2012-03-10T14:31:00Z</time>
      </trkpt>
      <trkpt lat="42.75633" lon="1.5758">
        <ele>1039.8032226562</ele>
        <time>2012-03-10T14:31:07Z</time>
      </trkpt>
      <trkpt lat="42.75645" lon="1.57579">
        <ele>1037.3999023438</ele>
        <time>2012-03-10T14:31:15Z</time>
      </trkpt>
      <trkpt lat="42.75656" lon="1.57576">
        <ele>1035.4770507812</ele>
        <time>2012-03-10T14:31:22Z</time>
      </trkpt>
      <trkpt lat="42.75669" lon="1.57574">
        <ele>1034.03515625</ele>
        <time>2012-03-10T14:31:30Z</time>
      </trkpt>
      <trkpt lat="42.75678" lon="1.5758">
        <ele>1033.0737304688</ele>
        <time>2012-03-10T14:31:37Z</time>
      </trkpt>
      <trkpt lat="42.75685" lon="1.57587">
        <ele>1031.1513671875</ele>
        <time>2012-03-10T14:31:42Z</time>
      </trkpt>
      <trkpt lat="42.75692" lon="1.57591">
        <ele>1029.228515625</ele>
        <time>2012-03-10T14:31:48Z</time>
      </trkpt>
      <trkpt lat="42.75697" lon="1.57594">
        <ele>1027.7866210938</ele>
        <time>2012-03-10T14:31:52Z</time>
      </trkpt>
      <trkpt lat="42.75698" lon="1.57595">
        <ele>1027.7866210938</ele>
        <time>2012-03-10T14:31:53Z</time>
      </trkpt>
      <trkpt lat="42.75705" lon="1.57599">
        <ele>1028.748046875</ele>
        <time>2012-03-10T14:31:57Z</time>
      </trkpt>
      <trkpt lat="42.75716" lon="1.57605">
        <ele>1029.7092285156</ele>
        <time>2012-03-10T14:32:04Z</time>
      </trkpt>
      <trkpt lat="42.75719" lon="1.57607">
        <ele>1030.1899414062</ele>
        <time>2012-03-10T14:32:06Z</time>
      </trkpt>
      <trkpt lat="42.75724" lon="1.57616">
        <ele>1030.1899414062</ele>
        <time>2012-03-10T14:32:11Z</time>
      </trkpt>
      <trkpt lat="42.75729" lon="1.57624">
        <ele>1029.7092285156</ele>
        <time>2012-03-10T14:32:16Z</time>
      </trkpt>
      <trkpt lat="42.75733" lon="1.57634">
        <ele>1027.3061523438</ele>
        <time>2012-03-10T14:32:22Z</time>
      </trkpt>
      <trkpt lat="42.75738" lon="1.57638">
        <ele>1026.8254394531</ele>
        <time>2012-03-10T14:32:26Z</time>
      </trkpt>
      <trkpt lat="42.75739" lon="1.57639">
        <ele>1026.8254394531</ele>
        <time>2012-03-10T14:32:27Z</time>
      </trkpt>
      <trkpt lat="42.75746" lon="1.57644">
        <ele>1024.9028320312</ele>
        <time>2012-03-10T14:32:33Z</time>
      </trkpt>
      <trkpt lat="42.7575" lon="1.57645">
        <ele>1024.4221191406</ele>
        <time>2012-03-10T14:32:37Z</time>
      </trkpt>
      <trkpt lat="42.75755" lon="1.57646">
        <ele>1024.9028320312</ele>
        <time>2012-03-10T14:32:41Z</time>
      </trkpt>
      <trkpt lat="42.75755" lon="1.57647">
        <ele>1024.4221191406</ele>
        <time>2012-03-10T14:32:42Z</time>
      </trkpt>
      <trkpt lat="42.75763" lon="1.57651">
        <ele>1022.9802246094</ele>
        <time>2012-03-10T14:32:48Z</time>
      </trkpt>
      <trkpt lat="42.75764" lon="1.57653">
        <ele>1023.4609375</ele>
        <time>2012-03-10T14:32:50Z</time>
      </trkpt>
      <trkpt lat="42.75774" lon="1.57658">
        <ele>1023.4609375</ele>
        <time>2012-03-10T14:32:58Z</time>
      </trkpt>
      <trkpt lat="42.75781" lon="1.57662">
        <ele>1022.9802246094</ele>
        <time>2012-03-10T14:33:03Z</time>
      </trkpt>
      <trkpt lat="42.75782" lon="1.57661">
        <ele>1023.4609375</ele>
        <time>2012-03-10T14:33:04Z</time>
      </trkpt>
      <trkpt lat="42.75791" lon="1.57657">
        <ele>1021.5380859375</ele>
        <time>2012-03-10T14:33:11Z</time>
      </trkpt>
      <trkpt lat="42.75792" lon="1.57655">
        <ele>1021.5380859375</ele>
        <time>2012-03-10T14:33:12Z</time>
      </trkpt>
      <trkpt lat="42.75803" lon="1.57643">
        <ele>1022.0187988281</ele>
        <time>2012-03-10T14:33:20Z</time>
      </trkpt>
      <trkpt lat="42.75812" lon="1.57632">
        <ele>1024.4221191406</ele>
        <time>2012-03-10T14:33:28Z</time>
      </trkpt>
      <trkpt lat="42.75813" lon="1.5763">
        <ele>1024.4221191406</ele>
        <time>2012-03-10T14:33:29Z</time>
      </trkpt>
      <trkpt lat="42.75814" lon="1.57613">
        <ele>1035.4770507812</ele>
        <time>2012-03-10T14:33:36Z</time>
      </trkpt>
      <trkpt lat="42.75814" lon="1.57607">
        <ele>1041.2451171875</ele>
        <time>2012-03-10T14:33:38Z</time>
      </trkpt>
      <trkpt lat="42.75814" lon="1.57596">
        <ele>1045.0903320312</ele>
        <time>2012-03-10T14:33:42Z</time>
      </trkpt>
      <trkpt lat="42.75816" lon="1.57593">
        <ele>1046.0517578125</ele>
        <time>2012-03-10T14:33:44Z</time>
      </trkpt>
      <trkpt lat="42.75827" lon="1.57588">
        <ele>1038.361328125</ele>
        <time>2012-03-10T14:33:51Z</time>
      </trkpt>
      <trkpt lat="42.75834" lon="1.57576">
        <ele>1035.9577636719</ele>
        <time>2012-03-10T14:33:58Z</time>
      </trkpt>
      <trkpt lat="42.75839" lon="1.57572">
        <ele>1034.03515625</ele>
        <time>2012-03-10T14:34:02Z</time>
      </trkpt>
      <trkpt lat="42.75848" lon="1.57561">
        <ele>1029.7092285156</ele>
        <time>2012-03-10T14:34:10Z</time>
      </trkpt>
      <trkpt lat="42.7585" lon="1.57552">
        <ele>1033.5544433594</ele>
        <time>2012-03-10T14:34:14Z</time>
      </trkpt>
      <trkpt lat="42.75856" lon="1.5754">
        <ele>1033.0737304688</ele>
        <time>2012-03-10T14:34:21Z</time>
      </trkpt>
      <trkpt lat="42.75861" lon="1.57534">
        <ele>1029.7092285156</ele>
        <time>2012-03-10T14:34:26Z</time>
      </trkpt>
      <trkpt lat="42.75863" lon="1.57526">
        <ele>1033.0737304688</ele>
        <time>2012-03-10T14:34:30Z</time>
      </trkpt>
      <trkpt lat="42.75868" lon="1.57513">
        <ele>1034.03515625</ele>
        <time>2012-03-10T14:34:38Z</time>
      </trkpt>
      <trkpt lat="42.75874" lon="1.57509">
        <ele>1028.2673339844</ele>
        <time>2012-03-10T14:34:44Z</time>
      </trkpt>
      <trkpt lat="42.75878" lon="1.5751">
        <ele>1022.9802246094</ele>
        <time>2012-03-10T14:34:51Z</time>
      </trkpt>
      <trkpt lat="42.75881" lon="1.57507">
        <ele>1021.0576171875</ele>
        <time>2012-03-10T14:34:57Z</time>
      </trkpt>
      <trkpt lat="42.75885" lon="1.57493">
        <ele>1027.7866210938</ele>
        <time>2012-03-10T14:35:04Z</time>
      </trkpt>
      <trkpt lat="42.75887" lon="1.57483">
        <ele>1032.5932617188</ele>
        <time>2012-03-10T14:35:09Z</time>
      </trkpt>
      <trkpt lat="42.75889" lon="1.5748">
        <ele>1032.1125488281</ele>
        <time>2012-03-10T14:35:11Z</time>
      </trkpt>
      <trkpt lat="42.75894" lon="1.57468">
        <ele>1035.4770507812</ele>
        <time>2012-03-10T14:35:18Z</time>
      </trkpt>
      <trkpt lat="42.759" lon="1.5746">
        <ele>1032.5932617188</ele>
        <time>2012-03-10T14:35:24Z</time>
      </trkpt>
      <trkpt lat="42.75909" lon="1.57451">
        <ele>1030.1899414062</ele>
        <time>2012-03-10T14:35:31Z</time>
      </trkpt>
      <trkpt lat="42.75914" lon="1.57438">
        <ele>1034.9965820312</ele>
        <time>2012-03-10T14:35:37Z</time>
      </trkpt>
      <trkpt lat="42.75924" lon="1.57432">
        <ele>1031.6318359375</ele>
        <time>2012-03-10T14:35:45Z</time>
      </trkpt>
      <trkpt lat="42.75928" lon="1.5743">
        <ele>1029.228515625</ele>
        <time>2012-03-10T14:35:48Z</time>
      </trkpt>
      <trkpt lat="42.75933" lon="1.57427">
        <ele>1028.2673339844</ele>
        <time>2012-03-10T14:35:52Z</time>
      </trkpt>
      <trkpt lat="42.75941" lon="1.57424">
        <ele>1024.9028320312</ele>
        <time>2012-03-10T14:35:58Z</time>
      </trkpt>
      <trkpt lat="42.75954" lon="1.57423">
        <ele>1021.5380859375</ele>
        <time>2012-03-10T14:36:05Z</time>
      </trkpt>
      <trkpt lat="42.75963" lon="1.57424">
        <ele>1018.6540527344</ele>
        <time>2012-03-10T14:36:11Z</time>
      </trkpt>
      <trkpt lat="42.75965" lon="1.57424">
        <ele>1017.6926269531</ele>
        <time>2012-03-10T14:36:13Z</time>
      </trkpt>
      <trkpt lat="42.75975" lon="1.57424">
        <ele>1017.2121582031</ele>
        <time>2012-03-10T14:36:20Z</time>
      </trkpt>
      <trkpt lat="42.75979" lon="1.57424">
        <ele>1018.6540527344</ele>
        <time>2012-03-10T14:36:23Z</time>
      </trkpt>
      <trkpt lat="42.75989" lon="1.57422">
        <ele>1017.2121582031</ele>
        <time>2012-03-10T14:36:29Z</time>
      </trkpt>
      <trkpt lat="42.75993" lon="1.57422">
        <ele>1016.7314453125</ele>
        <time>2012-03-10T14:36:33Z</time>
      </trkpt>
      <trkpt lat="42.75994" lon="1.57422">
        <ele>1016.2507324219</ele>
        <time>2012-03-10T14:36:34Z</time>
      </trkpt>
      <trkpt lat="42.76002" lon="1.57429">
        <ele>1008.5603027344</ele>
        <time>2012-03-10T14:36:40Z</time>
      </trkpt>
      <trkpt lat="42.76005" lon="1.57427">
        <ele>1001.3503417969</ele>
        <time>2012-03-10T14:36:46Z</time>
      </trkpt>
      <trkpt lat="42.76009" lon="1.57424">
        <ele>999.427734375</ele>
        <time>2012-03-10T14:36:52Z</time>
      </trkpt>
      <trkpt lat="42.76013" lon="1.57421">
        <ele>999.427734375</ele>
        <time>2012-03-10T14:36:57Z</time>
      </trkpt>
      <trkpt lat="42.76017" lon="1.5742">
        <ele>1000.8696289062</ele>
        <time>2012-03-10T14:37:00Z</time>
      </trkpt>
      <trkpt lat="42.76028" lon="1.57413">
        <ele>1002.3115234375</ele>
        <time>2012-03-10T14:37:06Z</time>
      </trkpt>
      <trkpt lat="42.76037" lon="1.57409">
        <ele>1004.7150878906</ele>
        <time>2012-03-10T14:37:13Z</time>
      </trkpt>
      <trkpt lat="42.76046" lon="1.5741">
        <ele>1003.7536621094</ele>
        <time>2012-03-10T14:37:19Z</time>
      </trkpt>
      <trkpt lat="42.76056" lon="1.57415">
        <ele>1000.3891601562</ele>
        <time>2012-03-10T14:37:25Z</time>
      </trkpt>
      <trkpt lat="42.7606" lon="1.57418">
        <ele>998.94702148438</ele>
        <time>2012-03-10T14:37:28Z</time>
      </trkpt>
      <trkpt lat="42.76073" lon="1.57425">
        <ele>998.94702148438</ele>
        <time>2012-03-10T14:37:35Z</time>
      </trkpt>
      <trkpt lat="42.76079" lon="1.5743">
        <ele>998.94702148438</ele>
        <time>2012-03-10T14:37:40Z</time>
      </trkpt>
      <trkpt lat="42.76081" lon="1.57432">
        <ele>998.46630859375</ele>
        <time>2012-03-10T14:37:42Z</time>
      </trkpt>
      <trkpt lat="42.76086" lon="1.57438">
        <ele>996.5439453125</ele>
        <time>2012-03-10T14:37:48Z</time>
      </trkpt>
      <trkpt lat="42.76095" lon="1.57444">
        <ele>996.06323242188</ele>
        <time>2012-03-10T14:37:54Z</time>
      </trkpt>
      <trkpt lat="42.761" lon="1.57446">
        <ele>995.10180664062</ele>
        <time>2012-03-10T14:37:57Z</time>
      </trkpt>
      <trkpt lat="42.76107" lon="1.57451">
        <ele>993.65991210938</ele>
        <time>2012-03-10T14:38:02Z</time>
      </trkpt>
      <trkpt lat="42.76112" lon="1.57457">
        <ele>994.140625</ele>
        <time>2012-03-10T14:38:06Z</time>
      </trkpt>
      <trkpt lat="42.7612" lon="1.57466">
        <ele>993.17919921875</ele>
        <time>2012-03-10T14:38:13Z</time>
      </trkpt>
      <trkpt lat="42.76122" lon="1.57468">
        <ele>992.69873046875</ele>
        <time>2012-03-10T14:38:15Z</time>
      </trkpt>
      <trkpt lat="42.7613" lon="1.57477">
        <ele>995.58251953125</ele>
        <time>2012-03-10T14:38:21Z</time>
      </trkpt>
      <trkpt lat="42.76134" lon="1.57481">
        <ele>996.5439453125</ele>
        <time>2012-03-10T14:38:24Z</time>
      </trkpt>
      <trkpt lat="42.76139" lon="1.57488">
        <ele>994.62109375</ele>
        <time>2012-03-10T14:38:31Z</time>
      </trkpt>
      <trkpt lat="42.76141" lon="1.5749">
        <ele>997.0244140625</ele>
        <time>2012-03-10T14:38:37Z</time>
      </trkpt>
      <trkpt lat="42.76143" lon="1.5749">
        <ele>997.0244140625</ele>
        <time>2012-03-10T14:38:44Z</time>
      </trkpt>
      <trkpt lat="42.76145" lon="1.57491">
        <ele>996.5439453125</ele>
        <time>2012-03-10T14:38:53Z</time>
      </trkpt>
      <trkpt lat="42.76149" lon="1.57494">
        <ele>996.5439453125</ele>
        <time>2012-03-10T14:38:57Z</time>
      </trkpt>
      <trkpt lat="42.7615" lon="1.57494">
        <ele>997.98583984375</ele>
        <time>2012-03-10T14:38:59Z</time>
      </trkpt>
      <trkpt lat="42.76155" lon="1.575">
        <ele>994.62109375</ele>
        <time>2012-03-10T14:39:03Z</time>
      </trkpt>
      <trkpt lat="42.76161" lon="1.57503">
        <ele>992.69873046875</ele>
        <time>2012-03-10T14:39:08Z</time>
      </trkpt>
      <trkpt lat="42.76167" lon="1.57507">
        <ele>991.7373046875</ele>
        <time>2012-03-10T14:39:13Z</time>
      </trkpt>
      <trkpt lat="42.76173" lon="1.57511">
        <ele>993.17919921875</ele>
        <time>2012-03-10T14:39:19Z</time>
      </trkpt>
      <trkpt lat="42.7618" lon="1.57514">
        <ele>992.69873046875</ele>
        <time>2012-03-10T14:39:24Z</time>
      </trkpt>
      <trkpt lat="42.76188" lon="1.57518">
        <ele>989.333984375</ele>
        <time>2012-03-10T14:39:29Z</time>
      </trkpt>
      <trkpt lat="42.76194" lon="1.57523">
        <ele>983.56591796875</ele>
        <time>2012-03-10T14:39:34Z</time>
      </trkpt>
      <trkpt lat="42.76198" lon="1.57532">
        <ele>977.31762695312</ele>
        <time>2012-03-10T14:39:40Z</time>
      </trkpt>
      <trkpt lat="42.7621" lon="1.57538">
        <ele>977.79809570312</ele>
        <time>2012-03-10T14:39:46Z</time>
      </trkpt>
      <trkpt lat="42.7622" lon="1.57546">
        <ele>980.68212890625</ele>
        <time>2012-03-10T14:39:51Z</time>
      </trkpt>
      <trkpt lat="42.7623" lon="1.57561">
        <ele>988.37280273438</ele>
        <time>2012-03-10T14:39:59Z</time>
      </trkpt>
      <trkpt lat="42.7624" lon="1.57566">
        <ele>993.17919921875</ele>
        <time>2012-03-10T14:40:04Z</time>
      </trkpt>
      <trkpt lat="42.76242" lon="1.57567">
        <ele>990.29541015625</ele>
        <time>2012-03-10T14:40:07Z</time>
      </trkpt>
      <trkpt lat="42.76245" lon="1.57569">
        <ele>986.44995117188</ele>
        <time>2012-03-10T14:40:11Z</time>
      </trkpt>
      <trkpt lat="42.7625" lon="1.57564">
        <ele>991.25659179688</ele>
        <time>2012-03-10T14:40:17Z</time>
      </trkpt>
      <trkpt lat="42.7625" lon="1.57555">
        <ele>999.427734375</ele>
        <time>2012-03-10T14:40:22Z</time>
      </trkpt>
      <trkpt lat="42.7625" lon="1.57544">
        <ele>1010.4829101562</ele>
        <time>2012-03-10T14:40:28Z</time>
      </trkpt>
      <trkpt lat="42.76255" lon="1.5754">
        <ele>1008.0798339844</ele>
        <time>2012-03-10T14:40:32Z</time>
      </trkpt>
      <trkpt lat="42.76258" lon="1.57538">
        <ele>1008.0798339844</ele>
        <time>2012-03-10T14:40:34Z</time>
      </trkpt>
      <trkpt lat="42.76266" lon="1.57538">
        <ele>1003.2729492188</ele>
        <time>2012-03-10T14:40:39Z</time>
      </trkpt>
      <trkpt lat="42.76271" lon="1.57535">
        <ele>1004.7150878906</ele>
        <time>2012-03-10T14:40:43Z</time>
      </trkpt>
      <trkpt lat="42.76275" lon="1.57525">
        <ele>1010.9636230469</ele>
        <time>2012-03-10T14:40:49Z</time>
      </trkpt>
      <trkpt lat="42.76279" lon="1.57524">
        <ele>1008.5603027344</ele>
        <time>2012-03-10T14:40:51Z</time>
      </trkpt>
      <trkpt lat="42.76288" lon="1.5752">
        <ele>1005.1958007812</ele>
        <time>2012-03-10T14:40:56Z</time>
      </trkpt>
      <trkpt lat="42.76294" lon="1.57516">
        <ele>998.94702148438</ele>
        <time>2012-03-10T14:40:59Z</time>
      </trkpt>
      <trkpt lat="42.76299" lon="1.57513">
        <ele>997.50512695312</ele>
        <time>2012-03-10T14:41:03Z</time>
      </trkpt>
      <trkpt lat="42.76305" lon="1.57504">
        <ele>997.0244140625</ele>
        <time>2012-03-10T14:41:08Z</time>
      </trkpt>
      <trkpt lat="42.76308" lon="1.57499">
        <ele>997.50512695312</ele>
        <time>2012-03-10T14:41:11Z</time>
      </trkpt>
      <trkpt lat="42.76315" lon="1.57496">
        <ele>991.7373046875</ele>
        <time>2012-03-10T14:41:16Z</time>
      </trkpt>
      <trkpt lat="42.76325" lon="1.57487">
        <ele>985.00805664062</ele>
        <time>2012-03-10T14:41:24Z</time>
      </trkpt>
      <trkpt lat="42.76326" lon="1.57468">
        <ele>993.65991210938</ele>
        <time>2012-03-10T14:41:32Z</time>
      </trkpt>
      <trkpt lat="42.76327" lon="1.57457">
        <ele>998.46630859375</ele>
        <time>2012-03-10T14:41:37Z</time>
      </trkpt>
      <trkpt lat="42.76327" lon="1.57455">
        <ele>997.98583984375</ele>
        <time>2012-03-10T14:41:38Z</time>
      </trkpt>
      <trkpt lat="42.76336" lon="1.57444">
        <ele>989.333984375</ele>
        <time>2012-03-10T14:41:48Z</time>
      </trkpt>
      <trkpt lat="42.7634" lon="1.5744">
        <ele>983.56591796875</ele>
        <time>2012-03-10T14:41:51Z</time>
      </trkpt>
      <trkpt lat="42.76346" lon="1.57433">
        <ele>975.87548828125</ele>
        <time>2012-03-10T14:41:57Z</time>
      </trkpt>
      <trkpt lat="42.76353" lon="1.57424">
        <ele>969.14624023438</ele>
        <time>2012-03-10T14:42:04Z</time>
      </trkpt>
      <trkpt lat="42.76355" lon="1.57421">
        <ele>968.66552734375</ele>
        <time>2012-03-10T14:42:06Z</time>
      </trkpt>
      <trkpt lat="42.76359" lon="1.57412">
        <ele>964.33959960938</ele>
        <time>2012-03-10T14:42:12Z</time>
      </trkpt>
      <trkpt lat="42.76361" lon="1.57399">
        <ele>961.9365234375</ele>
        <time>2012-03-10T14:42:19Z</time>
      </trkpt>
      <trkpt lat="42.76361" lon="1.57395">
        <ele>960.49438476562</ele>
        <time>2012-03-10T14:42:26Z</time>
      </trkpt>
      <trkpt lat="42.76361" lon="1.5739">
        <ele>959.533203125</ele>
        <time>2012-03-10T14:42:31Z</time>
      </trkpt>
      <trkpt lat="42.76362" lon="1.57383">
        <ele>960.49438476562</ele>
        <time>2012-03-10T14:42:36Z</time>
      </trkpt>
      <trkpt lat="42.76362" lon="1.57376">
        <ele>961.9365234375</ele>
        <time>2012-03-10T14:42:40Z</time>
      </trkpt>
      <trkpt lat="42.76363" lon="1.57365">
        <ele>966.26220703125</ele>
        <time>2012-03-10T14:42:46Z</time>
      </trkpt>
      <trkpt lat="42.76365" lon="1.57353">
        <ele>967.2236328125</ele>
        <time>2012-03-10T14:42:53Z</time>
      </trkpt>
      <trkpt lat="42.76369" lon="1.57342">
        <ele>965.30102539062</ele>
        <time>2012-03-10T14:43:00Z</time>
      </trkpt>
      <trkpt lat="42.76374" lon="1.57334">
        <ele>962.89770507812</ele>
        <time>2012-03-10T14:43:06Z</time>
      </trkpt>
      <trkpt lat="42.76379" lon="1.57329">
        <ele>962.4169921875</ele>
        <time>2012-03-10T14:43:10Z</time>
      </trkpt>
      <trkpt lat="42.76384" lon="1.57323">
        <ele>962.89770507812</ele>
        <time>2012-03-10T14:43:15Z</time>
      </trkpt>
      <trkpt lat="42.76388" lon="1.5732">
        <ele>963.37841796875</ele>
        <time>2012-03-10T14:43:18Z</time>
      </trkpt>
      <trkpt lat="42.76394" lon="1.57309">
        <ele>968.66552734375</ele>
        <time>2012-03-10T14:43:24Z</time>
      </trkpt>
      <trkpt lat="42.764" lon="1.57303">
        <ele>971.54931640625</ele>
        <time>2012-03-10T14:43:30Z</time>
      </trkpt>
      <trkpt lat="42.7641" lon="1.573">
        <ele>967.2236328125</ele>
        <time>2012-03-10T14:43:37Z</time>
      </trkpt>
      <trkpt lat="42.76419" lon="1.57298">
        <ele>963.37841796875</ele>
        <time>2012-03-10T14:43:43Z</time>
      </trkpt>
      <trkpt lat="42.7642" lon="1.57298">
        <ele>962.89770507812</ele>
        <time>2012-03-10T14:43:44Z</time>
      </trkpt>
      <trkpt lat="42.76426" lon="1.57294">
        <ele>961.9365234375</ele>
        <time>2012-03-10T14:43:49Z</time>
      </trkpt>
      <trkpt lat="42.76434" lon="1.57287">
        <ele>959.533203125</ele>
        <time>2012-03-10T14:43:55Z</time>
      </trkpt>
      <trkpt lat="42.7644" lon="1.57281">
        <ele>958.57177734375</ele>
        <time>2012-03-10T14:44:00Z</time>
      </trkpt>
      <trkpt lat="42.76442" lon="1.57279">
        <ele>958.57177734375</ele>
        <time>2012-03-10T14:44:02Z</time>
      </trkpt>
      <trkpt lat="42.76445" lon="1.57274">
        <ele>958.57177734375</ele>
        <time>2012-03-10T14:44:06Z</time>
      </trkpt>
      <trkpt lat="42.76449" lon="1.5727">
        <ele>957.61059570312</ele>
        <time>2012-03-10T14:44:10Z</time>
      </trkpt>
      <trkpt lat="42.76454" lon="1.57266">
        <ele>955.68774414062</ele>
        <time>2012-03-10T14:44:14Z</time>
      </trkpt>
      <trkpt lat="42.7646" lon="1.57258">
        <ele>953.76513671875</ele>
        <time>2012-03-10T14:44:20Z</time>
      </trkpt>
      <trkpt lat="42.76464" lon="1.57253">
        <ele>952.32299804688</ele>
        <time>2012-03-10T14:44:24Z</time>
      </trkpt>
      <trkpt lat="42.76473" lon="1.57244">
        <ele>947.5166015625</ele>
        <time>2012-03-10T14:44:32Z</time>
      </trkpt>
      <trkpt lat="42.76475" lon="1.57241">
        <ele>946.55541992188</ele>
        <time>2012-03-10T14:44:34Z</time>
      </trkpt>
      <trkpt lat="42.76483" lon="1.57235">
        <ele>944.63256835938</ele>
        <time>2012-03-10T14:44:40Z</time>
      </trkpt>
      <trkpt lat="42.76487" lon="1.57233">
        <ele>944.63256835938</ele>
        <time>2012-03-10T14:44:43Z</time>
      </trkpt>
      <trkpt lat="42.76497" lon="1.57229">
        <ele>944.15209960938</ele>
        <time>2012-03-10T14:44:50Z</time>
      </trkpt>
      <trkpt lat="42.76503" lon="1.57229">
        <ele>944.15209960938</ele>
        <time>2012-03-10T14:44:53Z</time>
      </trkpt>
      <trkpt lat="42.76511" lon="1.57228">
        <ele>942.71020507812</ele>
        <time>2012-03-10T14:45:00Z</time>
      </trkpt>
      <trkpt lat="42.76516" lon="1.57228">
        <ele>943.67138671875</ele>
        <time>2012-03-10T14:45:04Z</time>
      </trkpt>
      <trkpt lat="42.76525" lon="1.57225">
        <ele>944.15209960938</ele>
        <time>2012-03-10T14:45:11Z</time>
      </trkpt>
      <trkpt lat="42.7653" lon="1.57222">
        <ele>944.63256835938</ele>
        <time>2012-03-10T14:45:16Z</time>
      </trkpt>
      <trkpt lat="42.76535" lon="1.57219">
        <ele>945.11328125</ele>
        <time>2012-03-10T14:45:19Z</time>
      </trkpt>
      <trkpt lat="42.76543" lon="1.57216">
        <ele>944.63256835938</ele>
        <time>2012-03-10T14:45:26Z</time>
      </trkpt>
      <trkpt lat="42.76548" lon="1.57214">
        <ele>946.07470703125</ele>
        <time>2012-03-10T14:45:30Z</time>
      </trkpt>
      <trkpt lat="42.76553" lon="1.57211">
        <ele>946.55541992188</ele>
        <time>2012-03-10T14:45:34Z</time>
      </trkpt>
      <trkpt lat="42.76556" lon="1.5721">
        <ele>946.55541992188</ele>
        <time>2012-03-10T14:45:36Z</time>
      </trkpt>
      <trkpt lat="42.76567" lon="1.57204">
        <ele>945.59399414062</ele>
        <time>2012-03-10T14:45:43Z</time>
      </trkpt>
      <trkpt lat="42.76575" lon="1.57199">
        <ele>945.11328125</ele>
        <time>2012-03-10T14:45:49Z</time>
      </trkpt>
      <trkpt lat="42.76577" lon="1.57199">
        <ele>945.11328125</ele>
        <time>2012-03-10T14:45:50Z</time>
      </trkpt>
      <trkpt lat="42.76585" lon="1.57196">
        <ele>943.19067382812</ele>
        <time>2012-03-10T14:45:56Z</time>
      </trkpt>
      <trkpt lat="42.76587" lon="1.57195">
        <ele>942.2294921875</ele>
        <time>2012-03-10T14:45:57Z</time>
      </trkpt>
      <trkpt lat="42.76593" lon="1.57193">
        <ele>940.78735351562</ele>
        <time>2012-03-10T14:46:02Z</time>
      </trkpt>
      <trkpt lat="42.76599" lon="1.57192">
        <ele>940.78735351562</ele>
        <time>2012-03-10T14:46:07Z</time>
      </trkpt>
      <trkpt lat="42.76604" lon="1.57196">
        <ele>939.82592773438</ele>
        <time>2012-03-10T14:46:12Z</time>
      </trkpt>
      <trkpt lat="42.76608" lon="1.57197">
        <ele>940.30688476562</ele>
        <time>2012-03-10T14:46:16Z</time>
      </trkpt>
      <trkpt lat="42.76614" lon="1.572">
        <ele>941.26806640625</ele>
        <time>2012-03-10T14:46:23Z</time>
      </trkpt>
      <trkpt lat="42.76619" lon="1.57202">
        <ele>941.26806640625</ele>
        <time>2012-03-10T14:46:28Z</time>
      </trkpt>
      <trkpt lat="42.76624" lon="1.57205">
        <ele>942.71020507812</ele>
        <time>2012-03-10T14:46:35Z</time>
      </trkpt>
      <trkpt lat="42.76628" lon="1.57208">
        <ele>945.11328125</ele>
        <time>2012-03-10T14:46:42Z</time>
      </trkpt>
      <trkpt lat="42.76633" lon="1.57212">
        <ele>945.11328125</ele>
        <time>2012-03-10T14:46:48Z</time>
      </trkpt>
      <trkpt lat="42.76636" lon="1.57214">
        <ele>945.59399414062</ele>
        <time>2012-03-10T14:46:52Z</time>
      </trkpt>
      <trkpt lat="42.76641" lon="1.57217">
        <ele>945.59399414062</ele>
        <time>2012-03-10T14:46:57Z</time>
      </trkpt>
      <trkpt lat="42.76649" lon="1.57219">
        <ele>946.55541992188</ele>
        <time>2012-03-10T14:47:04Z</time>
      </trkpt>
      <trkpt lat="42.76651" lon="1.57222">
        <ele>947.5166015625</ele>
        <time>2012-03-10T14:47:08Z</time>
      </trkpt>
      <trkpt lat="42.76654" lon="1.57226">
        <ele>948.47778320312</ele>
        <time>2012-03-10T14:47:16Z</time>
      </trkpt>
      <trkpt lat="42.76653" lon="1.57229">
        <ele>949.919921875</ele>
        <time>2012-03-10T14:47:21Z</time>
      </trkpt>
      <trkpt lat="42.76649" lon="1.57234">
        <ele>951.84252929688</ele>
        <time>2012-03-10T14:47:29Z</time>
      </trkpt>
      <trkpt lat="42.76649" lon="1.57238">
        <ele>952.8037109375</ele>
        <time>2012-03-10T14:47:36Z</time>
      </trkpt>
      <trkpt lat="42.76653" lon="1.57244">
        <ele>953.76513671875</ele>
        <time>2012-03-10T14:47:43Z</time>
      </trkpt>
      <trkpt lat="42.76656" lon="1.57248">
        <ele>953.76513671875</ele>
        <time>2012-03-10T14:47:49Z</time>
      </trkpt>
      <trkpt lat="42.76659" lon="1.57253">
        <ele>955.68774414062</ele>
        <time>2012-03-10T14:47:54Z</time>
      </trkpt>
      <trkpt lat="42.76662" lon="1.57259">
        <ele>957.61059570312</ele>
        <time>2012-03-10T14:48:00Z</time>
      </trkpt>
      <trkpt lat="42.76665" lon="1.57265">
        <ele>959.533203125</ele>
        <time>2012-03-10T14:48:07Z</time>
      </trkpt>
      <trkpt lat="42.76666" lon="1.57271">
        <ele>961.45581054688</ele>
        <time>2012-03-10T14:48:13Z</time>
      </trkpt>
      <trkpt lat="42.7667" lon="1.57276">
        <ele>960.013671875</ele>
        <time>2012-03-10T14:48:19Z</time>
      </trkpt>
      <trkpt lat="42.76672" lon="1.57284">
        <ele>958.09130859375</ele>
        <time>2012-03-10T14:48:25Z</time>
      </trkpt>
      <trkpt lat="42.76674" lon="1.57288">
        <ele>957.61059570312</ele>
        <time>2012-03-10T14:48:32Z</time>
      </trkpt>
      <trkpt lat="42.76677" lon="1.5729">
        <ele>961.45581054688</ele>
        <time>2012-03-10T14:48:37Z</time>
      </trkpt>
      <trkpt lat="42.76683" lon="1.57291">
        <ele>963.37841796875</ele>
        <time>2012-03-10T14:48:42Z</time>
      </trkpt>
      <trkpt lat="42.76685" lon="1.57291">
        <ele>963.37841796875</ele>
        <time>2012-03-10T14:48:43Z</time>
      </trkpt>
      <trkpt lat="42.76692" lon="1.57291">
        <ele>963.85888671875</ele>
        <time>2012-03-10T14:48:50Z</time>
      </trkpt>
      <trkpt lat="42.76699" lon="1.57292">
        <ele>963.85888671875</ele>
        <time>2012-03-10T14:48:55Z</time>
      </trkpt>
      <trkpt lat="42.76706" lon="1.57291">
        <ele>962.4169921875</ele>
        <time>2012-03-10T14:49:01Z</time>
      </trkpt>
      <trkpt lat="42.76711" lon="1.57291">
        <ele>961.9365234375</ele>
        <time>2012-03-10T14:49:04Z</time>
      </trkpt>
      <trkpt lat="42.76716" lon="1.57289">
        <ele>962.89770507812</ele>
        <time>2012-03-10T14:49:08Z</time>
      </trkpt>
      <trkpt lat="42.76722" lon="1.57289">
        <ele>963.85888671875</ele>
        <time>2012-03-10T14:49:12Z</time>
      </trkpt>
      <trkpt lat="42.76725" lon="1.57283">
        <ele>962.4169921875</ele>
        <time>2012-03-10T14:49:17Z</time>
      </trkpt>
      <trkpt lat="42.76727" lon="1.57279">
        <ele>962.89770507812</ele>
        <time>2012-03-10T14:49:20Z</time>
      </trkpt>
      <trkpt lat="42.76727" lon="1.57276">
        <ele>963.37841796875</ele>
        <time>2012-03-10T14:49:23Z</time>
      </trkpt>
      <trkpt lat="42.76728" lon="1.57273">
        <ele>960.49438476562</ele>
        <time>2012-03-10T14:49:30Z</time>
      </trkpt>
      <trkpt lat="42.76728" lon="1.57273">
        <ele>960.013671875</ele>
        <time>2012-03-10T14:49:31Z</time>
      </trkpt>
    </trkseg>
  </trk>
</gpx>